<?xml version='1.0' encoding='UTF-8'?><gpx version="1.1" creator="JPX - https://github.com/jenetics/jpx" xmlns="http://www.topografix.com/GPX/1/1"><trk><trkseg><trkpt lat="43.8558679" lon="10.7844033"><ele>16.0</ele><time>2026-04-07T13:27:04.046Z</time></trkpt><trkpt lat="43.8559051" lon="10.7843291"><ele>15.999999999999998</ele><time>2026-04-07T13:30:58.046Z</time></trkpt><trkpt lat="43.8558752" lon="10.7844065"><ele>16.0</ele><time>2026-04-07T13:31:57.046Z</time></trkpt><trkpt lat="43.855915" lon="10.7843304"><ele>16.0</ele><time>2026-04-07T13:35:07.046Z</time></trkpt><trkpt lat="43.8558439" lon="10.784332"><ele>15.999999999999998</ele><time>2026-04-07T13:35:16.046Z</time></trkpt><trkpt lat="43.8558077" lon="10.7844372"><ele>16.0</ele><time>2026-04-07T13:35:19.046Z</time></trkpt><trkpt lat="43.8558121" lon="10.7845567"><ele>16.0</ele><time>2026-04-07T13:35:21.046Z</time></trkpt><trkpt lat="43.8558159" lon="10.7846721"><ele>15.999999999999998</ele><time>2026-04-07T13:35:23.046Z</time></trkpt><trkpt lat="43.8558264" lon="10.7847873"><ele>16.0</ele><time>2026-04-07T13:35:25.046Z</time></trkpt><trkpt lat="43.8558456" lon="10.7849171"><ele>16.0</ele><time>2026-04-07T13:35:27.046Z</time></trkpt><trkpt lat="43.8558539" lon="10.785034"><ele>16.0</ele><time>2026-04-07T13:35:29.045Z</time></trkpt><trkpt lat="43.8558571" lon="10.7851367"><ele>15.999999999999998</ele><time>2026-04-07T13:35:31.046Z</time></trkpt><trkpt lat="43.8558564" lon="10.7852261"><ele>16.0</ele><time>2026-04-07T13:35:33.046Z</time></trkpt><trkpt lat="43.8558519" lon="10.7853203"><ele>16.333333333333332</ele><time>2026-04-07T13:35:36.046Z</time></trkpt><trkpt lat="43.8558531" lon="10.7854102"><ele>16.666666666666664</ele><time>2026-04-07T13:35:39.045Z</time></trkpt><trkpt lat="43.8557916" lon="10.7854705"><ele>17.0</ele><time>2026-04-07T13:35:47.046Z</time></trkpt><trkpt lat="43.855666" lon="10.7854442"><ele>17.333333333333332</ele><time>2026-04-07T13:35:49.046Z</time></trkpt><trkpt lat="43.855599" lon="10.785419"><ele>17.666666666666668</ele><time>2026-04-07T13:35:50.046Z</time></trkpt><trkpt lat="43.8555178" lon="10.7854001"><ele>18.0</ele><time>2026-04-07T13:35:51.046Z</time></trkpt><trkpt lat="43.855426" lon="10.7853813"><ele>18.0</ele><time>2026-04-07T13:35:52.046Z</time></trkpt><trkpt lat="43.8553245" lon="10.7853546"><ele>18.0</ele><time>2026-04-07T13:35:53.045Z</time></trkpt><trkpt lat="43.8552275" lon="10.7853312"><ele>18.0</ele><time>2026-04-07T13:35:54.046Z</time></trkpt><trkpt lat="43.8551298" lon="10.7853067"><ele>18.0</ele><time>2026-04-07T13:35:55.046Z</time></trkpt><trkpt lat="43.8550316" lon="10.785278"><ele>18.0</ele><time>2026-04-07T13:35:56.046Z</time></trkpt><trkpt lat="43.8549275" lon="10.785262"><ele>17.75</ele><time>2026-04-07T13:35:57.046Z</time></trkpt><trkpt lat="43.8548121" lon="10.7852383"><ele>17.5</ele><time>2026-04-07T13:35:58.045Z</time></trkpt><trkpt lat="43.8546892" lon="10.7852156"><ele>17.25</ele><time>2026-04-07T13:35:59.046Z</time></trkpt><trkpt lat="43.8545582" lon="10.7851949"><ele>17.0</ele><time>2026-04-07T13:36:00.045Z</time></trkpt><trkpt lat="43.8544204" lon="10.7851633"><ele>16.75</ele><time>2026-04-07T13:36:01.045Z</time></trkpt><trkpt lat="43.8542754" lon="10.7851334"><ele>16.5</ele><time>2026-04-07T13:36:02.046Z</time></trkpt><trkpt lat="43.8541357" lon="10.7851093"><ele>16.25</ele><time>2026-04-07T13:36:03.046Z</time></trkpt><trkpt lat="43.8539999" lon="10.7850853"><ele>16.0</ele><time>2026-04-07T13:36:04.045Z</time></trkpt><trkpt lat="43.8538583" lon="10.7850613"><ele>16.0</ele><time>2026-04-07T13:36:05.046Z</time></trkpt><trkpt lat="43.8537185" lon="10.7850289"><ele>16.0</ele><time>2026-04-07T13:36:06.046Z</time></trkpt><trkpt lat="43.853596" lon="10.7850016"><ele>16.0</ele><time>2026-04-07T13:36:07.046Z</time></trkpt><trkpt lat="43.8534748" lon="10.7849808"><ele>16.0</ele><time>2026-04-07T13:36:08.046Z</time></trkpt><trkpt lat="43.8533545" lon="10.7849556"><ele>15.666666666666666</ele><time>2026-04-07T13:36:09.046Z</time></trkpt><trkpt lat="43.8532626" lon="10.7849274"><ele>15.333333333333332</ele><time>2026-04-07T13:36:10.046Z</time></trkpt><trkpt lat="43.8531852" lon="10.7849019"><ele>15.0</ele><time>2026-04-07T13:36:11.046Z</time></trkpt><trkpt lat="43.8531226" lon="10.7848855"><ele>14.666666666666668</ele><time>2026-04-07T13:36:12.045Z</time></trkpt><trkpt lat="43.8530589" lon="10.7848659"><ele>14.333333333333334</ele><time>2026-04-07T13:36:13.046Z</time></trkpt><trkpt lat="43.8529941" lon="10.7848514"><ele>14.0</ele><time>2026-04-07T13:36:18.046Z</time></trkpt><trkpt lat="43.852914" lon="10.7849369"><ele>14.0</ele><time>2026-04-07T13:36:31.046Z</time></trkpt><trkpt lat="43.8528772" lon="10.7850276"><ele>13.999999999999998</ele><time>2026-04-07T13:36:32.046Z</time></trkpt><trkpt lat="43.8528465" lon="10.7851285"><ele>13.999999999999998</ele><time>2026-04-07T13:36:33.046Z</time></trkpt><trkpt lat="43.8528053" lon="10.78524"><ele>14.0</ele><time>2026-04-07T13:36:34.046Z</time></trkpt><trkpt lat="43.8527587" lon="10.7853751"><ele>14.0</ele><time>2026-04-07T13:36:35.046Z</time></trkpt><trkpt lat="43.85271" lon="10.7855229"><ele>14.25</ele><time>2026-04-07T13:36:36.046Z</time></trkpt><trkpt lat="43.8526619" lon="10.7856766"><ele>14.5</ele><time>2026-04-07T13:36:37.046Z</time></trkpt><trkpt lat="43.8526263" lon="10.7858318"><ele>14.75</ele><time>2026-04-07T13:36:38.046Z</time></trkpt><trkpt lat="43.8525869" lon="10.7860209"><ele>15.0</ele><time>2026-04-07T13:36:39.046Z</time></trkpt><trkpt lat="43.8525616" lon="10.7862164"><ele>15.666666666666668</ele><time>2026-04-07T13:36:40.046Z</time></trkpt><trkpt lat="43.8525346" lon="10.7864338"><ele>16.333333333333336</ele><time>2026-04-07T13:36:41.045Z</time></trkpt><trkpt lat="43.8525089" lon="10.7866544"><ele>17.0</ele><time>2026-04-07T13:36:42.046Z</time></trkpt><trkpt lat="43.8524874" lon="10.7868826"><ele>17.0</ele><time>2026-04-07T13:36:43.046Z</time></trkpt><trkpt lat="43.852465" lon="10.7871122"><ele>17.0</ele><time>2026-04-07T13:36:44.045Z</time></trkpt><trkpt lat="43.8524446" lon="10.7873548"><ele>17.0</ele><time>2026-04-07T13:36:45.046Z</time></trkpt><trkpt lat="43.8524207" lon="10.7876026"><ele>16.333333333333336</ele><time>2026-04-07T13:36:46.046Z</time></trkpt><trkpt lat="43.8523943" lon="10.7878618"><ele>15.666666666666668</ele><time>2026-04-07T13:36:47.045Z</time></trkpt><trkpt lat="43.8523657" lon="10.7881363"><ele>15.0</ele><time>2026-04-07T13:36:48.046Z</time></trkpt><trkpt lat="43.8523339" lon="10.7883961"><ele>15.333333333333332</ele><time>2026-04-07T13:36:49.045Z</time></trkpt><trkpt lat="43.8523072" lon="10.7886657"><ele>15.666666666666666</ele><time>2026-04-07T13:36:50.045Z</time></trkpt><trkpt lat="43.8522822" lon="10.7889276"><ele>16.0</ele><time>2026-04-07T13:36:51.044Z</time></trkpt><trkpt lat="43.8522579" lon="10.7891724"><ele>16.666666666666664</ele><time>2026-04-07T13:36:52.043Z</time></trkpt><trkpt lat="43.8522439" lon="10.7894107"><ele>17.333333333333332</ele><time>2026-04-07T13:36:53.045Z</time></trkpt><trkpt lat="43.8522161" lon="10.7896461"><ele>18.0</ele><time>2026-04-07T13:36:54.044Z</time></trkpt><trkpt lat="43.8521927" lon="10.7898789"><ele>18.0</ele><time>2026-04-07T13:36:55.044Z</time></trkpt><trkpt lat="43.8521808" lon="10.7900897"><ele>18.0</ele><time>2026-04-07T13:36:56.043Z</time></trkpt><trkpt lat="43.8521804" lon="10.7902804"><ele>18.0</ele><time>2026-04-07T13:36:57.043Z</time></trkpt><trkpt lat="43.8521778" lon="10.7904555"><ele>18.0</ele><time>2026-04-07T13:36:58.043Z</time></trkpt><trkpt lat="43.8521753" lon="10.7906096"><ele>18.0</ele><time>2026-04-07T13:36:59.044Z</time></trkpt><trkpt lat="43.8521674" lon="10.7907595"><ele>18.0</ele><time>2026-04-07T13:37:00.044Z</time></trkpt><trkpt lat="43.8521443" lon="10.7908707"><ele>18.0</ele><time>2026-04-07T13:37:01.044Z</time></trkpt><trkpt lat="43.8521087" lon="10.7909578"><ele>18.0</ele><time>2026-04-07T13:37:02.044Z</time></trkpt><trkpt lat="43.8520907" lon="10.7910559"><ele>18.0</ele><time>2026-04-07T13:37:03.044Z</time></trkpt><trkpt lat="43.852106" lon="10.7912141"><ele>17.8</ele><time>2026-04-07T13:37:05.044Z</time></trkpt><trkpt lat="43.852126" lon="10.7913322"><ele>17.6</ele><time>2026-04-07T13:37:06.044Z</time></trkpt><trkpt lat="43.852144" lon="10.7914725"><ele>17.4</ele><time>2026-04-07T13:37:07.044Z</time></trkpt><trkpt lat="43.8521539" lon="10.7916304"><ele>17.2</ele><time>2026-04-07T13:37:08.044Z</time></trkpt><trkpt lat="43.8521413" lon="10.7918222"><ele>17.0</ele><time>2026-04-07T13:37:09.044Z</time></trkpt><trkpt lat="43.8521302" lon="10.7920281"><ele>17.0</ele><time>2026-04-07T13:37:10.044Z</time></trkpt><trkpt lat="43.8521181" lon="10.7922443"><ele>17.0</ele><time>2026-04-07T13:37:11.044Z</time></trkpt><trkpt lat="43.8521063" lon="10.7924567"><ele>17.0</ele><time>2026-04-07T13:37:12.044Z</time></trkpt><trkpt lat="43.8521048" lon="10.7926865"><ele>17.0</ele><time>2026-04-07T13:37:13.044Z</time></trkpt><trkpt lat="43.8520973" lon="10.7929134"><ele>17.0</ele><time>2026-04-07T13:37:14.043Z</time></trkpt><trkpt lat="43.8520814" lon="10.7931628"><ele>17.0</ele><time>2026-04-07T13:37:15.044Z</time></trkpt><trkpt lat="43.8520681" lon="10.7934499"><ele>17.666666666666668</ele><time>2026-04-07T13:37:16.043Z</time></trkpt><trkpt lat="43.8520505" lon="10.7937392"><ele>18.333333333333332</ele><time>2026-04-07T13:37:17.044Z</time></trkpt><trkpt lat="43.8520399" lon="10.7940202"><ele>19.0</ele><time>2026-04-07T13:37:18.043Z</time></trkpt><trkpt lat="43.852034" lon="10.7942987"><ele>18.666666666666664</ele><time>2026-04-07T13:37:19.044Z</time></trkpt><trkpt lat="43.8520189" lon="10.7945751"><ele>18.333333333333332</ele><time>2026-04-07T13:37:20.044Z</time></trkpt><trkpt lat="43.8520043" lon="10.7948696"><ele>18.0</ele><time>2026-04-07T13:37:21.044Z</time></trkpt><trkpt lat="43.8519921" lon="10.7951747"><ele>17.666666666666668</ele><time>2026-04-07T13:37:22.044Z</time></trkpt><trkpt lat="43.8519765" lon="10.7954732"><ele>17.333333333333336</ele><time>2026-04-07T13:37:23.044Z</time></trkpt><trkpt lat="43.8519596" lon="10.7957807"><ele>17.0</ele><time>2026-04-07T13:37:24.044Z</time></trkpt><trkpt lat="43.8519404" lon="10.7960933"><ele>16.5</ele><time>2026-04-07T13:37:25.044Z</time></trkpt><trkpt lat="43.8519335" lon="10.7964347"><ele>16.0</ele><time>2026-04-07T13:37:26.044Z</time></trkpt><trkpt lat="43.8519151" lon="10.7967834"><ele>15.5</ele><time>2026-04-07T13:37:27.044Z</time></trkpt><trkpt lat="43.8518947" lon="10.7971503"><ele>15.0</ele><time>2026-04-07T13:37:28.043Z</time></trkpt><trkpt lat="43.8518727" lon="10.7975098"><ele>15.0</ele><time>2026-04-07T13:37:29.044Z</time></trkpt><trkpt lat="43.8518557" lon="10.7978548"><ele>15.0</ele><time>2026-04-07T13:37:30.043Z</time></trkpt><trkpt lat="43.8518403" lon="10.798194"><ele>15.0</ele><time>2026-04-07T13:37:31.044Z</time></trkpt><trkpt lat="43.8518092" lon="10.7985336"><ele>15.0</ele><time>2026-04-07T13:37:32.044Z</time></trkpt><trkpt lat="43.8517794" lon="10.7988793"><ele>15.0</ele><time>2026-04-07T13:37:33.044Z</time></trkpt><trkpt lat="43.851739" lon="10.7992177"><ele>15.0</ele><time>2026-04-07T13:37:34.044Z</time></trkpt><trkpt lat="43.8516869" lon="10.7995297"><ele>15.0</ele><time>2026-04-07T13:37:35.044Z</time></trkpt><trkpt lat="43.8516405" lon="10.799822"><ele>15.0</ele><time>2026-04-07T13:37:36.043Z</time></trkpt><trkpt lat="43.8516047" lon="10.8000861"><ele>15.0</ele><time>2026-04-07T13:37:37.043Z</time></trkpt><trkpt lat="43.8515639" lon="10.8003156"><ele>15.25</ele><time>2026-04-07T13:37:38.044Z</time></trkpt><trkpt lat="43.8515344" lon="10.8005157"><ele>15.5</ele><time>2026-04-07T13:37:39.043Z</time></trkpt><trkpt lat="43.8514923" lon="10.8006885"><ele>15.75</ele><time>2026-04-07T13:37:40.044Z</time></trkpt><trkpt lat="43.8514433" lon="10.8008393"><ele>16.0</ele><time>2026-04-07T13:37:41.044Z</time></trkpt><trkpt lat="43.8513839" lon="10.8009585"><ele>15.8</ele><time>2026-04-07T13:37:42.044Z</time></trkpt><trkpt lat="43.85136" lon="10.8010715"><ele>15.600000000000001</ele><time>2026-04-07T13:37:43.044Z</time></trkpt><trkpt lat="43.8513446" lon="10.8011832"><ele>15.4</ele><time>2026-04-07T13:37:44.044Z</time></trkpt><trkpt lat="43.8513502" lon="10.8013247"><ele>15.2</ele><time>2026-04-07T13:37:45.044Z</time></trkpt><trkpt lat="43.8513283" lon="10.8014987"><ele>15.0</ele><time>2026-04-07T13:37:46.044Z</time></trkpt><trkpt lat="43.8512924" lon="10.8016967"><ele>15.0</ele><time>2026-04-07T13:37:47.044Z</time></trkpt><trkpt lat="43.8512423" lon="10.8019224"><ele>15.0</ele><time>2026-04-07T13:37:48.044Z</time></trkpt><trkpt lat="43.851193" lon="10.8021514"><ele>15.0</ele><time>2026-04-07T13:37:49.044Z</time></trkpt><trkpt lat="43.8511428" lon="10.8023799"><ele>15.0</ele><time>2026-04-07T13:37:50.044Z</time></trkpt><trkpt lat="43.8510834" lon="10.8026113"><ele>15.0</ele><time>2026-04-07T13:37:51.044Z</time></trkpt><trkpt lat="43.8510107" lon="10.8028744"><ele>15.0</ele><time>2026-04-07T13:37:52.044Z</time></trkpt><trkpt lat="43.8509377" lon="10.8031527"><ele>15.0</ele><time>2026-04-07T13:37:53.044Z</time></trkpt><trkpt lat="43.8508648" lon="10.803453"><ele>15.0</ele><time>2026-04-07T13:37:54.043Z</time></trkpt><trkpt lat="43.8507874" lon="10.8037631"><ele>15.0</ele><time>2026-04-07T13:37:55.043Z</time></trkpt><trkpt lat="43.8507051" lon="10.8040897"><ele>15.0</ele><time>2026-04-07T13:37:56.044Z</time></trkpt><trkpt lat="43.8506247" lon="10.8044137"><ele>15.0</ele><time>2026-04-07T13:37:57.044Z</time></trkpt><trkpt lat="43.8505457" lon="10.8047298"><ele>15.0</ele><time>2026-04-07T13:37:58.044Z</time></trkpt><trkpt lat="43.8504707" lon="10.8050544"><ele>15.5</ele><time>2026-04-07T13:37:59.044Z</time></trkpt><trkpt lat="43.8504099" lon="10.8053922"><ele>16.0</ele><time>2026-04-07T13:38:00.044Z</time></trkpt><trkpt lat="43.8503579" lon="10.8057402"><ele>16.5</ele><time>2026-04-07T13:38:01.044Z</time></trkpt><trkpt lat="43.8503167" lon="10.8060792"><ele>17.0</ele><time>2026-04-07T13:38:02.044Z</time></trkpt><trkpt lat="43.8502914" lon="10.8063803"><ele>17.0</ele><time>2026-04-07T13:38:03.044Z</time></trkpt><trkpt lat="43.8502744" lon="10.8066273"><ele>17.0</ele><time>2026-04-07T13:38:04.044Z</time></trkpt><trkpt lat="43.8502531" lon="10.8068297"><ele>17.0</ele><time>2026-04-07T13:38:05.044Z</time></trkpt><trkpt lat="43.8502293" lon="10.8070129"><ele>16.8</ele><time>2026-04-07T13:38:06.044Z</time></trkpt><trkpt lat="43.8501943" lon="10.8071415"><ele>16.6</ele><time>2026-04-07T13:38:07.044Z</time></trkpt><trkpt lat="43.8501478" lon="10.8072805"><ele>16.400000000000002</ele><time>2026-04-07T13:38:08.043Z</time></trkpt><trkpt lat="43.8501097" lon="10.8074293"><ele>16.2</ele><time>2026-04-07T13:38:09.043Z</time></trkpt><trkpt lat="43.8500649" lon="10.8075923"><ele>16.0</ele><time>2026-04-07T13:38:10.044Z</time></trkpt><trkpt lat="43.8499953" lon="10.807773"><ele>16.0</ele><time>2026-04-07T13:38:11.044Z</time></trkpt><trkpt lat="43.8499086" lon="10.8079645"><ele>16.0</ele><time>2026-04-07T13:38:12.044Z</time></trkpt><trkpt lat="43.8498133" lon="10.808172"><ele>16.0</ele><time>2026-04-07T13:38:13.044Z</time></trkpt><trkpt lat="43.8496938" lon="10.8083929"><ele>16.333333333333332</ele><time>2026-04-07T13:38:14.044Z</time></trkpt><trkpt lat="43.8495731" lon="10.808614"><ele>16.666666666666668</ele><time>2026-04-07T13:38:15.044Z</time></trkpt><trkpt lat="43.849439" lon="10.8088229"><ele>17.0</ele><time>2026-04-07T13:38:16.043Z</time></trkpt><trkpt lat="43.849311" lon="10.8090444"><ele>17.0</ele><time>2026-04-07T13:38:17.044Z</time></trkpt><trkpt lat="43.8491769" lon="10.8092914"><ele>17.0</ele><time>2026-04-07T13:38:18.043Z</time></trkpt><trkpt lat="43.8490357" lon="10.8095245"><ele>17.0</ele><time>2026-04-07T13:38:19.044Z</time></trkpt><trkpt lat="43.8488887" lon="10.8097581"><ele>17.0</ele><time>2026-04-07T13:38:20.044Z</time></trkpt><trkpt lat="43.8487614" lon="10.8099678"><ele>17.0</ele><time>2026-04-07T13:38:21.043Z</time></trkpt><trkpt lat="43.8486325" lon="10.8101739"><ele>17.0</ele><time>2026-04-07T13:38:22.043Z</time></trkpt><trkpt lat="43.8485167" lon="10.8103367"><ele>17.0</ele><time>2026-04-07T13:38:23.044Z</time></trkpt><trkpt lat="43.8483895" lon="10.8105186"><ele>17.0</ele><time>2026-04-07T13:38:24.044Z</time></trkpt><trkpt lat="43.8482603" lon="10.8106971"><ele>17.0</ele><time>2026-04-07T13:38:25.044Z</time></trkpt><trkpt lat="43.8481156" lon="10.8108967"><ele>17.0</ele><time>2026-04-07T13:38:26.044Z</time></trkpt><trkpt lat="43.8479502" lon="10.8110761"><ele>17.0</ele><time>2026-04-07T13:38:27.043Z</time></trkpt><trkpt lat="43.8477883" lon="10.811261"><ele>17.0</ele><time>2026-04-07T13:38:28.044Z</time></trkpt><trkpt lat="43.8476374" lon="10.8114259"><ele>16.666666666666668</ele><time>2026-04-07T13:38:29.044Z</time></trkpt><trkpt lat="43.8474973" lon="10.8115936"><ele>16.333333333333332</ele><time>2026-04-07T13:38:30.044Z</time></trkpt><trkpt lat="43.8473619" lon="10.8117413"><ele>16.0</ele><time>2026-04-07T13:38:31.044Z</time></trkpt><trkpt lat="43.8472147" lon="10.8119166"><ele>16.0</ele><time>2026-04-07T13:38:32.043Z</time></trkpt><trkpt lat="43.8470659" lon="10.8120946"><ele>16.0</ele><time>2026-04-07T13:38:33.044Z</time></trkpt><trkpt lat="43.8468882" lon="10.8122875"><ele>16.0</ele><time>2026-04-07T13:38:34.044Z</time></trkpt><trkpt lat="43.8467014" lon="10.8124851"><ele>15.5</ele><time>2026-04-07T13:38:35.044Z</time></trkpt><trkpt lat="43.8465082" lon="10.8126971"><ele>15.0</ele><time>2026-04-07T13:38:36.044Z</time></trkpt><trkpt lat="43.846323" lon="10.812926"><ele>15.0</ele><time>2026-04-07T13:38:37.044Z</time></trkpt><trkpt lat="43.8461263" lon="10.8131785"><ele>15.0</ele><time>2026-04-07T13:38:38.043Z</time></trkpt><trkpt lat="43.845923" lon="10.8134593"><ele>14.5</ele><time>2026-04-07T13:38:39.044Z</time></trkpt><trkpt lat="43.8457158" lon="10.8137559"><ele>14.0</ele><time>2026-04-07T13:38:40.043Z</time></trkpt><trkpt lat="43.8455153" lon="10.8140707"><ele>14.0</ele><time>2026-04-07T13:38:41.043Z</time></trkpt><trkpt lat="43.8453134" lon="10.8143846"><ele>14.0</ele><time>2026-04-07T13:38:42.043Z</time></trkpt><trkpt lat="43.8451288" lon="10.8146869"><ele>14.0</ele><time>2026-04-07T13:38:43.044Z</time></trkpt><trkpt lat="43.8449486" lon="10.8149759"><ele>14.0</ele><time>2026-04-07T13:38:44.044Z</time></trkpt><trkpt lat="43.8447808" lon="10.8152586"><ele>15.0</ele><time>2026-04-07T13:38:45.044Z</time></trkpt><trkpt lat="43.8446156" lon="10.8155089"><ele>16.0</ele><time>2026-04-07T13:38:46.044Z</time></trkpt><trkpt lat="43.844465" lon="10.8157345"><ele>16.0</ele><time>2026-04-07T13:38:47.044Z</time></trkpt><trkpt lat="43.8443198" lon="10.8159521"><ele>16.0</ele><time>2026-04-07T13:38:48.044Z</time></trkpt><trkpt lat="43.8441841" lon="10.8161601"><ele>16.0</ele><time>2026-04-07T13:38:49.044Z</time></trkpt><trkpt lat="43.8440459" lon="10.8163503"><ele>16.0</ele><time>2026-04-07T13:38:50.044Z</time></trkpt><trkpt lat="43.843914" lon="10.8165183"><ele>16.0</ele><time>2026-04-07T13:38:51.044Z</time></trkpt><trkpt lat="43.8437782" lon="10.8166998"><ele>16.0</ele><time>2026-04-07T13:38:52.044Z</time></trkpt><trkpt lat="43.8436228" lon="10.8168865"><ele>15.666666666666666</ele><time>2026-04-07T13:38:53.044Z</time></trkpt><trkpt lat="43.8434519" lon="10.8170787"><ele>15.333333333333332</ele><time>2026-04-07T13:38:54.044Z</time></trkpt><trkpt lat="43.8432745" lon="10.8172717"><ele>15.0</ele><time>2026-04-07T13:38:55.044Z</time></trkpt><trkpt lat="43.8430779" lon="10.8174714"><ele>16.0</ele><time>2026-04-07T13:38:56.043Z</time></trkpt><trkpt lat="43.8428791" lon="10.8176662"><ele>17.0</ele><time>2026-04-07T13:38:57.044Z</time></trkpt><trkpt lat="43.84269" lon="10.8178515"><ele>15.5</ele><time>2026-04-07T13:38:58.044Z</time></trkpt><trkpt lat="43.8425052" lon="10.8180304"><ele>14.0</ele><time>2026-04-07T13:38:59.044Z</time></trkpt><trkpt lat="43.8423218" lon="10.8182108"><ele>14.0</ele><time>2026-04-07T13:39:00.044Z</time></trkpt><trkpt lat="43.842134" lon="10.8183968"><ele>14.0</ele><time>2026-04-07T13:39:01.043Z</time></trkpt><trkpt lat="43.8419189" lon="10.8186075"><ele>14.5</ele><time>2026-04-07T13:39:02.044Z</time></trkpt><trkpt lat="43.8417005" lon="10.8187949"><ele>15.0</ele><time>2026-04-07T13:39:03.044Z</time></trkpt><trkpt lat="43.8414735" lon="10.8189836"><ele>15.0</ele><time>2026-04-07T13:39:04.044Z</time></trkpt><trkpt lat="43.8412456" lon="10.8191696"><ele>15.0</ele><time>2026-04-07T13:39:05.044Z</time></trkpt><trkpt lat="43.8410331" lon="10.8193532"><ele>15.666666666666668</ele><time>2026-04-07T13:39:06.044Z</time></trkpt><trkpt lat="43.8408305" lon="10.8195347"><ele>16.333333333333336</ele><time>2026-04-07T13:39:07.044Z</time></trkpt><trkpt lat="43.8406594" lon="10.8196839"><ele>17.0</ele><time>2026-04-07T13:39:08.044Z</time></trkpt><trkpt lat="43.8404887" lon="10.8198307"><ele>17.0</ele><time>2026-04-07T13:39:09.044Z</time></trkpt><trkpt lat="43.8403309" lon="10.8199666"><ele>17.0</ele><time>2026-04-07T13:39:10.044Z</time></trkpt><trkpt lat="43.8401837" lon="10.8200936"><ele>17.0</ele><time>2026-04-07T13:39:11.044Z</time></trkpt><trkpt lat="43.8400466" lon="10.8202141"><ele>17.25</ele><time>2026-04-07T13:39:12.043Z</time></trkpt><trkpt lat="43.8399302" lon="10.8203265"><ele>17.5</ele><time>2026-04-07T13:39:13.044Z</time></trkpt><trkpt lat="43.8398165" lon="10.8204271"><ele>17.75</ele><time>2026-04-07T13:39:14.044Z</time></trkpt><trkpt lat="43.8396961" lon="10.820524"><ele>18.0</ele><time>2026-04-07T13:39:15.043Z</time></trkpt><trkpt lat="43.8395866" lon="10.8206249"><ele>18.0</ele><time>2026-04-07T13:39:16.044Z</time></trkpt><trkpt lat="43.8394857" lon="10.8207159"><ele>18.0</ele><time>2026-04-07T13:39:17.043Z</time></trkpt><trkpt lat="43.8393959" lon="10.8207913"><ele>18.0</ele><time>2026-04-07T13:39:18.044Z</time></trkpt><trkpt lat="43.8393073" lon="10.8208738"><ele>18.0</ele><time>2026-04-07T13:39:19.044Z</time></trkpt><trkpt lat="43.8392361" lon="10.8209353"><ele>18.0</ele><time>2026-04-07T13:39:20.044Z</time></trkpt><trkpt lat="43.8391774" lon="10.8209861"><ele>17.8</ele><time>2026-04-07T13:39:21.043Z</time></trkpt><trkpt lat="43.8390819" lon="10.8210527"><ele>17.6</ele><time>2026-04-07T13:39:23.044Z</time></trkpt><trkpt lat="43.8389857" lon="10.8211276"><ele>17.4</ele><time>2026-04-07T13:39:25.044Z</time></trkpt><trkpt lat="43.8388838" lon="10.8211635"><ele>17.2</ele><time>2026-04-07T13:39:27.043Z</time></trkpt><trkpt lat="43.838795" lon="10.8211794"><ele>17.0</ele><time>2026-04-07T13:39:29.044Z</time></trkpt><trkpt lat="43.8387056" lon="10.8212105"><ele>17.0</ele><time>2026-04-07T13:39:31.044Z</time></trkpt><trkpt lat="43.8386582" lon="10.8212709"><ele>17.0</ele><time>2026-04-07T13:39:32.044Z</time></trkpt><trkpt lat="43.8386271" lon="10.8213676"><ele>17.0</ele><time>2026-04-07T13:39:33.044Z</time></trkpt><trkpt lat="43.8385884" lon="10.821466"><ele>17.0</ele><time>2026-04-07T13:39:34.044Z</time></trkpt><trkpt lat="43.8385356" lon="10.8215549"><ele>17.0</ele><time>2026-04-07T13:39:35.044Z</time></trkpt><trkpt lat="43.8384704" lon="10.8216483"><ele>17.0</ele><time>2026-04-07T13:39:36.044Z</time></trkpt><trkpt lat="43.8383909" lon="10.8217542"><ele>17.0</ele><time>2026-04-07T13:39:37.044Z</time></trkpt><trkpt lat="43.8383013" lon="10.8218684"><ele>17.0</ele><time>2026-04-07T13:39:38.044Z</time></trkpt><trkpt lat="43.838197" lon="10.8219863"><ele>17.0</ele><time>2026-04-07T13:39:39.043Z</time></trkpt><trkpt lat="43.8380972" lon="10.8221039"><ele>17.0</ele><time>2026-04-07T13:39:40.043Z</time></trkpt><trkpt lat="43.8379988" lon="10.8222183"><ele>17.0</ele><time>2026-04-07T13:39:41.044Z</time></trkpt><trkpt lat="43.8378916" lon="10.8223378"><ele>17.0</ele><time>2026-04-07T13:39:42.043Z</time></trkpt><trkpt lat="43.8377887" lon="10.8224565"><ele>17.0</ele><time>2026-04-07T13:39:43.043Z</time></trkpt><trkpt lat="43.8376699" lon="10.8226095"><ele>17.0</ele><time>2026-04-07T13:39:44.044Z</time></trkpt><trkpt lat="43.8375584" lon="10.8227578"><ele>17.0</ele><time>2026-04-07T13:39:45.044Z</time></trkpt><trkpt lat="43.8374542" lon="10.8228998"><ele>17.0</ele><time>2026-04-07T13:39:46.044Z</time></trkpt><trkpt lat="43.8373487" lon="10.8230568"><ele>17.0</ele><time>2026-04-07T13:39:47.044Z</time></trkpt><trkpt lat="43.8372419" lon="10.8232093"><ele>17.0</ele><time>2026-04-07T13:39:48.044Z</time></trkpt><trkpt lat="43.8371267" lon="10.8233949"><ele>17.0</ele><time>2026-04-07T13:39:49.043Z</time></trkpt><trkpt lat="43.8370137" lon="10.8235724"><ele>17.0</ele><time>2026-04-07T13:39:50.044Z</time></trkpt><trkpt lat="43.8369003" lon="10.8237549"><ele>17.0</ele><time>2026-04-07T13:39:51.044Z</time></trkpt><trkpt lat="43.8367937" lon="10.823951"><ele>17.0</ele><time>2026-04-07T13:39:52.043Z</time></trkpt><trkpt lat="43.8366855" lon="10.824137"><ele>17.0</ele><time>2026-04-07T13:39:53.043Z</time></trkpt><trkpt lat="43.8365649" lon="10.8243293"><ele>17.0</ele><time>2026-04-07T13:39:54.044Z</time></trkpt><trkpt lat="43.8364441" lon="10.8245221"><ele>17.0</ele><time>2026-04-07T13:39:55.044Z</time></trkpt><trkpt lat="43.8363234" lon="10.8247063"><ele>17.0</ele><time>2026-04-07T13:39:56.044Z</time></trkpt><trkpt lat="43.8362011" lon="10.8248935"><ele>17.0</ele><time>2026-04-07T13:39:57.043Z</time></trkpt><trkpt lat="43.8360743" lon="10.82508"><ele>17.0</ele><time>2026-04-07T13:39:58.043Z</time></trkpt><trkpt lat="43.8359538" lon="10.8252562"><ele>17.0</ele><time>2026-04-07T13:39:59.044Z</time></trkpt><trkpt lat="43.8358199" lon="10.825436"><ele>17.0</ele><time>2026-04-07T13:40:00.044Z</time></trkpt><trkpt lat="43.8356756" lon="10.8256152"><ele>17.0</ele><time>2026-04-07T13:40:01.043Z</time></trkpt><trkpt lat="43.8355348" lon="10.8257777"><ele>17.0</ele><time>2026-04-07T13:40:02.043Z</time></trkpt><trkpt lat="43.835395" lon="10.8259274"><ele>17.0</ele><time>2026-04-07T13:40:03.044Z</time></trkpt><trkpt lat="43.8352478" lon="10.8260791"><ele>17.0</ele><time>2026-04-07T13:40:04.044Z</time></trkpt><trkpt lat="43.8350969" lon="10.8262271"><ele>17.0</ele><time>2026-04-07T13:40:05.044Z</time></trkpt><trkpt lat="43.8349435" lon="10.8263688"><ele>17.0</ele><time>2026-04-07T13:40:06.044Z</time></trkpt><trkpt lat="43.8347888" lon="10.8265043"><ele>17.0</ele><time>2026-04-07T13:40:07.043Z</time></trkpt><trkpt lat="43.8346409" lon="10.8266284"><ele>17.0</ele><time>2026-04-07T13:40:08.044Z</time></trkpt><trkpt lat="43.8344856" lon="10.8267574"><ele>16.666666666666668</ele><time>2026-04-07T13:40:09.044Z</time></trkpt><trkpt lat="43.8343398" lon="10.8268638"><ele>16.333333333333332</ele><time>2026-04-07T13:40:10.044Z</time></trkpt><trkpt lat="43.8341838" lon="10.8269731"><ele>16.0</ele><time>2026-04-07T13:40:11.043Z</time></trkpt><trkpt lat="43.8340164" lon="10.827081"><ele>16.0</ele><time>2026-04-07T13:40:12.043Z</time></trkpt><trkpt lat="43.8338434" lon="10.8271896"><ele>16.0</ele><time>2026-04-07T13:40:13.044Z</time></trkpt><trkpt lat="43.8336648" lon="10.8272858"><ele>16.0</ele><time>2026-04-07T13:40:14.043Z</time></trkpt><trkpt lat="43.8334899" lon="10.8273776"><ele>16.0</ele><time>2026-04-07T13:40:15.044Z</time></trkpt><trkpt lat="43.8333114" lon="10.8274604"><ele>16.0</ele><time>2026-04-07T13:40:16.043Z</time></trkpt><trkpt lat="43.8331332" lon="10.827536"><ele>16.0</ele><time>2026-04-07T13:40:17.043Z</time></trkpt><trkpt lat="43.8329506" lon="10.8276048"><ele>16.0</ele><time>2026-04-07T13:40:18.044Z</time></trkpt><trkpt lat="43.8327594" lon="10.8276769"><ele>16.0</ele><time>2026-04-07T13:40:19.044Z</time></trkpt><trkpt lat="43.8325519" lon="10.8277559"><ele>16.0</ele><time>2026-04-07T13:40:20.043Z</time></trkpt><trkpt lat="43.8323182" lon="10.8278383"><ele>15.5</ele><time>2026-04-07T13:40:21.043Z</time></trkpt><trkpt lat="43.8320841" lon="10.8279142"><ele>15.0</ele><time>2026-04-07T13:40:22.044Z</time></trkpt><trkpt lat="43.8318794" lon="10.827976"><ele>16.0</ele><time>2026-04-07T13:40:23.044Z</time></trkpt><trkpt lat="43.831704" lon="10.8280245"><ele>17.0</ele><time>2026-04-07T13:40:24.043Z</time></trkpt><trkpt lat="43.8315564" lon="10.8280608"><ele>18.0</ele><time>2026-04-07T13:40:25.043Z</time></trkpt><trkpt lat="43.8314177" lon="10.8280891"><ele>18.0</ele><time>2026-04-07T13:40:26.043Z</time></trkpt><trkpt lat="43.831294" lon="10.8280965"><ele>18.0</ele><time>2026-04-07T13:40:27.044Z</time></trkpt><trkpt lat="43.831204" lon="10.8280887"><ele>18.0</ele><time>2026-04-07T13:40:28.044Z</time></trkpt><trkpt lat="43.8311248" lon="10.8280811"><ele>18.0</ele><time>2026-04-07T13:40:29.044Z</time></trkpt><trkpt lat="43.831055" lon="10.828099"><ele>18.0</ele><time>2026-04-07T13:40:30.044Z</time></trkpt><trkpt lat="43.8309996" lon="10.8281415"><ele>18.0</ele><time>2026-04-07T13:40:31.044Z</time></trkpt><trkpt lat="43.8309441" lon="10.8282275"><ele>17.6</ele><time>2026-04-07T13:40:32.044Z</time></trkpt><trkpt lat="43.8308956" lon="10.8283218"><ele>17.200000000000003</ele><time>2026-04-07T13:40:33.044Z</time></trkpt><trkpt lat="43.8308508" lon="10.8284407"><ele>16.8</ele><time>2026-04-07T13:40:34.044Z</time></trkpt><trkpt lat="43.8307701" lon="10.8285703"><ele>16.400000000000002</ele><time>2026-04-07T13:40:35.044Z</time></trkpt><trkpt lat="43.8306684" lon="10.8287111"><ele>16.0</ele><time>2026-04-07T13:40:36.044Z</time></trkpt><trkpt lat="43.8305444" lon="10.8288501"><ele>16.0</ele><time>2026-04-07T13:40:37.044Z</time></trkpt><trkpt lat="43.8304232" lon="10.8290035"><ele>16.0</ele><time>2026-04-07T13:40:38.043Z</time></trkpt><trkpt lat="43.8302943" lon="10.829165"><ele>16.0</ele><time>2026-04-07T13:40:39.043Z</time></trkpt><trkpt lat="43.830163" lon="10.82935"><ele>16.0</ele><time>2026-04-07T13:40:40.044Z</time></trkpt><trkpt lat="43.8300157" lon="10.8295668"><ele>16.0</ele><time>2026-04-07T13:40:41.043Z</time></trkpt><trkpt lat="43.8298627" lon="10.8297948"><ele>16.0</ele><time>2026-04-07T13:40:42.044Z</time></trkpt><trkpt lat="43.8297092" lon="10.8300368"><ele>15.666666666666666</ele><time>2026-04-07T13:40:43.044Z</time></trkpt><trkpt lat="43.8295667" lon="10.8302809"><ele>15.333333333333332</ele><time>2026-04-07T13:40:44.043Z</time></trkpt><trkpt lat="43.8294306" lon="10.830523"><ele>15.0</ele><time>2026-04-07T13:40:45.043Z</time></trkpt><trkpt lat="43.8293015" lon="10.8307811"><ele>15.0</ele><time>2026-04-07T13:40:46.044Z</time></trkpt><trkpt lat="43.8291772" lon="10.8310647"><ele>15.0</ele><time>2026-04-07T13:40:47.044Z</time></trkpt><trkpt lat="43.8290577" lon="10.83136"><ele>15.0</ele><time>2026-04-07T13:40:48.043Z</time></trkpt><trkpt lat="43.8289401" lon="10.8316688"><ele>15.0</ele><time>2026-04-07T13:40:49.044Z</time></trkpt><trkpt lat="43.8288619" lon="10.831959"><ele>15.666666666666668</ele><time>2026-04-07T13:40:50.044Z</time></trkpt><trkpt lat="43.8287654" lon="10.8322318"><ele>16.333333333333336</ele><time>2026-04-07T13:40:51.044Z</time></trkpt><trkpt lat="43.8286769" lon="10.8324966"><ele>17.0</ele><time>2026-04-07T13:40:52.044Z</time></trkpt><trkpt lat="43.8285976" lon="10.8327468"><ele>17.0</ele><time>2026-04-07T13:40:53.044Z</time></trkpt><trkpt lat="43.8285435" lon="10.8329851"><ele>17.0</ele><time>2026-04-07T13:40:54.044Z</time></trkpt><trkpt lat="43.8284887" lon="10.8332106"><ele>17.0</ele><time>2026-04-07T13:40:55.044Z</time></trkpt><trkpt lat="43.8284443" lon="10.8334284"><ele>17.0</ele><time>2026-04-07T13:40:56.044Z</time></trkpt><trkpt lat="43.8284007" lon="10.8336535"><ele>17.0</ele><time>2026-04-07T13:40:57.044Z</time></trkpt><trkpt lat="43.8283544" lon="10.8339013"><ele>17.0</ele><time>2026-04-07T13:40:58.043Z</time></trkpt><trkpt lat="43.8282991" lon="10.8341518"><ele>17.333333333333336</ele><time>2026-04-07T13:40:59.044Z</time></trkpt><trkpt lat="43.8282477" lon="10.8343822"><ele>17.666666666666668</ele><time>2026-04-07T13:41:00.043Z</time></trkpt><trkpt lat="43.8282079" lon="10.834605"><ele>18.0</ele><time>2026-04-07T13:41:01.044Z</time></trkpt><trkpt lat="43.8281742" lon="10.8348076"><ele>18.0</ele><time>2026-04-07T13:41:02.044Z</time></trkpt><trkpt lat="43.8281375" lon="10.8350073"><ele>18.0</ele><time>2026-04-07T13:41:03.044Z</time></trkpt><trkpt lat="43.8281044" lon="10.8352037"><ele>18.0</ele><time>2026-04-07T13:41:04.044Z</time></trkpt><trkpt lat="43.8280655" lon="10.835379"><ele>18.0</ele><time>2026-04-07T13:41:05.044Z</time></trkpt><trkpt lat="43.8280317" lon="10.8355461"><ele>18.0</ele><time>2026-04-07T13:41:06.043Z</time></trkpt><trkpt lat="43.8280094" lon="10.8356865"><ele>18.0</ele><time>2026-04-07T13:41:07.044Z</time></trkpt><trkpt lat="43.827987" lon="10.8358062"><ele>18.0</ele><time>2026-04-07T13:41:08.044Z</time></trkpt><trkpt lat="43.8279608" lon="10.8359173"><ele>18.0</ele><time>2026-04-07T13:41:09.044Z</time></trkpt><trkpt lat="43.8279344" lon="10.8360082"><ele>18.0</ele><time>2026-04-07T13:41:10.044Z</time></trkpt><trkpt lat="43.8278714" lon="10.8361543"><ele>18.0</ele><time>2026-04-07T13:41:12.043Z</time></trkpt><trkpt lat="43.8277862" lon="10.8362843"><ele>18.0</ele><time>2026-04-07T13:41:14.044Z</time></trkpt><trkpt lat="43.8277524" lon="10.8363586"><ele>18.0</ele><time>2026-04-07T13:41:15.044Z</time></trkpt><trkpt lat="43.8277197" lon="10.8364465"><ele>18.0</ele><time>2026-04-07T13:41:16.044Z</time></trkpt><trkpt lat="43.8276837" lon="10.836534"><ele>18.0</ele><time>2026-04-07T13:41:17.044Z</time></trkpt><trkpt lat="43.8276462" lon="10.8366246"><ele>18.0</ele><time>2026-04-07T13:41:18.044Z</time></trkpt><trkpt lat="43.8275947" lon="10.8367108"><ele>18.0</ele><time>2026-04-07T13:41:19.043Z</time></trkpt><trkpt lat="43.8275358" lon="10.8367894"><ele>18.0</ele><time>2026-04-07T13:41:20.044Z</time></trkpt><trkpt lat="43.8274646" lon="10.8368604"><ele>18.0</ele><time>2026-04-07T13:41:21.044Z</time></trkpt><trkpt lat="43.8273822" lon="10.8369335"><ele>18.0</ele><time>2026-04-07T13:41:22.043Z</time></trkpt><trkpt lat="43.8272781" lon="10.8370054"><ele>18.0</ele><time>2026-04-07T13:41:23.043Z</time></trkpt><trkpt lat="43.8271372" lon="10.8370883"><ele>18.0</ele><time>2026-04-07T13:41:24.044Z</time></trkpt><trkpt lat="43.8269703" lon="10.8371708"><ele>18.0</ele><time>2026-04-07T13:41:25.044Z</time></trkpt><trkpt lat="43.8267977" lon="10.8372826"><ele>18.0</ele><time>2026-04-07T13:41:26.044Z</time></trkpt><trkpt lat="43.826604" lon="10.8374112"><ele>18.0</ele><time>2026-04-07T13:41:27.044Z</time></trkpt><trkpt lat="43.8263741" lon="10.8375493"><ele>18.0</ele><time>2026-04-07T13:41:28.044Z</time></trkpt><trkpt lat="43.8261278" lon="10.8376907"><ele>17.5</ele><time>2026-04-07T13:41:29.044Z</time></trkpt><trkpt lat="43.8258766" lon="10.8378289"><ele>17.0</ele><time>2026-04-07T13:41:30.043Z</time></trkpt><trkpt lat="43.8256374" lon="10.8379627"><ele>17.0</ele><time>2026-04-07T13:41:31.044Z</time></trkpt><trkpt lat="43.8254017" lon="10.8380945"><ele>17.0</ele><time>2026-04-07T13:41:32.044Z</time></trkpt><trkpt lat="43.8251714" lon="10.8382266"><ele>18.0</ele><time>2026-04-07T13:41:33.044Z</time></trkpt><trkpt lat="43.8249532" lon="10.8383562"><ele>19.0</ele><time>2026-04-07T13:41:34.044Z</time></trkpt><trkpt lat="43.8247399" lon="10.838483"><ele>19.5</ele><time>2026-04-07T13:41:35.044Z</time></trkpt><trkpt lat="43.8245309" lon="10.8386097"><ele>20.0</ele><time>2026-04-07T13:41:36.044Z</time></trkpt><trkpt lat="43.8243291" lon="10.8387431"><ele>21.666666666666668</ele><time>2026-04-07T13:41:37.043Z</time></trkpt><trkpt lat="43.8241263" lon="10.8388784"><ele>23.333333333333336</ele><time>2026-04-07T13:41:38.043Z</time></trkpt><trkpt lat="43.8239292" lon="10.8389994"><ele>25.0</ele><time>2026-04-07T13:41:39.044Z</time></trkpt><trkpt lat="43.8237389" lon="10.8391076"><ele>25.0</ele><time>2026-04-07T13:41:40.043Z</time></trkpt><trkpt lat="43.8235888" lon="10.8391985"><ele>25.0</ele><time>2026-04-07T13:41:41.044Z</time></trkpt><trkpt lat="43.8234481" lon="10.8392837"><ele>25.0</ele><time>2026-04-07T13:41:42.043Z</time></trkpt><trkpt lat="43.8233359" lon="10.8393443"><ele>25.0</ele><time>2026-04-07T13:41:43.044Z</time></trkpt><trkpt lat="43.8232315" lon="10.8394049"><ele>25.666666666666668</ele><time>2026-04-07T13:41:44.044Z</time></trkpt><trkpt lat="43.8231428" lon="10.8394517"><ele>26.333333333333336</ele><time>2026-04-07T13:41:45.043Z</time></trkpt><trkpt lat="43.8230561" lon="10.8394915"><ele>27.0</ele><time>2026-04-07T13:41:46.044Z</time></trkpt><trkpt lat="43.8229884" lon="10.8395163"><ele>27.666666666666664</ele><time>2026-04-07T13:41:47.044Z</time></trkpt><trkpt lat="43.8229103" lon="10.8395434"><ele>28.333333333333332</ele><time>2026-04-07T13:41:48.043Z</time></trkpt><trkpt lat="43.8228195" lon="10.8395741"><ele>29.0</ele><time>2026-04-07T13:41:49.044Z</time></trkpt><trkpt lat="43.8227254" lon="10.839612"><ele>28.4</ele><time>2026-04-07T13:41:50.043Z</time></trkpt><trkpt lat="43.8226263" lon="10.8396593"><ele>27.799999999999997</ele><time>2026-04-07T13:41:51.044Z</time></trkpt><trkpt lat="43.8225299" lon="10.8396987"><ele>27.200000000000003</ele><time>2026-04-07T13:41:52.043Z</time></trkpt><trkpt lat="43.8224254" lon="10.839736"><ele>26.6</ele><time>2026-04-07T13:41:53.044Z</time></trkpt><trkpt lat="43.8223204" lon="10.8397747"><ele>26.0</ele><time>2026-04-07T13:41:54.043Z</time></trkpt><trkpt lat="43.8222134" lon="10.8398195"><ele>26.0</ele><time>2026-04-07T13:41:55.044Z</time></trkpt><trkpt lat="43.8220807" lon="10.839869"><ele>26.0</ele><time>2026-04-07T13:41:56.044Z</time></trkpt><trkpt lat="43.821944" lon="10.8399267"><ele>26.0</ele><time>2026-04-07T13:41:57.044Z</time></trkpt><trkpt lat="43.8217894" lon="10.8399841"><ele>26.0</ele><time>2026-04-07T13:41:58.044Z</time></trkpt><trkpt lat="43.8216351" lon="10.8400532"><ele>25.75</ele><time>2026-04-07T13:41:59.044Z</time></trkpt><trkpt lat="43.8214858" lon="10.8401133"><ele>25.5</ele><time>2026-04-07T13:42:00.044Z</time></trkpt><trkpt lat="43.8213424" lon="10.8401665"><ele>25.25</ele><time>2026-04-07T13:42:01.044Z</time></trkpt><trkpt lat="43.8212024" lon="10.8402141"><ele>25.0</ele><time>2026-04-07T13:42:02.044Z</time></trkpt><trkpt lat="43.8210687" lon="10.8402625"><ele>25.0</ele><time>2026-04-07T13:42:03.044Z</time></trkpt><trkpt lat="43.8209408" lon="10.8403184"><ele>25.0</ele><time>2026-04-07T13:42:04.044Z</time></trkpt><trkpt lat="43.8208111" lon="10.8403747"><ele>25.0</ele><time>2026-04-07T13:42:05.044Z</time></trkpt><trkpt lat="43.8206778" lon="10.840427"><ele>25.0</ele><time>2026-04-07T13:42:06.044Z</time></trkpt><trkpt lat="43.8205341" lon="10.8404816"><ele>25.0</ele><time>2026-04-07T13:42:07.044Z</time></trkpt><trkpt lat="43.8203849" lon="10.8405418"><ele>25.0</ele><time>2026-04-07T13:42:08.044Z</time></trkpt><trkpt lat="43.820237" lon="10.8406043"><ele>25.0</ele><time>2026-04-07T13:42:09.043Z</time></trkpt><trkpt lat="43.8200958" lon="10.8406476"><ele>24.75</ele><time>2026-04-07T13:42:10.044Z</time></trkpt><trkpt lat="43.819957" lon="10.8406728"><ele>24.5</ele><time>2026-04-07T13:42:11.044Z</time></trkpt><trkpt lat="43.819814" lon="10.8406684"><ele>24.25</ele><time>2026-04-07T13:42:12.043Z</time></trkpt><trkpt lat="43.8196597" lon="10.8406496"><ele>24.0</ele><time>2026-04-07T13:42:13.044Z</time></trkpt><trkpt lat="43.8195005" lon="10.8406388"><ele>24.0</ele><time>2026-04-07T13:42:14.043Z</time></trkpt><trkpt lat="43.8193375" lon="10.8406359"><ele>24.0</ele><time>2026-04-07T13:42:15.044Z</time></trkpt><trkpt lat="43.8191974" lon="10.840643"><ele>24.0</ele><time>2026-04-07T13:42:16.043Z</time></trkpt><trkpt lat="43.8190555" lon="10.840642"><ele>24.0</ele><time>2026-04-07T13:42:17.044Z</time></trkpt><trkpt lat="43.8189187" lon="10.8406457"><ele>23.75</ele><time>2026-04-07T13:42:18.044Z</time></trkpt><trkpt lat="43.8187917" lon="10.8406539"><ele>23.5</ele><time>2026-04-07T13:42:19.044Z</time></trkpt><trkpt lat="43.8186703" lon="10.8406611"><ele>23.25</ele><time>2026-04-07T13:42:20.044Z</time></trkpt><trkpt lat="43.81855" lon="10.840667"><ele>23.0</ele><time>2026-04-07T13:42:21.044Z</time></trkpt><trkpt lat="43.8184331" lon="10.8406762"><ele>22.799999999999997</ele><time>2026-04-07T13:42:22.044Z</time></trkpt><trkpt lat="43.8183199" lon="10.8406971"><ele>22.6</ele><time>2026-04-07T13:42:23.043Z</time></trkpt><trkpt lat="43.8182091" lon="10.8407268"><ele>22.4</ele><time>2026-04-07T13:42:24.043Z</time></trkpt><trkpt lat="43.818105" lon="10.8407637"><ele>22.200000000000003</ele><time>2026-04-07T13:42:25.044Z</time></trkpt><trkpt lat="43.8180075" lon="10.8407964"><ele>22.0</ele><time>2026-04-07T13:42:26.044Z</time></trkpt><trkpt lat="43.8179108" lon="10.8408237"><ele>22.0</ele><time>2026-04-07T13:42:27.044Z</time></trkpt><trkpt lat="43.817831" lon="10.8408441"><ele>22.0</ele><time>2026-04-07T13:42:28.043Z</time></trkpt><trkpt lat="43.8177532" lon="10.8408655"><ele>22.0</ele><time>2026-04-07T13:42:29.044Z</time></trkpt><trkpt lat="43.8176785" lon="10.840883"><ele>22.0</ele><time>2026-04-07T13:42:30.044Z</time></trkpt><trkpt lat="43.8176007" lon="10.8408943"><ele>22.0</ele><time>2026-04-07T13:42:31.043Z</time></trkpt><trkpt lat="43.8175217" lon="10.8409039"><ele>22.0</ele><time>2026-04-07T13:42:32.044Z</time></trkpt><trkpt lat="43.8174496" lon="10.8409105"><ele>22.0</ele><time>2026-04-07T13:42:33.044Z</time></trkpt><trkpt lat="43.817372" lon="10.8409191"><ele>22.0</ele><time>2026-04-07T13:42:34.044Z</time></trkpt><trkpt lat="43.817302" lon="10.8409206"><ele>22.0</ele><time>2026-04-07T13:42:35.044Z</time></trkpt><trkpt lat="43.8172337" lon="10.8409243"><ele>22.0</ele><time>2026-04-07T13:42:36.044Z</time></trkpt><trkpt lat="43.8171575" lon="10.8409398"><ele>22.0</ele><time>2026-04-07T13:42:37.043Z</time></trkpt><trkpt lat="43.8170739" lon="10.840955"><ele>22.0</ele><time>2026-04-07T13:42:38.044Z</time></trkpt><trkpt lat="43.8169701" lon="10.8409896"><ele>22.25</ele><time>2026-04-07T13:42:39.044Z</time></trkpt><trkpt lat="43.8168671" lon="10.8410501"><ele>22.5</ele><time>2026-04-07T13:42:40.044Z</time></trkpt><trkpt lat="43.8167561" lon="10.8411194"><ele>22.75</ele><time>2026-04-07T13:42:41.044Z</time></trkpt><trkpt lat="43.8166435" lon="10.8412097"><ele>23.0</ele><time>2026-04-07T13:42:42.043Z</time></trkpt><trkpt lat="43.8165255" lon="10.8412948"><ele>23.0</ele><time>2026-04-07T13:42:43.044Z</time></trkpt><trkpt lat="43.8164125" lon="10.8413886"><ele>23.0</ele><time>2026-04-07T13:42:44.044Z</time></trkpt><trkpt lat="43.8163039" lon="10.8414779"><ele>23.0</ele><time>2026-04-07T13:42:45.043Z</time></trkpt><trkpt lat="43.8162071" lon="10.841571"><ele>23.0</ele><time>2026-04-07T13:42:46.044Z</time></trkpt><trkpt lat="43.8161082" lon="10.8416792"><ele>23.0</ele><time>2026-04-07T13:42:47.044Z</time></trkpt><trkpt lat="43.8160073" lon="10.8417927"><ele>23.0</ele><time>2026-04-07T13:42:48.044Z</time></trkpt><trkpt lat="43.8159048" lon="10.8419008"><ele>23.0</ele><time>2026-04-07T13:42:49.044Z</time></trkpt><trkpt lat="43.8158018" lon="10.8420223"><ele>23.0</ele><time>2026-04-07T13:42:50.044Z</time></trkpt><trkpt lat="43.8156947" lon="10.8421444"><ele>24.0</ele><time>2026-04-07T13:42:51.044Z</time></trkpt><trkpt lat="43.8155847" lon="10.8422576"><ele>25.0</ele><time>2026-04-07T13:42:52.044Z</time></trkpt><trkpt lat="43.8154694" lon="10.842357"><ele>26.0</ele><time>2026-04-07T13:42:53.043Z</time></trkpt><trkpt lat="43.815345" lon="10.8424358"><ele>27.0</ele><time>2026-04-07T13:42:54.044Z</time></trkpt><trkpt lat="43.8152132" lon="10.842502"><ele>27.0</ele><time>2026-04-07T13:42:55.043Z</time></trkpt><trkpt lat="43.8150722" lon="10.8425491"><ele>27.0</ele><time>2026-04-07T13:42:56.044Z</time></trkpt><trkpt lat="43.8149153" lon="10.8425995"><ele>27.0</ele><time>2026-04-07T13:42:57.044Z</time></trkpt><trkpt lat="43.8147475" lon="10.8426391"><ele>27.0</ele><time>2026-04-07T13:42:58.044Z</time></trkpt><trkpt lat="43.814564" lon="10.8426894"><ele>27.0</ele><time>2026-04-07T13:42:59.043Z</time></trkpt><trkpt lat="43.8143636" lon="10.8427611"><ele>27.0</ele><time>2026-04-07T13:43:00.043Z</time></trkpt><trkpt lat="43.81411" lon="10.8428278"><ele>27.0</ele><time>2026-04-07T13:43:01.044Z</time></trkpt><trkpt lat="43.8138518" lon="10.8428785"><ele>27.0</ele><time>2026-04-07T13:43:02.044Z</time></trkpt><trkpt lat="43.8136107" lon="10.8429281"><ele>25.5</ele><time>2026-04-07T13:43:03.044Z</time></trkpt><trkpt lat="43.813381" lon="10.8429461"><ele>24.0</ele><time>2026-04-07T13:43:04.044Z</time></trkpt><trkpt lat="43.8131534" lon="10.842953"><ele>24.0</ele><time>2026-04-07T13:43:05.043Z</time></trkpt><trkpt lat="43.8129142" lon="10.8429462"><ele>24.0</ele><time>2026-04-07T13:43:06.044Z</time></trkpt><trkpt lat="43.812672" lon="10.8429442"><ele>23.0</ele><time>2026-04-07T13:43:07.043Z</time></trkpt><trkpt lat="43.8124338" lon="10.8429245"><ele>22.0</ele><time>2026-04-07T13:43:08.044Z</time></trkpt><trkpt lat="43.8122055" lon="10.842935"><ele>22.0</ele><time>2026-04-07T13:43:09.043Z</time></trkpt><trkpt lat="43.8119955" lon="10.8429475"><ele>22.0</ele><time>2026-04-07T13:43:10.044Z</time></trkpt><trkpt lat="43.8118021" lon="10.8429753"><ele>22.0</ele><time>2026-04-07T13:43:11.044Z</time></trkpt><trkpt lat="43.811614" lon="10.8430077"><ele>22.0</ele><time>2026-04-07T13:43:12.044Z</time></trkpt><trkpt lat="43.8114694" lon="10.8431063"><ele>22.0</ele><time>2026-04-07T13:43:13.044Z</time></trkpt><trkpt lat="43.8113107" lon="10.8432429"><ele>22.0</ele><time>2026-04-07T13:43:14.044Z</time></trkpt><trkpt lat="43.8111283" lon="10.8433976"><ele>21.333333333333332</ele><time>2026-04-07T13:43:15.044Z</time></trkpt><trkpt lat="43.8109536" lon="10.8435572"><ele>20.666666666666668</ele><time>2026-04-07T13:43:16.043Z</time></trkpt><trkpt lat="43.8107758" lon="10.8437215"><ele>20.0</ele><time>2026-04-07T13:43:17.044Z</time></trkpt><trkpt lat="43.810609" lon="10.8438843"><ele>20.0</ele><time>2026-04-07T13:43:18.044Z</time></trkpt><trkpt lat="43.8104545" lon="10.8440441"><ele>20.0</ele><time>2026-04-07T13:43:19.043Z</time></trkpt><trkpt lat="43.8103165" lon="10.8442178"><ele>20.0</ele><time>2026-04-07T13:43:20.043Z</time></trkpt><trkpt lat="43.8102153" lon="10.8444005"><ele>20.0</ele><time>2026-04-07T13:43:21.044Z</time></trkpt><trkpt lat="43.8101351" lon="10.8446197"><ele>20.0</ele><time>2026-04-07T13:43:22.044Z</time></trkpt><trkpt lat="43.8100792" lon="10.844861"><ele>20.0</ele><time>2026-04-07T13:43:23.043Z</time></trkpt><trkpt lat="43.8100276" lon="10.845085"><ele>20.333333333333336</ele><time>2026-04-07T13:43:24.044Z</time></trkpt><trkpt lat="43.8099826" lon="10.8453134"><ele>20.666666666666668</ele><time>2026-04-07T13:43:25.044Z</time></trkpt><trkpt lat="43.8099372" lon="10.8455351"><ele>21.0</ele><time>2026-04-07T13:43:26.044Z</time></trkpt><trkpt lat="43.8098803" lon="10.8457647"><ele>21.333333333333332</ele><time>2026-04-07T13:43:27.044Z</time></trkpt><trkpt lat="43.8098229" lon="10.8459895"><ele>21.666666666666664</ele><time>2026-04-07T13:43:28.044Z</time></trkpt><trkpt lat="43.8097647" lon="10.8462271"><ele>22.0</ele><time>2026-04-07T13:43:29.044Z</time></trkpt><trkpt lat="43.8097034" lon="10.846444"><ele>22.0</ele><time>2026-04-07T13:43:30.044Z</time></trkpt><trkpt lat="43.8096392" lon="10.8466559"><ele>22.0</ele><time>2026-04-07T13:43:31.044Z</time></trkpt><trkpt lat="43.8095739" lon="10.8468679"><ele>22.0</ele><time>2026-04-07T13:43:32.044Z</time></trkpt><trkpt lat="43.8094952" lon="10.8470883"><ele>21.333333333333332</ele><time>2026-04-07T13:43:33.044Z</time></trkpt><trkpt lat="43.8094217" lon="10.8472985"><ele>20.666666666666668</ele><time>2026-04-07T13:43:34.044Z</time></trkpt><trkpt lat="43.8093421" lon="10.8475027"><ele>20.0</ele><time>2026-04-07T13:43:35.044Z</time></trkpt><trkpt lat="43.8092633" lon="10.847686"><ele>19.75</ele><time>2026-04-07T13:43:36.044Z</time></trkpt><trkpt lat="43.8091759" lon="10.8478532"><ele>19.5</ele><time>2026-04-07T13:43:37.044Z</time></trkpt><trkpt lat="43.809077" lon="10.8479905"><ele>19.25</ele><time>2026-04-07T13:43:38.044Z</time></trkpt><trkpt lat="43.8089527" lon="10.8480505"><ele>19.0</ele><time>2026-04-07T13:43:39.044Z</time></trkpt><trkpt lat="43.8088159" lon="10.848089"><ele>19.0</ele><time>2026-04-07T13:43:40.044Z</time></trkpt><trkpt lat="43.808676" lon="10.8481083"><ele>19.0</ele><time>2026-04-07T13:43:41.044Z</time></trkpt><trkpt lat="43.8085366" lon="10.8481151"><ele>19.0</ele><time>2026-04-07T13:43:42.043Z</time></trkpt><trkpt lat="43.8084056" lon="10.8481098"><ele>19.0</ele><time>2026-04-07T13:43:43.044Z</time></trkpt><trkpt lat="43.8082851" lon="10.8480968"><ele>19.5</ele><time>2026-04-07T13:43:44.043Z</time></trkpt><trkpt lat="43.8081769" lon="10.8480861"><ele>20.0</ele><time>2026-04-07T13:43:45.044Z</time></trkpt><trkpt lat="43.8080479" lon="10.8480816"><ele>20.5</ele><time>2026-04-07T13:43:46.044Z</time></trkpt><trkpt lat="43.8079145" lon="10.8480776"><ele>21.0</ele><time>2026-04-07T13:43:47.043Z</time></trkpt><trkpt lat="43.8077752" lon="10.8480748"><ele>20.75</ele><time>2026-04-07T13:43:48.044Z</time></trkpt><trkpt lat="43.8076365" lon="10.8480652"><ele>20.5</ele><time>2026-04-07T13:43:49.044Z</time></trkpt><trkpt lat="43.8074887" lon="10.8480582"><ele>20.25</ele><time>2026-04-07T13:43:50.043Z</time></trkpt><trkpt lat="43.8073346" lon="10.8480463"><ele>20.0</ele><time>2026-04-07T13:43:51.044Z</time></trkpt><trkpt lat="43.8071815" lon="10.8480384"><ele>20.0</ele><time>2026-04-07T13:43:52.043Z</time></trkpt><trkpt lat="43.8070335" lon="10.8480245"><ele>20.0</ele><time>2026-04-07T13:43:53.044Z</time></trkpt><trkpt lat="43.8068849" lon="10.8480136"><ele>20.0</ele><time>2026-04-07T13:43:54.043Z</time></trkpt><trkpt lat="43.8067395" lon="10.8480105"><ele>20.0</ele><time>2026-04-07T13:43:55.043Z</time></trkpt><trkpt lat="43.8065858" lon="10.8480106"><ele>20.0</ele><time>2026-04-07T13:43:56.043Z</time></trkpt><trkpt lat="43.8064328" lon="10.8480069"><ele>20.0</ele><time>2026-04-07T13:43:57.044Z</time></trkpt><trkpt lat="43.8062741" lon="10.848004"><ele>20.0</ele><time>2026-04-07T13:43:58.044Z</time></trkpt><trkpt lat="43.8061161" lon="10.8479898"><ele>19.5</ele><time>2026-04-07T13:43:59.044Z</time></trkpt><trkpt lat="43.8059697" lon="10.8479722"><ele>19.0</ele><time>2026-04-07T13:44:00.043Z</time></trkpt><trkpt lat="43.8058286" lon="10.8479496"><ele>18.5</ele><time>2026-04-07T13:44:01.044Z</time></trkpt><trkpt lat="43.805689" lon="10.8479315"><ele>18.0</ele><time>2026-04-07T13:44:02.044Z</time></trkpt><trkpt lat="43.805554" lon="10.8479051"><ele>18.0</ele><time>2026-04-07T13:44:03.044Z</time></trkpt><trkpt lat="43.8054092" lon="10.8478817"><ele>18.0</ele><time>2026-04-07T13:44:04.043Z</time></trkpt><trkpt lat="43.8052708" lon="10.8478589"><ele>18.0</ele><time>2026-04-07T13:44:05.043Z</time></trkpt><trkpt lat="43.8051399" lon="10.8478392"><ele>18.0</ele><time>2026-04-07T13:44:06.044Z</time></trkpt><trkpt lat="43.8050069" lon="10.8478153"><ele>17.75</ele><time>2026-04-07T13:44:07.044Z</time></trkpt><trkpt lat="43.804878" lon="10.8477902"><ele>17.5</ele><time>2026-04-07T13:44:08.044Z</time></trkpt><trkpt lat="43.804746" lon="10.8477627"><ele>17.25</ele><time>2026-04-07T13:44:09.043Z</time></trkpt><trkpt lat="43.8046243" lon="10.8477351"><ele>17.0</ele><time>2026-04-07T13:44:10.044Z</time></trkpt><trkpt lat="43.8044918" lon="10.8477185"><ele>17.0</ele><time>2026-04-07T13:44:11.044Z</time></trkpt><trkpt lat="43.8043493" lon="10.8477013"><ele>17.0</ele><time>2026-04-07T13:44:12.044Z</time></trkpt><trkpt lat="43.804211" lon="10.8476861"><ele>17.0</ele><time>2026-04-07T13:44:13.044Z</time></trkpt><trkpt lat="43.8040681" lon="10.8476717"><ele>17.0</ele><time>2026-04-07T13:44:14.043Z</time></trkpt><trkpt lat="43.8039351" lon="10.8476492"><ele>17.5</ele><time>2026-04-07T13:44:15.043Z</time></trkpt><trkpt lat="43.8038029" lon="10.847632"><ele>18.0</ele><time>2026-04-07T13:44:16.043Z</time></trkpt><trkpt lat="43.8036856" lon="10.847601"><ele>18.5</ele><time>2026-04-07T13:44:17.044Z</time></trkpt><trkpt lat="43.8035682" lon="10.847584"><ele>19.0</ele><time>2026-04-07T13:44:18.044Z</time></trkpt><trkpt lat="43.8034498" lon="10.8475681"><ele>19.6</ele><time>2026-04-07T13:44:19.044Z</time></trkpt><trkpt lat="43.8033365" lon="10.8475485"><ele>20.2</ele><time>2026-04-07T13:44:20.043Z</time></trkpt><trkpt lat="43.8032301" lon="10.8475274"><ele>20.8</ele><time>2026-04-07T13:44:21.044Z</time></trkpt><trkpt lat="43.8031214" lon="10.8475067"><ele>21.400000000000002</ele><time>2026-04-07T13:44:22.044Z</time></trkpt><trkpt lat="43.8030083" lon="10.8474854"><ele>22.0</ele><time>2026-04-07T13:44:23.043Z</time></trkpt><trkpt lat="43.8028996" lon="10.8474627"><ele>22.0</ele><time>2026-04-07T13:44:24.043Z</time></trkpt><trkpt lat="43.8027938" lon="10.8474451"><ele>22.0</ele><time>2026-04-07T13:44:25.044Z</time></trkpt><trkpt lat="43.8026868" lon="10.8474268"><ele>22.0</ele><time>2026-04-07T13:44:26.044Z</time></trkpt><trkpt lat="43.8025719" lon="10.8474032"><ele>22.0</ele><time>2026-04-07T13:44:27.043Z</time></trkpt><trkpt lat="43.802457" lon="10.8473911"><ele>22.0</ele><time>2026-04-07T13:44:28.044Z</time></trkpt><trkpt lat="43.8023372" lon="10.8473637"><ele>21.5</ele><time>2026-04-07T13:44:29.044Z</time></trkpt><trkpt lat="43.802228" lon="10.8473349"><ele>21.0</ele><time>2026-04-07T13:44:30.044Z</time></trkpt><trkpt lat="43.802095" lon="10.8473187"><ele>20.5</ele><time>2026-04-07T13:44:31.043Z</time></trkpt><trkpt lat="43.8019641" lon="10.8472942"><ele>20.0</ele><time>2026-04-07T13:44:32.044Z</time></trkpt><trkpt lat="43.8018327" lon="10.847276"><ele>19.75</ele><time>2026-04-07T13:44:33.044Z</time></trkpt><trkpt lat="43.8016962" lon="10.8472558"><ele>19.5</ele><time>2026-04-07T13:44:34.043Z</time></trkpt><trkpt lat="43.8015563" lon="10.8472386"><ele>19.25</ele><time>2026-04-07T13:44:35.044Z</time></trkpt><trkpt lat="43.8014099" lon="10.8472138"><ele>19.0</ele><time>2026-04-07T13:44:36.044Z</time></trkpt><trkpt lat="43.8012514" lon="10.8471899"><ele>19.0</ele><time>2026-04-07T13:44:37.043Z</time></trkpt><trkpt lat="43.8010745" lon="10.8471669"><ele>19.0</ele><time>2026-04-07T13:44:38.044Z</time></trkpt><trkpt lat="43.8008807" lon="10.847142"><ele>19.0</ele><time>2026-04-07T13:44:39.044Z</time></trkpt><trkpt lat="43.8006819" lon="10.8471047"><ele>19.666666666666664</ele><time>2026-04-07T13:44:40.044Z</time></trkpt><trkpt lat="43.8004824" lon="10.8470684"><ele>20.333333333333332</ele><time>2026-04-07T13:44:41.044Z</time></trkpt><trkpt lat="43.800276" lon="10.8470233"><ele>21.0</ele><time>2026-04-07T13:44:42.044Z</time></trkpt><trkpt lat="43.8000932" lon="10.8469417"><ele>21.0</ele><time>2026-04-07T13:44:43.043Z</time></trkpt><trkpt lat="43.7999124" lon="10.8468575"><ele>21.0</ele><time>2026-04-07T13:44:44.043Z</time></trkpt><trkpt lat="43.7997514" lon="10.8467342"><ele>21.0</ele><time>2026-04-07T13:44:45.044Z</time></trkpt><trkpt lat="43.7996133" lon="10.8465968"><ele>21.0</ele><time>2026-04-07T13:44:46.043Z</time></trkpt><trkpt lat="43.7994986" lon="10.8464449"><ele>21.0</ele><time>2026-04-07T13:44:47.044Z</time></trkpt><trkpt lat="43.7993886" lon="10.8462711"><ele>21.0</ele><time>2026-04-07T13:44:48.044Z</time></trkpt><trkpt lat="43.7992921" lon="10.8460599"><ele>22.333333333333336</ele><time>2026-04-07T13:44:49.044Z</time></trkpt><trkpt lat="43.7991962" lon="10.8458507"><ele>23.666666666666668</ele><time>2026-04-07T13:44:50.044Z</time></trkpt><trkpt lat="43.7990876" lon="10.8456641"><ele>25.0</ele><time>2026-04-07T13:44:51.043Z</time></trkpt><trkpt lat="43.7989617" lon="10.8454915"><ele>25.0</ele><time>2026-04-07T13:44:52.044Z</time></trkpt><trkpt lat="43.7987892" lon="10.845335"><ele>25.0</ele><time>2026-04-07T13:44:53.043Z</time></trkpt><trkpt lat="43.7986111" lon="10.8451851"><ele>25.0</ele><time>2026-04-07T13:44:54.044Z</time></trkpt><trkpt lat="43.7983921" lon="10.8450431"><ele>26.5</ele><time>2026-04-07T13:44:55.043Z</time></trkpt><trkpt lat="43.798175" lon="10.8448716"><ele>28.0</ele><time>2026-04-07T13:44:56.043Z</time></trkpt><trkpt lat="43.7979581" lon="10.8446846"><ele>28.0</ele><time>2026-04-07T13:44:57.044Z</time></trkpt><trkpt lat="43.7977631" lon="10.8444613"><ele>28.0</ele><time>2026-04-07T13:44:58.044Z</time></trkpt><trkpt lat="43.797572" lon="10.8442016"><ele>30.5</ele><time>2026-04-07T13:44:59.044Z</time></trkpt><trkpt lat="43.7973866" lon="10.8439148"><ele>33.0</ele><time>2026-04-07T13:45:00.044Z</time></trkpt><trkpt lat="43.797186" lon="10.8436213"><ele>33.5</ele><time>2026-04-07T13:45:01.044Z</time></trkpt><trkpt lat="43.79698" lon="10.8433175"><ele>34.0</ele><time>2026-04-07T13:45:02.044Z</time></trkpt><trkpt lat="43.796771" lon="10.8429977"><ele>37.5</ele><time>2026-04-07T13:45:03.043Z</time></trkpt><trkpt lat="43.7965586" lon="10.8426854"><ele>41.0</ele><time>2026-04-07T13:45:04.043Z</time></trkpt><trkpt lat="43.7963481" lon="10.8423783"><ele>41.5</ele><time>2026-04-07T13:45:05.043Z</time></trkpt><trkpt lat="43.7961428" lon="10.84206"><ele>42.0</ele><time>2026-04-07T13:45:06.044Z</time></trkpt><trkpt lat="43.7959342" lon="10.8417253"><ele>40.5</ele><time>2026-04-07T13:45:07.044Z</time></trkpt><trkpt lat="43.7957258" lon="10.8414032"><ele>39.0</ele><time>2026-04-07T13:45:08.044Z</time></trkpt><trkpt lat="43.7955289" lon="10.8410923"><ele>35.5</ele><time>2026-04-07T13:45:09.044Z</time></trkpt><trkpt lat="43.7953426" lon="10.8407963"><ele>32.0</ele><time>2026-04-07T13:45:10.043Z</time></trkpt><trkpt lat="43.7951833" lon="10.8405252"><ele>33.0</ele><time>2026-04-07T13:45:11.043Z</time></trkpt><trkpt lat="43.7950199" lon="10.8402731"><ele>34.0</ele><time>2026-04-07T13:45:12.044Z</time></trkpt><trkpt lat="43.7948623" lon="10.8400195"><ele>35.5</ele><time>2026-04-07T13:45:13.043Z</time></trkpt><trkpt lat="43.794698" lon="10.8397653"><ele>37.0</ele><time>2026-04-07T13:45:14.043Z</time></trkpt><trkpt lat="43.7945277" lon="10.8395196"><ele>37.5</ele><time>2026-04-07T13:45:15.044Z</time></trkpt><trkpt lat="43.7943633" lon="10.839276"><ele>38.0</ele><time>2026-04-07T13:45:16.044Z</time></trkpt><trkpt lat="43.7942084" lon="10.8390334"><ele>37.666666666666664</ele><time>2026-04-07T13:45:17.044Z</time></trkpt><trkpt lat="43.7940599" lon="10.8388038"><ele>37.333333333333336</ele><time>2026-04-07T13:45:18.044Z</time></trkpt><trkpt lat="43.793925" lon="10.8385739"><ele>37.0</ele><time>2026-04-07T13:45:19.044Z</time></trkpt><trkpt lat="43.7937778" lon="10.838355"><ele>37.0</ele><time>2026-04-07T13:45:20.044Z</time></trkpt><trkpt lat="43.793644" lon="10.8381411"><ele>37.0</ele><time>2026-04-07T13:45:21.043Z</time></trkpt><trkpt lat="43.7935184" lon="10.8379241"><ele>37.0</ele><time>2026-04-07T13:45:22.044Z</time></trkpt><trkpt lat="43.7933976" lon="10.8377081"><ele>36.333333333333336</ele><time>2026-04-07T13:45:23.043Z</time></trkpt><trkpt lat="43.7932893" lon="10.8374966"><ele>35.666666666666664</ele><time>2026-04-07T13:45:24.044Z</time></trkpt><trkpt lat="43.7931975" lon="10.8372857"><ele>35.0</ele><time>2026-04-07T13:45:25.043Z</time></trkpt><trkpt lat="43.7931075" lon="10.8370779"><ele>35.0</ele><time>2026-04-07T13:45:26.044Z</time></trkpt><trkpt lat="43.7930191" lon="10.8368704"><ele>35.0</ele><time>2026-04-07T13:45:27.044Z</time></trkpt><trkpt lat="43.7929269" lon="10.8366632"><ele>35.0</ele><time>2026-04-07T13:45:28.043Z</time></trkpt><trkpt lat="43.792821" lon="10.8364715"><ele>36.33333333333333</ele><time>2026-04-07T13:45:29.043Z</time></trkpt><trkpt lat="43.7926966" lon="10.8363043"><ele>37.666666666666664</ele><time>2026-04-07T13:45:30.043Z</time></trkpt><trkpt lat="43.792565" lon="10.8361729"><ele>39.0</ele><time>2026-04-07T13:45:31.044Z</time></trkpt><trkpt lat="43.7924213" lon="10.8360684"><ele>39.0</ele><time>2026-04-07T13:45:32.044Z</time></trkpt><trkpt lat="43.7922607" lon="10.8359752"><ele>39.0</ele><time>2026-04-07T13:45:33.044Z</time></trkpt><trkpt lat="43.7920656" lon="10.8359021"><ele>39.0</ele><time>2026-04-07T13:45:34.044Z</time></trkpt><trkpt lat="43.7918616" lon="10.8358104"><ele>37.666666666666664</ele><time>2026-04-07T13:45:35.044Z</time></trkpt><trkpt lat="43.7916476" lon="10.8357176"><ele>36.33333333333333</ele><time>2026-04-07T13:45:36.044Z</time></trkpt><trkpt lat="43.7914321" lon="10.8356407"><ele>35.0</ele><time>2026-04-07T13:45:37.044Z</time></trkpt><trkpt lat="43.7912322" lon="10.8355747"><ele>35.0</ele><time>2026-04-07T13:45:38.044Z</time></trkpt><trkpt lat="43.7910242" lon="10.835508"><ele>35.0</ele><time>2026-04-07T13:45:39.044Z</time></trkpt><trkpt lat="43.7908145" lon="10.8354426"><ele>35.0</ele><time>2026-04-07T13:45:40.044Z</time></trkpt><trkpt lat="43.7906044" lon="10.8353953"><ele>35.0</ele><time>2026-04-07T13:45:41.043Z</time></trkpt><trkpt lat="43.7904092" lon="10.8353208"><ele>35.0</ele><time>2026-04-07T13:45:42.044Z</time></trkpt><trkpt lat="43.7902244" lon="10.8352423"><ele>35.0</ele><time>2026-04-07T13:45:43.044Z</time></trkpt><trkpt lat="43.7900449" lon="10.8351281"><ele>35.0</ele><time>2026-04-07T13:45:44.044Z</time></trkpt><trkpt lat="43.7898905" lon="10.834991"><ele>35.0</ele><time>2026-04-07T13:45:45.044Z</time></trkpt><trkpt lat="43.7897383" lon="10.8348576"><ele>35.0</ele><time>2026-04-07T13:45:46.044Z</time></trkpt><trkpt lat="43.7895819" lon="10.8347432"><ele>35.0</ele><time>2026-04-07T13:45:47.043Z</time></trkpt><trkpt lat="43.7894014" lon="10.8346931"><ele>35.0</ele><time>2026-04-07T13:45:48.043Z</time></trkpt><trkpt lat="43.7891926" lon="10.8346561"><ele>35.0</ele><time>2026-04-07T13:45:49.043Z</time></trkpt><trkpt lat="43.7889753" lon="10.8346084"><ele>32.666666666666664</ele><time>2026-04-07T13:45:50.044Z</time></trkpt><trkpt lat="43.7887525" lon="10.834557"><ele>30.333333333333336</ele><time>2026-04-07T13:45:51.044Z</time></trkpt><trkpt lat="43.78854" lon="10.8345201"><ele>28.0</ele><time>2026-04-07T13:45:52.044Z</time></trkpt><trkpt lat="43.7883169" lon="10.8344709"><ele>26.0</ele><time>2026-04-07T13:45:53.044Z</time></trkpt><trkpt lat="43.7881032" lon="10.8344201"><ele>24.0</ele><time>2026-04-07T13:45:54.043Z</time></trkpt><trkpt lat="43.7878934" lon="10.8343775"><ele>22.0</ele><time>2026-04-07T13:45:55.043Z</time></trkpt><trkpt lat="43.7876788" lon="10.8343396"><ele>21.666666666666664</ele><time>2026-04-07T13:45:56.044Z</time></trkpt><trkpt lat="43.7874708" lon="10.8343024"><ele>21.333333333333332</ele><time>2026-04-07T13:45:57.044Z</time></trkpt><trkpt lat="43.787261" lon="10.834276"><ele>21.0</ele><time>2026-04-07T13:45:58.044Z</time></trkpt><trkpt lat="43.7870446" lon="10.8342345"><ele>21.0</ele><time>2026-04-07T13:45:59.044Z</time></trkpt><trkpt lat="43.7868935" lon="10.834199"><ele>21.0</ele><time>2026-04-07T13:46:00.044Z</time></trkpt><trkpt lat="43.786739" lon="10.8341672"><ele>21.0</ele><time>2026-04-07T13:46:01.044Z</time></trkpt><trkpt lat="43.7866077" lon="10.8341332"><ele>21.0</ele><time>2026-04-07T13:46:02.044Z</time></trkpt><trkpt lat="43.7865044" lon="10.834104"><ele>21.200000000000003</ele><time>2026-04-07T13:46:03.044Z</time></trkpt><trkpt lat="43.7864088" lon="10.8340721"><ele>21.400000000000002</ele><time>2026-04-07T13:46:04.044Z</time></trkpt><trkpt lat="43.7863404" lon="10.8340598"><ele>21.6</ele><time>2026-04-07T13:46:05.044Z</time></trkpt><trkpt lat="43.7862414" lon="10.8340359"><ele>21.8</ele><time>2026-04-07T13:46:07.044Z</time></trkpt><trkpt lat="43.7861594" lon="10.8339954"><ele>22.0</ele><time>2026-04-07T13:46:10.044Z</time></trkpt><trkpt lat="43.7860717" lon="10.8339156"><ele>22.0</ele><time>2026-04-07T13:46:12.044Z</time></trkpt><trkpt lat="43.7860125" lon="10.8338331"><ele>22.0</ele><time>2026-04-07T13:46:13.044Z</time></trkpt><trkpt lat="43.7859658" lon="10.8337254"><ele>22.0</ele><time>2026-04-07T13:46:14.043Z</time></trkpt><trkpt lat="43.7859235" lon="10.8335954"><ele>22.0</ele><time>2026-04-07T13:46:15.043Z</time></trkpt><trkpt lat="43.78587" lon="10.8334425"><ele>22.0</ele><time>2026-04-07T13:46:16.044Z</time></trkpt><trkpt lat="43.78581" lon="10.833268"><ele>22.0</ele><time>2026-04-07T13:46:17.044Z</time></trkpt><trkpt lat="43.7857456" lon="10.8330897"><ele>22.0</ele><time>2026-04-07T13:46:18.044Z</time></trkpt><trkpt lat="43.7856834" lon="10.8329023"><ele>22.0</ele><time>2026-04-07T13:46:19.044Z</time></trkpt><trkpt lat="43.7856231" lon="10.832729"><ele>22.0</ele><time>2026-04-07T13:46:20.044Z</time></trkpt><trkpt lat="43.785564" lon="10.8325598"><ele>21.75</ele><time>2026-04-07T13:46:21.044Z</time></trkpt><trkpt lat="43.7855042" lon="10.8323841"><ele>21.5</ele><time>2026-04-07T13:46:22.044Z</time></trkpt><trkpt lat="43.7854525" lon="10.8322043"><ele>21.25</ele><time>2026-04-07T13:46:23.044Z</time></trkpt><trkpt lat="43.7853973" lon="10.8320322"><ele>21.0</ele><time>2026-04-07T13:46:24.044Z</time></trkpt><trkpt lat="43.7853384" lon="10.8318466"><ele>21.0</ele><time>2026-04-07T13:46:25.043Z</time></trkpt><trkpt lat="43.7852767" lon="10.8316653"><ele>21.0</ele><time>2026-04-07T13:46:26.044Z</time></trkpt><trkpt lat="43.7852117" lon="10.8314802"><ele>21.0</ele><time>2026-04-07T13:46:27.043Z</time></trkpt><trkpt lat="43.7851488" lon="10.831289"><ele>21.0</ele><time>2026-04-07T13:46:28.044Z</time></trkpt><trkpt lat="43.7850725" lon="10.8310949"><ele>20.5</ele><time>2026-04-07T13:46:29.044Z</time></trkpt><trkpt lat="43.784996" lon="10.8309191"><ele>20.0</ele><time>2026-04-07T13:46:30.043Z</time></trkpt><trkpt lat="43.7849202" lon="10.8308063"><ele>19.5</ele><time>2026-04-07T13:46:31.043Z</time></trkpt><trkpt lat="43.7848257" lon="10.8307115"><ele>19.0</ele><time>2026-04-07T13:46:32.044Z</time></trkpt><trkpt lat="43.7847099" lon="10.8306657"><ele>19.0</ele><time>2026-04-07T13:46:33.044Z</time></trkpt><trkpt lat="43.7845698" lon="10.8306428"><ele>19.0</ele><time>2026-04-07T13:46:34.044Z</time></trkpt><trkpt lat="43.7844287" lon="10.8306463"><ele>19.0</ele><time>2026-04-07T13:46:35.044Z</time></trkpt><trkpt lat="43.7842739" lon="10.8307121"><ele>19.0</ele><time>2026-04-07T13:46:36.044Z</time></trkpt><trkpt lat="43.7841231" lon="10.8308211"><ele>19.0</ele><time>2026-04-07T13:46:37.044Z</time></trkpt><trkpt lat="43.7839708" lon="10.8309467"><ele>19.0</ele><time>2026-04-07T13:46:38.044Z</time></trkpt><trkpt lat="43.783832" lon="10.8310723"><ele>19.0</ele><time>2026-04-07T13:46:39.044Z</time></trkpt><trkpt lat="43.7837093" lon="10.8311969"><ele>19.0</ele><time>2026-04-07T13:46:40.043Z</time></trkpt><trkpt lat="43.7835777" lon="10.8313155"><ele>19.0</ele><time>2026-04-07T13:46:41.044Z</time></trkpt><trkpt lat="43.7834605" lon="10.8314233"><ele>19.0</ele><time>2026-04-07T13:46:42.044Z</time></trkpt><trkpt lat="43.7833451" lon="10.8315311"><ele>19.0</ele><time>2026-04-07T13:46:43.044Z</time></trkpt><trkpt lat="43.7832156" lon="10.8316548"><ele>19.0</ele><time>2026-04-07T13:46:44.044Z</time></trkpt><trkpt lat="43.7830743" lon="10.8317748"><ele>19.0</ele><time>2026-04-07T13:46:45.043Z</time></trkpt><trkpt lat="43.7829476" lon="10.8318768"><ele>19.0</ele><time>2026-04-07T13:46:46.044Z</time></trkpt><trkpt lat="43.7828177" lon="10.8319899"><ele>19.333333333333332</ele><time>2026-04-07T13:46:47.043Z</time></trkpt><trkpt lat="43.7826778" lon="10.8321193"><ele>19.666666666666668</ele><time>2026-04-07T13:46:48.044Z</time></trkpt><trkpt lat="43.7825393" lon="10.8322464"><ele>20.0</ele><time>2026-04-07T13:46:49.044Z</time></trkpt><trkpt lat="43.7823908" lon="10.8323675"><ele>20.0</ele><time>2026-04-07T13:46:50.043Z</time></trkpt><trkpt lat="43.7822604" lon="10.8324803"><ele>20.0</ele><time>2026-04-07T13:46:51.044Z</time></trkpt><trkpt lat="43.7821318" lon="10.8325966"><ele>20.0</ele><time>2026-04-07T13:46:52.044Z</time></trkpt><trkpt lat="43.7820024" lon="10.8327197"><ele>20.0</ele><time>2026-04-07T13:46:53.044Z</time></trkpt><trkpt lat="43.7818834" lon="10.8328321"><ele>20.0</ele><time>2026-04-07T13:46:54.044Z</time></trkpt><trkpt lat="43.7817635" lon="10.8329323"><ele>20.0</ele><time>2026-04-07T13:46:55.043Z</time></trkpt><trkpt lat="43.7816431" lon="10.8330391"><ele>20.0</ele><time>2026-04-07T13:46:56.044Z</time></trkpt><trkpt lat="43.7815287" lon="10.8331414"><ele>20.0</ele><time>2026-04-07T13:46:57.044Z</time></trkpt><trkpt lat="43.7814159" lon="10.8332495"><ele>20.0</ele><time>2026-04-07T13:46:58.044Z</time></trkpt><trkpt lat="43.7813038" lon="10.8333532"><ele>20.0</ele><time>2026-04-07T13:46:59.044Z</time></trkpt><trkpt lat="43.781186" lon="10.8334528"><ele>20.0</ele><time>2026-04-07T13:47:00.044Z</time></trkpt><trkpt lat="43.7810836" lon="10.8335354"><ele>19.5</ele><time>2026-04-07T13:47:01.043Z</time></trkpt><trkpt lat="43.7809732" lon="10.8336263"><ele>19.0</ele><time>2026-04-07T13:47:02.044Z</time></trkpt><trkpt lat="43.7808571" lon="10.8336912"><ele>18.5</ele><time>2026-04-07T13:47:03.044Z</time></trkpt><trkpt lat="43.7807477" lon="10.8337535"><ele>18.0</ele><time>2026-04-07T13:47:04.043Z</time></trkpt><trkpt lat="43.7806493" lon="10.8338078"><ele>18.0</ele><time>2026-04-07T13:47:05.043Z</time></trkpt><trkpt lat="43.7805542" lon="10.8338656"><ele>18.0</ele><time>2026-04-07T13:47:06.043Z</time></trkpt><trkpt lat="43.7804603" lon="10.8339204"><ele>18.0</ele><time>2026-04-07T13:47:07.043Z</time></trkpt><trkpt lat="43.7803612" lon="10.8339748"><ele>18.0</ele><time>2026-04-07T13:47:08.044Z</time></trkpt><trkpt lat="43.7802505" lon="10.8340215"><ele>18.0</ele><time>2026-04-07T13:47:09.044Z</time></trkpt><trkpt lat="43.7801294" lon="10.8340602"><ele>18.0</ele><time>2026-04-07T13:47:10.044Z</time></trkpt><trkpt lat="43.78" lon="10.8340709"><ele>18.0</ele><time>2026-04-07T13:47:11.044Z</time></trkpt><trkpt lat="43.7798757" lon="10.8340649"><ele>18.0</ele><time>2026-04-07T13:47:12.043Z</time></trkpt><trkpt lat="43.7797401" lon="10.8340466"><ele>18.0</ele><time>2026-04-07T13:47:13.044Z</time></trkpt><trkpt lat="43.779601" lon="10.8339789"><ele>18.0</ele><time>2026-04-07T13:47:14.044Z</time></trkpt><trkpt lat="43.7794624" lon="10.8338829"><ele>18.0</ele><time>2026-04-07T13:47:15.044Z</time></trkpt><trkpt lat="43.7793316" lon="10.8337605"><ele>18.0</ele><time>2026-04-07T13:47:16.044Z</time></trkpt><trkpt lat="43.779202" lon="10.8336324"><ele>18.666666666666668</ele><time>2026-04-07T13:47:17.044Z</time></trkpt><trkpt lat="43.7790737" lon="10.8335102"><ele>19.333333333333336</ele><time>2026-04-07T13:47:18.044Z</time></trkpt><trkpt lat="43.77894" lon="10.833385"><ele>20.0</ele><time>2026-04-07T13:47:19.044Z</time></trkpt><trkpt lat="43.7788089" lon="10.833258"><ele>20.0</ele><time>2026-04-07T13:47:20.044Z</time></trkpt><trkpt lat="43.778681" lon="10.8331288"><ele>20.0</ele><time>2026-04-07T13:47:21.044Z</time></trkpt><trkpt lat="43.7785556" lon="10.8330034"><ele>20.0</ele><time>2026-04-07T13:47:22.043Z</time></trkpt><trkpt lat="43.778423" lon="10.8328745"><ele>20.0</ele><time>2026-04-07T13:47:23.043Z</time></trkpt><trkpt lat="43.7782986" lon="10.8327565"><ele>20.0</ele><time>2026-04-07T13:47:24.044Z</time></trkpt><trkpt lat="43.778174" lon="10.8326417"><ele>20.0</ele><time>2026-04-07T13:47:25.044Z</time></trkpt><trkpt lat="43.7780474" lon="10.8325358"><ele>20.0</ele><time>2026-04-07T13:47:26.043Z</time></trkpt><trkpt lat="43.7779132" lon="10.8324349"><ele>20.0</ele><time>2026-04-07T13:47:27.044Z</time></trkpt><trkpt lat="43.7777729" lon="10.8323544"><ele>20.0</ele><time>2026-04-07T13:47:28.044Z</time></trkpt><trkpt lat="43.7776172" lon="10.832279"><ele>20.0</ele><time>2026-04-07T13:47:29.043Z</time></trkpt><trkpt lat="43.7774344" lon="10.832218"><ele>21.5</ele><time>2026-04-07T13:47:30.043Z</time></trkpt><trkpt lat="43.7772237" lon="10.8321463"><ele>23.0</ele><time>2026-04-07T13:47:31.044Z</time></trkpt><trkpt lat="43.7769943" lon="10.8320563"><ele>25.5</ele><time>2026-04-07T13:47:32.044Z</time></trkpt><trkpt lat="43.7767524" lon="10.8319594"><ele>28.0</ele><time>2026-04-07T13:47:33.044Z</time></trkpt><trkpt lat="43.7764944" lon="10.8318384"><ele>26.5</ele><time>2026-04-07T13:47:34.043Z</time></trkpt><trkpt lat="43.7762534" lon="10.831731"><ele>25.0</ele><time>2026-04-07T13:47:35.044Z</time></trkpt><trkpt lat="43.7760101" lon="10.8316382"><ele>25.0</ele><time>2026-04-07T13:47:36.044Z</time></trkpt><trkpt lat="43.7757757" lon="10.8315495"><ele>25.0</ele><time>2026-04-07T13:47:37.043Z</time></trkpt><trkpt lat="43.7755513" lon="10.8314643"><ele>25.0</ele><time>2026-04-07T13:47:38.044Z</time></trkpt><trkpt lat="43.7753494" lon="10.8313848"><ele>25.0</ele><time>2026-04-07T13:47:39.044Z</time></trkpt><trkpt lat="43.7751468" lon="10.8313126"><ele>25.0</ele><time>2026-04-07T13:47:40.044Z</time></trkpt><trkpt lat="43.7749589" lon="10.8312315"><ele>25.666666666666668</ele><time>2026-04-07T13:47:41.043Z</time></trkpt><trkpt lat="43.7747747" lon="10.8311604"><ele>26.333333333333336</ele><time>2026-04-07T13:47:42.044Z</time></trkpt><trkpt lat="43.774597" lon="10.8310914"><ele>27.0</ele><time>2026-04-07T13:47:43.044Z</time></trkpt><trkpt lat="43.7744211" lon="10.8310197"><ele>25.333333333333332</ele><time>2026-04-07T13:47:44.043Z</time></trkpt><trkpt lat="43.7742509" lon="10.8309541"><ele>23.666666666666664</ele><time>2026-04-07T13:47:45.044Z</time></trkpt><trkpt lat="43.7740895" lon="10.8308898"><ele>22.0</ele><time>2026-04-07T13:47:46.043Z</time></trkpt><trkpt lat="43.7739289" lon="10.8308306"><ele>22.0</ele><time>2026-04-07T13:47:47.044Z</time></trkpt><trkpt lat="43.7737742" lon="10.8307744"><ele>22.0</ele><time>2026-04-07T13:47:48.043Z</time></trkpt><trkpt lat="43.7736334" lon="10.8307173"><ele>22.0</ele><time>2026-04-07T13:47:49.044Z</time></trkpt><trkpt lat="43.7734942" lon="10.8306685"><ele>21.25</ele><time>2026-04-07T13:47:50.044Z</time></trkpt><trkpt lat="43.7733719" lon="10.830619"><ele>20.5</ele><time>2026-04-07T13:47:51.044Z</time></trkpt><trkpt lat="43.7732474" lon="10.8305758"><ele>19.75</ele><time>2026-04-07T13:47:52.044Z</time></trkpt><trkpt lat="43.7731259" lon="10.8305299"><ele>19.0</ele><time>2026-04-07T13:47:53.044Z</time></trkpt><trkpt lat="43.7730225" lon="10.8304779"><ele>19.0</ele><time>2026-04-07T13:47:54.043Z</time></trkpt><trkpt lat="43.772898" lon="10.8304333"><ele>19.0</ele><time>2026-04-07T13:47:55.043Z</time></trkpt><trkpt lat="43.7727667" lon="10.8303819"><ele>19.0</ele><time>2026-04-07T13:47:56.044Z</time></trkpt><trkpt lat="43.772632" lon="10.8303255"><ele>19.0</ele><time>2026-04-07T13:47:57.044Z</time></trkpt><trkpt lat="43.7725005" lon="10.8302712"><ele>18.75</ele><time>2026-04-07T13:47:58.043Z</time></trkpt><trkpt lat="43.772364" lon="10.8302178"><ele>18.5</ele><time>2026-04-07T13:47:59.043Z</time></trkpt><trkpt lat="43.7722238" lon="10.8301682"><ele>18.25</ele><time>2026-04-07T13:48:00.043Z</time></trkpt><trkpt lat="43.7720849" lon="10.8301151"><ele>18.0</ele><time>2026-04-07T13:48:01.043Z</time></trkpt><trkpt lat="43.7719456" lon="10.8300526"><ele>18.333333333333332</ele><time>2026-04-07T13:48:02.044Z</time></trkpt><trkpt lat="43.7717984" lon="10.8300009"><ele>18.666666666666664</ele><time>2026-04-07T13:48:03.044Z</time></trkpt><trkpt lat="43.7716499" lon="10.8299393"><ele>19.0</ele><time>2026-04-07T13:48:04.044Z</time></trkpt><trkpt lat="43.7715017" lon="10.8298903"><ele>19.0</ele><time>2026-04-07T13:48:05.044Z</time></trkpt><trkpt lat="43.7713593" lon="10.8298349"><ele>19.0</ele><time>2026-04-07T13:48:06.044Z</time></trkpt><trkpt lat="43.7712089" lon="10.8297788"><ele>19.0</ele><time>2026-04-07T13:48:07.043Z</time></trkpt><trkpt lat="43.7710596" lon="10.829709"><ele>19.333333333333332</ele><time>2026-04-07T13:48:08.044Z</time></trkpt><trkpt lat="43.7709058" lon="10.8296433"><ele>19.666666666666668</ele><time>2026-04-07T13:48:09.043Z</time></trkpt><trkpt lat="43.7707557" lon="10.829559"><ele>20.0</ele><time>2026-04-07T13:48:10.044Z</time></trkpt><trkpt lat="43.770621" lon="10.8294575"><ele>20.0</ele><time>2026-04-07T13:48:11.044Z</time></trkpt><trkpt lat="43.7704823" lon="10.8293569"><ele>20.0</ele><time>2026-04-07T13:48:12.044Z</time></trkpt><trkpt lat="43.7703537" lon="10.8292365"><ele>20.0</ele><time>2026-04-07T13:48:13.044Z</time></trkpt><trkpt lat="43.7702419" lon="10.829115"><ele>20.0</ele><time>2026-04-07T13:48:14.043Z</time></trkpt><trkpt lat="43.7701335" lon="10.8289752"><ele>20.0</ele><time>2026-04-07T13:48:15.044Z</time></trkpt><trkpt lat="43.770026" lon="10.8288302"><ele>20.0</ele><time>2026-04-07T13:48:16.044Z</time></trkpt><trkpt lat="43.7699149" lon="10.8286744"><ele>20.0</ele><time>2026-04-07T13:48:17.044Z</time></trkpt><trkpt lat="43.7698081" lon="10.8285086"><ele>20.0</ele><time>2026-04-07T13:48:18.044Z</time></trkpt><trkpt lat="43.769709" lon="10.8283436"><ele>20.0</ele><time>2026-04-07T13:48:19.044Z</time></trkpt><trkpt lat="43.7696089" lon="10.828183"><ele>20.0</ele><time>2026-04-07T13:48:20.044Z</time></trkpt><trkpt lat="43.7695064" lon="10.8280085"><ele>20.0</ele><time>2026-04-07T13:48:21.044Z</time></trkpt><trkpt lat="43.7693869" lon="10.8278209"><ele>20.0</ele><time>2026-04-07T13:48:22.043Z</time></trkpt><trkpt lat="43.769264" lon="10.827607"><ele>20.0</ele><time>2026-04-07T13:48:23.044Z</time></trkpt><trkpt lat="43.769138" lon="10.8273914"><ele>20.0</ele><time>2026-04-07T13:48:24.044Z</time></trkpt><trkpt lat="43.7690144" lon="10.8271914"><ele>20.0</ele><time>2026-04-07T13:48:25.044Z</time></trkpt><trkpt lat="43.7688906" lon="10.8270043"><ele>20.0</ele><time>2026-04-07T13:48:26.043Z</time></trkpt><trkpt lat="43.768769" lon="10.8268337"><ele>20.0</ele><time>2026-04-07T13:48:27.044Z</time></trkpt><trkpt lat="43.7686268" lon="10.82668"><ele>20.0</ele><time>2026-04-07T13:48:28.044Z</time></trkpt><trkpt lat="43.7684867" lon="10.8265626"><ele>19.5</ele><time>2026-04-07T13:48:29.044Z</time></trkpt><trkpt lat="43.7683377" lon="10.8264713"><ele>19.0</ele><time>2026-04-07T13:48:30.043Z</time></trkpt><trkpt lat="43.7681985" lon="10.8264051"><ele>18.5</ele><time>2026-04-07T13:48:31.044Z</time></trkpt><trkpt lat="43.7680636" lon="10.8263613"><ele>18.0</ele><time>2026-04-07T13:48:32.044Z</time></trkpt><trkpt lat="43.7679335" lon="10.8263176"><ele>18.0</ele><time>2026-04-07T13:48:33.044Z</time></trkpt><trkpt lat="43.767808" lon="10.8262722"><ele>18.0</ele><time>2026-04-07T13:48:34.044Z</time></trkpt><trkpt lat="43.7676849" lon="10.8262266"><ele>18.0</ele><time>2026-04-07T13:48:35.044Z</time></trkpt><trkpt lat="43.7675583" lon="10.8261925"><ele>18.0</ele><time>2026-04-07T13:48:36.043Z</time></trkpt><trkpt lat="43.7674332" lon="10.8261577"><ele>18.25</ele><time>2026-04-07T13:48:37.044Z</time></trkpt><trkpt lat="43.7673072" lon="10.8261169"><ele>18.5</ele><time>2026-04-07T13:48:38.044Z</time></trkpt><trkpt lat="43.7671915" lon="10.8260934"><ele>18.75</ele><time>2026-04-07T13:48:39.043Z</time></trkpt><trkpt lat="43.767069" lon="10.8260582"><ele>19.0</ele><time>2026-04-07T13:48:40.043Z</time></trkpt><trkpt lat="43.7669432" lon="10.8260273"><ele>19.0</ele><time>2026-04-07T13:48:41.043Z</time></trkpt><trkpt lat="43.7668207" lon="10.8259845"><ele>19.0</ele><time>2026-04-07T13:48:42.043Z</time></trkpt><trkpt lat="43.7666918" lon="10.8259401"><ele>19.0</ele><time>2026-04-07T13:48:43.044Z</time></trkpt><trkpt lat="43.7665559" lon="10.825904"><ele>19.0</ele><time>2026-04-07T13:48:44.044Z</time></trkpt><trkpt lat="43.7664302" lon="10.82586"><ele>19.0</ele><time>2026-04-07T13:48:45.044Z</time></trkpt><trkpt lat="43.7663169" lon="10.8258153"><ele>19.0</ele><time>2026-04-07T13:48:46.044Z</time></trkpt><trkpt lat="43.7661971" lon="10.825769"><ele>19.0</ele><time>2026-04-07T13:48:47.044Z</time></trkpt><trkpt lat="43.7660709" lon="10.8257168"><ele>19.0</ele><time>2026-04-07T13:48:48.044Z</time></trkpt><trkpt lat="43.7659502" lon="10.8256799"><ele>19.0</ele><time>2026-04-07T13:48:49.044Z</time></trkpt><trkpt lat="43.7658267" lon="10.8256436"><ele>19.0</ele><time>2026-04-07T13:48:50.044Z</time></trkpt><trkpt lat="43.7656997" lon="10.8256"><ele>19.0</ele><time>2026-04-07T13:48:51.044Z</time></trkpt><trkpt lat="43.765576" lon="10.8255509"><ele>19.0</ele><time>2026-04-07T13:48:52.044Z</time></trkpt><trkpt lat="43.7654527" lon="10.8255086"><ele>19.0</ele><time>2026-04-07T13:48:53.044Z</time></trkpt><trkpt lat="43.7653255" lon="10.8254673"><ele>19.0</ele><time>2026-04-07T13:48:54.044Z</time></trkpt><trkpt lat="43.7652038" lon="10.8254324"><ele>19.0</ele><time>2026-04-07T13:48:55.043Z</time></trkpt><trkpt lat="43.765084" lon="10.8253965"><ele>19.0</ele><time>2026-04-07T13:48:56.043Z</time></trkpt><trkpt lat="43.7649794" lon="10.8253545"><ele>18.8</ele><time>2026-04-07T13:48:57.044Z</time></trkpt><trkpt lat="43.7648767" lon="10.8253195"><ele>18.599999999999998</ele><time>2026-04-07T13:48:58.044Z</time></trkpt><trkpt lat="43.7647747" lon="10.825284"><ele>18.4</ele><time>2026-04-07T13:48:59.044Z</time></trkpt><trkpt lat="43.764665" lon="10.8252525"><ele>18.2</ele><time>2026-04-07T13:49:00.044Z</time></trkpt><trkpt lat="43.7645494" lon="10.8252248"><ele>18.0</ele><time>2026-04-07T13:49:01.044Z</time></trkpt><trkpt lat="43.7644288" lon="10.8251838"><ele>18.0</ele><time>2026-04-07T13:49:02.044Z</time></trkpt><trkpt lat="43.7643027" lon="10.825142"><ele>18.0</ele><time>2026-04-07T13:49:03.043Z</time></trkpt><trkpt lat="43.7641693" lon="10.8251004"><ele>18.0</ele><time>2026-04-07T13:49:04.044Z</time></trkpt><trkpt lat="43.7640405" lon="10.825066"><ele>18.0</ele><time>2026-04-07T13:49:05.044Z</time></trkpt><trkpt lat="43.7639056" lon="10.8250299"><ele>18.0</ele><time>2026-04-07T13:49:06.044Z</time></trkpt><trkpt lat="43.763771" lon="10.8249862"><ele>18.0</ele><time>2026-04-07T13:49:07.044Z</time></trkpt><trkpt lat="43.7636344" lon="10.8249422"><ele>18.0</ele><time>2026-04-07T13:49:08.044Z</time></trkpt><trkpt lat="43.7634983" lon="10.8248941"><ele>18.0</ele><time>2026-04-07T13:49:09.043Z</time></trkpt><trkpt lat="43.7633492" lon="10.8248533"><ele>18.25</ele><time>2026-04-07T13:49:10.044Z</time></trkpt><trkpt lat="43.7632095" lon="10.8248114"><ele>18.5</ele><time>2026-04-07T13:49:11.043Z</time></trkpt><trkpt lat="43.7630605" lon="10.824763"><ele>18.75</ele><time>2026-04-07T13:49:12.044Z</time></trkpt><trkpt lat="43.7629134" lon="10.8247183"><ele>19.0</ele><time>2026-04-07T13:49:13.044Z</time></trkpt><trkpt lat="43.7627644" lon="10.8246726"><ele>18.333333333333332</ele><time>2026-04-07T13:49:14.043Z</time></trkpt><trkpt lat="43.762607" lon="10.8246213"><ele>17.666666666666668</ele><time>2026-04-07T13:49:15.043Z</time></trkpt><trkpt lat="43.7624508" lon="10.824573"><ele>17.0</ele><time>2026-04-07T13:49:16.044Z</time></trkpt><trkpt lat="43.7622949" lon="10.8245215"><ele>17.0</ele><time>2026-04-07T13:49:17.044Z</time></trkpt><trkpt lat="43.7621434" lon="10.8244705"><ele>17.0</ele><time>2026-04-07T13:49:18.044Z</time></trkpt><trkpt lat="43.7619818" lon="10.8244169"><ele>17.0</ele><time>2026-04-07T13:49:19.044Z</time></trkpt><trkpt lat="43.7618351" lon="10.8243675"><ele>17.0</ele><time>2026-04-07T13:49:20.044Z</time></trkpt><trkpt lat="43.7616817" lon="10.8243233"><ele>17.0</ele><time>2026-04-07T13:49:21.044Z</time></trkpt><trkpt lat="43.7615294" lon="10.824277"><ele>17.0</ele><time>2026-04-07T13:49:22.044Z</time></trkpt><trkpt lat="43.761378" lon="10.8242322"><ele>17.333333333333336</ele><time>2026-04-07T13:49:23.044Z</time></trkpt><trkpt lat="43.7612334" lon="10.8241756"><ele>17.666666666666668</ele><time>2026-04-07T13:49:24.044Z</time></trkpt><trkpt lat="43.7610849" lon="10.8241231"><ele>18.0</ele><time>2026-04-07T13:49:25.044Z</time></trkpt><trkpt lat="43.7609348" lon="10.8240769"><ele>18.0</ele><time>2026-04-07T13:49:26.043Z</time></trkpt><trkpt lat="43.7607958" lon="10.8240229"><ele>18.0</ele><time>2026-04-07T13:49:27.044Z</time></trkpt><trkpt lat="43.7606382" lon="10.8239737"><ele>18.0</ele><time>2026-04-07T13:49:28.043Z</time></trkpt><trkpt lat="43.7604731" lon="10.8239281"><ele>18.0</ele><time>2026-04-07T13:49:29.044Z</time></trkpt><trkpt lat="43.7603082" lon="10.823886"><ele>18.0</ele><time>2026-04-07T13:49:30.044Z</time></trkpt><trkpt lat="43.760135" lon="10.8238299"><ele>18.0</ele><time>2026-04-07T13:49:31.044Z</time></trkpt><trkpt lat="43.7599645" lon="10.8237747"><ele>18.333333333333332</ele><time>2026-04-07T13:49:32.044Z</time></trkpt><trkpt lat="43.7597992" lon="10.8237176"><ele>18.666666666666664</ele><time>2026-04-07T13:49:33.044Z</time></trkpt><trkpt lat="43.7596262" lon="10.8236597"><ele>19.0</ele><time>2026-04-07T13:49:34.043Z</time></trkpt><trkpt lat="43.7594527" lon="10.8236042"><ele>19.0</ele><time>2026-04-07T13:49:35.044Z</time></trkpt><trkpt lat="43.759269" lon="10.8235433"><ele>19.0</ele><time>2026-04-07T13:49:36.044Z</time></trkpt><trkpt lat="43.7590802" lon="10.8234817"><ele>19.0</ele><time>2026-04-07T13:49:37.044Z</time></trkpt><trkpt lat="43.7588973" lon="10.8234248"><ele>18.666666666666664</ele><time>2026-04-07T13:49:38.044Z</time></trkpt><trkpt lat="43.758709" lon="10.8233672"><ele>18.333333333333332</ele><time>2026-04-07T13:49:39.043Z</time></trkpt><trkpt lat="43.7585102" lon="10.823305"><ele>18.0</ele><time>2026-04-07T13:49:40.044Z</time></trkpt><trkpt lat="43.7583146" lon="10.8232448"><ele>17.666666666666668</ele><time>2026-04-07T13:49:41.044Z</time></trkpt><trkpt lat="43.7581335" lon="10.8231849"><ele>17.333333333333336</ele><time>2026-04-07T13:49:42.044Z</time></trkpt><trkpt lat="43.7579405" lon="10.8231276"><ele>17.0</ele><time>2026-04-07T13:49:43.044Z</time></trkpt><trkpt lat="43.7577421" lon="10.8230638"><ele>17.666666666666668</ele><time>2026-04-07T13:49:44.044Z</time></trkpt><trkpt lat="43.7575457" lon="10.8230063"><ele>18.333333333333332</ele><time>2026-04-07T13:49:45.044Z</time></trkpt><trkpt lat="43.7573461" lon="10.8229447"><ele>19.0</ele><time>2026-04-07T13:49:46.043Z</time></trkpt><trkpt lat="43.7571472" lon="10.8228789"><ele>19.0</ele><time>2026-04-07T13:49:47.044Z</time></trkpt><trkpt lat="43.7569481" lon="10.822819"><ele>19.0</ele><time>2026-04-07T13:49:48.043Z</time></trkpt><trkpt lat="43.756756" lon="10.8227609"><ele>19.0</ele><time>2026-04-07T13:49:49.044Z</time></trkpt><trkpt lat="43.7565713" lon="10.8226936"><ele>18.666666666666664</ele><time>2026-04-07T13:49:50.043Z</time></trkpt><trkpt lat="43.7563936" lon="10.8226397"><ele>18.333333333333332</ele><time>2026-04-07T13:49:51.044Z</time></trkpt><trkpt lat="43.7562188" lon="10.8225886"><ele>18.0</ele><time>2026-04-07T13:49:52.044Z</time></trkpt><trkpt lat="43.7560493" lon="10.8225408"><ele>17.666666666666668</ele><time>2026-04-07T13:49:53.044Z</time></trkpt><trkpt lat="43.755876" lon="10.8224847"><ele>17.333333333333336</ele><time>2026-04-07T13:49:54.044Z</time></trkpt><trkpt lat="43.7557232" lon="10.8224262"><ele>17.0</ele><time>2026-04-07T13:49:55.044Z</time></trkpt><trkpt lat="43.7555711" lon="10.8223734"><ele>17.0</ele><time>2026-04-07T13:49:56.043Z</time></trkpt><trkpt lat="43.7554389" lon="10.8223249"><ele>17.0</ele><time>2026-04-07T13:49:57.043Z</time></trkpt><trkpt lat="43.7553051" lon="10.8222732"><ele>17.0</ele><time>2026-04-07T13:49:58.044Z</time></trkpt><trkpt lat="43.7551731" lon="10.8222288"><ele>17.0</ele><time>2026-04-07T13:49:59.044Z</time></trkpt><trkpt lat="43.7550319" lon="10.822188"><ele>17.25</ele><time>2026-04-07T13:50:00.044Z</time></trkpt><trkpt lat="43.7548894" lon="10.8221401"><ele>17.5</ele><time>2026-04-07T13:50:01.044Z</time></trkpt><trkpt lat="43.7547451" lon="10.8220909"><ele>17.75</ele><time>2026-04-07T13:50:02.044Z</time></trkpt><trkpt lat="43.754598" lon="10.8220505"><ele>18.0</ele><time>2026-04-07T13:50:03.043Z</time></trkpt><trkpt lat="43.7544557" lon="10.8220032"><ele>18.0</ele><time>2026-04-07T13:50:04.043Z</time></trkpt><trkpt lat="43.754312" lon="10.8219626"><ele>18.0</ele><time>2026-04-07T13:50:05.044Z</time></trkpt><trkpt lat="43.7541583" lon="10.8219123"><ele>18.0</ele><time>2026-04-07T13:50:06.044Z</time></trkpt><trkpt lat="43.7540024" lon="10.8218667"><ele>18.0</ele><time>2026-04-07T13:50:07.044Z</time></trkpt><trkpt lat="43.753842" lon="10.8218243"><ele>18.0</ele><time>2026-04-07T13:50:08.044Z</time></trkpt><trkpt lat="43.7536809" lon="10.8217756"><ele>18.0</ele><time>2026-04-07T13:50:09.044Z</time></trkpt><trkpt lat="43.7535265" lon="10.82171"><ele>18.333333333333332</ele><time>2026-04-07T13:50:10.044Z</time></trkpt><trkpt lat="43.7533623" lon="10.8216473"><ele>18.666666666666664</ele><time>2026-04-07T13:50:11.044Z</time></trkpt><trkpt lat="43.7531984" lon="10.821594"><ele>19.0</ele><time>2026-04-07T13:50:12.044Z</time></trkpt><trkpt lat="43.7530378" lon="10.8215462"><ele>19.0</ele><time>2026-04-07T13:50:13.044Z</time></trkpt><trkpt lat="43.7528816" lon="10.8214965"><ele>19.0</ele><time>2026-04-07T13:50:14.044Z</time></trkpt><trkpt lat="43.7527244" lon="10.8214503"><ele>19.0</ele><time>2026-04-07T13:50:15.044Z</time></trkpt><trkpt lat="43.7525634" lon="10.821402"><ele>18.666666666666664</ele><time>2026-04-07T13:50:16.044Z</time></trkpt><trkpt lat="43.7524086" lon="10.8213506"><ele>18.333333333333332</ele><time>2026-04-07T13:50:17.044Z</time></trkpt><trkpt lat="43.7522497" lon="10.8213079"><ele>18.0</ele><time>2026-04-07T13:50:18.043Z</time></trkpt><trkpt lat="43.7520903" lon="10.8212617"><ele>18.0</ele><time>2026-04-07T13:50:19.044Z</time></trkpt><trkpt lat="43.751941" lon="10.8212134"><ele>18.0</ele><time>2026-04-07T13:50:20.044Z</time></trkpt><trkpt lat="43.7517964" lon="10.8211706"><ele>18.0</ele><time>2026-04-07T13:50:21.044Z</time></trkpt><trkpt lat="43.7516483" lon="10.8211208"><ele>18.25</ele><time>2026-04-07T13:50:22.044Z</time></trkpt><trkpt lat="43.7515017" lon="10.8210766"><ele>18.5</ele><time>2026-04-07T13:50:23.043Z</time></trkpt><trkpt lat="43.7513685" lon="10.8210213"><ele>18.75</ele><time>2026-04-07T13:50:24.043Z</time></trkpt><trkpt lat="43.7512137" lon="10.8209724"><ele>19.0</ele><time>2026-04-07T13:50:25.044Z</time></trkpt><trkpt lat="43.7510623" lon="10.820922"><ele>19.0</ele><time>2026-04-07T13:50:26.044Z</time></trkpt><trkpt lat="43.7508999" lon="10.8208737"><ele>19.0</ele><time>2026-04-07T13:50:27.044Z</time></trkpt><trkpt lat="43.7507393" lon="10.820828"><ele>19.0</ele><time>2026-04-07T13:50:28.043Z</time></trkpt><trkpt lat="43.7505797" lon="10.8207732"><ele>19.0</ele><time>2026-04-07T13:50:29.044Z</time></trkpt><trkpt lat="43.7504227" lon="10.8207216"><ele>19.0</ele><time>2026-04-07T13:50:30.044Z</time></trkpt><trkpt lat="43.7502674" lon="10.8206688"><ele>19.0</ele><time>2026-04-07T13:50:31.044Z</time></trkpt><trkpt lat="43.7501051" lon="10.8206197"><ele>19.333333333333332</ele><time>2026-04-07T13:50:32.043Z</time></trkpt><trkpt lat="43.7499383" lon="10.820573"><ele>19.666666666666668</ele><time>2026-04-07T13:50:33.044Z</time></trkpt><trkpt lat="43.7497833" lon="10.8205196"><ele>20.0</ele><time>2026-04-07T13:50:34.043Z</time></trkpt><trkpt lat="43.7496232" lon="10.8204739"><ele>20.0</ele><time>2026-04-07T13:50:35.044Z</time></trkpt><trkpt lat="43.7494679" lon="10.8204223"><ele>20.0</ele><time>2026-04-07T13:50:36.044Z</time></trkpt><trkpt lat="43.749321" lon="10.8203805"><ele>20.0</ele><time>2026-04-07T13:50:37.044Z</time></trkpt><trkpt lat="43.7491666" lon="10.8203337"><ele>20.666666666666668</ele><time>2026-04-07T13:50:38.044Z</time></trkpt><trkpt lat="43.7490102" lon="10.8202881"><ele>21.333333333333332</ele><time>2026-04-07T13:50:39.044Z</time></trkpt><trkpt lat="43.748862" lon="10.8202384"><ele>22.0</ele><time>2026-04-07T13:50:40.044Z</time></trkpt><trkpt lat="43.7487176" lon="10.8201924"><ele>21.0</ele><time>2026-04-07T13:50:41.044Z</time></trkpt><trkpt lat="43.7485687" lon="10.8201463"><ele>20.0</ele><time>2026-04-07T13:50:42.044Z</time></trkpt><trkpt lat="43.7484214" lon="10.8201001"><ele>19.0</ele><time>2026-04-07T13:50:43.044Z</time></trkpt><trkpt lat="43.7482792" lon="10.8200492"><ele>18.25</ele><time>2026-04-07T13:50:44.044Z</time></trkpt><trkpt lat="43.7481386" lon="10.8199992"><ele>17.5</ele><time>2026-04-07T13:50:45.044Z</time></trkpt><trkpt lat="43.7479966" lon="10.81996"><ele>16.75</ele><time>2026-04-07T13:50:46.043Z</time></trkpt><trkpt lat="43.7478606" lon="10.8199148"><ele>16.0</ele><time>2026-04-07T13:50:47.044Z</time></trkpt><trkpt lat="43.7477187" lon="10.819874"><ele>16.25</ele><time>2026-04-07T13:50:48.044Z</time></trkpt><trkpt lat="43.747581" lon="10.8198263"><ele>16.5</ele><time>2026-04-07T13:50:49.044Z</time></trkpt><trkpt lat="43.7474428" lon="10.8197858"><ele>16.75</ele><time>2026-04-07T13:50:50.044Z</time></trkpt><trkpt lat="43.7473141" lon="10.8197404"><ele>17.0</ele><time>2026-04-07T13:50:51.044Z</time></trkpt><trkpt lat="43.7471792" lon="10.8197004"><ele>17.0</ele><time>2026-04-07T13:50:52.043Z</time></trkpt><trkpt lat="43.7470526" lon="10.8196564"><ele>17.0</ele><time>2026-04-07T13:50:53.044Z</time></trkpt><trkpt lat="43.7469132" lon="10.8196191"><ele>17.0</ele><time>2026-04-07T13:50:54.043Z</time></trkpt><trkpt lat="43.746778" lon="10.8195834"><ele>17.0</ele><time>2026-04-07T13:50:55.044Z</time></trkpt><trkpt lat="43.7466433" lon="10.8195423"><ele>17.25</ele><time>2026-04-07T13:50:56.043Z</time></trkpt><trkpt lat="43.7465016" lon="10.8195034"><ele>17.5</ele><time>2026-04-07T13:50:57.044Z</time></trkpt><trkpt lat="43.7463599" lon="10.8194572"><ele>17.75</ele><time>2026-04-07T13:50:58.043Z</time></trkpt><trkpt lat="43.7462213" lon="10.8194109"><ele>18.0</ele><time>2026-04-07T13:50:59.043Z</time></trkpt><trkpt lat="43.7460938" lon="10.8193728"><ele>18.25</ele><time>2026-04-07T13:51:00.044Z</time></trkpt><trkpt lat="43.7459652" lon="10.8193407"><ele>18.5</ele><time>2026-04-07T13:51:01.044Z</time></trkpt><trkpt lat="43.7458401" lon="10.8193039"><ele>18.75</ele><time>2026-04-07T13:51:02.044Z</time></trkpt><trkpt lat="43.7457069" lon="10.8192681"><ele>19.0</ele><time>2026-04-07T13:51:03.044Z</time></trkpt><trkpt lat="43.7455748" lon="10.8192259"><ele>19.0</ele><time>2026-04-07T13:51:04.044Z</time></trkpt><trkpt lat="43.745444" lon="10.8191928"><ele>19.0</ele><time>2026-04-07T13:51:05.044Z</time></trkpt><trkpt lat="43.7453204" lon="10.8191527"><ele>19.0</ele><time>2026-04-07T13:51:06.043Z</time></trkpt><trkpt lat="43.7451986" lon="10.8191094"><ele>19.0</ele><time>2026-04-07T13:51:07.043Z</time></trkpt><trkpt lat="43.7450583" lon="10.8190702"><ele>20.0</ele><time>2026-04-07T13:51:08.044Z</time></trkpt><trkpt lat="43.7449202" lon="10.8190288"><ele>21.0</ele><time>2026-04-07T13:51:09.044Z</time></trkpt><trkpt lat="43.7447699" lon="10.8189812"><ele>22.0</ele><time>2026-04-07T13:51:10.044Z</time></trkpt><trkpt lat="43.7446144" lon="10.8189404"><ele>22.0</ele><time>2026-04-07T13:51:11.044Z</time></trkpt><trkpt lat="43.7444682" lon="10.8188913"><ele>22.0</ele><time>2026-04-07T13:51:12.044Z</time></trkpt><trkpt lat="43.7443217" lon="10.8188402"><ele>22.0</ele><time>2026-04-07T13:51:13.043Z</time></trkpt><trkpt lat="43.7441615" lon="10.8187858"><ele>21.666666666666664</ele><time>2026-04-07T13:51:14.044Z</time></trkpt><trkpt lat="43.744014" lon="10.8187308"><ele>21.333333333333332</ele><time>2026-04-07T13:51:15.043Z</time></trkpt><trkpt lat="43.7438641" lon="10.8186607"><ele>21.0</ele><time>2026-04-07T13:51:16.044Z</time></trkpt><trkpt lat="43.7437122" lon="10.8185822"><ele>21.0</ele><time>2026-04-07T13:51:17.043Z</time></trkpt><trkpt lat="43.7435655" lon="10.818499"><ele>21.0</ele><time>2026-04-07T13:51:18.043Z</time></trkpt><trkpt lat="43.7434316" lon="10.8184027"><ele>21.0</ele><time>2026-04-07T13:51:19.044Z</time></trkpt><trkpt lat="43.7433104" lon="10.8183077"><ele>21.0</ele><time>2026-04-07T13:51:20.043Z</time></trkpt><trkpt lat="43.7431922" lon="10.8182068"><ele>20.75</ele><time>2026-04-07T13:51:21.044Z</time></trkpt><trkpt lat="43.7430691" lon="10.8180968"><ele>20.5</ele><time>2026-04-07T13:51:22.044Z</time></trkpt><trkpt lat="43.7429437" lon="10.8179731"><ele>20.25</ele><time>2026-04-07T13:51:23.043Z</time></trkpt><trkpt lat="43.7428299" lon="10.817845"><ele>20.0</ele><time>2026-04-07T13:51:24.044Z</time></trkpt><trkpt lat="43.7427218" lon="10.8177146"><ele>19.5</ele><time>2026-04-07T13:51:25.043Z</time></trkpt><trkpt lat="43.7426223" lon="10.8175846"><ele>19.0</ele><time>2026-04-07T13:51:26.043Z</time></trkpt><trkpt lat="43.7425268" lon="10.8174631"><ele>18.5</ele><time>2026-04-07T13:51:27.044Z</time></trkpt><trkpt lat="43.7424306" lon="10.8173401"><ele>18.0</ele><time>2026-04-07T13:51:28.044Z</time></trkpt><trkpt lat="43.742336" lon="10.8172011"><ele>18.0</ele><time>2026-04-07T13:51:29.044Z</time></trkpt><trkpt lat="43.7422364" lon="10.8170775"><ele>18.0</ele><time>2026-04-07T13:51:30.044Z</time></trkpt><trkpt lat="43.7421366" lon="10.8169518"><ele>18.0</ele><time>2026-04-07T13:51:31.044Z</time></trkpt><trkpt lat="43.7420372" lon="10.8168248"><ele>18.0</ele><time>2026-04-07T13:51:32.044Z</time></trkpt><trkpt lat="43.741935" lon="10.8167001"><ele>18.25</ele><time>2026-04-07T13:51:33.044Z</time></trkpt><trkpt lat="43.7418319" lon="10.8165735"><ele>18.5</ele><time>2026-04-07T13:51:34.043Z</time></trkpt><trkpt lat="43.7417295" lon="10.8164385"><ele>18.75</ele><time>2026-04-07T13:51:35.044Z</time></trkpt><trkpt lat="43.7416304" lon="10.8163134"><ele>19.0</ele><time>2026-04-07T13:51:36.044Z</time></trkpt><trkpt lat="43.7415387" lon="10.8161867"><ele>19.0</ele><time>2026-04-07T13:51:37.044Z</time></trkpt><trkpt lat="43.7414451" lon="10.8160647"><ele>19.0</ele><time>2026-04-07T13:51:38.043Z</time></trkpt><trkpt lat="43.7413498" lon="10.8159452"><ele>19.0</ele><time>2026-04-07T13:51:39.043Z</time></trkpt><trkpt lat="43.741251" lon="10.8158212"><ele>19.0</ele><time>2026-04-07T13:51:40.044Z</time></trkpt><trkpt lat="43.7411447" lon="10.8156809"><ele>18.666666666666664</ele><time>2026-04-07T13:51:41.043Z</time></trkpt><trkpt lat="43.7410278" lon="10.8155383"><ele>18.333333333333332</ele><time>2026-04-07T13:51:42.044Z</time></trkpt><trkpt lat="43.7409031" lon="10.815388"><ele>18.0</ele><time>2026-04-07T13:51:43.043Z</time></trkpt><trkpt lat="43.7407944" lon="10.8152474"><ele>18.0</ele><time>2026-04-07T13:51:44.043Z</time></trkpt><trkpt lat="43.7406874" lon="10.8151106"><ele>18.0</ele><time>2026-04-07T13:51:45.044Z</time></trkpt><trkpt lat="43.7405893" lon="10.8149825"><ele>18.0</ele><time>2026-04-07T13:51:46.043Z</time></trkpt><trkpt lat="43.7405005" lon="10.8148599"><ele>18.0</ele><time>2026-04-07T13:51:47.044Z</time></trkpt><trkpt lat="43.7404052" lon="10.8147334"><ele>18.0</ele><time>2026-04-07T13:51:48.044Z</time></trkpt><trkpt lat="43.7403107" lon="10.8146157"><ele>18.0</ele><time>2026-04-07T13:51:49.043Z</time></trkpt><trkpt lat="43.7402088" lon="10.8144852"><ele>18.0</ele><time>2026-04-07T13:51:50.044Z</time></trkpt><trkpt lat="43.7401121" lon="10.8143591"><ele>18.0</ele><time>2026-04-07T13:51:51.043Z</time></trkpt><trkpt lat="43.7400116" lon="10.8142336"><ele>18.25</ele><time>2026-04-07T13:51:52.044Z</time></trkpt><trkpt lat="43.7399109" lon="10.8141036"><ele>18.5</ele><time>2026-04-07T13:51:53.044Z</time></trkpt><trkpt lat="43.7398146" lon="10.8139795"><ele>18.75</ele><time>2026-04-07T13:51:54.044Z</time></trkpt><trkpt lat="43.7397142" lon="10.8138545"><ele>19.0</ele><time>2026-04-07T13:51:55.043Z</time></trkpt><trkpt lat="43.7396128" lon="10.8137191"><ele>19.0</ele><time>2026-04-07T13:51:56.043Z</time></trkpt><trkpt lat="43.7395143" lon="10.8135969"><ele>19.0</ele><time>2026-04-07T13:51:57.044Z</time></trkpt><trkpt lat="43.7394207" lon="10.8134744"><ele>19.0</ele><time>2026-04-07T13:51:58.043Z</time></trkpt><trkpt lat="43.739324" lon="10.8133529"><ele>19.0</ele><time>2026-04-07T13:51:59.043Z</time></trkpt><trkpt lat="43.7392195" lon="10.8132282"><ele>18.75</ele><time>2026-04-07T13:52:00.044Z</time></trkpt><trkpt lat="43.7391229" lon="10.8131114"><ele>18.5</ele><time>2026-04-07T13:52:01.043Z</time></trkpt><trkpt lat="43.7390237" lon="10.8129934"><ele>18.25</ele><time>2026-04-07T13:52:02.044Z</time></trkpt><trkpt lat="43.7389325" lon="10.8128767"><ele>18.0</ele><time>2026-04-07T13:52:03.044Z</time></trkpt><trkpt lat="43.7388357" lon="10.8127498"><ele>17.75</ele><time>2026-04-07T13:52:04.044Z</time></trkpt><trkpt lat="43.7387345" lon="10.8126169"><ele>17.5</ele><time>2026-04-07T13:52:05.043Z</time></trkpt><trkpt lat="43.7386344" lon="10.8124941"><ele>17.25</ele><time>2026-04-07T13:52:06.044Z</time></trkpt><trkpt lat="43.7385347" lon="10.8123711"><ele>17.0</ele><time>2026-04-07T13:52:07.044Z</time></trkpt><trkpt lat="43.7384426" lon="10.8122501"><ele>17.25</ele><time>2026-04-07T13:52:08.044Z</time></trkpt><trkpt lat="43.7383507" lon="10.8121272"><ele>17.5</ele><time>2026-04-07T13:52:09.044Z</time></trkpt><trkpt lat="43.7382537" lon="10.8119994"><ele>17.75</ele><time>2026-04-07T13:52:10.044Z</time></trkpt><trkpt lat="43.7381515" lon="10.8118679"><ele>18.0</ele><time>2026-04-07T13:52:11.044Z</time></trkpt><trkpt lat="43.7380405" lon="10.811739"><ele>18.0</ele><time>2026-04-07T13:52:12.044Z</time></trkpt><trkpt lat="43.7379311" lon="10.8116"><ele>18.0</ele><time>2026-04-07T13:52:13.044Z</time></trkpt><trkpt lat="43.7378216" lon="10.811461"><ele>18.0</ele><time>2026-04-07T13:52:14.044Z</time></trkpt><trkpt lat="43.7377176" lon="10.8113273"><ele>18.0</ele><time>2026-04-07T13:52:15.044Z</time></trkpt><trkpt lat="43.7376095" lon="10.8111956"><ele>18.0</ele><time>2026-04-07T13:52:16.044Z</time></trkpt><trkpt lat="43.7374991" lon="10.8110583"><ele>18.0</ele><time>2026-04-07T13:52:17.043Z</time></trkpt><trkpt lat="43.7373937" lon="10.810924"><ele>18.0</ele><time>2026-04-07T13:52:18.043Z</time></trkpt><trkpt lat="43.7372917" lon="10.8107853"><ele>18.0</ele><time>2026-04-07T13:52:19.044Z</time></trkpt><trkpt lat="43.7371911" lon="10.8106514"><ele>18.0</ele><time>2026-04-07T13:52:20.044Z</time></trkpt><trkpt lat="43.7370871" lon="10.8105206"><ele>18.0</ele><time>2026-04-07T13:52:21.043Z</time></trkpt><trkpt lat="43.7369805" lon="10.8103902"><ele>18.0</ele><time>2026-04-07T13:52:22.043Z</time></trkpt><trkpt lat="43.7368769" lon="10.8102576"><ele>18.0</ele><time>2026-04-07T13:52:23.043Z</time></trkpt><trkpt lat="43.7367683" lon="10.8101223"><ele>18.5</ele><time>2026-04-07T13:52:24.044Z</time></trkpt><trkpt lat="43.7366642" lon="10.8099948"><ele>19.0</ele><time>2026-04-07T13:52:25.044Z</time></trkpt><trkpt lat="43.7365561" lon="10.8098679"><ele>19.5</ele><time>2026-04-07T13:52:26.044Z</time></trkpt><trkpt lat="43.7364504" lon="10.8097395"><ele>20.0</ele><time>2026-04-07T13:52:27.043Z</time></trkpt><trkpt lat="43.7363518" lon="10.8096132"><ele>20.0</ele><time>2026-04-07T13:52:28.044Z</time></trkpt><trkpt lat="43.7362588" lon="10.8094924"><ele>20.0</ele><time>2026-04-07T13:52:29.044Z</time></trkpt><trkpt lat="43.7361832" lon="10.809389"><ele>20.0</ele><time>2026-04-07T13:52:30.043Z</time></trkpt><trkpt lat="43.7361197" lon="10.8093008"><ele>20.0</ele><time>2026-04-07T13:52:31.044Z</time></trkpt><trkpt lat="43.7360555" lon="10.8092267"><ele>20.0</ele><time>2026-04-07T13:52:32.044Z</time></trkpt><trkpt lat="43.7359889" lon="10.8091433"><ele>20.833333333333336</ele><time>2026-04-07T13:52:33.043Z</time></trkpt><trkpt lat="43.7359176" lon="10.8090501"><ele>21.666666666666668</ele><time>2026-04-07T13:52:34.044Z</time></trkpt><trkpt lat="43.735844" lon="10.8089658"><ele>22.5</ele><time>2026-04-07T13:52:35.044Z</time></trkpt><trkpt lat="43.7357789" lon="10.8088928"><ele>23.333333333333336</ele><time>2026-04-07T13:52:36.044Z</time></trkpt><trkpt lat="43.7357204" lon="10.8088124"><ele>24.166666666666668</ele><time>2026-04-07T13:52:37.044Z</time></trkpt><trkpt lat="43.7356658" lon="10.8087496"><ele>25.0</ele><time>2026-04-07T13:52:38.044Z</time></trkpt><trkpt lat="43.7355827" lon="10.8086431"><ele>25.000000000000004</ele><time>2026-04-07T13:52:40.044Z</time></trkpt><trkpt lat="43.7355273" lon="10.8085693"><ele>25.0</ele><time>2026-04-07T13:52:42.043Z</time></trkpt><trkpt lat="43.7354767" lon="10.8085168"><ele>25.0</ele><time>2026-04-07T13:52:44.043Z</time></trkpt><trkpt lat="43.7353969" lon="10.808401"><ele>25.0</ele><time>2026-04-07T13:52:46.043Z</time></trkpt><trkpt lat="43.7353534" lon="10.8083242"><ele>25.000000000000004</ele><time>2026-04-07T13:52:47.044Z</time></trkpt><trkpt lat="43.7353276" lon="10.808242"><ele>25.0</ele><time>2026-04-07T13:52:48.044Z</time></trkpt><trkpt lat="43.7353083" lon="10.8081439"><ele>24.500000000000004</ele><time>2026-04-07T13:52:49.044Z</time></trkpt><trkpt lat="43.7352999" lon="10.8080379"><ele>24.0</ele><time>2026-04-07T13:52:50.043Z</time></trkpt><trkpt lat="43.735282" lon="10.8079283"><ele>23.5</ele><time>2026-04-07T13:52:51.044Z</time></trkpt><trkpt lat="43.7352417" lon="10.8078349"><ele>23.0</ele><time>2026-04-07T13:52:52.043Z</time></trkpt><trkpt lat="43.735185" lon="10.8077668"><ele>22.5</ele><time>2026-04-07T13:52:53.044Z</time></trkpt><trkpt lat="43.7351117" lon="10.8077395"><ele>22.0</ele><time>2026-04-07T13:52:54.043Z</time></trkpt><trkpt lat="43.7350236" lon="10.8077473"><ele>21.8</ele><time>2026-04-07T13:52:55.043Z</time></trkpt><trkpt lat="43.7349438" lon="10.8077882"><ele>21.6</ele><time>2026-04-07T13:52:56.043Z</time></trkpt><trkpt lat="43.734899" lon="10.8078893"><ele>21.400000000000002</ele><time>2026-04-07T13:52:57.043Z</time></trkpt><trkpt lat="43.7348847" lon="10.808008"><ele>21.200000000000003</ele><time>2026-04-07T13:52:58.044Z</time></trkpt><trkpt lat="43.7348663" lon="10.8081518"><ele>21.0</ele><time>2026-04-07T13:52:59.043Z</time></trkpt><trkpt lat="43.7348405" lon="10.8082968"><ele>21.0</ele><time>2026-04-07T13:53:00.044Z</time></trkpt><trkpt lat="43.7348049" lon="10.8084446"><ele>21.0</ele><time>2026-04-07T13:53:01.043Z</time></trkpt><trkpt lat="43.7347442" lon="10.8085872"><ele>21.0</ele><time>2026-04-07T13:53:02.043Z</time></trkpt><trkpt lat="43.7346848" lon="10.8087178"><ele>21.0</ele><time>2026-04-07T13:53:03.044Z</time></trkpt><trkpt lat="43.7345985" lon="10.8088805"><ele>21.666666666666668</ele><time>2026-04-07T13:53:04.044Z</time></trkpt><trkpt lat="43.7345156" lon="10.8090456"><ele>22.333333333333336</ele><time>2026-04-07T13:53:05.043Z</time></trkpt><trkpt lat="43.7344258" lon="10.8092202"><ele>23.0</ele><time>2026-04-07T13:53:06.044Z</time></trkpt><trkpt lat="43.7343337" lon="10.8094104"><ele>23.0</ele><time>2026-04-07T13:53:07.044Z</time></trkpt><trkpt lat="43.7342431" lon="10.8096058"><ele>23.0</ele><time>2026-04-07T13:53:08.044Z</time></trkpt><trkpt lat="43.7341524" lon="10.8097973"><ele>23.0</ele><time>2026-04-07T13:53:09.044Z</time></trkpt><trkpt lat="43.734076" lon="10.8099841"><ele>25.333333333333336</ele><time>2026-04-07T13:53:10.043Z</time></trkpt><trkpt lat="43.7340042" lon="10.810177"><ele>27.666666666666668</ele><time>2026-04-07T13:53:11.044Z</time></trkpt><trkpt lat="43.7339347" lon="10.81038"><ele>30.0</ele><time>2026-04-07T13:53:12.044Z</time></trkpt><trkpt lat="43.7338643" lon="10.8105853"><ele>30.0</ele><time>2026-04-07T13:53:13.044Z</time></trkpt><trkpt lat="43.7338001" lon="10.8107951"><ele>30.0</ele><time>2026-04-07T13:53:14.044Z</time></trkpt><trkpt lat="43.7337271" lon="10.8110097"><ele>30.0</ele><time>2026-04-07T13:53:15.044Z</time></trkpt><trkpt lat="43.7336617" lon="10.8112293"><ele>29.666666666666664</ele><time>2026-04-07T13:53:16.044Z</time></trkpt><trkpt lat="43.7336014" lon="10.8114482"><ele>29.333333333333332</ele><time>2026-04-07T13:53:17.043Z</time></trkpt><trkpt lat="43.7335448" lon="10.811662"><ele>29.0</ele><time>2026-04-07T13:53:18.044Z</time></trkpt><trkpt lat="43.7334942" lon="10.8118671"><ele>29.0</ele><time>2026-04-07T13:53:19.044Z</time></trkpt><trkpt lat="43.7334444" lon="10.8120626"><ele>29.0</ele><time>2026-04-07T13:53:20.044Z</time></trkpt><trkpt lat="43.7333888" lon="10.8122631"><ele>29.0</ele><time>2026-04-07T13:53:21.044Z</time></trkpt><trkpt lat="43.7333388" lon="10.8124711"><ele>31.666666666666664</ele><time>2026-04-07T13:53:22.044Z</time></trkpt><trkpt lat="43.7332888" lon="10.8126818"><ele>34.333333333333336</ele><time>2026-04-07T13:53:23.044Z</time></trkpt><trkpt lat="43.7332349" lon="10.8128938"><ele>37.0</ele><time>2026-04-07T13:53:24.043Z</time></trkpt><trkpt lat="43.7331926" lon="10.813106"><ele>37.0</ele><time>2026-04-07T13:53:25.043Z</time></trkpt><trkpt lat="43.7331386" lon="10.8133178"><ele>37.0</ele><time>2026-04-07T13:53:26.044Z</time></trkpt><trkpt lat="43.7330876" lon="10.8135361"><ele>37.0</ele><time>2026-04-07T13:53:27.043Z</time></trkpt><trkpt lat="43.7330377" lon="10.8137585"><ele>37.0</ele><time>2026-04-07T13:53:28.044Z</time></trkpt><trkpt lat="43.7329887" lon="10.8139695"><ele>37.0</ele><time>2026-04-07T13:53:29.044Z</time></trkpt><trkpt lat="43.7329402" lon="10.8141732"><ele>37.0</ele><time>2026-04-07T13:53:30.044Z</time></trkpt><trkpt lat="43.7328921" lon="10.8143771"><ele>37.0</ele><time>2026-04-07T13:53:31.044Z</time></trkpt><trkpt lat="43.7328356" lon="10.8145796"><ele>37.0</ele><time>2026-04-07T13:53:32.043Z</time></trkpt><trkpt lat="43.732786" lon="10.8147808"><ele>37.0</ele><time>2026-04-07T13:53:33.044Z</time></trkpt><trkpt lat="43.7327263" lon="10.8149828"><ele>33.0</ele><time>2026-04-07T13:53:34.043Z</time></trkpt><trkpt lat="43.7326569" lon="10.8151847"><ele>29.0</ele><time>2026-04-07T13:53:35.044Z</time></trkpt><trkpt lat="43.7325864" lon="10.8153765"><ele>25.0</ele><time>2026-04-07T13:53:36.044Z</time></trkpt><trkpt lat="43.7325108" lon="10.815556"><ele>25.0</ele><time>2026-04-07T13:53:37.044Z</time></trkpt><trkpt lat="43.7324387" lon="10.8157267"><ele>25.0</ele><time>2026-04-07T13:53:38.044Z</time></trkpt><trkpt lat="43.7323577" lon="10.815887"><ele>25.0</ele><time>2026-04-07T13:53:39.043Z</time></trkpt><trkpt lat="43.7322814" lon="10.8160317"><ele>25.0</ele><time>2026-04-07T13:53:40.044Z</time></trkpt><trkpt lat="43.7322107" lon="10.8161528"><ele>24.25</ele><time>2026-04-07T13:53:41.043Z</time></trkpt><trkpt lat="43.7321273" lon="10.8162767"><ele>23.5</ele><time>2026-04-07T13:53:42.043Z</time></trkpt><trkpt lat="43.7320435" lon="10.8163949"><ele>22.75</ele><time>2026-04-07T13:53:43.043Z</time></trkpt><trkpt lat="43.7319653" lon="10.8165057"><ele>22.0</ele><time>2026-04-07T13:53:44.044Z</time></trkpt><trkpt lat="43.7318878" lon="10.8166097"><ele>22.0</ele><time>2026-04-07T13:53:45.044Z</time></trkpt><trkpt lat="43.7318149" lon="10.8167072"><ele>22.0</ele><time>2026-04-07T13:53:46.044Z</time></trkpt><trkpt lat="43.7317388" lon="10.8167956"><ele>22.0</ele><time>2026-04-07T13:53:47.044Z</time></trkpt><trkpt lat="43.7316405" lon="10.8169008"><ele>22.0</ele><time>2026-04-07T13:53:48.044Z</time></trkpt><trkpt lat="43.7315372" lon="10.8170176"><ele>21.666666666666664</ele><time>2026-04-07T13:53:49.043Z</time></trkpt><trkpt lat="43.731403" lon="10.817152"><ele>21.333333333333332</ele><time>2026-04-07T13:53:50.043Z</time></trkpt><trkpt lat="43.7312619" lon="10.8172771"><ele>21.0</ele><time>2026-04-07T13:53:51.044Z</time></trkpt><trkpt lat="43.7311265" lon="10.8173802"><ele>21.0</ele><time>2026-04-07T13:53:52.044Z</time></trkpt><trkpt lat="43.7309993" lon="10.8174732"><ele>21.0</ele><time>2026-04-07T13:53:53.044Z</time></trkpt><trkpt lat="43.7308731" lon="10.8175543"><ele>21.0</ele><time>2026-04-07T13:53:54.044Z</time></trkpt><trkpt lat="43.7307566" lon="10.81762"><ele>21.0</ele><time>2026-04-07T13:53:55.044Z</time></trkpt><trkpt lat="43.7306454" lon="10.8176791"><ele>21.0</ele><time>2026-04-07T13:53:56.044Z</time></trkpt><trkpt lat="43.7305419" lon="10.8177383"><ele>21.0</ele><time>2026-04-07T13:53:57.044Z</time></trkpt><trkpt lat="43.7304357" lon="10.8177968"><ele>21.0</ele><time>2026-04-07T13:53:58.044Z</time></trkpt><trkpt lat="43.7303353" lon="10.8178448"><ele>21.0</ele><time>2026-04-07T13:53:59.044Z</time></trkpt><trkpt lat="43.7302358" lon="10.8178922"><ele>21.0</ele><time>2026-04-07T13:54:00.044Z</time></trkpt><trkpt lat="43.7301287" lon="10.8179506"><ele>21.200000000000003</ele><time>2026-04-07T13:54:01.044Z</time></trkpt><trkpt lat="43.7300236" lon="10.8180018"><ele>21.400000000000002</ele><time>2026-04-07T13:54:02.043Z</time></trkpt><trkpt lat="43.7299333" lon="10.8180553"><ele>21.6</ele><time>2026-04-07T13:54:03.044Z</time></trkpt><trkpt lat="43.7298452" lon="10.8181049"><ele>21.8</ele><time>2026-04-07T13:54:04.044Z</time></trkpt><trkpt lat="43.7297535" lon="10.8181517"><ele>22.0</ele><time>2026-04-07T13:54:05.043Z</time></trkpt><trkpt lat="43.7296605" lon="10.8181995"><ele>22.0</ele><time>2026-04-07T13:54:06.044Z</time></trkpt><trkpt lat="43.729569" lon="10.8182433"><ele>22.0</ele><time>2026-04-07T13:54:07.044Z</time></trkpt><trkpt lat="43.7294818" lon="10.8182866"><ele>22.0</ele><time>2026-04-07T13:54:08.044Z</time></trkpt><trkpt lat="43.7293989" lon="10.8183268"><ele>22.0</ele><time>2026-04-07T13:54:09.044Z</time></trkpt><trkpt lat="43.7293034" lon="10.8183782"><ele>22.0</ele><time>2026-04-07T13:54:10.044Z</time></trkpt><trkpt lat="43.7291799" lon="10.8184371"><ele>24.333333333333332</ele><time>2026-04-07T13:54:11.044Z</time></trkpt><trkpt lat="43.729046" lon="10.8184877"><ele>26.666666666666664</ele><time>2026-04-07T13:54:12.044Z</time></trkpt><trkpt lat="43.7288614" lon="10.8185783"><ele>29.0</ele><time>2026-04-07T13:54:13.043Z</time></trkpt><trkpt lat="43.7286788" lon="10.818662"><ele>29.666666666666664</ele><time>2026-04-07T13:54:14.044Z</time></trkpt><trkpt lat="43.7284831" lon="10.8187545"><ele>30.333333333333336</ele><time>2026-04-07T13:54:15.044Z</time></trkpt><trkpt lat="43.728299" lon="10.818843"><ele>31.0</ele><time>2026-04-07T13:54:16.044Z</time></trkpt><trkpt lat="43.7281162" lon="10.8189335"><ele>31.0</ele><time>2026-04-07T13:54:17.044Z</time></trkpt><trkpt lat="43.7279366" lon="10.8190344"><ele>31.0</ele><time>2026-04-07T13:54:18.043Z</time></trkpt><trkpt lat="43.7277591" lon="10.8191389"><ele>31.0</ele><time>2026-04-07T13:54:19.044Z</time></trkpt><trkpt lat="43.7275809" lon="10.81925"><ele>30.666666666666668</ele><time>2026-04-07T13:54:20.043Z</time></trkpt><trkpt lat="43.7274067" lon="10.8193594"><ele>30.333333333333336</ele><time>2026-04-07T13:54:21.044Z</time></trkpt><trkpt lat="43.7272433" lon="10.8194762"><ele>30.0</ele><time>2026-04-07T13:54:22.044Z</time></trkpt><trkpt lat="43.727086" lon="10.8195819"><ele>30.0</ele><time>2026-04-07T13:54:23.043Z</time></trkpt><trkpt lat="43.7269384" lon="10.8196916"><ele>30.0</ele><time>2026-04-07T13:54:24.044Z</time></trkpt><trkpt lat="43.7267959" lon="10.819797"><ele>30.0</ele><time>2026-04-07T13:54:25.044Z</time></trkpt><trkpt lat="43.726661" lon="10.8199064"><ele>28.666666666666664</ele><time>2026-04-07T13:54:26.043Z</time></trkpt><trkpt lat="43.7265289" lon="10.8200226"><ele>27.333333333333332</ele><time>2026-04-07T13:54:27.044Z</time></trkpt><trkpt lat="43.7263936" lon="10.8201468"><ele>26.0</ele><time>2026-04-07T13:54:28.043Z</time></trkpt><trkpt lat="43.7262502" lon="10.820286"><ele>26.0</ele><time>2026-04-07T13:54:29.044Z</time></trkpt><trkpt lat="43.7261075" lon="10.820426"><ele>26.0</ele><time>2026-04-07T13:54:30.044Z</time></trkpt><trkpt lat="43.7259854" lon="10.8205568"><ele>26.0</ele><time>2026-04-07T13:54:31.043Z</time></trkpt><trkpt lat="43.7258824" lon="10.8206699"><ele>25.75</ele><time>2026-04-07T13:54:32.043Z</time></trkpt><trkpt lat="43.725783" lon="10.8207816"><ele>25.5</ele><time>2026-04-07T13:54:33.043Z</time></trkpt><trkpt lat="43.7256889" lon="10.8208865"><ele>25.25</ele><time>2026-04-07T13:54:34.044Z</time></trkpt><trkpt lat="43.7256023" lon="10.8210102"><ele>25.0</ele><time>2026-04-07T13:54:35.044Z</time></trkpt><trkpt lat="43.7255051" lon="10.8211546"><ele>25.0</ele><time>2026-04-07T13:54:36.044Z</time></trkpt><trkpt lat="43.7254152" lon="10.8213058"><ele>25.0</ele><time>2026-04-07T13:54:37.044Z</time></trkpt><trkpt lat="43.7253372" lon="10.8214332"><ele>25.0</ele><time>2026-04-07T13:54:38.044Z</time></trkpt><trkpt lat="43.7252663" lon="10.821548"><ele>25.0</ele><time>2026-04-07T13:54:39.044Z</time></trkpt><trkpt lat="43.7252201" lon="10.8216487"><ele>24.333333333333336</ele><time>2026-04-07T13:54:40.043Z</time></trkpt><trkpt lat="43.7251711" lon="10.8217371"><ele>23.666666666666668</ele><time>2026-04-07T13:54:41.043Z</time></trkpt><trkpt lat="43.7251208" lon="10.8217989"><ele>23.0</ele><time>2026-04-07T13:54:42.044Z</time></trkpt><trkpt lat="43.7250097" lon="10.821848"><ele>22.333333333333336</ele><time>2026-04-07T13:54:44.044Z</time></trkpt><trkpt lat="43.7249333" lon="10.8218517"><ele>21.666666666666668</ele><time>2026-04-07T13:54:45.043Z</time></trkpt><trkpt lat="43.7248587" lon="10.8218261"><ele>21.0</ele><time>2026-04-07T13:54:46.044Z</time></trkpt><trkpt lat="43.7247825" lon="10.821795"><ele>21.0</ele><time>2026-04-07T13:54:47.043Z</time></trkpt><trkpt lat="43.7246945" lon="10.8217656"><ele>21.0</ele><time>2026-04-07T13:54:48.043Z</time></trkpt><trkpt lat="43.72461" lon="10.8217441"><ele>21.0</ele><time>2026-04-07T13:54:49.044Z</time></trkpt><trkpt lat="43.7245272" lon="10.8217495"><ele>21.0</ele><time>2026-04-07T13:54:50.044Z</time></trkpt><trkpt lat="43.7244451" lon="10.8217646"><ele>21.0</ele><time>2026-04-07T13:54:51.044Z</time></trkpt><trkpt lat="43.7243574" lon="10.8217999"><ele>21.0</ele><time>2026-04-07T13:54:52.043Z</time></trkpt><trkpt lat="43.7242774" lon="10.8218548"><ele>21.25</ele><time>2026-04-07T13:54:53.043Z</time></trkpt><trkpt lat="43.7241974" lon="10.8219389"><ele>21.5</ele><time>2026-04-07T13:54:54.043Z</time></trkpt><trkpt lat="43.7241165" lon="10.822059"><ele>21.75</ele><time>2026-04-07T13:54:55.044Z</time></trkpt><trkpt lat="43.7240319" lon="10.8222074"><ele>22.0</ele><time>2026-04-07T13:54:56.044Z</time></trkpt><trkpt lat="43.7239366" lon="10.8223374"><ele>22.0</ele><time>2026-04-07T13:54:57.044Z</time></trkpt><trkpt lat="43.7238409" lon="10.8224452"><ele>22.0</ele><time>2026-04-07T13:54:58.044Z</time></trkpt><trkpt lat="43.7237499" lon="10.8225467"><ele>22.0</ele><time>2026-04-07T13:54:59.044Z</time></trkpt><trkpt lat="43.7236463" lon="10.8226388"><ele>22.0</ele><time>2026-04-07T13:55:00.044Z</time></trkpt><trkpt lat="43.7235353" lon="10.8227157"><ele>21.75</ele><time>2026-04-07T13:55:01.043Z</time></trkpt><trkpt lat="43.723419" lon="10.8227998"><ele>21.5</ele><time>2026-04-07T13:55:02.043Z</time></trkpt><trkpt lat="43.7232954" lon="10.822874"><ele>21.25</ele><time>2026-04-07T13:55:03.044Z</time></trkpt><trkpt lat="43.7231675" lon="10.8229478"><ele>21.0</ele><time>2026-04-07T13:55:04.044Z</time></trkpt><trkpt lat="43.7230375" lon="10.8230099"><ele>21.0</ele><time>2026-04-07T13:55:05.044Z</time></trkpt><trkpt lat="43.7229119" lon="10.8230647"><ele>21.0</ele><time>2026-04-07T13:55:06.043Z</time></trkpt><trkpt lat="43.7227865" lon="10.8231009"><ele>21.0</ele><time>2026-04-07T13:55:07.044Z</time></trkpt><trkpt lat="43.72267" lon="10.8231308"><ele>21.0</ele><time>2026-04-07T13:55:08.044Z</time></trkpt><trkpt lat="43.7225541" lon="10.8231637"><ele>21.200000000000003</ele><time>2026-04-07T13:55:09.043Z</time></trkpt><trkpt lat="43.7224421" lon="10.8231801"><ele>21.400000000000002</ele><time>2026-04-07T13:55:10.043Z</time></trkpt><trkpt lat="43.7223315" lon="10.8231931"><ele>21.6</ele><time>2026-04-07T13:55:11.043Z</time></trkpt><trkpt lat="43.7222253" lon="10.8232009"><ele>21.8</ele><time>2026-04-07T13:55:12.044Z</time></trkpt><trkpt lat="43.7221168" lon="10.823194"><ele>22.0</ele><time>2026-04-07T13:55:13.044Z</time></trkpt><trkpt lat="43.7220005" lon="10.8231762"><ele>22.0</ele><time>2026-04-07T13:55:14.044Z</time></trkpt><trkpt lat="43.7218804" lon="10.823159"><ele>22.0</ele><time>2026-04-07T13:55:15.044Z</time></trkpt><trkpt lat="43.7217637" lon="10.8231297"><ele>22.0</ele><time>2026-04-07T13:55:16.044Z</time></trkpt><trkpt lat="43.7216277" lon="10.8230974"><ele>22.0</ele><time>2026-04-07T13:55:17.044Z</time></trkpt><trkpt lat="43.7214857" lon="10.8230593"><ele>22.0</ele><time>2026-04-07T13:55:18.044Z</time></trkpt><trkpt lat="43.7213457" lon="10.8230058"><ele>22.0</ele><time>2026-04-07T13:55:19.044Z</time></trkpt><trkpt lat="43.7211633" lon="10.8229234"><ele>22.0</ele><time>2026-04-07T13:55:20.044Z</time></trkpt><trkpt lat="43.7209783" lon="10.8228396"><ele>22.333333333333332</ele><time>2026-04-07T13:55:21.044Z</time></trkpt><trkpt lat="43.7207853" lon="10.8227479"><ele>22.666666666666668</ele><time>2026-04-07T13:55:22.043Z</time></trkpt><trkpt lat="43.7205921" lon="10.8226549"><ele>23.0</ele><time>2026-04-07T13:55:23.044Z</time></trkpt><trkpt lat="43.7203999" lon="10.8225692"><ele>22.333333333333336</ele><time>2026-04-07T13:55:24.043Z</time></trkpt><trkpt lat="43.7202544" lon="10.8224764"><ele>21.666666666666668</ele><time>2026-04-07T13:55:25.044Z</time></trkpt><trkpt lat="43.7200958" lon="10.8223843"><ele>21.0</ele><time>2026-04-07T13:55:26.043Z</time></trkpt><trkpt lat="43.7199234" lon="10.8222914"><ele>20.666666666666668</ele><time>2026-04-07T13:55:27.043Z</time></trkpt><trkpt lat="43.7197425" lon="10.8221927"><ele>20.333333333333336</ele><time>2026-04-07T13:55:28.044Z</time></trkpt><trkpt lat="43.7195864" lon="10.8220954"><ele>20.0</ele><time>2026-04-07T13:55:29.044Z</time></trkpt><trkpt lat="43.7194292" lon="10.8220166"><ele>20.0</ele><time>2026-04-07T13:55:30.044Z</time></trkpt><trkpt lat="43.7192645" lon="10.8219362"><ele>20.0</ele><time>2026-04-07T13:55:31.044Z</time></trkpt><trkpt lat="43.7190958" lon="10.8218425"><ele>20.0</ele><time>2026-04-07T13:55:32.043Z</time></trkpt><trkpt lat="43.7189167" lon="10.8217371"><ele>20.333333333333336</ele><time>2026-04-07T13:55:33.044Z</time></trkpt><trkpt lat="43.7187242" lon="10.8216304"><ele>20.666666666666668</ele><time>2026-04-07T13:55:34.044Z</time></trkpt><trkpt lat="43.7185142" lon="10.8215245"><ele>21.0</ele><time>2026-04-07T13:55:35.044Z</time></trkpt><trkpt lat="43.7183016" lon="10.8214099"><ele>21.0</ele><time>2026-04-07T13:55:36.044Z</time></trkpt><trkpt lat="43.7180822" lon="10.8212976"><ele>21.0</ele><time>2026-04-07T13:55:37.044Z</time></trkpt><trkpt lat="43.7178581" lon="10.8211894"><ele>21.0</ele><time>2026-04-07T13:55:38.044Z</time></trkpt><trkpt lat="43.7176375" lon="10.8210767"><ele>21.0</ele><time>2026-04-07T13:55:39.044Z</time></trkpt><trkpt lat="43.7174252" lon="10.8209608"><ele>21.0</ele><time>2026-04-07T13:55:40.044Z</time></trkpt><trkpt lat="43.7172058" lon="10.8208471"><ele>21.0</ele><time>2026-04-07T13:55:41.044Z</time></trkpt><trkpt lat="43.7169831" lon="10.8207339"><ele>20.5</ele><time>2026-04-07T13:55:42.044Z</time></trkpt><trkpt lat="43.7167552" lon="10.8206081"><ele>20.0</ele><time>2026-04-07T13:55:43.044Z</time></trkpt><trkpt lat="43.716536" lon="10.8204951"><ele>20.0</ele><time>2026-04-07T13:55:44.043Z</time></trkpt><trkpt lat="43.7163229" lon="10.8203854"><ele>20.0</ele><time>2026-04-07T13:55:45.044Z</time></trkpt><trkpt lat="43.7161087" lon="10.8202777"><ele>19.666666666666668</ele><time>2026-04-07T13:55:46.044Z</time></trkpt><trkpt lat="43.7159178" lon="10.8201727"><ele>19.333333333333332</ele><time>2026-04-07T13:55:47.044Z</time></trkpt><trkpt lat="43.7157209" lon="10.820082"><ele>19.0</ele><time>2026-04-07T13:55:48.044Z</time></trkpt><trkpt lat="43.7155185" lon="10.8199913"><ele>18.666666666666664</ele><time>2026-04-07T13:55:49.043Z</time></trkpt><trkpt lat="43.7153175" lon="10.8198991"><ele>18.333333333333332</ele><time>2026-04-07T13:55:50.044Z</time></trkpt><trkpt lat="43.7151171" lon="10.8198038"><ele>18.0</ele><time>2026-04-07T13:55:51.044Z</time></trkpt><trkpt lat="43.71492" lon="10.8197003"><ele>18.0</ele><time>2026-04-07T13:55:52.044Z</time></trkpt><trkpt lat="43.7147355" lon="10.8196038"><ele>18.0</ele><time>2026-04-07T13:55:53.044Z</time></trkpt><trkpt lat="43.7145645" lon="10.8195068"><ele>18.0</ele><time>2026-04-07T13:55:54.044Z</time></trkpt><trkpt lat="43.7144008" lon="10.8194157"><ele>18.0</ele><time>2026-04-07T13:55:55.044Z</time></trkpt><trkpt lat="43.7142351" lon="10.8193407"><ele>18.0</ele><time>2026-04-07T13:55:56.044Z</time></trkpt><trkpt lat="43.714073" lon="10.8192663"><ele>18.0</ele><time>2026-04-07T13:55:57.043Z</time></trkpt><trkpt lat="43.7139118" lon="10.8191792"><ele>19.0</ele><time>2026-04-07T13:55:58.044Z</time></trkpt><trkpt lat="43.7137498" lon="10.8191047"><ele>20.0</ele><time>2026-04-07T13:55:59.044Z</time></trkpt><trkpt lat="43.7135982" lon="10.8190372"><ele>21.0</ele><time>2026-04-07T13:56:00.043Z</time></trkpt><trkpt lat="43.7134713" lon="10.8189862"><ele>21.25</ele><time>2026-04-07T13:56:01.044Z</time></trkpt><trkpt lat="43.7133344" lon="10.8189346"><ele>21.5</ele><time>2026-04-07T13:56:02.043Z</time></trkpt><trkpt lat="43.7132106" lon="10.8188801"><ele>21.75</ele><time>2026-04-07T13:56:03.044Z</time></trkpt><trkpt lat="43.7130713" lon="10.8188468"><ele>22.0</ele><time>2026-04-07T13:56:04.044Z</time></trkpt><trkpt lat="43.7129519" lon="10.8188066"><ele>22.0</ele><time>2026-04-07T13:56:05.044Z</time></trkpt><trkpt lat="43.7128344" lon="10.8187771"><ele>22.0</ele><time>2026-04-07T13:56:06.043Z</time></trkpt><trkpt lat="43.7127137" lon="10.8187578"><ele>22.0</ele><time>2026-04-07T13:56:07.044Z</time></trkpt><trkpt lat="43.7125762" lon="10.8187399"><ele>22.0</ele><time>2026-04-07T13:56:08.043Z</time></trkpt><trkpt lat="43.7124137" lon="10.8187308"><ele>21.666666666666664</ele><time>2026-04-07T13:56:09.044Z</time></trkpt><trkpt lat="43.7122429" lon="10.818739"><ele>21.333333333333332</ele><time>2026-04-07T13:56:10.043Z</time></trkpt><trkpt lat="43.7120261" lon="10.8187547"><ele>21.0</ele><time>2026-04-07T13:56:11.043Z</time></trkpt><trkpt lat="43.7118064" lon="10.8187578"><ele>22.333333333333336</ele><time>2026-04-07T13:56:12.044Z</time></trkpt><trkpt lat="43.7115986" lon="10.8187683"><ele>23.666666666666668</ele><time>2026-04-07T13:56:13.044Z</time></trkpt><trkpt lat="43.7113853" lon="10.8187924"><ele>25.0</ele><time>2026-04-07T13:56:14.043Z</time></trkpt><trkpt lat="43.7111917" lon="10.8188357"><ele>24.333333333333336</ele><time>2026-04-07T13:56:15.044Z</time></trkpt><trkpt lat="43.7110092" lon="10.8188832"><ele>23.666666666666668</ele><time>2026-04-07T13:56:16.044Z</time></trkpt><trkpt lat="43.7108689" lon="10.8189192"><ele>23.0</ele><time>2026-04-07T13:56:17.044Z</time></trkpt><trkpt lat="43.7107465" lon="10.8189668"><ele>23.0</ele><time>2026-04-07T13:56:18.043Z</time></trkpt><trkpt lat="43.7106705" lon="10.8189763"><ele>23.0</ele><time>2026-04-07T13:56:19.044Z</time></trkpt><trkpt lat="43.7105889" lon="10.8189749"><ele>23.0</ele><time>2026-04-07T13:56:20.043Z</time></trkpt><trkpt lat="43.7105122" lon="10.8189591"><ele>23.0</ele><time>2026-04-07T13:56:21.044Z</time></trkpt><trkpt lat="43.7104474" lon="10.8189355"><ele>23.0</ele><time>2026-04-07T13:56:22.044Z</time></trkpt><trkpt lat="43.7103806" lon="10.8189227"><ele>23.0</ele><time>2026-04-07T13:56:23.044Z</time></trkpt><trkpt lat="43.7102775" lon="10.8189902"><ele>22.599999999999998</ele><time>2026-04-07T13:56:25.044Z</time></trkpt><trkpt lat="43.7102331" lon="10.8190749"><ele>22.2</ele><time>2026-04-07T13:56:26.044Z</time></trkpt><trkpt lat="43.7101845" lon="10.8191831"><ele>21.8</ele><time>2026-04-07T13:56:27.044Z</time></trkpt><trkpt lat="43.7101162" lon="10.8193005"><ele>21.4</ele><time>2026-04-07T13:56:28.044Z</time></trkpt><trkpt lat="43.7100318" lon="10.8193992"><ele>21.0</ele><time>2026-04-07T13:56:29.044Z</time></trkpt><trkpt lat="43.7099337" lon="10.8195069"><ele>21.0</ele><time>2026-04-07T13:56:30.044Z</time></trkpt><trkpt lat="43.7098245" lon="10.8196344"><ele>21.0</ele><time>2026-04-07T13:56:31.044Z</time></trkpt><trkpt lat="43.7097114" lon="10.8197645"><ele>21.0</ele><time>2026-04-07T13:56:32.044Z</time></trkpt><trkpt lat="43.7095867" lon="10.8199169"><ele>21.0</ele><time>2026-04-07T13:56:33.044Z</time></trkpt><trkpt lat="43.7094701" lon="10.8200641"><ele>21.0</ele><time>2026-04-07T13:56:34.043Z</time></trkpt><trkpt lat="43.7093641" lon="10.8202098"><ele>21.0</ele><time>2026-04-07T13:56:35.043Z</time></trkpt><trkpt lat="43.7092454" lon="10.8203643"><ele>20.666666666666668</ele><time>2026-04-07T13:56:36.044Z</time></trkpt><trkpt lat="43.7091175" lon="10.8205317"><ele>20.333333333333336</ele><time>2026-04-07T13:56:37.043Z</time></trkpt><trkpt lat="43.7089973" lon="10.8206989"><ele>20.0</ele><time>2026-04-07T13:56:38.044Z</time></trkpt><trkpt lat="43.7088946" lon="10.8208684"><ele>20.666666666666668</ele><time>2026-04-07T13:56:39.043Z</time></trkpt><trkpt lat="43.7087794" lon="10.8210519"><ele>21.333333333333332</ele><time>2026-04-07T13:56:40.044Z</time></trkpt><trkpt lat="43.7086904" lon="10.8212206"><ele>22.0</ele><time>2026-04-07T13:56:41.043Z</time></trkpt><trkpt lat="43.7085983" lon="10.8213845"><ele>22.0</ele><time>2026-04-07T13:56:42.044Z</time></trkpt><trkpt lat="43.7085038" lon="10.8215587"><ele>22.0</ele><time>2026-04-07T13:56:43.043Z</time></trkpt><trkpt lat="43.7084109" lon="10.8217476"><ele>22.0</ele><time>2026-04-07T13:56:44.044Z</time></trkpt><trkpt lat="43.7083019" lon="10.8219381"><ele>22.0</ele><time>2026-04-07T13:56:45.043Z</time></trkpt><trkpt lat="43.7081967" lon="10.8221421"><ele>22.0</ele><time>2026-04-07T13:56:46.044Z</time></trkpt><trkpt lat="43.708086" lon="10.8223474"><ele>22.0</ele><time>2026-04-07T13:56:47.044Z</time></trkpt><trkpt lat="43.7079716" lon="10.8225564"><ele>22.0</ele><time>2026-04-07T13:56:48.044Z</time></trkpt><trkpt lat="43.7078573" lon="10.822766"><ele>22.0</ele><time>2026-04-07T13:56:49.044Z</time></trkpt><trkpt lat="43.707735" lon="10.8229785"><ele>22.0</ele><time>2026-04-07T13:56:50.044Z</time></trkpt><trkpt lat="43.7076179" lon="10.8231879"><ele>22.0</ele><time>2026-04-07T13:56:51.044Z</time></trkpt><trkpt lat="43.7075093" lon="10.8233841"><ele>22.0</ele><time>2026-04-07T13:56:52.044Z</time></trkpt><trkpt lat="43.7074066" lon="10.8235686"><ele>22.0</ele><time>2026-04-07T13:56:53.044Z</time></trkpt><trkpt lat="43.7073158" lon="10.8237535"><ele>21.333333333333332</ele><time>2026-04-07T13:56:54.043Z</time></trkpt><trkpt lat="43.7072142" lon="10.823938"><ele>20.666666666666668</ele><time>2026-04-07T13:56:55.044Z</time></trkpt><trkpt lat="43.7071176" lon="10.8241313"><ele>20.0</ele><time>2026-04-07T13:56:56.044Z</time></trkpt><trkpt lat="43.7070058" lon="10.824332"><ele>20.0</ele><time>2026-04-07T13:56:57.044Z</time></trkpt><trkpt lat="43.7069046" lon="10.8245267"><ele>20.0</ele><time>2026-04-07T13:56:58.044Z</time></trkpt><trkpt lat="43.7068042" lon="10.8247146"><ele>20.0</ele><time>2026-04-07T13:56:59.044Z</time></trkpt><trkpt lat="43.706711" lon="10.824895"><ele>20.0</ele><time>2026-04-07T13:57:00.044Z</time></trkpt><trkpt lat="43.7066174" lon="10.8250581"><ele>20.0</ele><time>2026-04-07T13:57:01.044Z</time></trkpt><trkpt lat="43.7065398" lon="10.8252019"><ele>20.0</ele><time>2026-04-07T13:57:02.044Z</time></trkpt><trkpt lat="43.7064735" lon="10.8253264"><ele>20.0</ele><time>2026-04-07T13:57:03.043Z</time></trkpt><trkpt lat="43.706404" lon="10.8254499"><ele>20.0</ele><time>2026-04-07T13:57:04.044Z</time></trkpt><trkpt lat="43.7063363" lon="10.8255761"><ele>20.0</ele><time>2026-04-07T13:57:05.043Z</time></trkpt><trkpt lat="43.7062658" lon="10.8257017"><ele>20.0</ele><time>2026-04-07T13:57:06.044Z</time></trkpt><trkpt lat="43.7061948" lon="10.8258318"><ele>20.0</ele><time>2026-04-07T13:57:07.044Z</time></trkpt><trkpt lat="43.7061187" lon="10.8259423"><ele>20.25</ele><time>2026-04-07T13:57:08.044Z</time></trkpt><trkpt lat="43.7060399" lon="10.8260558"><ele>20.5</ele><time>2026-04-07T13:57:09.043Z</time></trkpt><trkpt lat="43.7059594" lon="10.8261818"><ele>20.75</ele><time>2026-04-07T13:57:10.044Z</time></trkpt><trkpt lat="43.7058744" lon="10.8263072"><ele>21.0</ele><time>2026-04-07T13:57:11.044Z</time></trkpt><trkpt lat="43.7057933" lon="10.8264236"><ele>21.0</ele><time>2026-04-07T13:57:12.044Z</time></trkpt><trkpt lat="43.7056973" lon="10.8265336"><ele>21.0</ele><time>2026-04-07T13:57:13.043Z</time></trkpt><trkpt lat="43.7056009" lon="10.826639"><ele>21.0</ele><time>2026-04-07T13:57:14.044Z</time></trkpt><trkpt lat="43.7055077" lon="10.8267307"><ele>21.0</ele><time>2026-04-07T13:57:15.044Z</time></trkpt><trkpt lat="43.7054183" lon="10.8268236"><ele>21.0</ele><time>2026-04-07T13:57:16.043Z</time></trkpt><trkpt lat="43.7053192" lon="10.8269137"><ele>21.0</ele><time>2026-04-07T13:57:17.044Z</time></trkpt><trkpt lat="43.7052205" lon="10.8270032"><ele>21.0</ele><time>2026-04-07T13:57:18.044Z</time></trkpt><trkpt lat="43.7051144" lon="10.827075"><ele>21.0</ele><time>2026-04-07T13:57:19.044Z</time></trkpt><trkpt lat="43.705001" lon="10.8271557"><ele>20.75</ele><time>2026-04-07T13:57:20.044Z</time></trkpt><trkpt lat="43.7048842" lon="10.8272331"><ele>20.5</ele><time>2026-04-07T13:57:21.044Z</time></trkpt><trkpt lat="43.7047586" lon="10.8272973"><ele>20.25</ele><time>2026-04-07T13:57:22.043Z</time></trkpt><trkpt lat="43.7046311" lon="10.8273585"><ele>20.0</ele><time>2026-04-07T13:57:23.043Z</time></trkpt><trkpt lat="43.7045276" lon="10.8273965"><ele>20.0</ele><time>2026-04-07T13:57:24.044Z</time></trkpt><trkpt lat="43.7044282" lon="10.8274274"><ele>20.0</ele><time>2026-04-07T13:57:25.044Z</time></trkpt><trkpt lat="43.7043269" lon="10.8274564"><ele>20.0</ele><time>2026-04-07T13:57:26.044Z</time></trkpt><trkpt lat="43.7042432" lon="10.8274394"><ele>20.0</ele><time>2026-04-07T13:57:27.044Z</time></trkpt><trkpt lat="43.7041777" lon="10.8274138"><ele>20.0</ele><time>2026-04-07T13:57:28.044Z</time></trkpt><trkpt lat="43.7041043" lon="10.8274033"><ele>20.0</ele><time>2026-04-07T13:57:29.044Z</time></trkpt><trkpt lat="43.7040307" lon="10.8274075"><ele>20.2</ele><time>2026-04-07T13:57:30.043Z</time></trkpt><trkpt lat="43.70396" lon="10.8274593"><ele>20.4</ele><time>2026-04-07T13:57:31.044Z</time></trkpt><trkpt lat="43.7038831" lon="10.8275147"><ele>20.6</ele><time>2026-04-07T13:57:32.043Z</time></trkpt><trkpt lat="43.7038" lon="10.8275637"><ele>20.8</ele><time>2026-04-07T13:57:33.043Z</time></trkpt><trkpt lat="43.7037031" lon="10.8275967"><ele>21.0</ele><time>2026-04-07T13:57:34.044Z</time></trkpt><trkpt lat="43.7035972" lon="10.8276275"><ele>21.0</ele><time>2026-04-07T13:57:35.044Z</time></trkpt><trkpt lat="43.7034789" lon="10.8276654"><ele>21.0</ele><time>2026-04-07T13:57:36.044Z</time></trkpt><trkpt lat="43.7033608" lon="10.8277069"><ele>21.0</ele><time>2026-04-07T13:57:37.043Z</time></trkpt><trkpt lat="43.7032219" lon="10.827749"><ele>21.0</ele><time>2026-04-07T13:57:38.044Z</time></trkpt><trkpt lat="43.7030728" lon="10.8277853"><ele>21.0</ele><time>2026-04-07T13:57:39.044Z</time></trkpt><trkpt lat="43.7029081" lon="10.8278251"><ele>21.0</ele><time>2026-04-07T13:57:40.044Z</time></trkpt><trkpt lat="43.7027276" lon="10.8278561"><ele>21.0</ele><time>2026-04-07T13:57:41.044Z</time></trkpt><trkpt lat="43.7025586" lon="10.8278854"><ele>20.666666666666668</ele><time>2026-04-07T13:57:42.043Z</time></trkpt><trkpt lat="43.7023904" lon="10.8279226"><ele>20.333333333333336</ele><time>2026-04-07T13:57:43.044Z</time></trkpt><trkpt lat="43.7022108" lon="10.8279676"><ele>20.0</ele><time>2026-04-07T13:57:44.044Z</time></trkpt><trkpt lat="43.7020249" lon="10.8280123"><ele>20.0</ele><time>2026-04-07T13:57:45.044Z</time></trkpt><trkpt lat="43.7018351" lon="10.8280543"><ele>20.0</ele><time>2026-04-07T13:57:46.044Z</time></trkpt><trkpt lat="43.7016434" lon="10.8281029"><ele>20.0</ele><time>2026-04-07T13:57:47.044Z</time></trkpt><trkpt lat="43.7014583" lon="10.8281541"><ele>20.0</ele><time>2026-04-07T13:57:48.043Z</time></trkpt><trkpt lat="43.7012825" lon="10.828195"><ele>20.0</ele><time>2026-04-07T13:57:49.043Z</time></trkpt><trkpt lat="43.7011064" lon="10.8282407"><ele>20.0</ele><time>2026-04-07T13:57:50.044Z</time></trkpt><trkpt lat="43.7009205" lon="10.8282893"><ele>21.0</ele><time>2026-04-07T13:57:51.043Z</time></trkpt><trkpt lat="43.7007291" lon="10.8283373"><ele>22.0</ele><time>2026-04-07T13:57:52.043Z</time></trkpt><trkpt lat="43.7005293" lon="10.828385"><ele>23.0</ele><time>2026-04-07T13:57:53.044Z</time></trkpt><trkpt lat="43.7003346" lon="10.8284384"><ele>22.0</ele><time>2026-04-07T13:57:54.044Z</time></trkpt><trkpt lat="43.7001409" lon="10.828479"><ele>21.0</ele><time>2026-04-07T13:57:55.044Z</time></trkpt><trkpt lat="43.6999505" lon="10.8285184"><ele>20.0</ele><time>2026-04-07T13:57:56.044Z</time></trkpt><trkpt lat="43.6997724" lon="10.8285546"><ele>20.0</ele><time>2026-04-07T13:57:57.044Z</time></trkpt><trkpt lat="43.6996076" lon="10.8285897"><ele>20.0</ele><time>2026-04-07T13:57:58.044Z</time></trkpt><trkpt lat="43.6994464" lon="10.8286263"><ele>20.0</ele><time>2026-04-07T13:57:59.044Z</time></trkpt><trkpt lat="43.6992862" lon="10.828662"><ele>20.0</ele><time>2026-04-07T13:58:00.044Z</time></trkpt><trkpt lat="43.6991381" lon="10.8287017"><ele>20.0</ele><time>2026-04-07T13:58:01.044Z</time></trkpt><trkpt lat="43.6989937" lon="10.8287367"><ele>20.0</ele><time>2026-04-07T13:58:02.044Z</time></trkpt><trkpt lat="43.6988541" lon="10.8287724"><ele>20.0</ele><time>2026-04-07T13:58:03.044Z</time></trkpt><trkpt lat="43.698722" lon="10.828795"><ele>20.0</ele><time>2026-04-07T13:58:04.044Z</time></trkpt><trkpt lat="43.6986009" lon="10.8288242"><ele>20.0</ele><time>2026-04-07T13:58:05.043Z</time></trkpt><trkpt lat="43.6984853" lon="10.8288519"><ele>20.0</ele><time>2026-04-07T13:58:06.043Z</time></trkpt><trkpt lat="43.6983563" lon="10.8288763"><ele>20.0</ele><time>2026-04-07T13:58:07.043Z</time></trkpt><trkpt lat="43.6982153" lon="10.8289069"><ele>21.666666666666668</ele><time>2026-04-07T13:58:08.044Z</time></trkpt><trkpt lat="43.6980656" lon="10.828947"><ele>23.333333333333336</ele><time>2026-04-07T13:58:09.043Z</time></trkpt><trkpt lat="43.6979106" lon="10.828986"><ele>25.0</ele><time>2026-04-07T13:58:10.043Z</time></trkpt><trkpt lat="43.6977484" lon="10.8290216"><ele>25.333333333333336</ele><time>2026-04-07T13:58:11.044Z</time></trkpt><trkpt lat="43.6975988" lon="10.8290585"><ele>25.666666666666664</ele><time>2026-04-07T13:58:12.043Z</time></trkpt><trkpt lat="43.6974499" lon="10.829086"><ele>26.0</ele><time>2026-04-07T13:58:13.043Z</time></trkpt><trkpt lat="43.6973025" lon="10.8291181"><ele>26.0</ele><time>2026-04-07T13:58:14.044Z</time></trkpt><trkpt lat="43.6971641" lon="10.8291499"><ele>26.0</ele><time>2026-04-07T13:58:15.043Z</time></trkpt><trkpt lat="43.6970434" lon="10.8291762"><ele>26.0</ele><time>2026-04-07T13:58:16.043Z</time></trkpt><trkpt lat="43.6969191" lon="10.8292154"><ele>26.0</ele><time>2026-04-07T13:58:17.044Z</time></trkpt><trkpt lat="43.6967935" lon="10.8292449"><ele>25.25</ele><time>2026-04-07T13:58:18.044Z</time></trkpt><trkpt lat="43.6966524" lon="10.829279"><ele>24.5</ele><time>2026-04-07T13:58:19.044Z</time></trkpt><trkpt lat="43.6965016" lon="10.8293172"><ele>23.75</ele><time>2026-04-07T13:58:20.044Z</time></trkpt><trkpt lat="43.6963625" lon="10.8293464"><ele>23.0</ele><time>2026-04-07T13:58:21.043Z</time></trkpt><trkpt lat="43.6962228" lon="10.8293809"><ele>22.5</ele><time>2026-04-07T13:58:22.044Z</time></trkpt><trkpt lat="43.6960843" lon="10.829422"><ele>22.0</ele><time>2026-04-07T13:58:23.044Z</time></trkpt><trkpt lat="43.6959473" lon="10.8294586"><ele>21.5</ele><time>2026-04-07T13:58:24.044Z</time></trkpt><trkpt lat="43.6958003" lon="10.8295078"><ele>21.0</ele><time>2026-04-07T13:58:25.043Z</time></trkpt><trkpt lat="43.6956526" lon="10.8295547"><ele>21.0</ele><time>2026-04-07T13:58:26.044Z</time></trkpt><trkpt lat="43.6955181" lon="10.8296021"><ele>21.0</ele><time>2026-04-07T13:58:27.044Z</time></trkpt><trkpt lat="43.6953869" lon="10.8296595"><ele>21.0</ele><time>2026-04-07T13:58:28.044Z</time></trkpt><trkpt lat="43.6952571" lon="10.8297216"><ele>21.0</ele><time>2026-04-07T13:58:29.044Z</time></trkpt><trkpt lat="43.6951285" lon="10.8297872"><ele>21.25</ele><time>2026-04-07T13:58:30.044Z</time></trkpt><trkpt lat="43.6950034" lon="10.8298531"><ele>21.5</ele><time>2026-04-07T13:58:31.044Z</time></trkpt><trkpt lat="43.6948849" lon="10.8299213"><ele>21.75</ele><time>2026-04-07T13:58:32.044Z</time></trkpt><trkpt lat="43.6947622" lon="10.8299889"><ele>22.0</ele><time>2026-04-07T13:58:33.044Z</time></trkpt><trkpt lat="43.6946544" lon="10.8300692"><ele>21.75</ele><time>2026-04-07T13:58:34.044Z</time></trkpt><trkpt lat="43.6945417" lon="10.8301495"><ele>21.5</ele><time>2026-04-07T13:58:35.044Z</time></trkpt><trkpt lat="43.6944312" lon="10.8302262"><ele>21.25</ele><time>2026-04-07T13:58:36.043Z</time></trkpt><trkpt lat="43.6943186" lon="10.8303074"><ele>21.0</ele><time>2026-04-07T13:58:37.044Z</time></trkpt><trkpt lat="43.6942026" lon="10.8303911"><ele>20.75</ele><time>2026-04-07T13:58:38.044Z</time></trkpt><trkpt lat="43.6940931" lon="10.8304728"><ele>20.5</ele><time>2026-04-07T13:58:39.044Z</time></trkpt><trkpt lat="43.6939879" lon="10.8305494"><ele>20.25</ele><time>2026-04-07T13:58:40.043Z</time></trkpt><trkpt lat="43.6938818" lon="10.8306187"><ele>20.0</ele><time>2026-04-07T13:58:41.043Z</time></trkpt><trkpt lat="43.6937819" lon="10.8306903"><ele>20.0</ele><time>2026-04-07T13:58:42.044Z</time></trkpt><trkpt lat="43.693678" lon="10.8307699"><ele>20.0</ele><time>2026-04-07T13:58:43.044Z</time></trkpt><trkpt lat="43.6935847" lon="10.8308388"><ele>20.0</ele><time>2026-04-07T13:58:44.043Z</time></trkpt><trkpt lat="43.693509" lon="10.830904"><ele>20.0</ele><time>2026-04-07T13:58:45.044Z</time></trkpt><trkpt lat="43.6934598" lon="10.8309606"><ele>20.0</ele><time>2026-04-07T13:58:46.043Z</time></trkpt><trkpt lat="43.6934244" lon="10.8310963"><ele>20.333333333333336</ele><time>2026-04-07T13:58:48.044Z</time></trkpt><trkpt lat="43.6934621" lon="10.8312281"><ele>20.666666666666668</ele><time>2026-04-07T13:58:50.044Z</time></trkpt><trkpt lat="43.6934547" lon="10.8313194"><ele>21.0</ele><time>2026-04-07T13:58:52.044Z</time></trkpt><trkpt lat="43.6934047" lon="10.8313922"><ele>21.333333333333332</ele><time>2026-04-07T13:58:55.043Z</time></trkpt><trkpt lat="43.6933606" lon="10.8314974"><ele>21.666666666666664</ele><time>2026-04-07T13:58:58.043Z</time></trkpt><trkpt lat="43.6933815" lon="10.8315953"><ele>22.0</ele><time>2026-04-07T13:59:01.044Z</time></trkpt><trkpt lat="43.6934235" lon="10.8316699"><ele>22.0</ele><time>2026-04-07T13:59:04.044Z</time></trkpt><trkpt lat="43.6934827" lon="10.8317026"><ele>22.0</ele><time>2026-04-07T13:59:53.044Z</time></trkpt><trkpt lat="43.6934181" lon="10.8317112"><ele>22.0</ele><time>2026-04-07T14:01:25.044Z</time></trkpt><trkpt lat="43.6935117" lon="10.8316607"><ele>22.0</ele><time>2026-04-07T14:03:44.043Z</time></trkpt><trkpt lat="43.6935663" lon="10.8315807"><ele>22.0</ele><time>2026-04-07T14:03:46.043Z</time></trkpt><trkpt lat="43.6935607" lon="10.8313926"><ele>22.0</ele><time>2026-04-07T14:03:48.043Z</time></trkpt><trkpt lat="43.6935394" lon="10.831283"><ele>22.0</ele><time>2026-04-07T14:03:49.044Z</time></trkpt><trkpt lat="43.6935205" lon="10.8311551"><ele>22.0</ele><time>2026-04-07T14:03:51.043Z</time></trkpt><trkpt lat="43.6935089" lon="10.8310654"><ele>22.0</ele><time>2026-04-07T14:03:54.043Z</time></trkpt><trkpt lat="43.6933913" lon="10.831021"><ele>22.0</ele><time>2026-04-07T14:03:57.044Z</time></trkpt><trkpt lat="43.6933301" lon="10.8310508"><ele>22.0</ele><time>2026-04-07T14:03:58.043Z</time></trkpt><trkpt lat="43.6932507" lon="10.8311082"><ele>22.0</ele><time>2026-04-07T14:03:59.044Z</time></trkpt><trkpt lat="43.6931697" lon="10.831158"><ele>22.0</ele><time>2026-04-07T14:04:00.044Z</time></trkpt><trkpt lat="43.693074" lon="10.8312287"><ele>22.0</ele><time>2026-04-07T14:04:01.044Z</time></trkpt><trkpt lat="43.6929691" lon="10.8313147"><ele>22.0</ele><time>2026-04-07T14:04:02.044Z</time></trkpt><trkpt lat="43.6928815" lon="10.8313779"><ele>22.0</ele><time>2026-04-07T14:04:03.044Z</time></trkpt><trkpt lat="43.6928009" lon="10.8314082"><ele>22.0</ele><time>2026-04-07T14:04:04.043Z</time></trkpt><trkpt lat="43.6927299" lon="10.8314063"><ele>22.166666666666664</ele><time>2026-04-07T14:04:05.044Z</time></trkpt><trkpt lat="43.6926194" lon="10.831362"><ele>22.333333333333332</ele><time>2026-04-07T14:04:07.043Z</time></trkpt><trkpt lat="43.6925613" lon="10.8313215"><ele>22.5</ele><time>2026-04-07T14:04:08.043Z</time></trkpt><trkpt lat="43.6924978" lon="10.831276"><ele>22.666666666666668</ele><time>2026-04-07T14:04:09.043Z</time></trkpt><trkpt lat="43.6924246" lon="10.8312447"><ele>22.833333333333336</ele><time>2026-04-07T14:04:10.044Z</time></trkpt><trkpt lat="43.6923478" lon="10.8312254"><ele>23.0</ele><time>2026-04-07T14:04:11.044Z</time></trkpt><trkpt lat="43.6922715" lon="10.8312453"><ele>23.0</ele><time>2026-04-07T14:04:12.044Z</time></trkpt><trkpt lat="43.6921995" lon="10.831311"><ele>23.0</ele><time>2026-04-07T14:04:13.044Z</time></trkpt><trkpt lat="43.6921431" lon="10.8313859"><ele>23.0</ele><time>2026-04-07T14:04:14.044Z</time></trkpt><trkpt lat="43.6921043" lon="10.8314721"><ele>23.0</ele><time>2026-04-07T14:04:15.044Z</time></trkpt><trkpt lat="43.6921069" lon="10.8316518"><ele>23.0</ele><time>2026-04-07T14:04:17.044Z</time></trkpt><trkpt lat="43.6921441" lon="10.8317512"><ele>23.0</ele><time>2026-04-07T14:04:18.043Z</time></trkpt><trkpt lat="43.692198" lon="10.8318256"><ele>22.833333333333336</ele><time>2026-04-07T14:04:19.044Z</time></trkpt><trkpt lat="43.6922661" lon="10.8318799"><ele>22.666666666666668</ele><time>2026-04-07T14:04:20.044Z</time></trkpt><trkpt lat="43.6923285" lon="10.8319162"><ele>22.5</ele><time>2026-04-07T14:04:21.044Z</time></trkpt><trkpt lat="43.6923984" lon="10.8319553"><ele>22.333333333333332</ele><time>2026-04-07T14:04:22.043Z</time></trkpt><trkpt lat="43.692459" lon="10.8320204"><ele>22.166666666666664</ele><time>2026-04-07T14:04:23.044Z</time></trkpt><trkpt lat="43.6925167" lon="10.8320821"><ele>22.0</ele><time>2026-04-07T14:04:24.044Z</time></trkpt><trkpt lat="43.692598" lon="10.8321791"><ele>22.0</ele><time>2026-04-07T14:04:25.043Z</time></trkpt><trkpt lat="43.6926685" lon="10.8323168"><ele>22.0</ele><time>2026-04-07T14:04:26.044Z</time></trkpt><trkpt lat="43.6927288" lon="10.8324695"><ele>22.0</ele><time>2026-04-07T14:04:27.044Z</time></trkpt><trkpt lat="43.6927776" lon="10.8326188"><ele>22.0</ele><time>2026-04-07T14:04:28.044Z</time></trkpt><trkpt lat="43.6928367" lon="10.8327695"><ele>22.0</ele><time>2026-04-07T14:04:29.044Z</time></trkpt><trkpt lat="43.6929064" lon="10.8329278"><ele>22.0</ele><time>2026-04-07T14:04:30.044Z</time></trkpt><trkpt lat="43.6929717" lon="10.8330786"><ele>22.0</ele><time>2026-04-07T14:04:31.043Z</time></trkpt><trkpt lat="43.6930281" lon="10.8332059"><ele>22.0</ele><time>2026-04-07T14:04:32.044Z</time></trkpt><trkpt lat="43.6930791" lon="10.8333291"><ele>22.0</ele><time>2026-04-07T14:04:33.043Z</time></trkpt><trkpt lat="43.6931355" lon="10.833443"><ele>22.0</ele><time>2026-04-07T14:04:34.044Z</time></trkpt><trkpt lat="43.6931969" lon="10.8335596"><ele>22.0</ele><time>2026-04-07T14:04:35.043Z</time></trkpt><trkpt lat="43.6932708" lon="10.8337019"><ele>22.0</ele><time>2026-04-07T14:04:36.043Z</time></trkpt><trkpt lat="43.6933406" lon="10.8338494"><ele>22.0</ele><time>2026-04-07T14:04:37.044Z</time></trkpt><trkpt lat="43.6934104" lon="10.8340164"><ele>22.0</ele><time>2026-04-07T14:04:38.044Z</time></trkpt><trkpt lat="43.6934827" lon="10.8341861"><ele>22.0</ele><time>2026-04-07T14:04:39.044Z</time></trkpt><trkpt lat="43.6935524" lon="10.8343464"><ele>22.0</ele><time>2026-04-07T14:04:40.043Z</time></trkpt><trkpt lat="43.6936246" lon="10.8344873"><ele>22.25</ele><time>2026-04-07T14:04:41.044Z</time></trkpt><trkpt lat="43.6936848" lon="10.8346292"><ele>22.5</ele><time>2026-04-07T14:04:42.044Z</time></trkpt><trkpt lat="43.6937475" lon="10.8347659"><ele>22.75</ele><time>2026-04-07T14:04:43.044Z</time></trkpt><trkpt lat="43.6938156" lon="10.8348863"><ele>23.0</ele><time>2026-04-07T14:04:44.044Z</time></trkpt><trkpt lat="43.6939001" lon="10.8349917"><ele>23.0</ele><time>2026-04-07T14:04:45.044Z</time></trkpt><trkpt lat="43.6939929" lon="10.8350797"><ele>23.0</ele><time>2026-04-07T14:04:46.043Z</time></trkpt><trkpt lat="43.6940809" lon="10.8351575"><ele>23.0</ele><time>2026-04-07T14:04:47.044Z</time></trkpt><trkpt lat="43.6941588" lon="10.8352291"><ele>23.0</ele><time>2026-04-07T14:04:48.043Z</time></trkpt><trkpt lat="43.6942256" lon="10.8352934"><ele>23.0</ele><time>2026-04-07T14:04:49.044Z</time></trkpt><trkpt lat="43.6942787" lon="10.8353488"><ele>23.0</ele><time>2026-04-07T14:04:50.044Z</time></trkpt><trkpt lat="43.6943476" lon="10.8354379"><ele>23.0</ele><time>2026-04-07T14:04:52.044Z</time></trkpt><trkpt lat="43.6943879" lon="10.8355049"><ele>23.0</ele><time>2026-04-07T14:04:54.044Z</time></trkpt><trkpt lat="43.694407" lon="10.8355899"><ele>23.0</ele><time>2026-04-07T14:04:57.044Z</time></trkpt><trkpt lat="43.6944388" lon="10.8357215"><ele>23.0</ele><time>2026-04-07T14:05:02.043Z</time></trkpt><trkpt lat="43.6944684" lon="10.8358416"><ele>23.0</ele><time>2026-04-07T14:05:04.044Z</time></trkpt><trkpt lat="43.6945327" lon="10.8360087"><ele>23.4</ele><time>2026-04-07T14:05:06.044Z</time></trkpt><trkpt lat="43.6945683" lon="10.8361049"><ele>23.799999999999997</ele><time>2026-04-07T14:05:07.044Z</time></trkpt><trkpt lat="43.6946203" lon="10.8362053"><ele>24.2</ele><time>2026-04-07T14:05:08.044Z</time></trkpt><trkpt lat="43.6946724" lon="10.8363346"><ele>24.6</ele><time>2026-04-07T14:05:09.043Z</time></trkpt><trkpt lat="43.6947244" lon="10.836473"><ele>25.0</ele><time>2026-04-07T14:05:10.044Z</time></trkpt><trkpt lat="43.6947748" lon="10.8366108"><ele>25.0</ele><time>2026-04-07T14:05:11.044Z</time></trkpt><trkpt lat="43.6948139" lon="10.8367496"><ele>25.0</ele><time>2026-04-07T14:05:12.044Z</time></trkpt><trkpt lat="43.6948369" lon="10.8368906"><ele>25.0</ele><time>2026-04-07T14:05:13.043Z</time></trkpt><trkpt lat="43.694837" lon="10.8370611"><ele>25.0</ele><time>2026-04-07T14:05:14.044Z</time></trkpt><trkpt lat="43.6948306" lon="10.8372213"><ele>25.0</ele><time>2026-04-07T14:05:15.044Z</time></trkpt><trkpt lat="43.6948256" lon="10.8373654"><ele>25.0</ele><time>2026-04-07T14:05:16.044Z</time></trkpt><trkpt lat="43.6948415" lon="10.837517"><ele>25.0</ele><time>2026-04-07T14:05:17.044Z</time></trkpt><trkpt lat="43.694883" lon="10.8376957"><ele>25.0</ele><time>2026-04-07T14:05:18.044Z</time></trkpt><trkpt lat="43.6949415" lon="10.8378736"><ele>25.0</ele><time>2026-04-07T14:05:19.043Z</time></trkpt><trkpt lat="43.6950052" lon="10.8380495"><ele>25.0</ele><time>2026-04-07T14:05:20.043Z</time></trkpt><trkpt lat="43.6950688" lon="10.8382301"><ele>25.0</ele><time>2026-04-07T14:05:21.044Z</time></trkpt><trkpt lat="43.6951172" lon="10.8383994"><ele>25.0</ele><time>2026-04-07T14:05:22.044Z</time></trkpt><trkpt lat="43.6951653" lon="10.8385386"><ele>25.166666666666668</ele><time>2026-04-07T14:05:23.044Z</time></trkpt><trkpt lat="43.6951976" lon="10.8386589"><ele>25.333333333333336</ele><time>2026-04-07T14:05:24.043Z</time></trkpt><trkpt lat="43.6952189" lon="10.8387569"><ele>25.5</ele><time>2026-04-07T14:05:25.044Z</time></trkpt><trkpt lat="43.6952207" lon="10.8388621"><ele>25.666666666666664</ele><time>2026-04-07T14:05:27.043Z</time></trkpt><trkpt lat="43.6952269" lon="10.8389684"><ele>25.833333333333332</ele><time>2026-04-07T14:05:29.044Z</time></trkpt><trkpt lat="43.6952495" lon="10.8390809"><ele>26.0</ele><time>2026-04-07T14:05:31.043Z</time></trkpt><trkpt lat="43.6953101" lon="10.8391709"><ele>25.71428571428571</ele><time>2026-04-07T14:05:33.044Z</time></trkpt><trkpt lat="43.6953402" lon="10.8392474"><ele>25.42857142857143</ele><time>2026-04-07T14:05:34.043Z</time></trkpt><trkpt lat="43.6953592" lon="10.8393355"><ele>25.142857142857142</ele><time>2026-04-07T14:05:35.044Z</time></trkpt><trkpt lat="43.6953731" lon="10.8394395"><ele>24.857142857142854</ele><time>2026-04-07T14:05:36.044Z</time></trkpt><trkpt lat="43.6953792" lon="10.8395495"><ele>24.57142857142857</ele><time>2026-04-07T14:05:37.044Z</time></trkpt><trkpt lat="43.6953777" lon="10.8396511"><ele>24.285714285714285</ele><time>2026-04-07T14:05:38.044Z</time></trkpt><trkpt lat="43.6953798" lon="10.8397467"><ele>24.0</ele><time>2026-04-07T14:05:39.043Z</time></trkpt><trkpt lat="43.6953857" lon="10.839855"><ele>24.0</ele><time>2026-04-07T14:05:40.044Z</time></trkpt><trkpt lat="43.6953883" lon="10.8399545"><ele>24.0</ele><time>2026-04-07T14:05:41.044Z</time></trkpt><trkpt lat="43.6953937" lon="10.8400848"><ele>24.0</ele><time>2026-04-07T14:05:42.044Z</time></trkpt><trkpt lat="43.6954086" lon="10.8402263"><ele>24.0</ele><time>2026-04-07T14:05:43.043Z</time></trkpt><trkpt lat="43.6954231" lon="10.8403615"><ele>24.0</ele><time>2026-04-07T14:05:44.044Z</time></trkpt><trkpt lat="43.6954416" lon="10.8404955"><ele>24.0</ele><time>2026-04-07T14:05:45.043Z</time></trkpt><trkpt lat="43.69546" lon="10.8406205"><ele>24.0</ele><time>2026-04-07T14:05:46.044Z</time></trkpt><trkpt lat="43.6954839" lon="10.8407178"><ele>24.0</ele><time>2026-04-07T14:05:47.043Z</time></trkpt><trkpt lat="43.6954961" lon="10.8408372"><ele>24.0</ele><time>2026-04-07T14:05:48.043Z</time></trkpt><trkpt lat="43.6955074" lon="10.840958"><ele>24.0</ele><time>2026-04-07T14:05:49.044Z</time></trkpt><trkpt lat="43.6955286" lon="10.8410734"><ele>24.0</ele><time>2026-04-07T14:05:50.044Z</time></trkpt><trkpt lat="43.6955474" lon="10.8411935"><ele>24.0</ele><time>2026-04-07T14:05:51.044Z</time></trkpt><trkpt lat="43.6955603" lon="10.8413017"><ele>24.0</ele><time>2026-04-07T14:05:52.044Z</time></trkpt><trkpt lat="43.6955824" lon="10.8414175"><ele>24.0</ele><time>2026-04-07T14:05:53.044Z</time></trkpt><trkpt lat="43.6956086" lon="10.8415535"><ele>24.0</ele><time>2026-04-07T14:05:54.043Z</time></trkpt><trkpt lat="43.6956262" lon="10.8417177"><ele>24.0</ele><time>2026-04-07T14:05:55.044Z</time></trkpt><trkpt lat="43.6956505" lon="10.8418786"><ele>24.25</ele><time>2026-04-07T14:05:56.043Z</time></trkpt><trkpt lat="43.6956718" lon="10.8420377"><ele>24.5</ele><time>2026-04-07T14:05:57.044Z</time></trkpt><trkpt lat="43.6956917" lon="10.8422113"><ele>24.75</ele><time>2026-04-07T14:05:58.044Z</time></trkpt><trkpt lat="43.6957173" lon="10.8423902"><ele>25.0</ele><time>2026-04-07T14:05:59.044Z</time></trkpt><trkpt lat="43.6957423" lon="10.8425819"><ele>24.75</ele><time>2026-04-07T14:06:00.044Z</time></trkpt><trkpt lat="43.6957627" lon="10.8427734"><ele>24.5</ele><time>2026-04-07T14:06:01.044Z</time></trkpt><trkpt lat="43.6957892" lon="10.8429408"><ele>24.25</ele><time>2026-04-07T14:06:02.043Z</time></trkpt><trkpt lat="43.6958075" lon="10.8431078"><ele>24.0</ele><time>2026-04-07T14:06:03.044Z</time></trkpt><trkpt lat="43.6958347" lon="10.8432592"><ele>24.0</ele><time>2026-04-07T14:06:04.044Z</time></trkpt><trkpt lat="43.6958589" lon="10.8434258"><ele>24.0</ele><time>2026-04-07T14:06:05.044Z</time></trkpt><trkpt lat="43.6958882" lon="10.8435945"><ele>24.0</ele><time>2026-04-07T14:06:06.043Z</time></trkpt><trkpt lat="43.6959226" lon="10.8437225"><ele>24.0</ele><time>2026-04-07T14:06:07.044Z</time></trkpt><trkpt lat="43.6959491" lon="10.8438334"><ele>24.0</ele><time>2026-04-07T14:06:08.044Z</time></trkpt><trkpt lat="43.6959727" lon="10.8439174"><ele>23.6</ele><time>2026-04-07T14:06:09.043Z</time></trkpt><trkpt lat="43.6960473" lon="10.84395"><ele>23.2</ele><time>2026-04-07T14:06:11.043Z</time></trkpt><trkpt lat="43.6961001" lon="10.8438926"><ele>22.8</ele><time>2026-04-07T14:06:13.044Z</time></trkpt><trkpt lat="43.6960807" lon="10.8437561"><ele>22.400000000000002</ele><time>2026-04-07T14:06:15.043Z</time></trkpt><trkpt lat="43.6960392" lon="10.8435866"><ele>22.0</ele><time>2026-04-07T14:06:17.044Z</time></trkpt><trkpt lat="43.6959639" lon="10.8434906"><ele>22.333333333333332</ele><time>2026-04-07T14:06:19.044Z</time></trkpt><trkpt lat="43.6959116" lon="10.843405"><ele>22.666666666666664</ele><time>2026-04-07T14:06:21.043Z</time></trkpt><trkpt lat="43.6958632" lon="10.8432536"><ele>23.0</ele><time>2026-04-07T14:06:23.043Z</time></trkpt><trkpt lat="43.6958478" lon="10.8431414"><ele>23.333333333333332</ele><time>2026-04-07T14:06:24.044Z</time></trkpt><trkpt lat="43.695832" lon="10.8430342"><ele>23.666666666666668</ele><time>2026-04-07T14:06:25.044Z</time></trkpt><trkpt lat="43.6958233" lon="10.8429282"><ele>24.0</ele><time>2026-04-07T14:06:26.044Z</time></trkpt><trkpt lat="43.6958158" lon="10.8428234"><ele>24.0</ele><time>2026-04-07T14:06:27.043Z</time></trkpt><trkpt lat="43.6957958" lon="10.8426803"><ele>24.0</ele><time>2026-04-07T14:06:28.044Z</time></trkpt><trkpt lat="43.6957778" lon="10.8425229"><ele>24.0</ele><time>2026-04-07T14:06:29.044Z</time></trkpt><trkpt lat="43.6957551" lon="10.8423497"><ele>24.0</ele><time>2026-04-07T14:06:30.044Z</time></trkpt><trkpt lat="43.6957321" lon="10.8421838"><ele>24.0</ele><time>2026-04-07T14:06:31.044Z</time></trkpt><trkpt lat="43.6957074" lon="10.8420317"><ele>24.0</ele><time>2026-04-07T14:06:32.044Z</time></trkpt><trkpt lat="43.6956813" lon="10.8418707"><ele>24.0</ele><time>2026-04-07T14:06:33.044Z</time></trkpt><trkpt lat="43.6956544" lon="10.8416933"><ele>24.0</ele><time>2026-04-07T14:06:34.043Z</time></trkpt><trkpt lat="43.6956311" lon="10.8414847"><ele>24.0</ele><time>2026-04-07T14:06:35.044Z</time></trkpt><trkpt lat="43.6956057" lon="10.841278"><ele>24.0</ele><time>2026-04-07T14:06:36.043Z</time></trkpt><trkpt lat="43.6955778" lon="10.8410717"><ele>24.0</ele><time>2026-04-07T14:06:37.043Z</time></trkpt><trkpt lat="43.6955644" lon="10.8408841"><ele>24.0</ele><time>2026-04-07T14:06:38.043Z</time></trkpt><trkpt lat="43.6955466" lon="10.8407035"><ele>24.0</ele><time>2026-04-07T14:06:39.044Z</time></trkpt><trkpt lat="43.6955265" lon="10.8405489"><ele>24.0</ele><time>2026-04-07T14:06:40.044Z</time></trkpt><trkpt lat="43.6955044" lon="10.840402"><ele>24.0</ele><time>2026-04-07T14:06:41.044Z</time></trkpt><trkpt lat="43.6954853" lon="10.8402723"><ele>24.0</ele><time>2026-04-07T14:06:42.044Z</time></trkpt><trkpt lat="43.6954627" lon="10.8401438"><ele>24.0</ele><time>2026-04-07T14:06:43.044Z</time></trkpt><trkpt lat="43.6954481" lon="10.840006"><ele>23.6</ele><time>2026-04-07T14:06:44.044Z</time></trkpt><trkpt lat="43.6954429" lon="10.8398521"><ele>23.2</ele><time>2026-04-07T14:06:45.044Z</time></trkpt><trkpt lat="43.6954374" lon="10.8397106"><ele>22.8</ele><time>2026-04-07T14:06:46.044Z</time></trkpt><trkpt lat="43.695423" lon="10.8395764"><ele>22.400000000000002</ele><time>2026-04-07T14:06:47.044Z</time></trkpt><trkpt lat="43.6954123" lon="10.8394466"><ele>22.0</ele><time>2026-04-07T14:06:48.044Z</time></trkpt><trkpt lat="43.6954178" lon="10.8393445"><ele>22.333333333333332</ele><time>2026-04-07T14:06:49.044Z</time></trkpt><trkpt lat="43.6954233" lon="10.8392401"><ele>22.666666666666664</ele><time>2026-04-07T14:06:50.044Z</time></trkpt><trkpt lat="43.6954338" lon="10.8391542"><ele>23.0</ele><time>2026-04-07T14:06:51.043Z</time></trkpt><trkpt lat="43.6954462" lon="10.8390084"><ele>23.333333333333332</ele><time>2026-04-07T14:06:53.043Z</time></trkpt><trkpt lat="43.695406" lon="10.8388949"><ele>23.666666666666668</ele><time>2026-04-07T14:06:55.044Z</time></trkpt><trkpt lat="43.6953326" lon="10.8388456"><ele>24.0</ele><time>2026-04-07T14:06:57.043Z</time></trkpt><trkpt lat="43.695238" lon="10.8389147"><ele>24.166666666666668</ele><time>2026-04-07T14:06:59.043Z</time></trkpt><trkpt lat="43.6951873" lon="10.8390413"><ele>24.333333333333336</ele><time>2026-04-07T14:07:01.043Z</time></trkpt><trkpt lat="43.6951138" lon="10.8391808"><ele>24.5</ele><time>2026-04-07T14:07:03.044Z</time></trkpt><trkpt lat="43.6950617" lon="10.8392573"><ele>24.666666666666668</ele><time>2026-04-07T14:07:04.043Z</time></trkpt><trkpt lat="43.6950137" lon="10.8393302"><ele>24.833333333333336</ele><time>2026-04-07T14:07:05.044Z</time></trkpt><trkpt lat="43.6949724" lon="10.8394097"><ele>25.0</ele><time>2026-04-07T14:07:06.044Z</time></trkpt><trkpt lat="43.6949291" lon="10.8394762"><ele>25.000000000000004</ele><time>2026-04-07T14:07:07.044Z</time></trkpt><trkpt lat="43.6948761" lon="10.8395505"><ele>25.0</ele><time>2026-04-07T14:07:08.044Z</time></trkpt><trkpt lat="43.694825" lon="10.8396252"><ele>25.0</ele><time>2026-04-07T14:07:09.044Z</time></trkpt><trkpt lat="43.6947743" lon="10.8397075"><ele>25.0</ele><time>2026-04-07T14:07:10.044Z</time></trkpt><trkpt lat="43.6947192" lon="10.8397948"><ele>25.000000000000004</ele><time>2026-04-07T14:07:11.044Z</time></trkpt><trkpt lat="43.6946468" lon="10.8398821"><ele>25.0</ele><time>2026-04-07T14:07:12.044Z</time></trkpt><trkpt lat="43.6945696" lon="10.8399903"><ele>25.0</ele><time>2026-04-07T14:07:13.044Z</time></trkpt><trkpt lat="43.6944969" lon="10.8400985"><ele>25.0</ele><time>2026-04-07T14:07:14.043Z</time></trkpt><trkpt lat="43.6944104" lon="10.8401949"><ele>25.0</ele><time>2026-04-07T14:07:15.044Z</time></trkpt><trkpt lat="43.6943263" lon="10.8402981"><ele>25.0</ele><time>2026-04-07T14:07:16.043Z</time></trkpt><trkpt lat="43.6942512" lon="10.8404038"><ele>25.0</ele><time>2026-04-07T14:07:17.044Z</time></trkpt><trkpt lat="43.6941641" lon="10.8405103"><ele>25.6</ele><time>2026-04-07T14:07:18.044Z</time></trkpt><trkpt lat="43.6940677" lon="10.840632"><ele>26.2</ele><time>2026-04-07T14:07:19.044Z</time></trkpt><trkpt lat="43.6939819" lon="10.8407365"><ele>26.799999999999997</ele><time>2026-04-07T14:07:20.044Z</time></trkpt><trkpt lat="43.6939144" lon="10.8408106"><ele>27.4</ele><time>2026-04-07T14:07:21.044Z</time></trkpt><trkpt lat="43.6938339" lon="10.8408688"><ele>28.0</ele><time>2026-04-07T14:07:22.043Z</time></trkpt><trkpt lat="43.6937337" lon="10.8409647"><ele>28.2</ele><time>2026-04-07T14:07:24.044Z</time></trkpt><trkpt lat="43.6936693" lon="10.8410215"><ele>28.4</ele><time>2026-04-07T14:07:27.044Z</time></trkpt><trkpt lat="43.6935742" lon="10.8410961"><ele>28.599999999999998</ele><time>2026-04-07T14:08:40.044Z</time></trkpt><trkpt lat="43.6934854" lon="10.8412282"><ele>28.799999999999997</ele><time>2026-04-07T14:08:42.043Z</time></trkpt><trkpt lat="43.6934491" lon="10.8413138"><ele>29.0</ele><time>2026-04-07T14:08:43.043Z</time></trkpt><trkpt lat="43.6934475" lon="10.8414244"><ele>29.0</ele><time>2026-04-07T14:08:44.044Z</time></trkpt><trkpt lat="43.6934429" lon="10.8415712"><ele>29.0</ele><time>2026-04-07T14:08:45.044Z</time></trkpt><trkpt lat="43.693442" lon="10.8417245"><ele>29.0</ele><time>2026-04-07T14:08:46.044Z</time></trkpt><trkpt lat="43.6934426" lon="10.841873"><ele>29.0</ele><time>2026-04-07T14:08:47.043Z</time></trkpt><trkpt lat="43.6934414" lon="10.8420237"><ele>29.0</ele><time>2026-04-07T14:08:48.043Z</time></trkpt><trkpt lat="43.6934245" lon="10.8421662"><ele>28.833333333333332</ele><time>2026-04-07T14:08:49.044Z</time></trkpt><trkpt lat="43.6934049" lon="10.8423105"><ele>28.666666666666664</ele><time>2026-04-07T14:08:50.044Z</time></trkpt><trkpt lat="43.6933949" lon="10.8424432"><ele>28.5</ele><time>2026-04-07T14:08:51.043Z</time></trkpt><trkpt lat="43.6933947" lon="10.8425357"><ele>28.333333333333336</ele><time>2026-04-07T14:08:52.044Z</time></trkpt><trkpt lat="43.6933914" lon="10.8426307"><ele>28.166666666666668</ele><time>2026-04-07T14:08:53.043Z</time></trkpt><trkpt lat="43.6933839" lon="10.8427411"><ele>28.0</ele><time>2026-04-07T14:08:54.044Z</time></trkpt><trkpt lat="43.6933711" lon="10.8428599"><ele>27.799999999999997</ele><time>2026-04-07T14:08:55.044Z</time></trkpt><trkpt lat="43.6933647" lon="10.8429997"><ele>27.599999999999998</ele><time>2026-04-07T14:08:56.044Z</time></trkpt><trkpt lat="43.6933626" lon="10.843114"><ele>27.400000000000002</ele><time>2026-04-07T14:08:57.044Z</time></trkpt><trkpt lat="43.6933556" lon="10.8432527"><ele>27.200000000000003</ele><time>2026-04-07T14:08:58.044Z</time></trkpt><trkpt lat="43.6933465" lon="10.8434069"><ele>27.0</ele><time>2026-04-07T14:08:59.044Z</time></trkpt><trkpt lat="43.6933378" lon="10.8435687"><ele>27.0</ele><time>2026-04-07T14:09:00.043Z</time></trkpt><trkpt lat="43.6933277" lon="10.8437205"><ele>27.000000000000004</ele><time>2026-04-07T14:09:01.044Z</time></trkpt><trkpt lat="43.6933186" lon="10.8438712"><ele>27.000000000000004</ele><time>2026-04-07T14:09:02.043Z</time></trkpt><trkpt lat="43.6933085" lon="10.8440174"><ele>27.0</ele><time>2026-04-07T14:09:03.044Z</time></trkpt><trkpt lat="43.693305" lon="10.844152"><ele>27.0</ele><time>2026-04-07T14:09:04.043Z</time></trkpt><trkpt lat="43.6932928" lon="10.8442688"><ele>27.200000000000003</ele><time>2026-04-07T14:09:05.044Z</time></trkpt><trkpt lat="43.6932854" lon="10.8443869"><ele>27.400000000000002</ele><time>2026-04-07T14:09:06.044Z</time></trkpt><trkpt lat="43.6932786" lon="10.8444958"><ele>27.599999999999998</ele><time>2026-04-07T14:09:07.043Z</time></trkpt><trkpt lat="43.6932701" lon="10.8446305"><ele>27.799999999999997</ele><time>2026-04-07T14:09:08.044Z</time></trkpt><trkpt lat="43.693264" lon="10.8447683"><ele>28.0</ele><time>2026-04-07T14:09:09.043Z</time></trkpt><trkpt lat="43.6932572" lon="10.8449267"><ele>28.0</ele><time>2026-04-07T14:09:10.044Z</time></trkpt><trkpt lat="43.6932512" lon="10.8450959"><ele>28.0</ele><time>2026-04-07T14:09:11.044Z</time></trkpt><trkpt lat="43.6932352" lon="10.8452793"><ele>28.0</ele><time>2026-04-07T14:09:12.044Z</time></trkpt><trkpt lat="43.6932242" lon="10.8454666"><ele>28.0</ele><time>2026-04-07T14:09:13.044Z</time></trkpt><trkpt lat="43.6932031" lon="10.8456625"><ele>27.5</ele><time>2026-04-07T14:09:14.044Z</time></trkpt><trkpt lat="43.6931887" lon="10.8458565"><ele>27.0</ele><time>2026-04-07T14:09:15.044Z</time></trkpt><trkpt lat="43.6931798" lon="10.8460327"><ele>26.5</ele><time>2026-04-07T14:09:16.043Z</time></trkpt><trkpt lat="43.6931647" lon="10.8462132"><ele>26.0</ele><time>2026-04-07T14:09:17.044Z</time></trkpt><trkpt lat="43.6931598" lon="10.8463987"><ele>26.0</ele><time>2026-04-07T14:09:18.044Z</time></trkpt><trkpt lat="43.6931537" lon="10.846567"><ele>26.0</ele><time>2026-04-07T14:09:19.044Z</time></trkpt><trkpt lat="43.6931451" lon="10.8467275"><ele>26.0</ele><time>2026-04-07T14:09:20.044Z</time></trkpt><trkpt lat="43.6931371" lon="10.8468814"><ele>26.0</ele><time>2026-04-07T14:09:21.043Z</time></trkpt><trkpt lat="43.6931323" lon="10.8470119"><ele>26.0</ele><time>2026-04-07T14:09:22.043Z</time></trkpt><trkpt lat="43.6931245" lon="10.8471259"><ele>25.999999999999996</ele><time>2026-04-07T14:09:23.044Z</time></trkpt><trkpt lat="43.6931196" lon="10.8472281"><ele>26.0</ele><time>2026-04-07T14:09:24.044Z</time></trkpt><trkpt lat="43.6931147" lon="10.8473268"><ele>26.0</ele><time>2026-04-07T14:09:25.043Z</time></trkpt><trkpt lat="43.6931057" lon="10.8474379"><ele>26.0</ele><time>2026-04-07T14:09:26.044Z</time></trkpt><trkpt lat="43.6930956" lon="10.8475344"><ele>25.999999999999996</ele><time>2026-04-07T14:09:27.044Z</time></trkpt><trkpt lat="43.693091" lon="10.8476554"><ele>26.0</ele><time>2026-04-07T14:09:28.043Z</time></trkpt><trkpt lat="43.6930874" lon="10.8477596"><ele>26.0</ele><time>2026-04-07T14:09:29.044Z</time></trkpt><trkpt lat="43.6930814" lon="10.847896"><ele>26.0</ele><time>2026-04-07T14:09:30.044Z</time></trkpt><trkpt lat="43.6930758" lon="10.8480457"><ele>26.0</ele><time>2026-04-07T14:09:31.044Z</time></trkpt><trkpt lat="43.6930668" lon="10.8481796"><ele>26.0</ele><time>2026-04-07T14:09:32.043Z</time></trkpt><trkpt lat="43.6930635" lon="10.8483064"><ele>26.0</ele><time>2026-04-07T14:09:33.044Z</time></trkpt><trkpt lat="43.6930556" lon="10.8484559"><ele>25.8</ele><time>2026-04-07T14:09:34.044Z</time></trkpt><trkpt lat="43.6930465" lon="10.8486"><ele>25.6</ele><time>2026-04-07T14:09:35.044Z</time></trkpt><trkpt lat="43.6930369" lon="10.8487284"><ele>25.4</ele><time>2026-04-07T14:09:36.044Z</time></trkpt><trkpt lat="43.6930261" lon="10.8488705"><ele>25.2</ele><time>2026-04-07T14:09:37.044Z</time></trkpt><trkpt lat="43.6930151" lon="10.8490227"><ele>25.0</ele><time>2026-04-07T14:09:38.044Z</time></trkpt><trkpt lat="43.6930067" lon="10.849174"><ele>24.75</ele><time>2026-04-07T14:09:39.044Z</time></trkpt><trkpt lat="43.6929954" lon="10.8493318"><ele>24.5</ele><time>2026-04-07T14:09:40.044Z</time></trkpt><trkpt lat="43.6929823" lon="10.849491"><ele>24.25</ele><time>2026-04-07T14:09:41.044Z</time></trkpt><trkpt lat="43.6929743" lon="10.8496561"><ele>24.0</ele><time>2026-04-07T14:09:42.043Z</time></trkpt><trkpt lat="43.6929642" lon="10.8498212"><ele>24.0</ele><time>2026-04-07T14:09:43.044Z</time></trkpt><trkpt lat="43.6929547" lon="10.8499961"><ele>24.0</ele><time>2026-04-07T14:09:44.044Z</time></trkpt><trkpt lat="43.6929436" lon="10.8501626"><ele>24.0</ele><time>2026-04-07T14:09:45.043Z</time></trkpt><trkpt lat="43.6929323" lon="10.8503365"><ele>24.0</ele><time>2026-04-07T14:09:46.044Z</time></trkpt><trkpt lat="43.692921" lon="10.8505074"><ele>24.5</ele><time>2026-04-07T14:09:47.043Z</time></trkpt><trkpt lat="43.6929077" lon="10.8506854"><ele>25.0</ele><time>2026-04-07T14:09:48.044Z</time></trkpt><trkpt lat="43.6928918" lon="10.8508684"><ele>25.5</ele><time>2026-04-07T14:09:49.044Z</time></trkpt><trkpt lat="43.6928766" lon="10.8510458"><ele>26.0</ele><time>2026-04-07T14:09:50.044Z</time></trkpt><trkpt lat="43.6928616" lon="10.8512377"><ele>26.0</ele><time>2026-04-07T14:09:51.043Z</time></trkpt><trkpt lat="43.6928481" lon="10.8514264"><ele>26.0</ele><time>2026-04-07T14:09:52.043Z</time></trkpt><trkpt lat="43.6928284" lon="10.8516136"><ele>26.0</ele><time>2026-04-07T14:09:53.044Z</time></trkpt><trkpt lat="43.6928189" lon="10.8517996"><ele>26.0</ele><time>2026-04-07T14:09:54.043Z</time></trkpt><trkpt lat="43.6928129" lon="10.8519841"><ele>26.0</ele><time>2026-04-07T14:09:55.044Z</time></trkpt><trkpt lat="43.6928019" lon="10.8521715"><ele>26.0</ele><time>2026-04-07T14:09:56.043Z</time></trkpt><trkpt lat="43.6927983" lon="10.8523555"><ele>26.0</ele><time>2026-04-07T14:09:57.044Z</time></trkpt><trkpt lat="43.6927924" lon="10.8525396"><ele>26.0</ele><time>2026-04-07T14:09:58.044Z</time></trkpt><trkpt lat="43.6927831" lon="10.8527146"><ele>26.0</ele><time>2026-04-07T14:09:59.044Z</time></trkpt><trkpt lat="43.6927736" lon="10.8528912"><ele>26.0</ele><time>2026-04-07T14:10:00.044Z</time></trkpt><trkpt lat="43.6927631" lon="10.8530734"><ele>26.0</ele><time>2026-04-07T14:10:01.043Z</time></trkpt><trkpt lat="43.6927529" lon="10.8532644"><ele>26.0</ele><time>2026-04-07T14:10:02.044Z</time></trkpt><trkpt lat="43.6927448" lon="10.8534943"><ele>25.666666666666664</ele><time>2026-04-07T14:10:03.044Z</time></trkpt><trkpt lat="43.6927386" lon="10.8537101"><ele>25.333333333333336</ele><time>2026-04-07T14:10:04.043Z</time></trkpt><trkpt lat="43.6927273" lon="10.8539425"><ele>25.0</ele><time>2026-04-07T14:10:05.044Z</time></trkpt><trkpt lat="43.6927215" lon="10.8541477"><ele>25.0</ele><time>2026-04-07T14:10:06.044Z</time></trkpt><trkpt lat="43.6927083" lon="10.8543612"><ele>25.0</ele><time>2026-04-07T14:10:07.044Z</time></trkpt><trkpt lat="43.6926937" lon="10.8545576"><ele>25.0</ele><time>2026-04-07T14:10:08.044Z</time></trkpt><trkpt lat="43.6926819" lon="10.854736"><ele>25.0</ele><time>2026-04-07T14:10:09.044Z</time></trkpt><trkpt lat="43.6926749" lon="10.8548756"><ele>25.0</ele><time>2026-04-07T14:10:10.044Z</time></trkpt><trkpt lat="43.6926698" lon="10.855013"><ele>25.0</ele><time>2026-04-07T14:10:11.044Z</time></trkpt><trkpt lat="43.6926532" lon="10.8551862"><ele>25.0</ele><time>2026-04-07T14:10:12.043Z</time></trkpt><trkpt lat="43.692641" lon="10.8553767"><ele>25.0</ele><time>2026-04-07T14:10:13.044Z</time></trkpt><trkpt lat="43.6926354" lon="10.855573"><ele>25.333333333333336</ele><time>2026-04-07T14:10:14.043Z</time></trkpt><trkpt lat="43.692622" lon="10.8557878"><ele>25.666666666666664</ele><time>2026-04-07T14:10:15.044Z</time></trkpt><trkpt lat="43.6926063" lon="10.8560452"><ele>26.0</ele><time>2026-04-07T14:10:16.044Z</time></trkpt><trkpt lat="43.6925825" lon="10.8563078"><ele>26.0</ele><time>2026-04-07T14:10:17.044Z</time></trkpt><trkpt lat="43.6925639" lon="10.8565745"><ele>26.0</ele><time>2026-04-07T14:10:18.044Z</time></trkpt><trkpt lat="43.6925492" lon="10.8568255"><ele>26.0</ele><time>2026-04-07T14:10:19.044Z</time></trkpt><trkpt lat="43.6925304" lon="10.8570919"><ele>26.333333333333332</ele><time>2026-04-07T14:10:20.044Z</time></trkpt><trkpt lat="43.6925143" lon="10.8573585"><ele>26.666666666666664</ele><time>2026-04-07T14:10:21.044Z</time></trkpt><trkpt lat="43.6924943" lon="10.8576358"><ele>27.0</ele><time>2026-04-07T14:10:22.043Z</time></trkpt><trkpt lat="43.6924748" lon="10.8579051"><ele>27.333333333333336</ele><time>2026-04-07T14:10:23.043Z</time></trkpt><trkpt lat="43.6924571" lon="10.8581627"><ele>27.666666666666668</ele><time>2026-04-07T14:10:24.044Z</time></trkpt><trkpt lat="43.692437" lon="10.858416"><ele>28.0</ele><time>2026-04-07T14:10:25.044Z</time></trkpt><trkpt lat="43.692421" lon="10.8586935"><ele>28.0</ele><time>2026-04-07T14:10:26.043Z</time></trkpt><trkpt lat="43.6924044" lon="10.8589873"><ele>28.0</ele><time>2026-04-07T14:10:27.044Z</time></trkpt><trkpt lat="43.6923911" lon="10.8592882"><ele>28.0</ele><time>2026-04-07T14:10:28.044Z</time></trkpt><trkpt lat="43.6923748" lon="10.8595827"><ele>28.0</ele><time>2026-04-07T14:10:29.044Z</time></trkpt><trkpt lat="43.6923564" lon="10.859851"><ele>28.0</ele><time>2026-04-07T14:10:30.043Z</time></trkpt><trkpt lat="43.6923351" lon="10.8601277"><ele>28.0</ele><time>2026-04-07T14:10:31.044Z</time></trkpt><trkpt lat="43.692314" lon="10.8604245"><ele>28.0</ele><time>2026-04-07T14:10:32.043Z</time></trkpt><trkpt lat="43.6922929" lon="10.8607177"><ele>28.0</ele><time>2026-04-07T14:10:33.044Z</time></trkpt><trkpt lat="43.6922718" lon="10.8609915"><ele>28.0</ele><time>2026-04-07T14:10:34.044Z</time></trkpt><trkpt lat="43.6922527" lon="10.8612668"><ele>28.333333333333336</ele><time>2026-04-07T14:10:35.044Z</time></trkpt><trkpt lat="43.6922381" lon="10.8615143"><ele>28.666666666666664</ele><time>2026-04-07T14:10:36.043Z</time></trkpt><trkpt lat="43.6922264" lon="10.8617531"><ele>29.0</ele><time>2026-04-07T14:10:37.043Z</time></trkpt><trkpt lat="43.6922134" lon="10.8619691"><ele>29.2</ele><time>2026-04-07T14:10:38.044Z</time></trkpt><trkpt lat="43.692201" lon="10.8621499"><ele>29.4</ele><time>2026-04-07T14:10:39.044Z</time></trkpt><trkpt lat="43.6921905" lon="10.8623062"><ele>29.6</ele><time>2026-04-07T14:10:40.044Z</time></trkpt><trkpt lat="43.6921826" lon="10.8624488"><ele>29.8</ele><time>2026-04-07T14:10:41.044Z</time></trkpt><trkpt lat="43.6921681" lon="10.8625775"><ele>30.0</ele><time>2026-04-07T14:10:42.044Z</time></trkpt><trkpt lat="43.6921582" lon="10.8626957"><ele>30.0</ele><time>2026-04-07T14:10:43.044Z</time></trkpt><trkpt lat="43.6921423" lon="10.862794"><ele>30.0</ele><time>2026-04-07T14:10:44.044Z</time></trkpt><trkpt lat="43.6921272" lon="10.8628815"><ele>30.0</ele><time>2026-04-07T14:10:45.044Z</time></trkpt><trkpt lat="43.6921102" lon="10.8629662"><ele>30.0</ele><time>2026-04-07T14:10:46.044Z</time></trkpt><trkpt lat="43.6920957" lon="10.8630626"><ele>30.0</ele><time>2026-04-07T14:10:47.044Z</time></trkpt><trkpt lat="43.6920894" lon="10.8631762"><ele>30.0</ele><time>2026-04-07T14:10:48.044Z</time></trkpt><trkpt lat="43.6920789" lon="10.8633176"><ele>30.0</ele><time>2026-04-07T14:10:49.043Z</time></trkpt><trkpt lat="43.692072" lon="10.8634725"><ele>30.0</ele><time>2026-04-07T14:10:50.044Z</time></trkpt><trkpt lat="43.6920575" lon="10.8636285"><ele>30.0</ele><time>2026-04-07T14:10:51.044Z</time></trkpt><trkpt lat="43.6920439" lon="10.8637936"><ele>30.0</ele><time>2026-04-07T14:10:52.043Z</time></trkpt><trkpt lat="43.6920367" lon="10.8639574"><ele>30.0</ele><time>2026-04-07T14:10:53.043Z</time></trkpt><trkpt lat="43.6920277" lon="10.8641307"><ele>30.0</ele><time>2026-04-07T14:10:54.044Z</time></trkpt><trkpt lat="43.692012" lon="10.864315"><ele>30.0</ele><time>2026-04-07T14:10:55.044Z</time></trkpt><trkpt lat="43.6919969" lon="10.864501"><ele>30.0</ele><time>2026-04-07T14:10:56.044Z</time></trkpt><trkpt lat="43.6919866" lon="10.8646888"><ele>29.5</ele><time>2026-04-07T14:10:57.043Z</time></trkpt><trkpt lat="43.6919775" lon="10.8648731"><ele>29.0</ele><time>2026-04-07T14:10:58.044Z</time></trkpt><trkpt lat="43.6919679" lon="10.865066"><ele>28.5</ele><time>2026-04-07T14:10:59.043Z</time></trkpt><trkpt lat="43.6919605" lon="10.8652586"><ele>28.0</ele><time>2026-04-07T14:11:00.044Z</time></trkpt><trkpt lat="43.691946" lon="10.8654628"><ele>27.666666666666668</ele><time>2026-04-07T14:11:01.044Z</time></trkpt><trkpt lat="43.6919324" lon="10.8656694"><ele>27.333333333333336</ele><time>2026-04-07T14:11:02.043Z</time></trkpt><trkpt lat="43.6919152" lon="10.8658762"><ele>27.0</ele><time>2026-04-07T14:11:03.044Z</time></trkpt><trkpt lat="43.6919041" lon="10.8660835"><ele>27.75</ele><time>2026-04-07T14:11:04.043Z</time></trkpt><trkpt lat="43.691903" lon="10.8662745"><ele>28.5</ele><time>2026-04-07T14:11:05.043Z</time></trkpt><trkpt lat="43.6918928" lon="10.8664858"><ele>29.25</ele><time>2026-04-07T14:11:06.044Z</time></trkpt><trkpt lat="43.6918825" lon="10.8667022"><ele>30.0</ele><time>2026-04-07T14:11:07.044Z</time></trkpt><trkpt lat="43.6918705" lon="10.8669201"><ele>30.0</ele><time>2026-04-07T14:11:08.043Z</time></trkpt><trkpt lat="43.6918583" lon="10.867125"><ele>30.0</ele><time>2026-04-07T14:11:09.043Z</time></trkpt><trkpt lat="43.6918523" lon="10.867312"><ele>30.0</ele><time>2026-04-07T14:11:10.043Z</time></trkpt><trkpt lat="43.6918421" lon="10.8674844"><ele>30.0</ele><time>2026-04-07T14:11:11.044Z</time></trkpt><trkpt lat="43.6918341" lon="10.8676279"><ele>30.333333333333336</ele><time>2026-04-07T14:11:12.044Z</time></trkpt><trkpt lat="43.6918194" lon="10.8678404"><ele>30.666666666666668</ele><time>2026-04-07T14:11:13.044Z</time></trkpt><trkpt lat="43.6918122" lon="10.8680579"><ele>31.0</ele><time>2026-04-07T14:11:14.044Z</time></trkpt><trkpt lat="43.6918057" lon="10.8682901"><ele>31.0</ele><time>2026-04-07T14:11:15.044Z</time></trkpt><trkpt lat="43.691798" lon="10.8685324"><ele>31.0</ele><time>2026-04-07T14:11:16.044Z</time></trkpt><trkpt lat="43.6917896" lon="10.8687568"><ele>31.0</ele><time>2026-04-07T14:11:17.043Z</time></trkpt><trkpt lat="43.6917754" lon="10.8690106"><ele>31.0</ele><time>2026-04-07T14:11:18.044Z</time></trkpt><trkpt lat="43.69176" lon="10.8692666"><ele>31.0</ele><time>2026-04-07T14:11:19.043Z</time></trkpt><trkpt lat="43.691748" lon="10.8695304"><ele>31.0</ele><time>2026-04-07T14:11:20.043Z</time></trkpt><trkpt lat="43.6917351" lon="10.8698011"><ele>31.0</ele><time>2026-04-07T14:11:21.044Z</time></trkpt><trkpt lat="43.6917227" lon="10.8700776"><ele>31.0</ele><time>2026-04-07T14:11:22.044Z</time></trkpt><trkpt lat="43.6917082" lon="10.870362"><ele>31.0</ele><time>2026-04-07T14:11:23.043Z</time></trkpt><trkpt lat="43.6916873" lon="10.8706405"><ele>30.75</ele><time>2026-04-07T14:11:24.044Z</time></trkpt><trkpt lat="43.6916651" lon="10.8708838"><ele>30.5</ele><time>2026-04-07T14:11:25.044Z</time></trkpt><trkpt lat="43.6916455" lon="10.8710751"><ele>30.25</ele><time>2026-04-07T14:11:26.043Z</time></trkpt><trkpt lat="43.6916302" lon="10.8712375"><ele>30.0</ele><time>2026-04-07T14:11:27.044Z</time></trkpt><trkpt lat="43.6916162" lon="10.8714215"><ele>30.0</ele><time>2026-04-07T14:11:28.044Z</time></trkpt><trkpt lat="43.6915985" lon="10.8716277"><ele>30.0</ele><time>2026-04-07T14:11:29.044Z</time></trkpt><trkpt lat="43.6915838" lon="10.8718651"><ele>30.0</ele><time>2026-04-07T14:11:30.044Z</time></trkpt><trkpt lat="43.6915701" lon="10.8721402"><ele>30.0</ele><time>2026-04-07T14:11:31.044Z</time></trkpt><trkpt lat="43.691557" lon="10.8724372"><ele>30.0</ele><time>2026-04-07T14:11:32.044Z</time></trkpt><trkpt lat="43.6915409" lon="10.8727218"><ele>30.0</ele><time>2026-04-07T14:11:33.044Z</time></trkpt><trkpt lat="43.691525" lon="10.8729986"><ele>30.333333333333336</ele><time>2026-04-07T14:11:34.044Z</time></trkpt><trkpt lat="43.6914948" lon="10.8732578"><ele>30.666666666666668</ele><time>2026-04-07T14:11:35.044Z</time></trkpt><trkpt lat="43.6914619" lon="10.8735207"><ele>31.0</ele><time>2026-04-07T14:11:36.043Z</time></trkpt><trkpt lat="43.6914357" lon="10.8737992"><ele>30.333333333333336</ele><time>2026-04-07T14:11:37.044Z</time></trkpt><trkpt lat="43.6914175" lon="10.8740716"><ele>29.666666666666664</ele><time>2026-04-07T14:11:38.043Z</time></trkpt><trkpt lat="43.6914095" lon="10.874314"><ele>29.0</ele><time>2026-04-07T14:11:39.044Z</time></trkpt><trkpt lat="43.6914118" lon="10.8745769"><ele>28.666666666666664</ele><time>2026-04-07T14:11:40.043Z</time></trkpt><trkpt lat="43.6914158" lon="10.8748261"><ele>28.333333333333336</ele><time>2026-04-07T14:11:41.044Z</time></trkpt><trkpt lat="43.6914444" lon="10.8750913"><ele>28.0</ele><time>2026-04-07T14:11:42.044Z</time></trkpt><trkpt lat="43.6914942" lon="10.875356"><ele>28.0</ele><time>2026-04-07T14:11:43.044Z</time></trkpt><trkpt lat="43.6915454" lon="10.8756476"><ele>28.0</ele><time>2026-04-07T14:11:44.044Z</time></trkpt><trkpt lat="43.6915957" lon="10.8759431"><ele>28.0</ele><time>2026-04-07T14:11:45.044Z</time></trkpt><trkpt lat="43.6916622" lon="10.8762593"><ele>28.5</ele><time>2026-04-07T14:11:46.043Z</time></trkpt><trkpt lat="43.6917331" lon="10.8765707"><ele>29.0</ele><time>2026-04-07T14:11:47.044Z</time></trkpt><trkpt lat="43.6918058" lon="10.8768839"><ele>29.0</ele><time>2026-04-07T14:11:48.044Z</time></trkpt><trkpt lat="43.6918794" lon="10.8771491"><ele>29.0</ele><time>2026-04-07T14:11:49.044Z</time></trkpt><trkpt lat="43.6919489" lon="10.8774099"><ele>29.0</ele><time>2026-04-07T14:11:50.044Z</time></trkpt><trkpt lat="43.6920143" lon="10.8776269"><ele>28.666666666666664</ele><time>2026-04-07T14:11:51.044Z</time></trkpt><trkpt lat="43.6920731" lon="10.8778347"><ele>28.333333333333336</ele><time>2026-04-07T14:11:52.044Z</time></trkpt><trkpt lat="43.6921141" lon="10.8780566"><ele>28.0</ele><time>2026-04-07T14:11:53.043Z</time></trkpt><trkpt lat="43.6921352" lon="10.8782721"><ele>27.666666666666668</ele><time>2026-04-07T14:11:54.044Z</time></trkpt><trkpt lat="43.6920726" lon="10.8785338"><ele>27.333333333333336</ele><time>2026-04-07T14:11:55.044Z</time></trkpt><trkpt lat="43.6920401" lon="10.8788076"><ele>27.0</ele><time>2026-04-07T14:11:56.044Z</time></trkpt><trkpt lat="43.6920042" lon="10.8791051"><ele>27.5</ele><time>2026-04-07T14:11:57.043Z</time></trkpt><trkpt lat="43.6919571" lon="10.8794131"><ele>28.0</ele><time>2026-04-07T14:11:58.044Z</time></trkpt><trkpt lat="43.6919143" lon="10.8797374"><ele>29.0</ele><time>2026-04-07T14:11:59.044Z</time></trkpt><trkpt lat="43.6918693" lon="10.8800686"><ele>30.0</ele><time>2026-04-07T14:12:00.044Z</time></trkpt><trkpt lat="43.6918214" lon="10.8804008"><ele>30.0</ele><time>2026-04-07T14:12:01.044Z</time></trkpt><trkpt lat="43.6917785" lon="10.8807316"><ele>30.0</ele><time>2026-04-07T14:12:02.044Z</time></trkpt><trkpt lat="43.691735" lon="10.881057"><ele>29.5</ele><time>2026-04-07T14:12:03.043Z</time></trkpt><trkpt lat="43.6916896" lon="10.8814129"><ele>29.0</ele><time>2026-04-07T14:12:04.043Z</time></trkpt><trkpt lat="43.69164" lon="10.8817719"><ele>30.5</ele><time>2026-04-07T14:12:05.044Z</time></trkpt><trkpt lat="43.691589" lon="10.8821451"><ele>32.0</ele><time>2026-04-07T14:12:06.044Z</time></trkpt><trkpt lat="43.6915403" lon="10.8825326"><ele>31.5</ele><time>2026-04-07T14:12:07.044Z</time></trkpt><trkpt lat="43.6914994" lon="10.8829231"><ele>31.0</ele><time>2026-04-07T14:12:08.044Z</time></trkpt><trkpt lat="43.6914573" lon="10.8833041"><ele>30.0</ele><time>2026-04-07T14:12:09.044Z</time></trkpt><trkpt lat="43.6914176" lon="10.8836545"><ele>29.0</ele><time>2026-04-07T14:12:10.044Z</time></trkpt><trkpt lat="43.6913854" lon="10.8839841"><ele>29.0</ele><time>2026-04-07T14:12:11.044Z</time></trkpt><trkpt lat="43.6913623" lon="10.8842585"><ele>29.0</ele><time>2026-04-07T14:12:12.043Z</time></trkpt><trkpt lat="43.6913373" lon="10.8844951"><ele>29.0</ele><time>2026-04-07T14:12:13.043Z</time></trkpt><trkpt lat="43.6912958" lon="10.8847345"><ele>29.0</ele><time>2026-04-07T14:12:14.043Z</time></trkpt><trkpt lat="43.6912273" lon="10.8849711"><ele>29.0</ele><time>2026-04-07T14:12:15.044Z</time></trkpt><trkpt lat="43.6911302" lon="10.885193"><ele>29.0</ele><time>2026-04-07T14:12:16.044Z</time></trkpt><trkpt lat="43.6910208" lon="10.8854094"><ele>29.666666666666664</ele><time>2026-04-07T14:12:17.044Z</time></trkpt><trkpt lat="43.6909131" lon="10.8856266"><ele>30.333333333333336</ele><time>2026-04-07T14:12:18.043Z</time></trkpt><trkpt lat="43.6908226" lon="10.8858288"><ele>31.0</ele><time>2026-04-07T14:12:19.043Z</time></trkpt><trkpt lat="43.6907551" lon="10.8860381"><ele>31.0</ele><time>2026-04-07T14:12:20.044Z</time></trkpt><trkpt lat="43.6907029" lon="10.8862891"><ele>31.0</ele><time>2026-04-07T14:12:21.043Z</time></trkpt><trkpt lat="43.6906521" lon="10.8865492"><ele>31.0</ele><time>2026-04-07T14:12:22.044Z</time></trkpt><trkpt lat="43.6906097" lon="10.886819"><ele>31.0</ele><time>2026-04-07T14:12:23.044Z</time></trkpt><trkpt lat="43.6905733" lon="10.8870801"><ele>31.0</ele><time>2026-04-07T14:12:24.044Z</time></trkpt><trkpt lat="43.6905574" lon="10.8873268"><ele>31.0</ele><time>2026-04-07T14:12:25.043Z</time></trkpt><trkpt lat="43.6905506" lon="10.887549"><ele>30.75</ele><time>2026-04-07T14:12:26.043Z</time></trkpt><trkpt lat="43.6905585" lon="10.8877482"><ele>30.5</ele><time>2026-04-07T14:12:27.044Z</time></trkpt><trkpt lat="43.6905867" lon="10.8879502"><ele>30.25</ele><time>2026-04-07T14:12:28.043Z</time></trkpt><trkpt lat="43.6906287" lon="10.8881366"><ele>30.0</ele><time>2026-04-07T14:12:29.043Z</time></trkpt><trkpt lat="43.6906756" lon="10.8882974"><ele>30.25</ele><time>2026-04-07T14:12:30.044Z</time></trkpt><trkpt lat="43.6907225" lon="10.8884566"><ele>30.5</ele><time>2026-04-07T14:12:31.044Z</time></trkpt><trkpt lat="43.6907722" lon="10.8886243"><ele>30.75</ele><time>2026-04-07T14:12:32.044Z</time></trkpt><trkpt lat="43.6908117" lon="10.8887894"><ele>31.0</ele><time>2026-04-07T14:12:33.044Z</time></trkpt><trkpt lat="43.6908578" lon="10.8889465"><ele>31.0</ele><time>2026-04-07T14:12:34.044Z</time></trkpt><trkpt lat="43.6909039" lon="10.8891114"><ele>31.0</ele><time>2026-04-07T14:12:35.044Z</time></trkpt><trkpt lat="43.6909464" lon="10.8892658"><ele>31.0</ele><time>2026-04-07T14:12:36.043Z</time></trkpt><trkpt lat="43.6909882" lon="10.889432"><ele>31.0</ele><time>2026-04-07T14:12:37.043Z</time></trkpt><trkpt lat="43.6910309" lon="10.8895984"><ele>31.25</ele><time>2026-04-07T14:12:38.044Z</time></trkpt><trkpt lat="43.6910806" lon="10.8897714"><ele>31.5</ele><time>2026-04-07T14:12:39.044Z</time></trkpt><trkpt lat="43.69113" lon="10.889952"><ele>31.75</ele><time>2026-04-07T14:12:40.044Z</time></trkpt><trkpt lat="43.691177" lon="10.8901315"><ele>32.0</ele><time>2026-04-07T14:12:41.043Z</time></trkpt><trkpt lat="43.6912206" lon="10.8902984"><ele>31.666666666666664</ele><time>2026-04-07T14:12:42.043Z</time></trkpt><trkpt lat="43.6912575" lon="10.8904373"><ele>31.333333333333332</ele><time>2026-04-07T14:12:43.044Z</time></trkpt><trkpt lat="43.6912893" lon="10.8905529"><ele>31.0</ele><time>2026-04-07T14:12:44.043Z</time></trkpt><trkpt lat="43.6913218" lon="10.8906356"><ele>30.666666666666664</ele><time>2026-04-07T14:12:45.044Z</time></trkpt><trkpt lat="43.6913692" lon="10.8907661"><ele>30.333333333333332</ele><time>2026-04-07T14:12:47.044Z</time></trkpt><trkpt lat="43.6914263" lon="10.8908346"><ele>30.0</ele><time>2026-04-07T14:12:50.044Z</time></trkpt><trkpt lat="43.6914393" lon="10.8907416"><ele>30.0</ele><time>2026-04-07T14:12:54.043Z</time></trkpt><trkpt lat="43.6913798" lon="10.890682"><ele>30.0</ele><time>2026-04-07T14:13:00.044Z</time></trkpt><trkpt lat="43.6913377" lon="10.8906019"><ele>30.0</ele><time>2026-04-07T14:13:01.044Z</time></trkpt><trkpt lat="43.691312" lon="10.890505"><ele>30.0</ele><time>2026-04-07T14:13:02.044Z</time></trkpt><trkpt lat="43.6912846" lon="10.890404"><ele>30.0</ele><time>2026-04-07T14:13:03.044Z</time></trkpt><trkpt lat="43.6912521" lon="10.8902822"><ele>30.0</ele><time>2026-04-07T14:13:04.044Z</time></trkpt><trkpt lat="43.6912156" lon="10.8901314"><ele>30.5</ele><time>2026-04-07T14:13:05.044Z</time></trkpt><trkpt lat="43.6911673" lon="10.8899592"><ele>31.0</ele><time>2026-04-07T14:13:06.044Z</time></trkpt><trkpt lat="43.6911141" lon="10.8897853"><ele>31.5</ele><time>2026-04-07T14:13:07.043Z</time></trkpt><trkpt lat="43.691068" lon="10.8896147"><ele>32.0</ele><time>2026-04-07T14:13:08.044Z</time></trkpt><trkpt lat="43.6910152" lon="10.8894275"><ele>31.75</ele><time>2026-04-07T14:13:09.044Z</time></trkpt><trkpt lat="43.6909683" lon="10.889232"><ele>31.5</ele><time>2026-04-07T14:13:10.043Z</time></trkpt><trkpt lat="43.6909169" lon="10.8890467"><ele>31.25</ele><time>2026-04-07T14:13:11.044Z</time></trkpt><trkpt lat="43.6908734" lon="10.8888802"><ele>31.0</ele><time>2026-04-07T14:13:12.043Z</time></trkpt><trkpt lat="43.6908298" lon="10.8887212"><ele>31.0</ele><time>2026-04-07T14:13:13.043Z</time></trkpt><trkpt lat="43.6907858" lon="10.8885713"><ele>31.0</ele><time>2026-04-07T14:13:14.044Z</time></trkpt><trkpt lat="43.6907427" lon="10.8884394"><ele>31.0</ele><time>2026-04-07T14:13:15.044Z</time></trkpt><trkpt lat="43.6907103" lon="10.8883305"><ele>31.0</ele><time>2026-04-07T14:13:16.044Z</time></trkpt><trkpt lat="43.6906776" lon="10.8882517"><ele>31.0</ele><time>2026-04-07T14:13:17.044Z</time></trkpt><trkpt lat="43.6906081" lon="10.8881886"><ele>31.0</ele><time>2026-04-07T14:13:19.044Z</time></trkpt><trkpt lat="43.6905523" lon="10.8882838"><ele>31.0</ele><time>2026-04-07T14:13:22.044Z</time></trkpt><trkpt lat="43.6905675" lon="10.8884249"><ele>31.0</ele><time>2026-04-07T14:13:24.044Z</time></trkpt><trkpt lat="43.6905945" lon="10.888575"><ele>31.0</ele><time>2026-04-07T14:13:26.043Z</time></trkpt><trkpt lat="43.6906105" lon="10.8887308"><ele>31.0</ele><time>2026-04-07T14:13:28.044Z</time></trkpt><trkpt lat="43.6905883" lon="10.8888168"><ele>31.0</ele><time>2026-04-07T14:13:29.043Z</time></trkpt><trkpt lat="43.6905547" lon="10.8888942"><ele>31.000000000000004</ele><time>2026-04-07T14:13:30.043Z</time></trkpt><trkpt lat="43.6904965" lon="10.8889646"><ele>31.0</ele><time>2026-04-07T14:13:31.044Z</time></trkpt><trkpt lat="43.6904323" lon="10.8890075"><ele>31.0</ele><time>2026-04-07T14:13:32.044Z</time></trkpt><trkpt lat="43.6903677" lon="10.8890317"><ele>31.000000000000004</ele><time>2026-04-07T14:13:33.043Z</time></trkpt><trkpt lat="43.6902941" lon="10.8890514"><ele>31.0</ele><time>2026-04-07T14:13:34.043Z</time></trkpt><trkpt lat="43.6902058" lon="10.8890716"><ele>31.0</ele><time>2026-04-07T14:13:35.043Z</time></trkpt><trkpt lat="43.6901042" lon="10.8891014"><ele>31.25</ele><time>2026-04-07T14:13:36.044Z</time></trkpt><trkpt lat="43.68999" lon="10.8891518"><ele>31.5</ele><time>2026-04-07T14:13:37.044Z</time></trkpt><trkpt lat="43.6898746" lon="10.8892148"><ele>31.75</ele><time>2026-04-07T14:13:38.044Z</time></trkpt><trkpt lat="43.6897626" lon="10.8893148"><ele>32.0</ele><time>2026-04-07T14:13:39.044Z</time></trkpt><trkpt lat="43.68966" lon="10.8894274"><ele>32.33333333333333</ele><time>2026-04-07T14:13:40.044Z</time></trkpt><trkpt lat="43.6895518" lon="10.8895686"><ele>32.666666666666664</ele><time>2026-04-07T14:13:41.044Z</time></trkpt><trkpt lat="43.6894332" lon="10.8897277"><ele>33.0</ele><time>2026-04-07T14:13:42.043Z</time></trkpt><trkpt lat="43.6893101" lon="10.8899053"><ele>33.0</ele><time>2026-04-07T14:13:43.043Z</time></trkpt><trkpt lat="43.6891801" lon="10.8900819"><ele>33.0</ele><time>2026-04-07T14:13:44.043Z</time></trkpt><trkpt lat="43.6890337" lon="10.890236"><ele>33.0</ele><time>2026-04-07T14:13:45.043Z</time></trkpt><trkpt lat="43.6888669" lon="10.8903631"><ele>35.666666666666664</ele><time>2026-04-07T14:13:46.043Z</time></trkpt><trkpt lat="43.6886953" lon="10.8904701"><ele>38.33333333333333</ele><time>2026-04-07T14:13:47.043Z</time></trkpt><trkpt lat="43.6885322" lon="10.890577"><ele>41.0</ele><time>2026-04-07T14:13:48.044Z</time></trkpt><trkpt lat="43.688367" lon="10.8906856"><ele>41.0</ele><time>2026-04-07T14:13:49.044Z</time></trkpt><trkpt lat="43.688218" lon="10.890793"><ele>41.0</ele><time>2026-04-07T14:13:50.044Z</time></trkpt><trkpt lat="43.688089" lon="10.890913"><ele>41.0</ele><time>2026-04-07T14:13:51.044Z</time></trkpt><trkpt lat="43.6879688" lon="10.8910508"><ele>43.33333333333333</ele><time>2026-04-07T14:13:52.043Z</time></trkpt><trkpt lat="43.6878705" lon="10.8912375"><ele>45.666666666666664</ele><time>2026-04-07T14:13:53.043Z</time></trkpt><trkpt lat="43.6877886" lon="10.8914458"><ele>48.0</ele><time>2026-04-07T14:13:54.044Z</time></trkpt><trkpt lat="43.6877127" lon="10.8916756"><ele>50.66666666666667</ele><time>2026-04-07T14:13:55.044Z</time></trkpt><trkpt lat="43.68763" lon="10.8918973"><ele>53.333333333333336</ele><time>2026-04-07T14:13:56.043Z</time></trkpt><trkpt lat="43.6875488" lon="10.8921009"><ele>56.0</ele><time>2026-04-07T14:13:57.044Z</time></trkpt><trkpt lat="43.68745" lon="10.8922926"><ele>56.0</ele><time>2026-04-07T14:13:58.043Z</time></trkpt><trkpt lat="43.6873261" lon="10.8924576"><ele>56.0</ele><time>2026-04-07T14:13:59.043Z</time></trkpt><trkpt lat="43.6871788" lon="10.8926121"><ele>56.0</ele><time>2026-04-07T14:14:00.044Z</time></trkpt><trkpt lat="43.6870154" lon="10.8927533"><ele>58.333333333333336</ele><time>2026-04-07T14:14:01.044Z</time></trkpt><trkpt lat="43.6868457" lon="10.8929002"><ele>60.66666666666667</ele><time>2026-04-07T14:14:02.044Z</time></trkpt><trkpt lat="43.6866746" lon="10.8930553"><ele>63.0</ele><time>2026-04-07T14:14:03.044Z</time></trkpt><trkpt lat="43.6865142" lon="10.893194"><ele>63.0</ele><time>2026-04-07T14:14:04.044Z</time></trkpt><trkpt lat="43.686369" lon="10.8933163"><ele>63.0</ele><time>2026-04-07T14:14:05.043Z</time></trkpt><trkpt lat="43.6862332" lon="10.8934255"><ele>63.0</ele><time>2026-04-07T14:14:06.043Z</time></trkpt><trkpt lat="43.6860943" lon="10.8935384"><ele>63.33333333333333</ele><time>2026-04-07T14:14:07.044Z</time></trkpt><trkpt lat="43.6859489" lon="10.8936602"><ele>63.666666666666664</ele><time>2026-04-07T14:14:08.044Z</time></trkpt><trkpt lat="43.6857937" lon="10.8937911"><ele>64.0</ele><time>2026-04-07T14:14:09.044Z</time></trkpt><trkpt lat="43.6856226" lon="10.8939182"><ele>64.0</ele><time>2026-04-07T14:14:10.044Z</time></trkpt><trkpt lat="43.6854356" lon="10.8940128"><ele>64.0</ele><time>2026-04-07T14:14:11.044Z</time></trkpt><trkpt lat="43.6852274" lon="10.8940844"><ele>64.0</ele><time>2026-04-07T14:14:12.043Z</time></trkpt><trkpt lat="43.68501" lon="10.8941522"><ele>64.0</ele><time>2026-04-07T14:14:13.044Z</time></trkpt><trkpt lat="43.6847832" lon="10.894214"><ele>64.0</ele><time>2026-04-07T14:14:14.044Z</time></trkpt><trkpt lat="43.6845646" lon="10.8942683"><ele>68.33333333333333</ele><time>2026-04-07T14:14:15.043Z</time></trkpt><trkpt lat="43.6843552" lon="10.8943224"><ele>72.66666666666667</ele><time>2026-04-07T14:14:16.043Z</time></trkpt><trkpt lat="43.6841662" lon="10.8943683"><ele>77.0</ele><time>2026-04-07T14:14:17.043Z</time></trkpt><trkpt lat="43.6839496" lon="10.8944268"><ele>77.0</ele><time>2026-04-07T14:14:18.044Z</time></trkpt><trkpt lat="43.6837311" lon="10.8944715"><ele>77.0</ele><time>2026-04-07T14:14:19.044Z</time></trkpt><trkpt lat="43.6835183" lon="10.8944856"><ele>77.0</ele><time>2026-04-07T14:14:20.044Z</time></trkpt><trkpt lat="43.6833346" lon="10.8944741"><ele>78.4</ele><time>2026-04-07T14:14:21.044Z</time></trkpt><trkpt lat="43.6831974" lon="10.8944462"><ele>79.80000000000001</ele><time>2026-04-07T14:14:22.044Z</time></trkpt><trkpt lat="43.6830722" lon="10.8943952"><ele>81.2</ele><time>2026-04-07T14:14:23.043Z</time></trkpt><trkpt lat="43.6829888" lon="10.8943603"><ele>82.60000000000001</ele><time>2026-04-07T14:14:24.044Z</time></trkpt><trkpt lat="43.6829167" lon="10.8943434"><ele>84.0</ele><time>2026-04-07T14:14:25.043Z</time></trkpt><trkpt lat="43.6828411" lon="10.894323"><ele>84.0</ele><time>2026-04-07T14:14:27.044Z</time></trkpt><trkpt lat="43.6827705" lon="10.8942921"><ele>84.0</ele><time>2026-04-07T14:14:40.044Z</time></trkpt><trkpt lat="43.6827034" lon="10.8942478"><ele>84.0</ele><time>2026-04-07T14:14:44.043Z</time></trkpt><trkpt lat="43.6825911" lon="10.8941948"><ele>84.0</ele><time>2026-04-07T14:15:00.044Z</time></trkpt><trkpt lat="43.6825074" lon="10.8941587"><ele>84.0</ele><time>2026-04-07T14:15:01.043Z</time></trkpt><trkpt lat="43.6824171" lon="10.8941219"><ele>84.0</ele><time>2026-04-07T14:15:02.044Z</time></trkpt><trkpt lat="43.6823008" lon="10.8940701"><ele>84.75</ele><time>2026-04-07T14:15:03.044Z</time></trkpt><trkpt lat="43.6821713" lon="10.8940236"><ele>85.5</ele><time>2026-04-07T14:15:04.044Z</time></trkpt><trkpt lat="43.6820215" lon="10.8939557"><ele>86.25</ele><time>2026-04-07T14:15:05.044Z</time></trkpt><trkpt lat="43.6818824" lon="10.8938845"><ele>87.0</ele><time>2026-04-07T14:15:06.044Z</time></trkpt><trkpt lat="43.6817408" lon="10.8938229"><ele>90.0</ele><time>2026-04-07T14:15:07.044Z</time></trkpt><trkpt lat="43.6816002" lon="10.8937755"><ele>93.0</ele><time>2026-04-07T14:15:08.043Z</time></trkpt><trkpt lat="43.6814499" lon="10.8937317"><ele>96.0</ele><time>2026-04-07T14:15:09.043Z</time></trkpt><trkpt lat="43.6812953" lon="10.8936894"><ele>96.0</ele><time>2026-04-07T14:15:10.043Z</time></trkpt><trkpt lat="43.6811396" lon="10.8936501"><ele>96.0</ele><time>2026-04-07T14:15:11.044Z</time></trkpt><trkpt lat="43.6809807" lon="10.8936226"><ele>96.0</ele><time>2026-04-07T14:15:12.043Z</time></trkpt><trkpt lat="43.6808206" lon="10.8935979"><ele>98.66666666666666</ele><time>2026-04-07T14:15:13.044Z</time></trkpt><trkpt lat="43.6806543" lon="10.8935842"><ele>101.33333333333333</ele><time>2026-04-07T14:15:14.043Z</time></trkpt><trkpt lat="43.6804934" lon="10.8935626"><ele>104.0</ele><time>2026-04-07T14:15:15.044Z</time></trkpt><trkpt lat="43.6803454" lon="10.8935513"><ele>105.5</ele><time>2026-04-07T14:15:16.044Z</time></trkpt><trkpt lat="43.6801986" lon="10.8935431"><ele>107.0</ele><time>2026-04-07T14:15:17.044Z</time></trkpt><trkpt lat="43.6800473" lon="10.8935417"><ele>108.5</ele><time>2026-04-07T14:15:18.043Z</time></trkpt><trkpt lat="43.6799114" lon="10.8935495"><ele>110.0</ele><time>2026-04-07T14:15:19.044Z</time></trkpt><trkpt lat="43.67979" lon="10.8935767"><ele>110.0</ele><time>2026-04-07T14:15:20.044Z</time></trkpt><trkpt lat="43.6796744" lon="10.89362"><ele>110.0</ele><time>2026-04-07T14:15:21.044Z</time></trkpt><trkpt lat="43.6795754" lon="10.8936704"><ele>110.0</ele><time>2026-04-07T14:15:22.044Z</time></trkpt><trkpt lat="43.679454" lon="10.8936951"><ele>110.0</ele><time>2026-04-07T14:15:23.044Z</time></trkpt><trkpt lat="43.679321" lon="10.8937067"><ele>108.66666666666666</ele><time>2026-04-07T14:15:24.044Z</time></trkpt><trkpt lat="43.6791781" lon="10.8936889"><ele>107.33333333333334</ele><time>2026-04-07T14:15:25.044Z</time></trkpt><trkpt lat="43.6790312" lon="10.8936258"><ele>106.0</ele><time>2026-04-07T14:15:26.043Z</time></trkpt><trkpt lat="43.6788806" lon="10.8935353"><ele>106.0</ele><time>2026-04-07T14:15:27.044Z</time></trkpt><trkpt lat="43.6787153" lon="10.8934299"><ele>106.0</ele><time>2026-04-07T14:15:28.044Z</time></trkpt><trkpt lat="43.6785402" lon="10.8933184"><ele>106.0</ele><time>2026-04-07T14:15:29.044Z</time></trkpt><trkpt lat="43.6783559" lon="10.8931985"><ele>108.0</ele><time>2026-04-07T14:15:30.044Z</time></trkpt><trkpt lat="43.6781725" lon="10.8930799"><ele>110.0</ele><time>2026-04-07T14:15:31.044Z</time></trkpt><trkpt lat="43.6779963" lon="10.8929673"><ele>112.0</ele><time>2026-04-07T14:15:32.044Z</time></trkpt><trkpt lat="43.6778204" lon="10.8928567"><ele>109.66666666666667</ele><time>2026-04-07T14:15:33.044Z</time></trkpt><trkpt lat="43.6776428" lon="10.8927556"><ele>107.33333333333334</ele><time>2026-04-07T14:15:34.044Z</time></trkpt><trkpt lat="43.6774614" lon="10.8926658"><ele>105.0</ele><time>2026-04-07T14:15:35.044Z</time></trkpt><trkpt lat="43.6772883" lon="10.8925884"><ele>107.33333333333334</ele><time>2026-04-07T14:15:36.044Z</time></trkpt><trkpt lat="43.6771305" lon="10.8925175"><ele>109.66666666666667</ele><time>2026-04-07T14:15:37.044Z</time></trkpt><trkpt lat="43.6769853" lon="10.8924574"><ele>112.0</ele><time>2026-04-07T14:15:38.044Z</time></trkpt><trkpt lat="43.6768427" lon="10.8924042"><ele>112.0</ele><time>2026-04-07T14:15:39.043Z</time></trkpt><trkpt lat="43.6766893" lon="10.8923399"><ele>112.0</ele><time>2026-04-07T14:15:40.043Z</time></trkpt><trkpt lat="43.6765243" lon="10.8922795"><ele>112.0</ele><time>2026-04-07T14:15:41.044Z</time></trkpt><trkpt lat="43.67635" lon="10.8922297"><ele>112.0</ele><time>2026-04-07T14:15:42.044Z</time></trkpt><trkpt lat="43.6761635" lon="10.8921881"><ele>112.0</ele><time>2026-04-07T14:15:43.044Z</time></trkpt><trkpt lat="43.675978" lon="10.8921453"><ele>112.0</ele><time>2026-04-07T14:15:44.044Z</time></trkpt><trkpt lat="43.6757939" lon="10.8920919"><ele>111.0</ele><time>2026-04-07T14:15:45.043Z</time></trkpt><trkpt lat="43.6756118" lon="10.8920124"><ele>110.0</ele><time>2026-04-07T14:15:46.043Z</time></trkpt><trkpt lat="43.675438" lon="10.8919138"><ele>109.0</ele><time>2026-04-07T14:15:47.043Z</time></trkpt><trkpt lat="43.6752607" lon="10.8918164"><ele>112.66666666666667</ele><time>2026-04-07T14:15:48.044Z</time></trkpt><trkpt lat="43.6750826" lon="10.8917356"><ele>116.33333333333334</ele><time>2026-04-07T14:15:49.044Z</time></trkpt><trkpt lat="43.6749074" lon="10.8916768"><ele>120.0</ele><time>2026-04-07T14:15:50.044Z</time></trkpt><trkpt lat="43.6747303" lon="10.8916399"><ele>120.0</ele><time>2026-04-07T14:15:51.044Z</time></trkpt><trkpt lat="43.6745632" lon="10.8915992"><ele>120.0</ele><time>2026-04-07T14:15:52.044Z</time></trkpt><trkpt lat="43.6744101" lon="10.8915459"><ele>120.0</ele><time>2026-04-07T14:15:53.044Z</time></trkpt><trkpt lat="43.674274" lon="10.8914784"><ele>120.33333333333334</ele><time>2026-04-07T14:15:54.043Z</time></trkpt><trkpt lat="43.6741426" lon="10.8913932"><ele>120.66666666666667</ele><time>2026-04-07T14:15:55.043Z</time></trkpt><trkpt lat="43.6740153" lon="10.8912878"><ele>121.0</ele><time>2026-04-07T14:15:56.043Z</time></trkpt><trkpt lat="43.6738854" lon="10.8911597"><ele>121.0</ele><time>2026-04-07T14:15:57.043Z</time></trkpt><trkpt lat="43.6737495" lon="10.8910262"><ele>121.0</ele><time>2026-04-07T14:15:58.044Z</time></trkpt><trkpt lat="43.6736058" lon="10.8908884"><ele>121.0</ele><time>2026-04-07T14:15:59.044Z</time></trkpt><trkpt lat="43.6734506" lon="10.8907646"><ele>124.0</ele><time>2026-04-07T14:16:00.044Z</time></trkpt><trkpt lat="43.673289" lon="10.8906656"><ele>127.0</ele><time>2026-04-07T14:16:01.044Z</time></trkpt><trkpt lat="43.6731422" lon="10.8905849"><ele>130.0</ele><time>2026-04-07T14:16:02.044Z</time></trkpt><trkpt lat="43.6730263" lon="10.8904804"><ele>130.0</ele><time>2026-04-07T14:16:03.043Z</time></trkpt><trkpt lat="43.6729268" lon="10.8903406"><ele>130.0</ele><time>2026-04-07T14:16:04.044Z</time></trkpt><trkpt lat="43.67283" lon="10.8901778"><ele>130.0</ele><time>2026-04-07T14:16:05.044Z</time></trkpt><trkpt lat="43.6727382" lon="10.8900014"><ele>133.5</ele><time>2026-04-07T14:16:06.043Z</time></trkpt><trkpt lat="43.6726444" lon="10.8898292"><ele>137.0</ele><time>2026-04-07T14:16:07.044Z</time></trkpt><trkpt lat="43.6725624" lon="10.8897075"><ele>140.5</ele><time>2026-04-07T14:16:08.044Z</time></trkpt><trkpt lat="43.6724727" lon="10.8896265"><ele>144.0</ele><time>2026-04-07T14:16:09.044Z</time></trkpt><trkpt lat="43.6723839" lon="10.8895893"><ele>144.0</ele><time>2026-04-07T14:16:10.044Z</time></trkpt><trkpt lat="43.6722898" lon="10.8896008"><ele>144.0</ele><time>2026-04-07T14:16:11.043Z</time></trkpt><trkpt lat="43.6721923" lon="10.8896633"><ele>144.0</ele><time>2026-04-07T14:16:12.044Z</time></trkpt><trkpt lat="43.6721068" lon="10.8897706"><ele>144.0</ele><time>2026-04-07T14:16:13.044Z</time></trkpt><trkpt lat="43.672024" lon="10.8899292"><ele>141.33333333333334</ele><time>2026-04-07T14:16:14.043Z</time></trkpt><trkpt lat="43.6719536" lon="10.8901383"><ele>138.66666666666669</ele><time>2026-04-07T14:16:15.044Z</time></trkpt><trkpt lat="43.6718993" lon="10.8903848"><ele>136.0</ele><time>2026-04-07T14:16:16.044Z</time></trkpt><trkpt lat="43.6718625" lon="10.8906418"><ele>136.0</ele><time>2026-04-07T14:16:17.044Z</time></trkpt><trkpt lat="43.6718479" lon="10.8908965"><ele>136.0</ele><time>2026-04-07T14:16:18.044Z</time></trkpt><trkpt lat="43.6718305" lon="10.8911533"><ele>136.0</ele><time>2026-04-07T14:16:19.044Z</time></trkpt><trkpt lat="43.6718116" lon="10.8913982"><ele>135.66666666666669</ele><time>2026-04-07T14:16:20.044Z</time></trkpt><trkpt lat="43.671791" lon="10.8916238"><ele>135.33333333333334</ele><time>2026-04-07T14:16:21.044Z</time></trkpt><trkpt lat="43.6717597" lon="10.8918242"><ele>135.0</ele><time>2026-04-07T14:16:22.043Z</time></trkpt><trkpt lat="43.6717123" lon="10.8920147"><ele>135.0</ele><time>2026-04-07T14:16:23.044Z</time></trkpt><trkpt lat="43.671642" lon="10.8921947"><ele>135.0</ele><time>2026-04-07T14:16:24.044Z</time></trkpt><trkpt lat="43.6715549" lon="10.8923544"><ele>135.0</ele><time>2026-04-07T14:16:25.044Z</time></trkpt><trkpt lat="43.6714667" lon="10.8925012"><ele>135.0</ele><time>2026-04-07T14:16:26.044Z</time></trkpt><trkpt lat="43.6713653" lon="10.8926527"><ele>135.66666666666666</ele><time>2026-04-07T14:16:27.044Z</time></trkpt><trkpt lat="43.671247" lon="10.8928266"><ele>136.33333333333331</ele><time>2026-04-07T14:16:28.044Z</time></trkpt><trkpt lat="43.6711225" lon="10.8930213"><ele>137.0</ele><time>2026-04-07T14:16:29.044Z</time></trkpt><trkpt lat="43.6709935" lon="10.8932334"><ele>136.66666666666666</ele><time>2026-04-07T14:16:30.043Z</time></trkpt><trkpt lat="43.6708608" lon="10.8934669"><ele>136.33333333333334</ele><time>2026-04-07T14:16:31.043Z</time></trkpt><trkpt lat="43.6707299" lon="10.8937161"><ele>136.0</ele><time>2026-04-07T14:16:32.044Z</time></trkpt><trkpt lat="43.6706045" lon="10.8939669"><ele>136.0</ele><time>2026-04-07T14:16:33.044Z</time></trkpt><trkpt lat="43.6704862" lon="10.8941854"><ele>136.0</ele><time>2026-04-07T14:16:34.044Z</time></trkpt><trkpt lat="43.6703735" lon="10.8944052"><ele>136.0</ele><time>2026-04-07T14:16:35.044Z</time></trkpt><trkpt lat="43.6702666" lon="10.894625"><ele>140.66666666666669</ele><time>2026-04-07T14:16:36.044Z</time></trkpt><trkpt lat="43.670161" lon="10.8948383"><ele>145.33333333333334</ele><time>2026-04-07T14:16:37.044Z</time></trkpt><trkpt lat="43.670057" lon="10.8950472"><ele>150.0</ele><time>2026-04-07T14:16:38.044Z</time></trkpt><trkpt lat="43.6699537" lon="10.8952362"><ele>151.0</ele><time>2026-04-07T14:16:39.043Z</time></trkpt><trkpt lat="43.6698494" lon="10.8954006"><ele>152.0</ele><time>2026-04-07T14:16:40.044Z</time></trkpt><trkpt lat="43.6697442" lon="10.895554"><ele>153.0</ele><time>2026-04-07T14:16:41.044Z</time></trkpt><trkpt lat="43.669639" lon="10.895707"><ele>153.0</ele><time>2026-04-07T14:16:42.044Z</time></trkpt><trkpt lat="43.6695253" lon="10.8958475"><ele>153.0</ele><time>2026-04-07T14:16:43.044Z</time></trkpt><trkpt lat="43.6693963" lon="10.8959931"><ele>153.0</ele><time>2026-04-07T14:16:44.044Z</time></trkpt><trkpt lat="43.6692496" lon="10.8961477"><ele>151.0</ele><time>2026-04-07T14:16:45.044Z</time></trkpt><trkpt lat="43.66907" lon="10.8962987"><ele>149.0</ele><time>2026-04-07T14:16:46.043Z</time></trkpt><trkpt lat="43.668874" lon="10.8964684"><ele>147.0</ele><time>2026-04-07T14:16:47.044Z</time></trkpt><trkpt lat="43.6686734" lon="10.8966512"><ele>140.66666666666666</ele><time>2026-04-07T14:16:48.044Z</time></trkpt><trkpt lat="43.6684749" lon="10.8968147"><ele>134.33333333333331</ele><time>2026-04-07T14:16:49.044Z</time></trkpt><trkpt lat="43.6682881" lon="10.8969418"><ele>128.0</ele><time>2026-04-07T14:16:50.043Z</time></trkpt><trkpt lat="43.6681133" lon="10.8970614"><ele>128.0</ele><time>2026-04-07T14:16:51.043Z</time></trkpt><trkpt lat="43.6679392" lon="10.8971545"><ele>128.0</ele><time>2026-04-07T14:16:52.044Z</time></trkpt><trkpt lat="43.6677757" lon="10.8972257"><ele>128.0</ele><time>2026-04-07T14:16:53.044Z</time></trkpt><trkpt lat="43.6676052" lon="10.8972663"><ele>128.66666666666666</ele><time>2026-04-07T14:16:54.044Z</time></trkpt><trkpt lat="43.6674229" lon="10.8972882"><ele>129.33333333333334</ele><time>2026-04-07T14:16:55.044Z</time></trkpt><trkpt lat="43.6672209" lon="10.8973016"><ele>130.0</ele><time>2026-04-07T14:16:56.043Z</time></trkpt><trkpt lat="43.6670109" lon="10.897321"><ele>129.33333333333334</ele><time>2026-04-07T14:16:57.044Z</time></trkpt><trkpt lat="43.6667973" lon="10.8973424"><ele>128.66666666666666</ele><time>2026-04-07T14:16:58.044Z</time></trkpt><trkpt lat="43.6665737" lon="10.8973877"><ele>128.0</ele><time>2026-04-07T14:16:59.043Z</time></trkpt><trkpt lat="43.6663536" lon="10.8974431"><ele>128.0</ele><time>2026-04-07T14:17:00.043Z</time></trkpt><trkpt lat="43.6661527" lon="10.8975054"><ele>128.0</ele><time>2026-04-07T14:17:01.044Z</time></trkpt><trkpt lat="43.6659713" lon="10.8975757"><ele>128.0</ele><time>2026-04-07T14:17:02.044Z</time></trkpt><trkpt lat="43.6658016" lon="10.8976542"><ele>129.0</ele><time>2026-04-07T14:17:03.044Z</time></trkpt><trkpt lat="43.6656304" lon="10.8977454"><ele>130.0</ele><time>2026-04-07T14:17:04.043Z</time></trkpt><trkpt lat="43.6654544" lon="10.897838"><ele>131.0</ele><time>2026-04-07T14:17:05.044Z</time></trkpt><trkpt lat="43.6652774" lon="10.8979355"><ele>132.66666666666666</ele><time>2026-04-07T14:17:06.043Z</time></trkpt><trkpt lat="43.6650946" lon="10.8980413"><ele>134.33333333333334</ele><time>2026-04-07T14:17:07.044Z</time></trkpt><trkpt lat="43.6648962" lon="10.8981452"><ele>136.0</ele><time>2026-04-07T14:17:08.044Z</time></trkpt><trkpt lat="43.6646978" lon="10.898246"><ele>136.0</ele><time>2026-04-07T14:17:09.043Z</time></trkpt><trkpt lat="43.6645081" lon="10.8983462"><ele>136.0</ele><time>2026-04-07T14:17:10.044Z</time></trkpt><trkpt lat="43.66434" lon="10.8984321"><ele>136.0</ele><time>2026-04-07T14:17:11.043Z</time></trkpt><trkpt lat="43.6641846" lon="10.8985106"><ele>138.25</ele><time>2026-04-07T14:17:12.044Z</time></trkpt><trkpt lat="43.6640487" lon="10.8985815"><ele>140.5</ele><time>2026-04-07T14:17:13.044Z</time></trkpt><trkpt lat="43.6639224" lon="10.898637"><ele>142.75</ele><time>2026-04-07T14:17:14.043Z</time></trkpt><trkpt lat="43.6637889" lon="10.8986852"><ele>145.0</ele><time>2026-04-07T14:17:15.044Z</time></trkpt><trkpt lat="43.6636565" lon="10.8987347"><ele>145.75</ele><time>2026-04-07T14:17:16.043Z</time></trkpt><trkpt lat="43.6635379" lon="10.8987764"><ele>146.5</ele><time>2026-04-07T14:17:17.044Z</time></trkpt><trkpt lat="43.6634135" lon="10.8988108"><ele>147.25</ele><time>2026-04-07T14:17:18.043Z</time></trkpt><trkpt lat="43.6632747" lon="10.8988378"><ele>148.0</ele><time>2026-04-07T14:17:19.044Z</time></trkpt><trkpt lat="43.6631118" lon="10.8988508"><ele>148.0</ele><time>2026-04-07T14:17:20.044Z</time></trkpt><trkpt lat="43.6629358" lon="10.8988547"><ele>148.0</ele><time>2026-04-07T14:17:21.044Z</time></trkpt><trkpt lat="43.662751" lon="10.8988499"><ele>148.0</ele><time>2026-04-07T14:17:22.044Z</time></trkpt><trkpt lat="43.6625593" lon="10.8988497"><ele>146.33333333333334</ele><time>2026-04-07T14:17:23.044Z</time></trkpt><trkpt lat="43.6623674" lon="10.8988483"><ele>144.66666666666666</ele><time>2026-04-07T14:17:24.043Z</time></trkpt><trkpt lat="43.6621817" lon="10.8988461"><ele>143.0</ele><time>2026-04-07T14:17:25.044Z</time></trkpt><trkpt lat="43.662001" lon="10.8988442"><ele>143.0</ele><time>2026-04-07T14:17:26.044Z</time></trkpt><trkpt lat="43.6618271" lon="10.8988352"><ele>143.0</ele><time>2026-04-07T14:17:27.044Z</time></trkpt><trkpt lat="43.6616411" lon="10.898853"><ele>143.0</ele><time>2026-04-07T14:17:28.044Z</time></trkpt><trkpt lat="43.6614545" lon="10.8988858"><ele>143.0</ele><time>2026-04-07T14:17:29.044Z</time></trkpt><trkpt lat="43.6612791" lon="10.8989289"><ele>143.0</ele><time>2026-04-07T14:17:30.044Z</time></trkpt><trkpt lat="43.6611182" lon="10.8989757"><ele>143.0</ele><time>2026-04-07T14:17:31.044Z</time></trkpt><trkpt lat="43.6609606" lon="10.8990276"><ele>143.0</ele><time>2026-04-07T14:17:32.043Z</time></trkpt><trkpt lat="43.6608089" lon="10.8990964"><ele>143.0</ele><time>2026-04-07T14:17:33.044Z</time></trkpt><trkpt lat="43.6606648" lon="10.8991591"><ele>143.0</ele><time>2026-04-07T14:17:34.044Z</time></trkpt><trkpt lat="43.6605258" lon="10.8992195"><ele>140.5</ele><time>2026-04-07T14:17:35.044Z</time></trkpt><trkpt lat="43.6603891" lon="10.8992785"><ele>138.0</ele><time>2026-04-07T14:17:36.043Z</time></trkpt><trkpt lat="43.6602701" lon="10.8993341"><ele>135.5</ele><time>2026-04-07T14:17:37.044Z</time></trkpt><trkpt lat="43.660167" lon="10.8993913"><ele>133.0</ele><time>2026-04-07T14:17:38.043Z</time></trkpt><trkpt lat="43.6600812" lon="10.8994549"><ele>133.0</ele><time>2026-04-07T14:17:39.044Z</time></trkpt><trkpt lat="43.6600062" lon="10.8995674"><ele>133.0</ele><time>2026-04-07T14:17:40.044Z</time></trkpt><trkpt lat="43.6599528" lon="10.8997027"><ele>133.0</ele><time>2026-04-07T14:17:41.044Z</time></trkpt><trkpt lat="43.6599274" lon="10.8998511"><ele>133.0</ele><time>2026-04-07T14:17:42.043Z</time></trkpt><trkpt lat="43.6599375" lon="10.9000067"><ele>133.0</ele><time>2026-04-07T14:17:43.044Z</time></trkpt><trkpt lat="43.6599836" lon="10.9001638"><ele>129.25</ele><time>2026-04-07T14:17:44.043Z</time></trkpt><trkpt lat="43.6600566" lon="10.9003294"><ele>125.5</ele><time>2026-04-07T14:17:45.044Z</time></trkpt><trkpt lat="43.6601232" lon="10.9005007"><ele>121.75</ele><time>2026-04-07T14:17:46.044Z</time></trkpt><trkpt lat="43.6601803" lon="10.9006911"><ele>118.0</ele><time>2026-04-07T14:17:47.044Z</time></trkpt><trkpt lat="43.6602295" lon="10.9009153"><ele>115.66666666666667</ele><time>2026-04-07T14:17:48.044Z</time></trkpt><trkpt lat="43.6602751" lon="10.9011484"><ele>113.33333333333334</ele><time>2026-04-07T14:17:49.044Z</time></trkpt><trkpt lat="43.6603174" lon="10.9013842"><ele>111.0</ele><time>2026-04-07T14:17:50.044Z</time></trkpt><trkpt lat="43.6603602" lon="10.9016257"><ele>108.0</ele><time>2026-04-07T14:17:51.043Z</time></trkpt><trkpt lat="43.6604059" lon="10.9018646"><ele>105.0</ele><time>2026-04-07T14:17:52.044Z</time></trkpt><trkpt lat="43.660449" lon="10.9020992"><ele>102.0</ele><time>2026-04-07T14:17:53.044Z</time></trkpt><trkpt lat="43.6604854" lon="10.9023166"><ele>102.0</ele><time>2026-04-07T14:17:54.044Z</time></trkpt><trkpt lat="43.6605158" lon="10.9025269"><ele>102.0</ele><time>2026-04-07T14:17:55.044Z</time></trkpt><trkpt lat="43.6605458" lon="10.9027392"><ele>102.0</ele><time>2026-04-07T14:17:56.044Z</time></trkpt><trkpt lat="43.6605636" lon="10.9029615"><ele>99.0</ele><time>2026-04-07T14:17:57.044Z</time></trkpt><trkpt lat="43.6605726" lon="10.9031775"><ele>96.0</ele><time>2026-04-07T14:17:58.043Z</time></trkpt><trkpt lat="43.6605588" lon="10.9033963"><ele>93.0</ele><time>2026-04-07T14:17:59.044Z</time></trkpt><trkpt lat="43.660543" lon="10.903621"><ele>92.0</ele><time>2026-04-07T14:18:00.044Z</time></trkpt><trkpt lat="43.6605333" lon="10.9038534"><ele>91.0</ele><time>2026-04-07T14:18:01.044Z</time></trkpt><trkpt lat="43.6605433" lon="10.9040829"><ele>90.0</ele><time>2026-04-07T14:18:02.044Z</time></trkpt><trkpt lat="43.6605827" lon="10.9043248"><ele>88.66666666666667</ele><time>2026-04-07T14:18:03.043Z</time></trkpt><trkpt lat="43.6606421" lon="10.9045781"><ele>87.33333333333334</ele><time>2026-04-07T14:18:04.043Z</time></trkpt><trkpt lat="43.6607146" lon="10.9048561"><ele>86.0</ele><time>2026-04-07T14:18:05.044Z</time></trkpt><trkpt lat="43.6607866" lon="10.9051476"><ele>84.66666666666667</ele><time>2026-04-07T14:18:06.044Z</time></trkpt><trkpt lat="43.6608591" lon="10.9054314"><ele>83.33333333333333</ele><time>2026-04-07T14:18:07.044Z</time></trkpt><trkpt lat="43.6609285" lon="10.9057085"><ele>82.0</ele><time>2026-04-07T14:18:08.043Z</time></trkpt><trkpt lat="43.6609926" lon="10.9059793"><ele>80.33333333333333</ele><time>2026-04-07T14:18:09.043Z</time></trkpt><trkpt lat="43.6610546" lon="10.9062244"><ele>78.66666666666667</ele><time>2026-04-07T14:18:10.044Z</time></trkpt><trkpt lat="43.6611141" lon="10.9064631"><ele>77.0</ele><time>2026-04-07T14:18:11.043Z</time></trkpt><trkpt lat="43.6611817" lon="10.9066836"><ele>76.0</ele><time>2026-04-07T14:18:12.044Z</time></trkpt><trkpt lat="43.66126" lon="10.9068808"><ele>75.0</ele><time>2026-04-07T14:18:13.044Z</time></trkpt><trkpt lat="43.6613516" lon="10.9070474"><ele>74.0</ele><time>2026-04-07T14:18:14.044Z</time></trkpt><trkpt lat="43.6614594" lon="10.9071977"><ele>74.0</ele><time>2026-04-07T14:18:15.044Z</time></trkpt><trkpt lat="43.6615826" lon="10.9073484"><ele>74.0</ele><time>2026-04-07T14:18:16.044Z</time></trkpt><trkpt lat="43.6617065" lon="10.9074874"><ele>74.0</ele><time>2026-04-07T14:18:17.044Z</time></trkpt><trkpt lat="43.6618314" lon="10.9076233"><ele>75.5</ele><time>2026-04-07T14:18:18.044Z</time></trkpt><trkpt lat="43.6619444" lon="10.9077511"><ele>77.0</ele><time>2026-04-07T14:18:19.044Z</time></trkpt><trkpt lat="43.6620429" lon="10.9078826"><ele>78.5</ele><time>2026-04-07T14:18:20.044Z</time></trkpt><trkpt lat="43.66212" lon="10.908032"><ele>80.0</ele><time>2026-04-07T14:18:21.043Z</time></trkpt><trkpt lat="43.6621763" lon="10.9081972"><ele>80.0</ele><time>2026-04-07T14:18:22.043Z</time></trkpt><trkpt lat="43.6622194" lon="10.9083931"><ele>80.0</ele><time>2026-04-07T14:18:23.044Z</time></trkpt><trkpt lat="43.6622518" lon="10.9086132"><ele>80.0</ele><time>2026-04-07T14:18:24.043Z</time></trkpt><trkpt lat="43.6622878" lon="10.9088351"><ele>77.66666666666667</ele><time>2026-04-07T14:18:25.043Z</time></trkpt><trkpt lat="43.6623347" lon="10.9090461"><ele>75.33333333333333</ele><time>2026-04-07T14:18:26.043Z</time></trkpt><trkpt lat="43.6623819" lon="10.909254"><ele>73.0</ele><time>2026-04-07T14:18:27.043Z</time></trkpt><trkpt lat="43.6624555" lon="10.9094638"><ele>67.33333333333333</ele><time>2026-04-07T14:18:28.044Z</time></trkpt><trkpt lat="43.6625421" lon="10.9096686"><ele>61.66666666666667</ele><time>2026-04-07T14:18:29.044Z</time></trkpt><trkpt lat="43.6626322" lon="10.9098631"><ele>56.0</ele><time>2026-04-07T14:18:30.044Z</time></trkpt><trkpt lat="43.6627167" lon="10.9100427"><ele>58.66666666666667</ele><time>2026-04-07T14:18:31.044Z</time></trkpt><trkpt lat="43.6627939" lon="10.9102251"><ele>61.33333333333333</ele><time>2026-04-07T14:18:32.043Z</time></trkpt><trkpt lat="43.6628617" lon="10.9104124"><ele>64.0</ele><time>2026-04-07T14:18:33.044Z</time></trkpt><trkpt lat="43.6629225" lon="10.9106235"><ele>64.0</ele><time>2026-04-07T14:18:34.044Z</time></trkpt><trkpt lat="43.6629841" lon="10.9108514"><ele>64.0</ele><time>2026-04-07T14:18:35.044Z</time></trkpt><trkpt lat="43.6630345" lon="10.9110865"><ele>64.0</ele><time>2026-04-07T14:18:36.043Z</time></trkpt><trkpt lat="43.6630857" lon="10.9113065"><ele>60.0</ele><time>2026-04-07T14:18:37.044Z</time></trkpt><trkpt lat="43.6631468" lon="10.9115075"><ele>56.0</ele><time>2026-04-07T14:18:38.044Z</time></trkpt><trkpt lat="43.6632275" lon="10.9116806"><ele>52.0</ele><time>2026-04-07T14:18:39.044Z</time></trkpt><trkpt lat="43.6633358" lon="10.9118339"><ele>51.25</ele><time>2026-04-07T14:18:40.044Z</time></trkpt><trkpt lat="43.6634448" lon="10.9119684"><ele>50.5</ele><time>2026-04-07T14:18:41.044Z</time></trkpt><trkpt lat="43.6635501" lon="10.9121022"><ele>49.75</ele><time>2026-04-07T14:18:42.044Z</time></trkpt><trkpt lat="43.6636287" lon="10.91226"><ele>49.0</ele><time>2026-04-07T14:18:43.044Z</time></trkpt><trkpt lat="43.6636816" lon="10.9124525"><ele>45.666666666666664</ele><time>2026-04-07T14:18:44.043Z</time></trkpt><trkpt lat="43.663707" lon="10.9126697"><ele>42.33333333333333</ele><time>2026-04-07T14:18:45.044Z</time></trkpt><trkpt lat="43.6637208" lon="10.9129129"><ele>39.0</ele><time>2026-04-07T14:18:46.044Z</time></trkpt><trkpt lat="43.6637319" lon="10.9131539"><ele>39.0</ele><time>2026-04-07T14:18:47.044Z</time></trkpt><trkpt lat="43.6637479" lon="10.9133824"><ele>39.0</ele><time>2026-04-07T14:18:48.044Z</time></trkpt><trkpt lat="43.6637642" lon="10.9135904"><ele>39.0</ele><time>2026-04-07T14:18:49.044Z</time></trkpt><trkpt lat="43.663768" lon="10.9137861"><ele>38.0</ele><time>2026-04-07T14:18:50.044Z</time></trkpt><trkpt lat="43.6637668" lon="10.913953"><ele>37.0</ele><time>2026-04-07T14:18:51.044Z</time></trkpt><trkpt lat="43.6637399" lon="10.9141068"><ele>36.0</ele><time>2026-04-07T14:18:52.044Z</time></trkpt><trkpt lat="43.6636971" lon="10.9142374"><ele>35.0</ele><time>2026-04-07T14:18:53.044Z</time></trkpt><trkpt lat="43.663642" lon="10.9143433"><ele>34.0</ele><time>2026-04-07T14:18:54.043Z</time></trkpt><trkpt lat="43.6635688" lon="10.9144429"><ele>34.0</ele><time>2026-04-07T14:18:55.043Z</time></trkpt><trkpt lat="43.6634712" lon="10.9145606"><ele>34.0</ele><time>2026-04-07T14:18:56.044Z</time></trkpt><trkpt lat="43.6633509" lon="10.9146878"><ele>34.0</ele><time>2026-04-07T14:18:57.044Z</time></trkpt><trkpt lat="43.6632185" lon="10.9148153"><ele>34.0</ele><time>2026-04-07T14:18:58.043Z</time></trkpt><trkpt lat="43.663072" lon="10.9149759"><ele>33.66666666666667</ele><time>2026-04-07T14:18:59.044Z</time></trkpt><trkpt lat="43.6629115" lon="10.9151562"><ele>33.333333333333336</ele><time>2026-04-07T14:19:00.044Z</time></trkpt><trkpt lat="43.6627479" lon="10.9153532"><ele>33.0</ele><time>2026-04-07T14:19:01.044Z</time></trkpt><trkpt lat="43.662603" lon="10.9155341"><ele>33.333333333333336</ele><time>2026-04-07T14:19:02.043Z</time></trkpt><trkpt lat="43.6624696" lon="10.9157151"><ele>33.66666666666667</ele><time>2026-04-07T14:19:03.044Z</time></trkpt><trkpt lat="43.6623483" lon="10.9159089"><ele>34.0</ele><time>2026-04-07T14:19:04.044Z</time></trkpt><trkpt lat="43.6622404" lon="10.9161191"><ele>34.0</ele><time>2026-04-07T14:19:05.044Z</time></trkpt><trkpt lat="43.6621516" lon="10.9163363"><ele>34.0</ele><time>2026-04-07T14:19:06.043Z</time></trkpt><trkpt lat="43.6620714" lon="10.9165182"><ele>34.0</ele><time>2026-04-07T14:19:07.043Z</time></trkpt><trkpt lat="43.6619969" lon="10.9166848"><ele>34.5</ele><time>2026-04-07T14:19:08.043Z</time></trkpt><trkpt lat="43.6619202" lon="10.9168196"><ele>35.0</ele><time>2026-04-07T14:19:09.044Z</time></trkpt><trkpt lat="43.6618413" lon="10.9169384"><ele>35.5</ele><time>2026-04-07T14:19:10.044Z</time></trkpt><trkpt lat="43.6617495" lon="10.9170306"><ele>36.0</ele><time>2026-04-07T14:19:11.043Z</time></trkpt><trkpt lat="43.6616358" lon="10.9171098"><ele>36.0</ele><time>2026-04-07T14:19:12.043Z</time></trkpt><trkpt lat="43.6615091" lon="10.9171805"><ele>36.0</ele><time>2026-04-07T14:19:13.044Z</time></trkpt><trkpt lat="43.6613555" lon="10.9172537"><ele>36.0</ele><time>2026-04-07T14:19:14.043Z</time></trkpt><trkpt lat="43.6611941" lon="10.9173252"><ele>37.0</ele><time>2026-04-07T14:19:15.043Z</time></trkpt><trkpt lat="43.6610153" lon="10.9173933"><ele>38.0</ele><time>2026-04-07T14:19:16.044Z</time></trkpt><trkpt lat="43.6608415" lon="10.9174563"><ele>39.0</ele><time>2026-04-07T14:19:17.043Z</time></trkpt><trkpt lat="43.6606777" lon="10.9175152"><ele>38.666666666666664</ele><time>2026-04-07T14:19:18.044Z</time></trkpt><trkpt lat="43.6605268" lon="10.9175748"><ele>38.33333333333333</ele><time>2026-04-07T14:19:19.044Z</time></trkpt><trkpt lat="43.660383" lon="10.9176354"><ele>38.0</ele><time>2026-04-07T14:19:20.044Z</time></trkpt><trkpt lat="43.6602428" lon="10.9177148"><ele>38.0</ele><time>2026-04-07T14:19:21.044Z</time></trkpt><trkpt lat="43.6601086" lon="10.9178126"><ele>38.0</ele><time>2026-04-07T14:19:22.044Z</time></trkpt><trkpt lat="43.6599765" lon="10.9179379"><ele>38.0</ele><time>2026-04-07T14:19:23.043Z</time></trkpt><trkpt lat="43.6598255" lon="10.9180926"><ele>38.0</ele><time>2026-04-07T14:19:24.044Z</time></trkpt><trkpt lat="43.6596656" lon="10.9182589"><ele>38.0</ele><time>2026-04-07T14:19:25.044Z</time></trkpt><trkpt lat="43.6595181" lon="10.9184198"><ele>38.0</ele><time>2026-04-07T14:19:26.043Z</time></trkpt><trkpt lat="43.6593947" lon="10.9185718"><ele>37.25</ele><time>2026-04-07T14:19:27.044Z</time></trkpt><trkpt lat="43.6592718" lon="10.9187162"><ele>36.5</ele><time>2026-04-07T14:19:28.043Z</time></trkpt><trkpt lat="43.659164" lon="10.9188502"><ele>35.75</ele><time>2026-04-07T14:19:29.044Z</time></trkpt><trkpt lat="43.6590681" lon="10.9189674"><ele>35.0</ele><time>2026-04-07T14:19:30.044Z</time></trkpt><trkpt lat="43.6589751" lon="10.9190678"><ele>35.0</ele><time>2026-04-07T14:19:31.044Z</time></trkpt><trkpt lat="43.6588667" lon="10.9191443"><ele>35.0</ele><time>2026-04-07T14:19:32.044Z</time></trkpt><trkpt lat="43.6587678" lon="10.91919"><ele>35.0</ele><time>2026-04-07T14:19:33.044Z</time></trkpt><trkpt lat="43.6586669" lon="10.9192102"><ele>35.0</ele><time>2026-04-07T14:19:34.043Z</time></trkpt><trkpt lat="43.6585503" lon="10.919203"><ele>35.0</ele><time>2026-04-07T14:19:35.044Z</time></trkpt><trkpt lat="43.6584021" lon="10.9191844"><ele>35.5</ele><time>2026-04-07T14:19:36.044Z</time></trkpt><trkpt lat="43.6582445" lon="10.9191574"><ele>36.0</ele><time>2026-04-07T14:19:37.044Z</time></trkpt><trkpt lat="43.6580958" lon="10.9191321"><ele>36.5</ele><time>2026-04-07T14:19:38.044Z</time></trkpt><trkpt lat="43.657965" lon="10.9191111"><ele>37.0</ele><time>2026-04-07T14:19:39.043Z</time></trkpt><trkpt lat="43.6578447" lon="10.9190916"><ele>36.75</ele><time>2026-04-07T14:19:40.044Z</time></trkpt><trkpt lat="43.6577273" lon="10.9190874"><ele>36.5</ele><time>2026-04-07T14:19:41.044Z</time></trkpt><trkpt lat="43.6575998" lon="10.9191125"><ele>36.25</ele><time>2026-04-07T14:19:42.043Z</time></trkpt><trkpt lat="43.6574746" lon="10.9191553"><ele>36.0</ele><time>2026-04-07T14:19:43.043Z</time></trkpt><trkpt lat="43.6573314" lon="10.9192156"><ele>36.0</ele><time>2026-04-07T14:19:44.044Z</time></trkpt><trkpt lat="43.6571793" lon="10.9192854"><ele>36.0</ele><time>2026-04-07T14:19:45.043Z</time></trkpt><trkpt lat="43.657024" lon="10.9193534"><ele>36.0</ele><time>2026-04-07T14:19:46.044Z</time></trkpt><trkpt lat="43.6568731" lon="10.9194244"><ele>36.0</ele><time>2026-04-07T14:19:47.044Z</time></trkpt><trkpt lat="43.6567245" lon="10.9194885"><ele>36.0</ele><time>2026-04-07T14:19:48.043Z</time></trkpt><trkpt lat="43.6565992" lon="10.9195464"><ele>36.0</ele><time>2026-04-07T14:19:49.044Z</time></trkpt><trkpt lat="43.6564904" lon="10.9196223"><ele>36.0</ele><time>2026-04-07T14:19:50.043Z</time></trkpt><trkpt lat="43.6563993" lon="10.9197221"><ele>36.0</ele><time>2026-04-07T14:19:51.044Z</time></trkpt><trkpt lat="43.6563205" lon="10.9198544"><ele>36.0</ele><time>2026-04-07T14:19:52.044Z</time></trkpt><trkpt lat="43.656259" lon="10.9200174"><ele>36.0</ele><time>2026-04-07T14:19:53.044Z</time></trkpt><trkpt lat="43.6562156" lon="10.9201937"><ele>36.0</ele><time>2026-04-07T14:19:54.044Z</time></trkpt><trkpt lat="43.656181" lon="10.9203613"><ele>36.25</ele><time>2026-04-07T14:19:55.043Z</time></trkpt><trkpt lat="43.6561423" lon="10.920528"><ele>36.5</ele><time>2026-04-07T14:19:56.043Z</time></trkpt><trkpt lat="43.6561013" lon="10.9206774"><ele>36.75</ele><time>2026-04-07T14:19:57.044Z</time></trkpt><trkpt lat="43.6560526" lon="10.9208162"><ele>37.0</ele><time>2026-04-07T14:19:58.044Z</time></trkpt><trkpt lat="43.6559867" lon="10.9209607"><ele>38.5</ele><time>2026-04-07T14:19:59.043Z</time></trkpt><trkpt lat="43.6559029" lon="10.9210886"><ele>40.0</ele><time>2026-04-07T14:20:00.043Z</time></trkpt><trkpt lat="43.6558204" lon="10.9211998"><ele>41.5</ele><time>2026-04-07T14:20:01.044Z</time></trkpt><trkpt lat="43.6557365" lon="10.9212946"><ele>43.0</ele><time>2026-04-07T14:20:02.044Z</time></trkpt><trkpt lat="43.6556473" lon="10.9213925"><ele>43.0</ele><time>2026-04-07T14:20:03.044Z</time></trkpt><trkpt lat="43.6555546" lon="10.9214899"><ele>43.0</ele><time>2026-04-07T14:20:04.044Z</time></trkpt><trkpt lat="43.6554744" lon="10.9215625"><ele>43.0</ele><time>2026-04-07T14:20:05.044Z</time></trkpt><trkpt lat="43.6553974" lon="10.9216505"><ele>43.0</ele><time>2026-04-07T14:20:06.044Z</time></trkpt><trkpt lat="43.655325" lon="10.9217253"><ele>43.0</ele><time>2026-04-07T14:20:07.044Z</time></trkpt><trkpt lat="43.6552467" lon="10.9217824"><ele>43.2</ele><time>2026-04-07T14:20:08.044Z</time></trkpt><trkpt lat="43.6551728" lon="10.9218339"><ele>43.4</ele><time>2026-04-07T14:20:09.044Z</time></trkpt><trkpt lat="43.6550999" lon="10.9218869"><ele>43.6</ele><time>2026-04-07T14:20:10.044Z</time></trkpt><trkpt lat="43.6550173" lon="10.9219467"><ele>43.800000000000004</ele><time>2026-04-07T14:20:11.044Z</time></trkpt><trkpt lat="43.6549168" lon="10.9220073"><ele>44.0</ele><time>2026-04-07T14:20:12.043Z</time></trkpt><trkpt lat="43.654799" lon="10.9220717"><ele>44.0</ele><time>2026-04-07T14:20:13.043Z</time></trkpt><trkpt lat="43.6546674" lon="10.9221469"><ele>44.0</ele><time>2026-04-07T14:20:14.044Z</time></trkpt><trkpt lat="43.6545192" lon="10.9222235"><ele>44.0</ele><time>2026-04-07T14:20:15.043Z</time></trkpt><trkpt lat="43.6543622" lon="10.9223007"><ele>44.0</ele><time>2026-04-07T14:20:16.044Z</time></trkpt><trkpt lat="43.654212" lon="10.9223699"><ele>44.0</ele><time>2026-04-07T14:20:17.044Z</time></trkpt><trkpt lat="43.6540667" lon="10.9224406"><ele>44.0</ele><time>2026-04-07T14:20:18.044Z</time></trkpt><trkpt lat="43.6539182" lon="10.9225413"><ele>45.0</ele><time>2026-04-07T14:20:19.044Z</time></trkpt><trkpt lat="43.6537619" lon="10.9226623"><ele>46.0</ele><time>2026-04-07T14:20:20.043Z</time></trkpt><trkpt lat="43.6536062" lon="10.9227918"><ele>47.0</ele><time>2026-04-07T14:20:21.043Z</time></trkpt><trkpt lat="43.6534613" lon="10.9229242"><ele>47.0</ele><time>2026-04-07T14:20:22.043Z</time></trkpt><trkpt lat="43.6533283" lon="10.923048"><ele>47.0</ele><time>2026-04-07T14:20:23.044Z</time></trkpt><trkpt lat="43.6532009" lon="10.9231654"><ele>47.0</ele><time>2026-04-07T14:20:24.044Z</time></trkpt><trkpt lat="43.6530875" lon="10.9232709"><ele>47.0</ele><time>2026-04-07T14:20:25.044Z</time></trkpt><trkpt lat="43.6529931" lon="10.9233779"><ele>47.0</ele><time>2026-04-07T14:20:26.044Z</time></trkpt><trkpt lat="43.6529278" lon="10.9234806"><ele>47.0</ele><time>2026-04-07T14:20:27.043Z</time></trkpt><trkpt lat="43.6528894" lon="10.9236127"><ele>47.0</ele><time>2026-04-07T14:20:28.043Z</time></trkpt><trkpt lat="43.6528733" lon="10.9237656"><ele>47.0</ele><time>2026-04-07T14:20:29.044Z</time></trkpt><trkpt lat="43.6528815" lon="10.9239408"><ele>46.75</ele><time>2026-04-07T14:20:30.044Z</time></trkpt><trkpt lat="43.652894" lon="10.9241172"><ele>46.5</ele><time>2026-04-07T14:20:31.043Z</time></trkpt><trkpt lat="43.6529106" lon="10.9243154"><ele>46.25</ele><time>2026-04-07T14:20:32.044Z</time></trkpt><trkpt lat="43.652919" lon="10.9245356"><ele>46.0</ele><time>2026-04-07T14:20:33.044Z</time></trkpt><trkpt lat="43.6529022" lon="10.9247598"><ele>45.66666666666667</ele><time>2026-04-07T14:20:34.044Z</time></trkpt><trkpt lat="43.6528687" lon="10.9249954"><ele>45.333333333333336</ele><time>2026-04-07T14:20:35.044Z</time></trkpt><trkpt lat="43.6528264" lon="10.9252273"><ele>45.0</ele><time>2026-04-07T14:20:36.044Z</time></trkpt><trkpt lat="43.6527831" lon="10.9254505"><ele>44.25</ele><time>2026-04-07T14:20:37.044Z</time></trkpt><trkpt lat="43.6527424" lon="10.9256472"><ele>43.5</ele><time>2026-04-07T14:20:38.044Z</time></trkpt><trkpt lat="43.6526931" lon="10.9258276"><ele>42.75</ele><time>2026-04-07T14:20:39.044Z</time></trkpt><trkpt lat="43.6526289" lon="10.9259978"><ele>42.0</ele><time>2026-04-07T14:20:40.044Z</time></trkpt><trkpt lat="43.652554" lon="10.9261785"><ele>41.333333333333336</ele><time>2026-04-07T14:20:41.043Z</time></trkpt><trkpt lat="43.6524668" lon="10.926373"><ele>40.66666666666667</ele><time>2026-04-07T14:20:42.044Z</time></trkpt><trkpt lat="43.6523766" lon="10.9265876"><ele>40.0</ele><time>2026-04-07T14:20:43.044Z</time></trkpt><trkpt lat="43.6522672" lon="10.9268107"><ele>40.0</ele><time>2026-04-07T14:20:44.044Z</time></trkpt><trkpt lat="43.6521513" lon="10.9270599"><ele>40.0</ele><time>2026-04-07T14:20:45.043Z</time></trkpt><trkpt lat="43.6520296" lon="10.9273248"><ele>40.0</ele><time>2026-04-07T14:20:46.044Z</time></trkpt><trkpt lat="43.651908" lon="10.927613"><ele>38.5</ele><time>2026-04-07T14:20:47.044Z</time></trkpt><trkpt lat="43.6517674" lon="10.9279442"><ele>37.0</ele><time>2026-04-07T14:20:48.043Z</time></trkpt><trkpt lat="43.6516208" lon="10.9282849"><ele>37.5</ele><time>2026-04-07T14:20:49.044Z</time></trkpt><trkpt lat="43.6514669" lon="10.9286383"><ele>38.0</ele><time>2026-04-07T14:20:50.044Z</time></trkpt><trkpt lat="43.6513169" lon="10.9289829"><ele>38.0</ele><time>2026-04-07T14:20:51.044Z</time></trkpt><trkpt lat="43.6511718" lon="10.9293275"><ele>38.0</ele><time>2026-04-07T14:20:52.044Z</time></trkpt><trkpt lat="43.6510323" lon="10.9296445"><ele>38.5</ele><time>2026-04-07T14:20:53.044Z</time></trkpt><trkpt lat="43.6509089" lon="10.9299461"><ele>39.0</ele><time>2026-04-07T14:20:54.044Z</time></trkpt><trkpt lat="43.6507871" lon="10.9302275"><ele>39.0</ele><time>2026-04-07T14:20:55.044Z</time></trkpt><trkpt lat="43.6506766" lon="10.9304867"><ele>39.0</ele><time>2026-04-07T14:20:56.044Z</time></trkpt><trkpt lat="43.6505767" lon="10.930724"><ele>39.0</ele><time>2026-04-07T14:20:57.043Z</time></trkpt><trkpt lat="43.6504921" lon="10.9309423"><ele>38.333333333333336</ele><time>2026-04-07T14:20:58.043Z</time></trkpt><trkpt lat="43.6504074" lon="10.9311444"><ele>37.66666666666667</ele><time>2026-04-07T14:20:59.044Z</time></trkpt><trkpt lat="43.6503165" lon="10.931338"><ele>37.0</ele><time>2026-04-07T14:21:00.043Z</time></trkpt><trkpt lat="43.6502028" lon="10.931548"><ele>37.66666666666667</ele><time>2026-04-07T14:21:01.043Z</time></trkpt><trkpt lat="43.6500669" lon="10.9317605"><ele>38.333333333333336</ele><time>2026-04-07T14:21:02.044Z</time></trkpt><trkpt lat="43.6499138" lon="10.9319785"><ele>39.0</ele><time>2026-04-07T14:21:03.044Z</time></trkpt><trkpt lat="43.6497546" lon="10.9321985"><ele>39.0</ele><time>2026-04-07T14:21:04.043Z</time></trkpt><trkpt lat="43.6496077" lon="10.9323913"><ele>39.0</ele><time>2026-04-07T14:21:05.044Z</time></trkpt><trkpt lat="43.6494473" lon="10.932566"><ele>39.0</ele><time>2026-04-07T14:21:06.044Z</time></trkpt><trkpt lat="43.6492678" lon="10.9327411"><ele>39.5</ele><time>2026-04-07T14:21:07.043Z</time></trkpt><trkpt lat="43.6490603" lon="10.9329243"><ele>40.0</ele><time>2026-04-07T14:21:08.044Z</time></trkpt><trkpt lat="43.6488522" lon="10.9331078"><ele>40.0</ele><time>2026-04-07T14:21:09.044Z</time></trkpt><trkpt lat="43.6486552" lon="10.9332937"><ele>40.0</ele><time>2026-04-07T14:21:10.044Z</time></trkpt><trkpt lat="43.648486" lon="10.9334544"><ele>40.0</ele><time>2026-04-07T14:21:11.044Z</time></trkpt><trkpt lat="43.6483201" lon="10.9336108"><ele>39.333333333333336</ele><time>2026-04-07T14:21:12.044Z</time></trkpt><trkpt lat="43.6481501" lon="10.9337761"><ele>38.666666666666664</ele><time>2026-04-07T14:21:13.044Z</time></trkpt><trkpt lat="43.6479647" lon="10.9339401"><ele>38.0</ele><time>2026-04-07T14:21:14.044Z</time></trkpt><trkpt lat="43.6477742" lon="10.934105"><ele>38.5</ele><time>2026-04-07T14:21:15.043Z</time></trkpt><trkpt lat="43.6475808" lon="10.934269"><ele>39.0</ele><time>2026-04-07T14:21:16.044Z</time></trkpt><trkpt lat="43.6473847" lon="10.9344389"><ele>39.0</ele><time>2026-04-07T14:21:17.043Z</time></trkpt><trkpt lat="43.6471809" lon="10.9346162"><ele>39.0</ele><time>2026-04-07T14:21:18.043Z</time></trkpt><trkpt lat="43.6469722" lon="10.9347936"><ele>38.5</ele><time>2026-04-07T14:21:19.044Z</time></trkpt><trkpt lat="43.6467467" lon="10.9349592"><ele>38.0</ele><time>2026-04-07T14:21:20.044Z</time></trkpt><trkpt lat="43.6465127" lon="10.9351589"><ele>38.0</ele><time>2026-04-07T14:21:21.044Z</time></trkpt><trkpt lat="43.6462868" lon="10.9353487"><ele>38.0</ele><time>2026-04-07T14:21:22.044Z</time></trkpt><trkpt lat="43.646076" lon="10.9355275"><ele>38.33333333333333</ele><time>2026-04-07T14:21:23.044Z</time></trkpt><trkpt lat="43.6458772" lon="10.935689"><ele>38.666666666666664</ele><time>2026-04-07T14:21:24.044Z</time></trkpt><trkpt lat="43.6456922" lon="10.9358301"><ele>39.0</ele><time>2026-04-07T14:21:25.044Z</time></trkpt><trkpt lat="43.6455186" lon="10.9359657"><ele>39.0</ele><time>2026-04-07T14:21:26.044Z</time></trkpt><trkpt lat="43.6453478" lon="10.9361104"><ele>39.0</ele><time>2026-04-07T14:21:27.044Z</time></trkpt><trkpt lat="43.6451844" lon="10.9362378"><ele>39.0</ele><time>2026-04-07T14:21:28.044Z</time></trkpt><trkpt lat="43.6450194" lon="10.9363837"><ele>39.0</ele><time>2026-04-07T14:21:29.044Z</time></trkpt><trkpt lat="43.6448451" lon="10.9365327"><ele>39.0</ele><time>2026-04-07T14:21:30.043Z</time></trkpt><trkpt lat="43.6446664" lon="10.9366918"><ele>39.0</ele><time>2026-04-07T14:21:31.044Z</time></trkpt><trkpt lat="43.6444768" lon="10.936868"><ele>39.333333333333336</ele><time>2026-04-07T14:21:32.043Z</time></trkpt><trkpt lat="43.6442826" lon="10.9370428"><ele>39.66666666666667</ele><time>2026-04-07T14:21:33.044Z</time></trkpt><trkpt lat="43.644101" lon="10.9372049"><ele>40.0</ele><time>2026-04-07T14:21:34.043Z</time></trkpt><trkpt lat="43.6439323" lon="10.9373514"><ele>40.0</ele><time>2026-04-07T14:21:35.044Z</time></trkpt><trkpt lat="43.6437761" lon="10.9374822"><ele>40.0</ele><time>2026-04-07T14:21:36.044Z</time></trkpt><trkpt lat="43.6436534" lon="10.9375885"><ele>40.0</ele><time>2026-04-07T14:21:37.044Z</time></trkpt><trkpt lat="43.6435337" lon="10.9376921"><ele>40.75</ele><time>2026-04-07T14:21:38.044Z</time></trkpt><trkpt lat="43.6434077" lon="10.9377808"><ele>41.5</ele><time>2026-04-07T14:21:39.044Z</time></trkpt><trkpt lat="43.6432788" lon="10.9378856"><ele>42.25</ele><time>2026-04-07T14:21:40.044Z</time></trkpt><trkpt lat="43.6431613" lon="10.9379808"><ele>43.0</ele><time>2026-04-07T14:21:41.043Z</time></trkpt><trkpt lat="43.6430541" lon="10.938071"><ele>43.0</ele><time>2026-04-07T14:21:42.044Z</time></trkpt><trkpt lat="43.642958" lon="10.9381661"><ele>43.0</ele><time>2026-04-07T14:21:43.044Z</time></trkpt><trkpt lat="43.6428665" lon="10.9382432"><ele>43.0</ele><time>2026-04-07T14:21:44.044Z</time></trkpt><trkpt lat="43.6427945" lon="10.9383055"><ele>43.0</ele><time>2026-04-07T14:21:45.043Z</time></trkpt><trkpt lat="43.6427393" lon="10.9383496"><ele>43.0</ele><time>2026-04-07T14:21:46.044Z</time></trkpt><trkpt lat="43.6426573" lon="10.938405"><ele>42.8</ele><time>2026-04-07T14:21:48.043Z</time></trkpt><trkpt lat="43.6425574" lon="10.9383658"><ele>42.599999999999994</ele><time>2026-04-07T14:21:50.044Z</time></trkpt><trkpt lat="43.6424895" lon="10.9382923"><ele>42.400000000000006</ele><time>2026-04-07T14:21:51.044Z</time></trkpt><trkpt lat="43.6424192" lon="10.9382073"><ele>42.2</ele><time>2026-04-07T14:21:52.044Z</time></trkpt><trkpt lat="43.6423478" lon="10.9381191"><ele>42.0</ele><time>2026-04-07T14:21:53.043Z</time></trkpt><trkpt lat="43.6422706" lon="10.9380215"><ele>42.0</ele><time>2026-04-07T14:21:54.043Z</time></trkpt><trkpt lat="43.6421756" lon="10.9379071"><ele>42.0</ele><time>2026-04-07T14:21:55.044Z</time></trkpt><trkpt lat="43.6420659" lon="10.9377679"><ele>42.0</ele><time>2026-04-07T14:21:56.044Z</time></trkpt><trkpt lat="43.6419587" lon="10.9376357"><ele>42.0</ele><time>2026-04-07T14:21:57.044Z</time></trkpt><trkpt lat="43.6418647" lon="10.9375087"><ele>42.25</ele><time>2026-04-07T14:21:58.044Z</time></trkpt><trkpt lat="43.6417679" lon="10.9373772"><ele>42.5</ele><time>2026-04-07T14:21:59.044Z</time></trkpt><trkpt lat="43.6416956" lon="10.9372307"><ele>42.75</ele><time>2026-04-07T14:22:00.043Z</time></trkpt><trkpt lat="43.6416273" lon="10.9370895"><ele>43.0</ele><time>2026-04-07T14:22:01.043Z</time></trkpt><trkpt lat="43.6415424" lon="10.936956"><ele>43.0</ele><time>2026-04-07T14:22:02.043Z</time></trkpt><trkpt lat="43.6414373" lon="10.9368322"><ele>43.0</ele><time>2026-04-07T14:22:03.044Z</time></trkpt><trkpt lat="43.6413207" lon="10.9367216"><ele>43.0</ele><time>2026-04-07T14:22:04.044Z</time></trkpt><trkpt lat="43.6412135" lon="10.9366206"><ele>43.0</ele><time>2026-04-07T14:22:05.044Z</time></trkpt><trkpt lat="43.6411179" lon="10.9365511"><ele>45.0</ele><time>2026-04-07T14:22:06.044Z</time></trkpt><trkpt lat="43.6410397" lon="10.9365087"><ele>47.0</ele><time>2026-04-07T14:22:07.043Z</time></trkpt><trkpt lat="43.6409662" lon="10.936492"><ele>49.0</ele><time>2026-04-07T14:22:08.044Z</time></trkpt><trkpt lat="43.6408846" lon="10.9365305"><ele>51.0</ele><time>2026-04-07T14:22:09.044Z</time></trkpt><trkpt lat="43.6408022" lon="10.9366138"><ele>53.0</ele><time>2026-04-07T14:22:10.044Z</time></trkpt><trkpt lat="43.6407165" lon="10.9367304"><ele>55.66666666666667</ele><time>2026-04-07T14:22:11.044Z</time></trkpt><trkpt lat="43.6406258" lon="10.9368615"><ele>58.33333333333333</ele><time>2026-04-07T14:22:12.044Z</time></trkpt><trkpt lat="43.6405262" lon="10.9370293"><ele>61.0</ele><time>2026-04-07T14:22:13.044Z</time></trkpt><trkpt lat="43.6404245" lon="10.9372152"><ele>61.0</ele><time>2026-04-07T14:22:14.044Z</time></trkpt><trkpt lat="43.6403184" lon="10.9373931"><ele>61.0</ele><time>2026-04-07T14:22:15.043Z</time></trkpt><trkpt lat="43.6402157" lon="10.9375581"><ele>61.0</ele><time>2026-04-07T14:22:16.044Z</time></trkpt><trkpt lat="43.6401174" lon="10.9376954"><ele>62.75</ele><time>2026-04-07T14:22:17.044Z</time></trkpt><trkpt lat="43.6400167" lon="10.9377914"><ele>64.5</ele><time>2026-04-07T14:22:18.044Z</time></trkpt><trkpt lat="43.6399115" lon="10.9378714"><ele>66.25</ele><time>2026-04-07T14:22:19.044Z</time></trkpt><trkpt lat="43.6397895" lon="10.9379258"><ele>68.0</ele><time>2026-04-07T14:22:20.044Z</time></trkpt><trkpt lat="43.6396629" lon="10.9379614"><ele>68.0</ele><time>2026-04-07T14:22:21.044Z</time></trkpt><trkpt lat="43.6395304" lon="10.9379662"><ele>68.0</ele><time>2026-04-07T14:22:22.043Z</time></trkpt><trkpt lat="43.6393966" lon="10.9379434"><ele>68.0</ele><time>2026-04-07T14:22:23.044Z</time></trkpt><trkpt lat="43.6392673" lon="10.9379114"><ele>68.0</ele><time>2026-04-07T14:22:24.044Z</time></trkpt><trkpt lat="43.6391362" lon="10.9378809"><ele>70.25</ele><time>2026-04-07T14:22:25.043Z</time></trkpt><trkpt lat="43.6390121" lon="10.9378571"><ele>72.5</ele><time>2026-04-07T14:22:26.043Z</time></trkpt><trkpt lat="43.6388887" lon="10.9378318"><ele>74.75</ele><time>2026-04-07T14:22:27.044Z</time></trkpt><trkpt lat="43.6387785" lon="10.9377879"><ele>77.0</ele><time>2026-04-07T14:22:28.044Z</time></trkpt><trkpt lat="43.6386822" lon="10.937727"><ele>80.6</ele><time>2026-04-07T14:22:29.044Z</time></trkpt><trkpt lat="43.6386117" lon="10.9376573"><ele>84.2</ele><time>2026-04-07T14:22:30.044Z</time></trkpt><trkpt lat="43.6385627" lon="10.9375913"><ele>87.8</ele><time>2026-04-07T14:22:31.044Z</time></trkpt><trkpt lat="43.6384611" lon="10.9375439"><ele>91.4</ele><time>2026-04-07T14:22:33.044Z</time></trkpt><trkpt lat="43.6383978" lon="10.9376235"><ele>95.0</ele><time>2026-04-07T14:22:35.044Z</time></trkpt><trkpt lat="43.6384272" lon="10.9377659"><ele>95.0</ele><time>2026-04-07T14:22:37.044Z</time></trkpt><trkpt lat="43.6384671" lon="10.9378651"><ele>95.0</ele><time>2026-04-07T14:22:38.044Z</time></trkpt><trkpt lat="43.6385137" lon="10.9379646"><ele>95.0</ele><time>2026-04-07T14:22:39.043Z</time></trkpt><trkpt lat="43.6385477" lon="10.938052"><ele>95.0</ele><time>2026-04-07T14:22:40.043Z</time></trkpt><trkpt lat="43.6385721" lon="10.9381971"><ele>95.0</ele><time>2026-04-07T14:22:42.044Z</time></trkpt><trkpt lat="43.6384783" lon="10.9382582"><ele>95.0</ele><time>2026-04-07T14:22:44.044Z</time></trkpt><trkpt lat="43.6383987" lon="10.9382433"><ele>95.0</ele><time>2026-04-07T14:22:45.044Z</time></trkpt><trkpt lat="43.6383121" lon="10.9382265"><ele>95.0</ele><time>2026-04-07T14:22:46.043Z</time></trkpt><trkpt lat="43.6382163" lon="10.9382064"><ele>95.0</ele><time>2026-04-07T14:22:47.044Z</time></trkpt><trkpt lat="43.6381302" lon="10.9381877"><ele>95.0</ele><time>2026-04-07T14:22:48.044Z</time></trkpt><trkpt lat="43.6380369" lon="10.9381762"><ele>95.0</ele><time>2026-04-07T14:22:49.043Z</time></trkpt><trkpt lat="43.6379441" lon="10.9381686"><ele>95.0</ele><time>2026-04-07T14:22:50.044Z</time></trkpt><trkpt lat="43.6378485" lon="10.9381603"><ele>95.0</ele><time>2026-04-07T14:22:51.043Z</time></trkpt><trkpt lat="43.6377629" lon="10.9381437"><ele>95.0</ele><time>2026-04-07T14:22:52.044Z</time></trkpt><trkpt lat="43.6376867" lon="10.9381235"><ele>95.0</ele><time>2026-04-07T14:22:53.044Z</time></trkpt><trkpt lat="43.6376145" lon="10.9381065"><ele>95.0</ele><time>2026-04-07T14:22:54.044Z</time></trkpt><trkpt lat="43.6375385" lon="10.9380953"><ele>95.0</ele><time>2026-04-07T14:22:55.043Z</time></trkpt><trkpt lat="43.637435" lon="10.9380948"><ele>96.0</ele><time>2026-04-07T14:22:56.044Z</time></trkpt><trkpt lat="43.6373099" lon="10.9381043"><ele>97.0</ele><time>2026-04-07T14:22:57.043Z</time></trkpt><trkpt lat="43.6371798" lon="10.9381305"><ele>98.0</ele><time>2026-04-07T14:22:58.043Z</time></trkpt><trkpt lat="43.6370356" lon="10.9381634"><ele>99.0</ele><time>2026-04-07T14:22:59.044Z</time></trkpt><trkpt lat="43.6368924" lon="10.9381927"><ele>100.66666666666666</ele><time>2026-04-07T14:23:00.043Z</time></trkpt><trkpt lat="43.6367482" lon="10.9382321"><ele>102.33333333333333</ele><time>2026-04-07T14:23:01.043Z</time></trkpt><trkpt lat="43.6365886" lon="10.9382619"><ele>104.0</ele><time>2026-04-07T14:23:02.044Z</time></trkpt><trkpt lat="43.63643" lon="10.9383008"><ele>104.0</ele><time>2026-04-07T14:23:03.043Z</time></trkpt><trkpt lat="43.6362787" lon="10.9383344"><ele>104.0</ele><time>2026-04-07T14:23:04.044Z</time></trkpt><trkpt lat="43.6361402" lon="10.9383677"><ele>104.0</ele><time>2026-04-07T14:23:05.044Z</time></trkpt><trkpt lat="43.6360197" lon="10.9383984"><ele>104.0</ele><time>2026-04-07T14:23:06.043Z</time></trkpt><trkpt lat="43.6359123" lon="10.9384244"><ele>105.33333333333333</ele><time>2026-04-07T14:23:07.044Z</time></trkpt><trkpt lat="43.6358246" lon="10.9384441"><ele>106.66666666666666</ele><time>2026-04-07T14:23:08.043Z</time></trkpt><trkpt lat="43.6357498" lon="10.9384452"><ele>108.0</ele><time>2026-04-07T14:23:09.044Z</time></trkpt><trkpt lat="43.6356666" lon="10.9384074"><ele>109.33333333333334</ele><time>2026-04-07T14:23:11.044Z</time></trkpt><trkpt lat="43.6355979" lon="10.9383658"><ele>110.66666666666667</ele><time>2026-04-07T14:23:13.044Z</time></trkpt><trkpt lat="43.6354912" lon="10.9383327"><ele>112.0</ele><time>2026-04-07T14:23:15.044Z</time></trkpt><trkpt lat="43.6354224" lon="10.9383311"><ele>112.00000000000001</ele><time>2026-04-07T14:23:16.044Z</time></trkpt><trkpt lat="43.6353557" lon="10.9383445"><ele>112.0</ele><time>2026-04-07T14:23:17.044Z</time></trkpt><trkpt lat="43.6352841" lon="10.9383719"><ele>112.0</ele><time>2026-04-07T14:23:18.044Z</time></trkpt><trkpt lat="43.635213" lon="10.938403"><ele>112.0</ele><time>2026-04-07T14:23:19.044Z</time></trkpt><trkpt lat="43.6351357" lon="10.9384389"><ele>112.00000000000001</ele><time>2026-04-07T14:23:20.044Z</time></trkpt><trkpt lat="43.635055" lon="10.9384816"><ele>112.0</ele><time>2026-04-07T14:23:21.043Z</time></trkpt><trkpt lat="43.6349671" lon="10.9385378"><ele>110.83333333333334</ele><time>2026-04-07T14:23:22.044Z</time></trkpt><trkpt lat="43.6348835" lon="10.9385883"><ele>109.66666666666667</ele><time>2026-04-07T14:23:23.044Z</time></trkpt><trkpt lat="43.6348017" lon="10.9386288"><ele>108.5</ele><time>2026-04-07T14:23:24.043Z</time></trkpt><trkpt lat="43.6347352" lon="10.9386677"><ele>107.33333333333334</ele><time>2026-04-07T14:23:25.044Z</time></trkpt><trkpt lat="43.6346353" lon="10.9387016"><ele>106.16666666666667</ele><time>2026-04-07T14:23:27.044Z</time></trkpt><trkpt lat="43.6345716" lon="10.9386785"><ele>105.0</ele><time>2026-04-07T14:23:30.043Z</time></trkpt><trkpt lat="43.634496" lon="10.9386671"><ele>104.8</ele><time>2026-04-07T14:23:35.044Z</time></trkpt><trkpt lat="43.634388" lon="10.9386163"><ele>104.6</ele><time>2026-04-07T14:23:37.044Z</time></trkpt><trkpt lat="43.6342813" lon="10.9385559"><ele>104.4</ele><time>2026-04-07T14:23:39.044Z</time></trkpt><trkpt lat="43.6342178" lon="10.9385065"><ele>104.2</ele><time>2026-04-07T14:23:40.044Z</time></trkpt><trkpt lat="43.6341497" lon="10.9384562"><ele>104.0</ele><time>2026-04-07T14:23:41.043Z</time></trkpt><trkpt lat="43.6340656" lon="10.9384043"><ele>105.6</ele><time>2026-04-07T14:23:42.044Z</time></trkpt><trkpt lat="43.6339849" lon="10.9383557"><ele>107.2</ele><time>2026-04-07T14:23:43.044Z</time></trkpt><trkpt lat="43.6338935" lon="10.9382854"><ele>108.79999999999998</ele><time>2026-04-07T14:23:44.044Z</time></trkpt><trkpt lat="43.6338168" lon="10.9382281"><ele>110.39999999999999</ele><time>2026-04-07T14:23:45.044Z</time></trkpt><trkpt lat="43.6337407" lon="10.9381666"><ele>112.0</ele><time>2026-04-07T14:23:46.044Z</time></trkpt><trkpt lat="43.6336621" lon="10.9381112"><ele>111.39999999999999</ele><time>2026-04-07T14:23:47.044Z</time></trkpt><trkpt lat="43.6335879" lon="10.9380471"><ele>110.79999999999998</ele><time>2026-04-07T14:23:48.044Z</time></trkpt><trkpt lat="43.6335061" lon="10.9379903"><ele>110.2</ele><time>2026-04-07T14:23:49.044Z</time></trkpt><trkpt lat="43.6334206" lon="10.9379337"><ele>109.6</ele><time>2026-04-07T14:23:50.044Z</time></trkpt><trkpt lat="43.6333385" lon="10.937861"><ele>109.0</ele><time>2026-04-07T14:23:51.044Z</time></trkpt><trkpt lat="43.6332509" lon="10.9377874"><ele>109.0</ele><time>2026-04-07T14:23:52.044Z</time></trkpt><trkpt lat="43.6331637" lon="10.9377138"><ele>109.0</ele><time>2026-04-07T14:23:53.043Z</time></trkpt><trkpt lat="43.6330783" lon="10.9376369"><ele>109.0</ele><time>2026-04-07T14:23:54.044Z</time></trkpt><trkpt lat="43.6329951" lon="10.9375691"><ele>109.0</ele><time>2026-04-07T14:23:55.043Z</time></trkpt><trkpt lat="43.6329153" lon="10.9374919"><ele>109.0</ele><time>2026-04-07T14:23:56.044Z</time></trkpt><trkpt lat="43.632845" lon="10.9374188"><ele>111.0</ele><time>2026-04-07T14:23:57.043Z</time></trkpt><trkpt lat="43.6327853" lon="10.9373215"><ele>113.0</ele><time>2026-04-07T14:23:58.044Z</time></trkpt><trkpt lat="43.6327358" lon="10.9371992"><ele>115.0</ele><time>2026-04-07T14:23:59.044Z</time></trkpt><trkpt lat="43.6326952" lon="10.9370514"><ele>117.0</ele><time>2026-04-07T14:24:00.043Z</time></trkpt><trkpt lat="43.6326598" lon="10.9368876"><ele>119.0</ele><time>2026-04-07T14:24:01.044Z</time></trkpt><trkpt lat="43.6326224" lon="10.9367019"><ele>119.25</ele><time>2026-04-07T14:24:02.043Z</time></trkpt><trkpt lat="43.6325869" lon="10.9365211"><ele>119.5</ele><time>2026-04-07T14:24:03.044Z</time></trkpt><trkpt lat="43.6325551" lon="10.9363427"><ele>119.75</ele><time>2026-04-07T14:24:04.043Z</time></trkpt><trkpt lat="43.6325363" lon="10.936171"><ele>120.0</ele><time>2026-04-07T14:24:05.044Z</time></trkpt><trkpt lat="43.6325282" lon="10.9359837"><ele>120.0</ele><time>2026-04-07T14:24:06.043Z</time></trkpt><trkpt lat="43.6325231" lon="10.9357848"><ele>120.0</ele><time>2026-04-07T14:24:07.043Z</time></trkpt><trkpt lat="43.6325114" lon="10.9355842"><ele>120.0</ele><time>2026-04-07T14:24:08.044Z</time></trkpt><trkpt lat="43.6324961" lon="10.9353937"><ele>120.0</ele><time>2026-04-07T14:24:09.044Z</time></trkpt><trkpt lat="43.6324759" lon="10.9352087"><ele>120.5</ele><time>2026-04-07T14:24:10.044Z</time></trkpt><trkpt lat="43.6324476" lon="10.9350401"><ele>121.0</ele><time>2026-04-07T14:24:11.044Z</time></trkpt><trkpt lat="43.6324072" lon="10.9348816"><ele>121.5</ele><time>2026-04-07T14:24:12.044Z</time></trkpt><trkpt lat="43.632326" lon="10.9347198"><ele>122.0</ele><time>2026-04-07T14:24:13.044Z</time></trkpt><trkpt lat="43.6322131" lon="10.934566"><ele>122.0</ele><time>2026-04-07T14:24:14.044Z</time></trkpt><trkpt lat="43.632093" lon="10.9344014"><ele>122.0</ele><time>2026-04-07T14:24:15.044Z</time></trkpt><trkpt lat="43.6319563" lon="10.9342188"><ele>122.0</ele><time>2026-04-07T14:24:16.044Z</time></trkpt><trkpt lat="43.6318162" lon="10.934006"><ele>120.66666666666666</ele><time>2026-04-07T14:24:17.044Z</time></trkpt><trkpt lat="43.6316861" lon="10.9337855"><ele>119.33333333333334</ele><time>2026-04-07T14:24:18.043Z</time></trkpt><trkpt lat="43.631559" lon="10.9335648"><ele>118.0</ele><time>2026-04-07T14:24:19.043Z</time></trkpt><trkpt lat="43.631436" lon="10.9333432"><ele>115.66666666666667</ele><time>2026-04-07T14:24:20.044Z</time></trkpt><trkpt lat="43.6313202" lon="10.9331293"><ele>113.33333333333334</ele><time>2026-04-07T14:24:21.043Z</time></trkpt><trkpt lat="43.6312037" lon="10.9329263"><ele>111.0</ele><time>2026-04-07T14:24:22.043Z</time></trkpt><trkpt lat="43.6310903" lon="10.932727"><ele>110.0</ele><time>2026-04-07T14:24:23.043Z</time></trkpt><trkpt lat="43.630984" lon="10.9325142"><ele>109.0</ele><time>2026-04-07T14:24:24.044Z</time></trkpt><trkpt lat="43.6308924" lon="10.9322775"><ele>108.0</ele><time>2026-04-07T14:24:25.044Z</time></trkpt><trkpt lat="43.63083" lon="10.9320188"><ele>108.0</ele><time>2026-04-07T14:24:26.044Z</time></trkpt><trkpt lat="43.6307837" lon="10.9317548"><ele>108.0</ele><time>2026-04-07T14:24:27.044Z</time></trkpt><trkpt lat="43.6307421" lon="10.931468"><ele>108.0</ele><time>2026-04-07T14:24:28.044Z</time></trkpt><trkpt lat="43.6307078" lon="10.9311983"><ele>111.0</ele><time>2026-04-07T14:24:29.044Z</time></trkpt><trkpt lat="43.6306763" lon="10.9309469"><ele>114.0</ele><time>2026-04-07T14:24:30.043Z</time></trkpt><trkpt lat="43.6306623" lon="10.9307191"><ele>117.0</ele><time>2026-04-07T14:24:31.043Z</time></trkpt><trkpt lat="43.6306677" lon="10.9305089"><ele>118.25</ele><time>2026-04-07T14:24:32.043Z</time></trkpt><trkpt lat="43.6306716" lon="10.9303019"><ele>119.5</ele><time>2026-04-07T14:24:33.044Z</time></trkpt><trkpt lat="43.6306874" lon="10.930115"><ele>120.75</ele><time>2026-04-07T14:24:34.044Z</time></trkpt><trkpt lat="43.6307173" lon="10.9299585"><ele>122.0</ele><time>2026-04-07T14:24:35.044Z</time></trkpt><trkpt lat="43.6307049" lon="10.9297851"><ele>123.33333333333333</ele><time>2026-04-07T14:24:36.043Z</time></trkpt><trkpt lat="43.6306433" lon="10.9295916"><ele>124.66666666666666</ele><time>2026-04-07T14:24:37.044Z</time></trkpt><trkpt lat="43.6305561" lon="10.9294121"><ele>126.0</ele><time>2026-04-07T14:24:38.043Z</time></trkpt><trkpt lat="43.6304494" lon="10.9292364"><ele>126.66666666666666</ele><time>2026-04-07T14:24:39.044Z</time></trkpt><trkpt lat="43.6303306" lon="10.9290833"><ele>127.33333333333333</ele><time>2026-04-07T14:24:40.044Z</time></trkpt><trkpt lat="43.6302111" lon="10.92896"><ele>128.0</ele><time>2026-04-07T14:24:41.043Z</time></trkpt><trkpt lat="43.6300722" lon="10.9288552"><ele>128.5</ele><time>2026-04-07T14:24:42.044Z</time></trkpt><trkpt lat="43.6299344" lon="10.9287676"><ele>129.0</ele><time>2026-04-07T14:24:43.044Z</time></trkpt><trkpt lat="43.6297976" lon="10.9286805"><ele>129.5</ele><time>2026-04-07T14:24:44.044Z</time></trkpt><trkpt lat="43.6296699" lon="10.9285898"><ele>130.0</ele><time>2026-04-07T14:24:45.043Z</time></trkpt><trkpt lat="43.6295189" lon="10.9285193"><ele>129.75</ele><time>2026-04-07T14:24:46.044Z</time></trkpt><trkpt lat="43.6293658" lon="10.9284698"><ele>129.5</ele><time>2026-04-07T14:24:47.043Z</time></trkpt><trkpt lat="43.6292206" lon="10.9284326"><ele>129.25</ele><time>2026-04-07T14:24:48.044Z</time></trkpt><trkpt lat="43.6290809" lon="10.9283904"><ele>129.0</ele><time>2026-04-07T14:24:49.044Z</time></trkpt><trkpt lat="43.6289565" lon="10.928341"><ele>129.75</ele><time>2026-04-07T14:24:50.044Z</time></trkpt><trkpt lat="43.6288475" lon="10.9282706"><ele>130.5</ele><time>2026-04-07T14:24:51.044Z</time></trkpt><trkpt lat="43.6287485" lon="10.928154"><ele>131.25</ele><time>2026-04-07T14:24:52.044Z</time></trkpt><trkpt lat="43.628679" lon="10.9280129"><ele>132.0</ele><time>2026-04-07T14:24:53.044Z</time></trkpt><trkpt lat="43.62862" lon="10.9278121"><ele>132.0</ele><time>2026-04-07T14:24:54.044Z</time></trkpt><trkpt lat="43.628556" lon="10.9275886"><ele>132.0</ele><time>2026-04-07T14:24:55.044Z</time></trkpt><trkpt lat="43.628493" lon="10.9273382"><ele>132.0</ele><time>2026-04-07T14:24:56.044Z</time></trkpt><trkpt lat="43.6284165" lon="10.9270662"><ele>133.0</ele><time>2026-04-07T14:24:57.044Z</time></trkpt><trkpt lat="43.6283298" lon="10.9267788"><ele>134.0</ele><time>2026-04-07T14:24:58.044Z</time></trkpt><trkpt lat="43.6282446" lon="10.9264757"><ele>134.0</ele><time>2026-04-07T14:24:59.044Z</time></trkpt><trkpt lat="43.6281604" lon="10.9261602"><ele>134.0</ele><time>2026-04-07T14:25:00.044Z</time></trkpt><trkpt lat="43.6280788" lon="10.9258404"><ele>133.0</ele><time>2026-04-07T14:25:01.044Z</time></trkpt><trkpt lat="43.6279978" lon="10.9255251"><ele>132.0</ele><time>2026-04-07T14:25:02.044Z</time></trkpt><trkpt lat="43.6279288" lon="10.9252434"><ele>131.33333333333334</ele><time>2026-04-07T14:25:03.044Z</time></trkpt><trkpt lat="43.6278674" lon="10.9249898"><ele>130.66666666666669</ele><time>2026-04-07T14:25:04.044Z</time></trkpt><trkpt lat="43.6278108" lon="10.9247562"><ele>130.0</ele><time>2026-04-07T14:25:05.043Z</time></trkpt><trkpt lat="43.6277467" lon="10.9245121"><ele>130.0</ele><time>2026-04-07T14:25:06.043Z</time></trkpt><trkpt lat="43.6276959" lon="10.9242925"><ele>130.0</ele><time>2026-04-07T14:25:07.044Z</time></trkpt><trkpt lat="43.6276415" lon="10.9240799"><ele>130.0</ele><time>2026-04-07T14:25:08.043Z</time></trkpt><trkpt lat="43.6275792" lon="10.9238785"><ele>131.33333333333334</ele><time>2026-04-07T14:25:09.044Z</time></trkpt><trkpt lat="43.627493" lon="10.9236906"><ele>132.66666666666666</ele><time>2026-04-07T14:25:10.043Z</time></trkpt><trkpt lat="43.6273805" lon="10.9235092"><ele>134.0</ele><time>2026-04-07T14:25:11.044Z</time></trkpt><trkpt lat="43.6272423" lon="10.9233193"><ele>135.66666666666666</ele><time>2026-04-07T14:25:12.043Z</time></trkpt><trkpt lat="43.6271057" lon="10.9231299"><ele>137.33333333333334</ele><time>2026-04-07T14:25:13.043Z</time></trkpt><trkpt lat="43.6269748" lon="10.9229581"><ele>139.0</ele><time>2026-04-07T14:25:14.044Z</time></trkpt><trkpt lat="43.6268576" lon="10.9227988"><ele>140.33333333333334</ele><time>2026-04-07T14:25:15.043Z</time></trkpt><trkpt lat="43.6267555" lon="10.9226318"><ele>141.66666666666666</ele><time>2026-04-07T14:25:16.044Z</time></trkpt><trkpt lat="43.6266775" lon="10.9224451"><ele>143.0</ele><time>2026-04-07T14:25:17.044Z</time></trkpt><trkpt lat="43.6266293" lon="10.9222243"><ele>145.0</ele><time>2026-04-07T14:25:18.043Z</time></trkpt><trkpt lat="43.6266205" lon="10.9219935"><ele>147.0</ele><time>2026-04-07T14:25:19.044Z</time></trkpt><trkpt lat="43.6266202" lon="10.9217418"><ele>149.0</ele><time>2026-04-07T14:25:20.043Z</time></trkpt><trkpt lat="43.626616" lon="10.9215133"><ele>149.25</ele><time>2026-04-07T14:25:21.044Z</time></trkpt><trkpt lat="43.6265878" lon="10.9213134"><ele>149.5</ele><time>2026-04-07T14:25:22.043Z</time></trkpt><trkpt lat="43.6265337" lon="10.9211467"><ele>149.75</ele><time>2026-04-07T14:25:23.044Z</time></trkpt><trkpt lat="43.6264492" lon="10.9210116"><ele>150.0</ele><time>2026-04-07T14:25:24.044Z</time></trkpt><trkpt lat="43.6263302" lon="10.9209078"><ele>149.33333333333334</ele><time>2026-04-07T14:25:25.044Z</time></trkpt><trkpt lat="43.6261817" lon="10.9208422"><ele>148.66666666666669</ele><time>2026-04-07T14:25:26.044Z</time></trkpt><trkpt lat="43.6260329" lon="10.9207804"><ele>148.0</ele><time>2026-04-07T14:25:27.044Z</time></trkpt><trkpt lat="43.6258414" lon="10.9207231"><ele>152.0</ele><time>2026-04-07T14:25:28.044Z</time></trkpt><trkpt lat="43.6256407" lon="10.9206634"><ele>156.0</ele><time>2026-04-07T14:25:29.044Z</time></trkpt><trkpt lat="43.6254466" lon="10.9206032"><ele>160.0</ele><time>2026-04-07T14:25:30.043Z</time></trkpt><trkpt lat="43.625263" lon="10.9205463"><ele>160.66666666666669</ele><time>2026-04-07T14:25:31.044Z</time></trkpt><trkpt lat="43.6250778" lon="10.9204891"><ele>161.33333333333334</ele><time>2026-04-07T14:25:32.044Z</time></trkpt><trkpt lat="43.6248905" lon="10.9204432"><ele>162.0</ele><time>2026-04-07T14:25:33.044Z</time></trkpt><trkpt lat="43.6246923" lon="10.9203839"><ele>162.0</ele><time>2026-04-07T14:25:34.043Z</time></trkpt><trkpt lat="43.6244867" lon="10.9202933"><ele>162.0</ele><time>2026-04-07T14:25:35.044Z</time></trkpt><trkpt lat="43.6242734" lon="10.920169"><ele>162.0</ele><time>2026-04-07T14:25:36.044Z</time></trkpt><trkpt lat="43.6240513" lon="10.9200129"><ele>161.0</ele><time>2026-04-07T14:25:37.044Z</time></trkpt><trkpt lat="43.6238403" lon="10.9198521"><ele>160.0</ele><time>2026-04-07T14:25:38.044Z</time></trkpt><trkpt lat="43.6236512" lon="10.9197047"><ele>160.33333333333334</ele><time>2026-04-07T14:25:39.043Z</time></trkpt><trkpt lat="43.6234748" lon="10.9195701"><ele>160.66666666666666</ele><time>2026-04-07T14:25:40.044Z</time></trkpt><trkpt lat="43.6233135" lon="10.9194334"><ele>161.0</ele><time>2026-04-07T14:25:41.043Z</time></trkpt><trkpt lat="43.6231658" lon="10.9193017"><ele>163.33333333333331</ele><time>2026-04-07T14:25:42.043Z</time></trkpt><trkpt lat="43.6230332" lon="10.9191526"><ele>165.66666666666666</ele><time>2026-04-07T14:25:43.044Z</time></trkpt><trkpt lat="43.6229089" lon="10.9189971"><ele>168.0</ele><time>2026-04-07T14:25:44.044Z</time></trkpt><trkpt lat="43.6228142" lon="10.9188363"><ele>168.33333333333334</ele><time>2026-04-07T14:25:45.044Z</time></trkpt><trkpt lat="43.6226925" lon="10.9186685"><ele>168.66666666666669</ele><time>2026-04-07T14:25:46.044Z</time></trkpt><trkpt lat="43.6225727" lon="10.918508"><ele>169.0</ele><time>2026-04-07T14:25:47.044Z</time></trkpt><trkpt lat="43.6224567" lon="10.9183313"><ele>169.33333333333334</ele><time>2026-04-07T14:25:48.044Z</time></trkpt><trkpt lat="43.6223533" lon="10.9181173"><ele>169.66666666666666</ele><time>2026-04-07T14:25:49.043Z</time></trkpt><trkpt lat="43.6222588" lon="10.9178573"><ele>170.0</ele><time>2026-04-07T14:25:50.044Z</time></trkpt><trkpt lat="43.6221678" lon="10.9175711"><ele>168.0</ele><time>2026-04-07T14:25:51.043Z</time></trkpt><trkpt lat="43.622068" lon="10.9172549"><ele>166.0</ele><time>2026-04-07T14:25:52.043Z</time></trkpt><trkpt lat="43.6219704" lon="10.9169406"><ele>167.66666666666669</ele><time>2026-04-07T14:25:53.044Z</time></trkpt><trkpt lat="43.6218787" lon="10.9166537"><ele>169.33333333333334</ele><time>2026-04-07T14:25:54.044Z</time></trkpt><trkpt lat="43.621794" lon="10.9163885"><ele>171.0</ele><time>2026-04-07T14:25:55.044Z</time></trkpt><trkpt lat="43.6217303" lon="10.9161598"><ele>171.0</ele><time>2026-04-07T14:25:56.044Z</time></trkpt><trkpt lat="43.6216691" lon="10.9159561"><ele>171.0</ele><time>2026-04-07T14:25:57.043Z</time></trkpt><trkpt lat="43.6216117" lon="10.9157776"><ele>171.0</ele><time>2026-04-07T14:25:58.043Z</time></trkpt><trkpt lat="43.6215472" lon="10.9156285"><ele>171.0</ele><time>2026-04-07T14:25:59.044Z</time></trkpt><trkpt lat="43.6214673" lon="10.9155028"><ele>171.0</ele><time>2026-04-07T14:26:00.043Z</time></trkpt><trkpt lat="43.6213665" lon="10.9154093"><ele>171.0</ele><time>2026-04-07T14:26:01.044Z</time></trkpt><trkpt lat="43.621249" lon="10.9153379"><ele>171.0</ele><time>2026-04-07T14:26:02.043Z</time></trkpt><trkpt lat="43.621135" lon="10.9152679"><ele>171.0</ele><time>2026-04-07T14:26:03.044Z</time></trkpt><trkpt lat="43.6210213" lon="10.915218"><ele>171.5</ele><time>2026-04-07T14:26:04.044Z</time></trkpt><trkpt lat="43.6209238" lon="10.9151594"><ele>172.0</ele><time>2026-04-07T14:26:05.044Z</time></trkpt><trkpt lat="43.6208484" lon="10.9150677"><ele>172.5</ele><time>2026-04-07T14:26:06.043Z</time></trkpt><trkpt lat="43.6207825" lon="10.914936"><ele>173.0</ele><time>2026-04-07T14:26:07.044Z</time></trkpt><trkpt lat="43.6207237" lon="10.9147523"><ele>173.0</ele><time>2026-04-07T14:26:08.044Z</time></trkpt><trkpt lat="43.620663" lon="10.9145575"><ele>173.0</ele><time>2026-04-07T14:26:09.044Z</time></trkpt><trkpt lat="43.6205948" lon="10.9143202"><ele>173.0</ele><time>2026-04-07T14:26:10.044Z</time></trkpt><trkpt lat="43.6205227" lon="10.9140572"><ele>170.0</ele><time>2026-04-07T14:26:11.043Z</time></trkpt><trkpt lat="43.6204388" lon="10.9137605"><ele>167.0</ele><time>2026-04-07T14:26:12.044Z</time></trkpt><trkpt lat="43.6203486" lon="10.9134395"><ele>172.0</ele><time>2026-04-07T14:26:13.043Z</time></trkpt><trkpt lat="43.6202585" lon="10.9131174"><ele>177.0</ele><time>2026-04-07T14:26:14.044Z</time></trkpt><trkpt lat="43.6201786" lon="10.9128137"><ele>174.33333333333334</ele><time>2026-04-07T14:26:15.043Z</time></trkpt><trkpt lat="43.6201008" lon="10.9125262"><ele>171.66666666666669</ele><time>2026-04-07T14:26:16.044Z</time></trkpt><trkpt lat="43.6200195" lon="10.9122741"><ele>169.0</ele><time>2026-04-07T14:26:17.043Z</time></trkpt><trkpt lat="43.6199215" lon="10.9120478"><ele>169.0</ele><time>2026-04-07T14:26:18.044Z</time></trkpt><trkpt lat="43.6197976" lon="10.9118336"><ele>169.0</ele><time>2026-04-07T14:26:19.043Z</time></trkpt><trkpt lat="43.6196617" lon="10.9116324"><ele>169.0</ele><time>2026-04-07T14:26:20.043Z</time></trkpt><trkpt lat="43.6195348" lon="10.9114609"><ele>169.75</ele><time>2026-04-07T14:26:21.044Z</time></trkpt><trkpt lat="43.6194217" lon="10.9113339"><ele>170.5</ele><time>2026-04-07T14:26:22.043Z</time></trkpt><trkpt lat="43.6193178" lon="10.9112463"><ele>171.25</ele><time>2026-04-07T14:26:23.044Z</time></trkpt><trkpt lat="43.6192092" lon="10.9111963"><ele>172.0</ele><time>2026-04-07T14:26:24.043Z</time></trkpt><trkpt lat="43.619086" lon="10.9112012"><ele>172.0</ele><time>2026-04-07T14:26:25.043Z</time></trkpt><trkpt lat="43.618941" lon="10.9112448"><ele>172.0</ele><time>2026-04-07T14:26:26.044Z</time></trkpt><trkpt lat="43.6187753" lon="10.9113102"><ele>172.0</ele><time>2026-04-07T14:26:27.044Z</time></trkpt><trkpt lat="43.6185993" lon="10.9113924"><ele>171.0</ele><time>2026-04-07T14:26:28.044Z</time></trkpt><trkpt lat="43.618428" lon="10.9114657"><ele>170.0</ele><time>2026-04-07T14:26:29.044Z</time></trkpt><trkpt lat="43.6182761" lon="10.9115199"><ele>169.0</ele><time>2026-04-07T14:26:30.043Z</time></trkpt><trkpt lat="43.6181324" lon="10.9115455"><ele>169.0</ele><time>2026-04-07T14:26:31.044Z</time></trkpt><trkpt lat="43.6179959" lon="10.9115434"><ele>169.0</ele><time>2026-04-07T14:26:32.044Z</time></trkpt><trkpt lat="43.6178518" lon="10.9114954"><ele>169.0</ele><time>2026-04-07T14:26:33.044Z</time></trkpt><trkpt lat="43.6176971" lon="10.9114043"><ele>167.0</ele><time>2026-04-07T14:26:34.044Z</time></trkpt><trkpt lat="43.6175458" lon="10.9112762"><ele>165.0</ele><time>2026-04-07T14:26:35.043Z</time></trkpt><trkpt lat="43.6173939" lon="10.9111522"><ele>163.0</ele><time>2026-04-07T14:26:36.044Z</time></trkpt><trkpt lat="43.6172515" lon="10.9110354"><ele>163.0</ele><time>2026-04-07T14:26:37.044Z</time></trkpt><trkpt lat="43.6171195" lon="10.9109265"><ele>163.0</ele><time>2026-04-07T14:26:38.044Z</time></trkpt><trkpt lat="43.6169943" lon="10.9108063"><ele>163.0</ele><time>2026-04-07T14:26:39.043Z</time></trkpt><trkpt lat="43.6168673" lon="10.9106589"><ele>158.0</ele><time>2026-04-07T14:26:40.044Z</time></trkpt><trkpt lat="43.6167569" lon="10.9104828"><ele>153.0</ele><time>2026-04-07T14:26:41.044Z</time></trkpt><trkpt lat="43.6166586" lon="10.9103007"><ele>148.0</ele><time>2026-04-07T14:26:42.043Z</time></trkpt><trkpt lat="43.6165753" lon="10.9101443"><ele>148.0</ele><time>2026-04-07T14:26:43.044Z</time></trkpt><trkpt lat="43.6165038" lon="10.9100003"><ele>148.0</ele><time>2026-04-07T14:26:44.043Z</time></trkpt><trkpt lat="43.6164447" lon="10.9098842"><ele>148.0</ele><time>2026-04-07T14:26:45.043Z</time></trkpt><trkpt lat="43.6163893" lon="10.9097986"><ele>148.0</ele><time>2026-04-07T14:26:46.044Z</time></trkpt><trkpt lat="43.6163312" lon="10.9097633"><ele>148.0</ele><time>2026-04-07T14:26:47.044Z</time></trkpt><trkpt lat="43.6162328" lon="10.9098385"><ele>148.0</ele><time>2026-04-07T14:26:49.044Z</time></trkpt><trkpt lat="43.6162277" lon="10.9099453"><ele>148.0</ele><time>2026-04-07T14:26:50.044Z</time></trkpt><trkpt lat="43.6162384" lon="10.9100842"><ele>148.0</ele><time>2026-04-07T14:26:51.044Z</time></trkpt><trkpt lat="43.6162613" lon="10.9102353"><ele>148.0</ele><time>2026-04-07T14:26:52.043Z</time></trkpt><trkpt lat="43.6162744" lon="10.9103783"><ele>148.0</ele><time>2026-04-07T14:26:53.044Z</time></trkpt><trkpt lat="43.6162931" lon="10.9105023"><ele>148.0</ele><time>2026-04-07T14:26:54.044Z</time></trkpt><trkpt lat="43.6163089" lon="10.9106119"><ele>148.0</ele><time>2026-04-07T14:26:55.043Z</time></trkpt><trkpt lat="43.6162448" lon="10.9107265"><ele>148.0</ele><time>2026-04-07T14:26:57.044Z</time></trkpt><trkpt lat="43.6161338" lon="10.9106477"><ele>148.0</ele><time>2026-04-07T14:26:59.044Z</time></trkpt><trkpt lat="43.6160738" lon="10.9105117"><ele>148.0</ele><time>2026-04-07T14:27:00.044Z</time></trkpt><trkpt lat="43.6159983" lon="10.9103414"><ele>143.75</ele><time>2026-04-07T14:27:01.043Z</time></trkpt><trkpt lat="43.6159251" lon="10.9101723"><ele>139.5</ele><time>2026-04-07T14:27:02.043Z</time></trkpt><trkpt lat="43.6158673" lon="10.9100039"><ele>135.25</ele><time>2026-04-07T14:27:03.043Z</time></trkpt><trkpt lat="43.6158297" lon="10.909843"><ele>131.0</ele><time>2026-04-07T14:27:04.043Z</time></trkpt><trkpt lat="43.6158296" lon="10.9096995"><ele>131.0</ele><time>2026-04-07T14:27:05.044Z</time></trkpt><trkpt lat="43.6158246" lon="10.9095742"><ele>131.0</ele><time>2026-04-07T14:27:06.043Z</time></trkpt><trkpt lat="43.6158073" lon="10.9094751"><ele>131.0</ele><time>2026-04-07T14:27:07.043Z</time></trkpt><trkpt lat="43.6157629" lon="10.9094006"><ele>131.0</ele><time>2026-04-07T14:27:08.044Z</time></trkpt><trkpt lat="43.6156929" lon="10.9093662"><ele>131.0</ele><time>2026-04-07T14:27:09.044Z</time></trkpt><trkpt lat="43.6155939" lon="10.9093927"><ele>131.0</ele><time>2026-04-07T14:27:10.044Z</time></trkpt><trkpt lat="43.6154057" lon="10.9094147"><ele>125.75</ele><time>2026-04-07T14:27:11.043Z</time></trkpt><trkpt lat="43.6152809" lon="10.9094809"><ele>120.5</ele><time>2026-04-07T14:27:12.043Z</time></trkpt><trkpt lat="43.615154" lon="10.9095353"><ele>115.25</ele><time>2026-04-07T14:27:13.044Z</time></trkpt><trkpt lat="43.6149963" lon="10.9095332"><ele>110.0</ele><time>2026-04-07T14:27:14.044Z</time></trkpt><trkpt lat="43.6148485" lon="10.9094604"><ele>110.0</ele><time>2026-04-07T14:27:15.044Z</time></trkpt><trkpt lat="43.6146996" lon="10.909435"><ele>110.0</ele><time>2026-04-07T14:27:16.043Z</time></trkpt><trkpt lat="43.6145352" lon="10.9094252"><ele>110.0</ele><time>2026-04-07T14:27:17.044Z</time></trkpt><trkpt lat="43.6143778" lon="10.9094115"><ele>105.75</ele><time>2026-04-07T14:27:18.044Z</time></trkpt><trkpt lat="43.6142273" lon="10.9093779"><ele>101.5</ele><time>2026-04-07T14:27:19.043Z</time></trkpt><trkpt lat="43.6140872" lon="10.9093333"><ele>97.25</ele><time>2026-04-07T14:27:20.043Z</time></trkpt><trkpt lat="43.6139653" lon="10.9092813"><ele>93.0</ele><time>2026-04-07T14:27:21.044Z</time></trkpt><trkpt lat="43.6138724" lon="10.909244"><ele>93.0</ele><time>2026-04-07T14:27:22.044Z</time></trkpt><trkpt lat="43.6137582" lon="10.9092858"><ele>93.0</ele><time>2026-04-07T14:27:23.043Z</time></trkpt><trkpt lat="43.6136735" lon="10.9093501"><ele>93.0</ele><time>2026-04-07T14:27:24.044Z</time></trkpt><trkpt lat="43.6135896" lon="10.9093868"><ele>93.0</ele><time>2026-04-07T14:27:25.043Z</time></trkpt><trkpt lat="43.6135046" lon="10.9093236"><ele>93.0</ele><time>2026-04-07T14:27:27.044Z</time></trkpt><trkpt lat="43.6135757" lon="10.9091783"><ele>95.60000000000001</ele><time>2026-04-07T14:27:29.044Z</time></trkpt><trkpt lat="43.6136703" lon="10.9091116"><ele>98.2</ele><time>2026-04-07T14:27:30.044Z</time></trkpt><trkpt lat="43.6137725" lon="10.9090451"><ele>100.8</ele><time>2026-04-07T14:27:31.044Z</time></trkpt><trkpt lat="43.6139153" lon="10.909006"><ele>103.4</ele><time>2026-04-07T14:27:32.044Z</time></trkpt><trkpt lat="43.6139724" lon="10.9089285"><ele>106.0</ele><time>2026-04-07T14:27:33.043Z</time></trkpt><trkpt lat="43.6140079" lon="10.9088215"><ele>106.0</ele><time>2026-04-07T14:27:34.044Z</time></trkpt><trkpt lat="43.6139914" lon="10.9086899"><ele>106.0</ele><time>2026-04-07T14:27:35.044Z</time></trkpt><trkpt lat="43.613953" lon="10.9085504"><ele>106.0</ele><time>2026-04-07T14:27:36.043Z</time></trkpt><trkpt lat="43.6139128" lon="10.908411"><ele>106.0</ele><time>2026-04-07T14:27:37.044Z</time></trkpt><trkpt lat="43.6138519" lon="10.9082932"><ele>106.0</ele><time>2026-04-07T14:27:38.044Z</time></trkpt><trkpt lat="43.6137534" lon="10.9082053"><ele>99.5</ele><time>2026-04-07T14:27:39.044Z</time></trkpt><trkpt lat="43.6136415" lon="10.9081733"><ele>93.0</ele><time>2026-04-07T14:27:40.044Z</time></trkpt><trkpt lat="43.6135026" lon="10.9081564"><ele>86.5</ele><time>2026-04-07T14:27:41.044Z</time></trkpt><trkpt lat="43.6133802" lon="10.9081513"><ele>80.0</ele><time>2026-04-07T14:27:42.044Z</time></trkpt><trkpt lat="43.6132572" lon="10.9081509"><ele>80.0</ele><time>2026-04-07T14:27:43.043Z</time></trkpt><trkpt lat="43.6131481" lon="10.9081417"><ele>80.0</ele><time>2026-04-07T14:27:44.044Z</time></trkpt><trkpt lat="43.6130328" lon="10.908127"><ele>80.0</ele><time>2026-04-07T14:27:45.044Z</time></trkpt><trkpt lat="43.612948" lon="10.9081213"><ele>80.0</ele><time>2026-04-07T14:27:46.044Z</time></trkpt><trkpt lat="43.6128814" lon="10.9081024"><ele>80.0</ele><time>2026-04-07T14:27:47.043Z</time></trkpt><trkpt lat="43.6128131" lon="10.9080226"><ele>80.0</ele><time>2026-04-07T14:27:49.043Z</time></trkpt><trkpt lat="43.6128029" lon="10.907923"><ele>80.0</ele><time>2026-04-07T14:27:51.044Z</time></trkpt><trkpt lat="43.6128373" lon="10.9078418"><ele>80.0</ele><time>2026-04-07T14:27:52.044Z</time></trkpt><trkpt lat="43.6128887" lon="10.9077238"><ele>80.0</ele><time>2026-04-07T14:27:53.044Z</time></trkpt><trkpt lat="43.6129391" lon="10.9075938"><ele>80.0</ele><time>2026-04-07T14:27:54.044Z</time></trkpt><trkpt lat="43.61299" lon="10.9074623"><ele>78.5</ele><time>2026-04-07T14:27:55.044Z</time></trkpt><trkpt lat="43.6130523" lon="10.9073104"><ele>77.0</ele><time>2026-04-07T14:27:56.044Z</time></trkpt><trkpt lat="43.6131254" lon="10.9071325"><ele>75.5</ele><time>2026-04-07T14:27:57.043Z</time></trkpt><trkpt lat="43.6132067" lon="10.9069337"><ele>74.0</ele><time>2026-04-07T14:27:58.043Z</time></trkpt><trkpt lat="43.6132915" lon="10.9067223"><ele>74.0</ele><time>2026-04-07T14:27:59.044Z</time></trkpt><trkpt lat="43.6133766" lon="10.9065147"><ele>74.0</ele><time>2026-04-07T14:28:00.043Z</time></trkpt><trkpt lat="43.6134617" lon="10.9063001"><ele>74.0</ele><time>2026-04-07T14:28:01.043Z</time></trkpt><trkpt lat="43.6135517" lon="10.9060807"><ele>73.0</ele><time>2026-04-07T14:28:02.043Z</time></trkpt><trkpt lat="43.6136494" lon="10.9058446"><ele>72.0</ele><time>2026-04-07T14:28:03.044Z</time></trkpt><trkpt lat="43.6137497" lon="10.9055985"><ele>71.0</ele><time>2026-04-07T14:28:04.044Z</time></trkpt><trkpt lat="43.6138491" lon="10.9053558"><ele>71.66666666666667</ele><time>2026-04-07T14:28:05.044Z</time></trkpt><trkpt lat="43.6139501" lon="10.905116"><ele>72.33333333333333</ele><time>2026-04-07T14:28:06.043Z</time></trkpt><trkpt lat="43.6140559" lon="10.9048852"><ele>73.0</ele><time>2026-04-07T14:28:07.044Z</time></trkpt><trkpt lat="43.6141664" lon="10.9046683"><ele>73.0</ele><time>2026-04-07T14:28:08.043Z</time></trkpt><trkpt lat="43.6142888" lon="10.9044553"><ele>73.0</ele><time>2026-04-07T14:28:09.044Z</time></trkpt><trkpt lat="43.6144169" lon="10.9042449"><ele>73.0</ele><time>2026-04-07T14:28:10.044Z</time></trkpt><trkpt lat="43.6145543" lon="10.9040338"><ele>76.5</ele><time>2026-04-07T14:28:11.044Z</time></trkpt><trkpt lat="43.6147086" lon="10.9038138"><ele>80.0</ele><time>2026-04-07T14:28:12.043Z</time></trkpt><trkpt lat="43.6148692" lon="10.9035786"><ele>75.0</ele><time>2026-04-07T14:28:13.044Z</time></trkpt><trkpt lat="43.6150315" lon="10.9033367"><ele>70.0</ele><time>2026-04-07T14:28:14.043Z</time></trkpt><trkpt lat="43.6151997" lon="10.9030922"><ele>72.0</ele><time>2026-04-07T14:28:15.044Z</time></trkpt><trkpt lat="43.6153792" lon="10.9028376"><ele>74.0</ele><time>2026-04-07T14:28:16.044Z</time></trkpt><trkpt lat="43.6155547" lon="10.9025772"><ele>74.0</ele><time>2026-04-07T14:28:17.044Z</time></trkpt><trkpt lat="43.6157173" lon="10.902343"><ele>74.0</ele><time>2026-04-07T14:28:18.043Z</time></trkpt><trkpt lat="43.6158661" lon="10.9021241"><ele>74.0</ele><time>2026-04-07T14:28:19.044Z</time></trkpt><trkpt lat="43.6160117" lon="10.9019121"><ele>74.0</ele><time>2026-04-07T14:28:20.044Z</time></trkpt><trkpt lat="43.6161737" lon="10.9017018"><ele>74.0</ele><time>2026-04-07T14:28:21.044Z</time></trkpt><trkpt lat="43.616356" lon="10.9015097"><ele>74.0</ele><time>2026-04-07T14:28:22.043Z</time></trkpt><trkpt lat="43.6165508" lon="10.9013151"><ele>74.0</ele><time>2026-04-07T14:28:23.043Z</time></trkpt><trkpt lat="43.6167564" lon="10.9010939"><ele>70.5</ele><time>2026-04-07T14:28:24.043Z</time></trkpt><trkpt lat="43.6169625" lon="10.9008421"><ele>67.0</ele><time>2026-04-07T14:28:25.043Z</time></trkpt><trkpt lat="43.617134" lon="10.9006106"><ele>76.5</ele><time>2026-04-07T14:28:26.044Z</time></trkpt><trkpt lat="43.6172951" lon="10.9003745"><ele>86.0</ele><time>2026-04-07T14:28:27.044Z</time></trkpt><trkpt lat="43.6174674" lon="10.900127"><ele>79.5</ele><time>2026-04-07T14:28:28.044Z</time></trkpt><trkpt lat="43.6176541" lon="10.8998651"><ele>73.0</ele><time>2026-04-07T14:28:29.043Z</time></trkpt><trkpt lat="43.6178473" lon="10.8995853"><ele>73.0</ele><time>2026-04-07T14:28:30.044Z</time></trkpt><trkpt lat="43.6180363" lon="10.8993125"><ele>73.0</ele><time>2026-04-07T14:28:31.044Z</time></trkpt><trkpt lat="43.6182209" lon="10.8990451"><ele>70.0</ele><time>2026-04-07T14:28:32.043Z</time></trkpt><trkpt lat="43.6183932" lon="10.8988027"><ele>67.0</ele><time>2026-04-07T14:28:33.044Z</time></trkpt><trkpt lat="43.6185511" lon="10.8985842"><ele>68.33333333333333</ele><time>2026-04-07T14:28:34.043Z</time></trkpt><trkpt lat="43.6186921" lon="10.898382"><ele>69.66666666666667</ele><time>2026-04-07T14:28:35.044Z</time></trkpt><trkpt lat="43.6188162" lon="10.8981752"><ele>71.0</ele><time>2026-04-07T14:28:36.044Z</time></trkpt><trkpt lat="43.618915" lon="10.8979499"><ele>71.0</ele><time>2026-04-07T14:28:37.044Z</time></trkpt><trkpt lat="43.6189799" lon="10.8976917"><ele>71.0</ele><time>2026-04-07T14:28:38.044Z</time></trkpt><trkpt lat="43.6190218" lon="10.8974008"><ele>71.0</ele><time>2026-04-07T14:28:39.043Z</time></trkpt><trkpt lat="43.6190606" lon="10.8970778"><ele>72.5</ele><time>2026-04-07T14:28:40.043Z</time></trkpt><trkpt lat="43.6190965" lon="10.8967436"><ele>74.0</ele><time>2026-04-07T14:28:41.044Z</time></trkpt><trkpt lat="43.6191276" lon="10.8964239"><ele>74.0</ele><time>2026-04-07T14:28:42.044Z</time></trkpt><trkpt lat="43.6191578" lon="10.8961232"><ele>74.0</ele><time>2026-04-07T14:28:43.044Z</time></trkpt><trkpt lat="43.6191876" lon="10.8958234"><ele>74.0</ele><time>2026-04-07T14:28:44.044Z</time></trkpt><trkpt lat="43.6192203" lon="10.8955176"><ele>74.0</ele><time>2026-04-07T14:28:45.043Z</time></trkpt><trkpt lat="43.6192754" lon="10.8951934"><ele>74.0</ele><time>2026-04-07T14:28:46.044Z</time></trkpt><trkpt lat="43.6193529" lon="10.8948487"><ele>72.0</ele><time>2026-04-07T14:28:47.044Z</time></trkpt><trkpt lat="43.6194477" lon="10.8944707"><ele>70.0</ele><time>2026-04-07T14:28:48.044Z</time></trkpt><trkpt lat="43.6195548" lon="10.8940649"><ele>67.5</ele><time>2026-04-07T14:28:49.044Z</time></trkpt><trkpt lat="43.6196668" lon="10.8936464"><ele>65.0</ele><time>2026-04-07T14:28:50.043Z</time></trkpt><trkpt lat="43.6197757" lon="10.8932481"><ele>65.0</ele><time>2026-04-07T14:28:51.044Z</time></trkpt><trkpt lat="43.6198776" lon="10.8928662"><ele>65.0</ele><time>2026-04-07T14:28:52.043Z</time></trkpt><trkpt lat="43.619972" lon="10.8925116"><ele>64.0</ele><time>2026-04-07T14:28:53.043Z</time></trkpt><trkpt lat="43.6200608" lon="10.8921791"><ele>63.0</ele><time>2026-04-07T14:28:54.044Z</time></trkpt><trkpt lat="43.6201427" lon="10.8918439"><ele>63.5</ele><time>2026-04-07T14:28:55.044Z</time></trkpt><trkpt lat="43.6202165" lon="10.8914784"><ele>64.0</ele><time>2026-04-07T14:28:56.044Z</time></trkpt><trkpt lat="43.6202694" lon="10.8911013"><ele>62.5</ele><time>2026-04-07T14:28:57.043Z</time></trkpt><trkpt lat="43.620315" lon="10.8907408"><ele>61.0</ele><time>2026-04-07T14:28:58.044Z</time></trkpt><trkpt lat="43.6203593" lon="10.8904275"><ele>64.0</ele><time>2026-04-07T14:28:59.044Z</time></trkpt><trkpt lat="43.6204066" lon="10.8901444"><ele>67.0</ele><time>2026-04-07T14:29:00.044Z</time></trkpt><trkpt lat="43.6204701" lon="10.8898913"><ele>70.0</ele><time>2026-04-07T14:29:01.043Z</time></trkpt><trkpt lat="43.6205533" lon="10.8896455"><ele>70.66666666666666</ele><time>2026-04-07T14:29:02.044Z</time></trkpt><trkpt lat="43.6206484" lon="10.8893978"><ele>71.33333333333333</ele><time>2026-04-07T14:29:03.044Z</time></trkpt><trkpt lat="43.6207518" lon="10.8891311"><ele>72.0</ele><time>2026-04-07T14:29:04.044Z</time></trkpt><trkpt lat="43.6208637" lon="10.888849"><ele>72.0</ele><time>2026-04-07T14:29:05.043Z</time></trkpt><trkpt lat="43.6209797" lon="10.8885554"><ele>72.0</ele><time>2026-04-07T14:29:06.044Z</time></trkpt><trkpt lat="43.621098" lon="10.8882537"><ele>78.5</ele><time>2026-04-07T14:29:07.044Z</time></trkpt><trkpt lat="43.6212148" lon="10.8879519"><ele>85.0</ele><time>2026-04-07T14:29:08.044Z</time></trkpt><trkpt lat="43.6213276" lon="10.8876626"><ele>81.66666666666666</ele><time>2026-04-07T14:29:09.044Z</time></trkpt><trkpt lat="43.6214352" lon="10.8873889"><ele>78.33333333333333</ele><time>2026-04-07T14:29:10.044Z</time></trkpt><trkpt lat="43.6215373" lon="10.887135"><ele>75.0</ele><time>2026-04-07T14:29:11.043Z</time></trkpt><trkpt lat="43.6216334" lon="10.8868851"><ele>72.66666666666667</ele><time>2026-04-07T14:29:12.044Z</time></trkpt><trkpt lat="43.6217176" lon="10.8866503"><ele>70.33333333333334</ele><time>2026-04-07T14:29:13.044Z</time></trkpt><trkpt lat="43.6217824" lon="10.8864156"><ele>68.0</ele><time>2026-04-07T14:29:14.044Z</time></trkpt><trkpt lat="43.621823" lon="10.8861715"><ele>68.0</ele><time>2026-04-07T14:29:15.044Z</time></trkpt><trkpt lat="43.6218289" lon="10.8859142"><ele>68.0</ele><time>2026-04-07T14:29:16.044Z</time></trkpt><trkpt lat="43.6218067" lon="10.8856514"><ele>68.0</ele><time>2026-04-07T14:29:17.044Z</time></trkpt><trkpt lat="43.6217643" lon="10.885389"><ele>68.0</ele><time>2026-04-07T14:29:18.044Z</time></trkpt><trkpt lat="43.6216858" lon="10.8851197"><ele>68.0</ele><time>2026-04-07T14:29:19.044Z</time></trkpt><trkpt lat="43.6215788" lon="10.8848288"><ele>68.0</ele><time>2026-04-07T14:29:20.044Z</time></trkpt><trkpt lat="43.6214615" lon="10.8845205"><ele>65.0</ele><time>2026-04-07T14:29:21.043Z</time></trkpt><trkpt lat="43.6213415" lon="10.8841965"><ele>62.0</ele><time>2026-04-07T14:29:22.044Z</time></trkpt><trkpt lat="43.6212148" lon="10.8838573"><ele>62.0</ele><time>2026-04-07T14:29:23.043Z</time></trkpt><trkpt lat="43.6210792" lon="10.8834986"><ele>62.0</ele><time>2026-04-07T14:29:24.044Z</time></trkpt><trkpt lat="43.6209374" lon="10.8831286"><ele>62.0</ele><time>2026-04-07T14:29:25.044Z</time></trkpt><trkpt lat="43.6208046" lon="10.8827799"><ele>62.0</ele><time>2026-04-07T14:29:26.044Z</time></trkpt><trkpt lat="43.6206785" lon="10.8824481"><ele>60.5</ele><time>2026-04-07T14:29:27.044Z</time></trkpt><trkpt lat="43.6205575" lon="10.882134"><ele>59.0</ele><time>2026-04-07T14:29:28.044Z</time></trkpt><trkpt lat="43.6204416" lon="10.8818247"><ele>59.0</ele><time>2026-04-07T14:29:29.043Z</time></trkpt><trkpt lat="43.6203378" lon="10.8815405"><ele>59.0</ele><time>2026-04-07T14:29:30.044Z</time></trkpt><trkpt lat="43.6202379" lon="10.8812633"><ele>59.5</ele><time>2026-04-07T14:29:31.044Z</time></trkpt><trkpt lat="43.6201253" lon="10.8809772"><ele>60.0</ele><time>2026-04-07T14:29:32.044Z</time></trkpt><trkpt lat="43.6200227" lon="10.8806852"><ele>60.5</ele><time>2026-04-07T14:29:33.043Z</time></trkpt><trkpt lat="43.6199214" lon="10.8803695"><ele>61.0</ele><time>2026-04-07T14:29:34.044Z</time></trkpt><trkpt lat="43.6198151" lon="10.8800455"><ele>60.0</ele><time>2026-04-07T14:29:35.044Z</time></trkpt><trkpt lat="43.6197149" lon="10.8797197"><ele>59.0</ele><time>2026-04-07T14:29:36.043Z</time></trkpt><trkpt lat="43.6196197" lon="10.8794027"><ele>59.0</ele><time>2026-04-07T14:29:37.044Z</time></trkpt><trkpt lat="43.6195243" lon="10.879106"><ele>59.0</ele><time>2026-04-07T14:29:38.044Z</time></trkpt><trkpt lat="43.6194327" lon="10.878815"><ele>59.0</ele><time>2026-04-07T14:29:39.044Z</time></trkpt><trkpt lat="43.6193429" lon="10.8785125"><ele>59.0</ele><time>2026-04-07T14:29:40.044Z</time></trkpt><trkpt lat="43.6192453" lon="10.8781962"><ele>59.0</ele><time>2026-04-07T14:29:41.044Z</time></trkpt><trkpt lat="43.6191456" lon="10.8778833"><ele>59.0</ele><time>2026-04-07T14:29:42.044Z</time></trkpt><trkpt lat="43.6190287" lon="10.8775788"><ele>58.0</ele><time>2026-04-07T14:29:43.043Z</time></trkpt><trkpt lat="43.6189056" lon="10.8772998"><ele>57.0</ele><time>2026-04-07T14:29:44.044Z</time></trkpt><trkpt lat="43.6187794" lon="10.8770583"><ele>58.33333333333333</ele><time>2026-04-07T14:29:45.043Z</time></trkpt><trkpt lat="43.6186507" lon="10.876842"><ele>59.666666666666664</ele><time>2026-04-07T14:29:46.044Z</time></trkpt><trkpt lat="43.6185138" lon="10.8766537"><ele>61.0</ele><time>2026-04-07T14:29:47.044Z</time></trkpt><trkpt lat="43.618357" lon="10.8764703"><ele>61.0</ele><time>2026-04-07T14:29:48.044Z</time></trkpt><trkpt lat="43.6181872" lon="10.8762789"><ele>61.0</ele><time>2026-04-07T14:29:49.043Z</time></trkpt><trkpt lat="43.6180212" lon="10.876088"><ele>61.0</ele><time>2026-04-07T14:29:50.044Z</time></trkpt><trkpt lat="43.6178596" lon="10.8759203"><ele>60.33333333333333</ele><time>2026-04-07T14:29:51.043Z</time></trkpt><trkpt lat="43.6177272" lon="10.8757648"><ele>59.66666666666667</ele><time>2026-04-07T14:29:52.044Z</time></trkpt><trkpt lat="43.6176098" lon="10.8756092"><ele>59.0</ele><time>2026-04-07T14:29:53.044Z</time></trkpt><trkpt lat="43.617513" lon="10.8754578"><ele>59.0</ele><time>2026-04-07T14:29:54.044Z</time></trkpt><trkpt lat="43.6174371" lon="10.8753065"><ele>59.0</ele><time>2026-04-07T14:29:55.043Z</time></trkpt><trkpt lat="43.6173492" lon="10.8751405"><ele>59.0</ele><time>2026-04-07T14:29:56.044Z</time></trkpt><trkpt lat="43.6172558" lon="10.8749543"><ele>59.0</ele><time>2026-04-07T14:29:57.044Z</time></trkpt><trkpt lat="43.6171689" lon="10.8747732"><ele>59.0</ele><time>2026-04-07T14:29:58.044Z</time></trkpt><trkpt lat="43.6170911" lon="10.8746059"><ele>59.0</ele><time>2026-04-07T14:29:59.044Z</time></trkpt><trkpt lat="43.617025" lon="10.8744567"><ele>59.0</ele><time>2026-04-07T14:30:00.043Z</time></trkpt><trkpt lat="43.6169618" lon="10.8743361"><ele>59.0</ele><time>2026-04-07T14:30:01.044Z</time></trkpt><trkpt lat="43.6169188" lon="10.8742316"><ele>59.00000000000001</ele><time>2026-04-07T14:30:02.044Z</time></trkpt><trkpt lat="43.6168874" lon="10.874145"><ele>59.0</ele><time>2026-04-07T14:30:03.044Z</time></trkpt><trkpt lat="43.616856" lon="10.8740483"><ele>59.0</ele><time>2026-04-07T14:30:05.044Z</time></trkpt><trkpt lat="43.6167631" lon="10.8740281"><ele>59.0</ele><time>2026-04-07T14:30:09.043Z</time></trkpt><trkpt lat="43.6167079" lon="10.874085"><ele>59.00000000000001</ele><time>2026-04-07T14:30:10.044Z</time></trkpt><trkpt lat="43.6166471" lon="10.8741757"><ele>59.0</ele><time>2026-04-07T14:30:11.044Z</time></trkpt><trkpt lat="43.6165765" lon="10.8742799"><ele>59.5</ele><time>2026-04-07T14:30:12.043Z</time></trkpt><trkpt lat="43.616502" lon="10.8743775"><ele>60.0</ele><time>2026-04-07T14:30:13.044Z</time></trkpt><trkpt lat="43.6164182" lon="10.8744855"><ele>60.5</ele><time>2026-04-07T14:30:14.044Z</time></trkpt><trkpt lat="43.6163206" lon="10.8746095"><ele>61.0</ele><time>2026-04-07T14:30:15.044Z</time></trkpt><trkpt lat="43.6162129" lon="10.8747454"><ele>61.0</ele><time>2026-04-07T14:30:16.043Z</time></trkpt><trkpt lat="43.6161075" lon="10.8748791"><ele>61.0</ele><time>2026-04-07T14:30:17.043Z</time></trkpt><trkpt lat="43.6159985" lon="10.8750195"><ele>61.0</ele><time>2026-04-07T14:30:18.044Z</time></trkpt><trkpt lat="43.6158767" lon="10.8751738"><ele>61.0</ele><time>2026-04-07T14:30:19.044Z</time></trkpt><trkpt lat="43.6157376" lon="10.8753478"><ele>61.0</ele><time>2026-04-07T14:30:20.044Z</time></trkpt><trkpt lat="43.6156107" lon="10.8755193"><ele>61.0</ele><time>2026-04-07T14:30:21.044Z</time></trkpt><trkpt lat="43.6154925" lon="10.8756779"><ele>61.0</ele><time>2026-04-07T14:30:22.044Z</time></trkpt><trkpt lat="43.6153756" lon="10.8758235"><ele>61.0</ele><time>2026-04-07T14:30:23.044Z</time></trkpt><trkpt lat="43.6152541" lon="10.8759663"><ele>61.0</ele><time>2026-04-07T14:30:24.044Z</time></trkpt><trkpt lat="43.615112" lon="10.8760995"><ele>61.33333333333333</ele><time>2026-04-07T14:30:25.043Z</time></trkpt><trkpt lat="43.614939" lon="10.876216"><ele>61.66666666666667</ele><time>2026-04-07T14:30:26.044Z</time></trkpt><trkpt lat="43.6147616" lon="10.8763481"><ele>62.0</ele><time>2026-04-07T14:30:27.044Z</time></trkpt><trkpt lat="43.6145608" lon="10.8765085"><ele>61.5</ele><time>2026-04-07T14:30:28.044Z</time></trkpt><trkpt lat="43.6143109" lon="10.8767001"><ele>61.0</ele><time>2026-04-07T14:30:29.044Z</time></trkpt><trkpt lat="43.6140486" lon="10.8768924"><ele>61.0</ele><time>2026-04-07T14:30:30.044Z</time></trkpt><trkpt lat="43.6137862" lon="10.8770856"><ele>61.0</ele><time>2026-04-07T14:30:31.044Z</time></trkpt><trkpt lat="43.6135178" lon="10.8772778"><ele>61.5</ele><time>2026-04-07T14:30:32.044Z</time></trkpt><trkpt lat="43.6132426" lon="10.8774788"><ele>62.0</ele><time>2026-04-07T14:30:33.044Z</time></trkpt><trkpt lat="43.6129605" lon="10.8776948"><ele>61.0</ele><time>2026-04-07T14:30:34.043Z</time></trkpt><trkpt lat="43.6126797" lon="10.8778924"><ele>60.0</ele><time>2026-04-07T14:30:35.044Z</time></trkpt><trkpt lat="43.6124183" lon="10.8780714"><ele>60.0</ele><time>2026-04-07T14:30:36.043Z</time></trkpt><trkpt lat="43.6121635" lon="10.8782399"><ele>60.0</ele><time>2026-04-07T14:30:37.044Z</time></trkpt><trkpt lat="43.6119159" lon="10.8784182"><ele>60.5</ele><time>2026-04-07T14:30:38.044Z</time></trkpt><trkpt lat="43.6116601" lon="10.8785687"><ele>61.0</ele><time>2026-04-07T14:30:39.043Z</time></trkpt><trkpt lat="43.6114" lon="10.8787199"><ele>61.0</ele><time>2026-04-07T14:30:40.044Z</time></trkpt><trkpt lat="43.6111632" lon="10.8788474"><ele>61.0</ele><time>2026-04-07T14:30:41.044Z</time></trkpt><trkpt lat="43.610943" lon="10.8789636"><ele>61.0</ele><time>2026-04-07T14:30:42.044Z</time></trkpt><trkpt lat="43.610732" lon="10.8790979"><ele>61.0</ele><time>2026-04-07T14:30:43.044Z</time></trkpt><trkpt lat="43.6105434" lon="10.8792359"><ele>61.0</ele><time>2026-04-07T14:30:44.044Z</time></trkpt><trkpt lat="43.6103553" lon="10.8793763"><ele>66.33333333333333</ele><time>2026-04-07T14:30:45.044Z</time></trkpt><trkpt lat="43.6101568" lon="10.8795047"><ele>71.66666666666667</ele><time>2026-04-07T14:30:46.044Z</time></trkpt><trkpt lat="43.60995" lon="10.8796208"><ele>77.0</ele><time>2026-04-07T14:30:47.043Z</time></trkpt><trkpt lat="43.6097322" lon="10.8797127"><ele>77.0</ele><time>2026-04-07T14:30:48.044Z</time></trkpt><trkpt lat="43.6094965" lon="10.8797581"><ele>77.0</ele><time>2026-04-07T14:30:49.043Z</time></trkpt><trkpt lat="43.6092545" lon="10.8797857"><ele>72.5</ele><time>2026-04-07T14:30:50.044Z</time></trkpt><trkpt lat="43.6089858" lon="10.8797692"><ele>68.0</ele><time>2026-04-07T14:30:51.044Z</time></trkpt><trkpt lat="43.608733" lon="10.8797377"><ele>72.0</ele><time>2026-04-07T14:30:52.044Z</time></trkpt><trkpt lat="43.6084853" lon="10.8797045"><ele>76.0</ele><time>2026-04-07T14:30:53.043Z</time></trkpt><trkpt lat="43.6082617" lon="10.8796636"><ele>76.0</ele><time>2026-04-07T14:30:54.044Z</time></trkpt><trkpt lat="43.6080433" lon="10.8796222"><ele>76.0</ele><time>2026-04-07T14:30:55.043Z</time></trkpt><trkpt lat="43.6078443" lon="10.8795748"><ele>76.0</ele><time>2026-04-07T14:30:56.043Z</time></trkpt><trkpt lat="43.6076494" lon="10.8795031"><ele>73.0</ele><time>2026-04-07T14:30:57.044Z</time></trkpt><trkpt lat="43.6074532" lon="10.8794035"><ele>70.0</ele><time>2026-04-07T14:30:58.044Z</time></trkpt><trkpt lat="43.6072799" lon="10.8792765"><ele>67.0</ele><time>2026-04-07T14:30:59.043Z</time></trkpt><trkpt lat="43.6071185" lon="10.8791365"><ele>66.0</ele><time>2026-04-07T14:31:00.044Z</time></trkpt><trkpt lat="43.6069325" lon="10.8789854"><ele>65.0</ele><time>2026-04-07T14:31:01.044Z</time></trkpt><trkpt lat="43.6067242" lon="10.8788298"><ele>65.0</ele><time>2026-04-07T14:31:02.044Z</time></trkpt><trkpt lat="43.6064972" lon="10.8786514"><ele>65.0</ele><time>2026-04-07T14:31:03.044Z</time></trkpt><trkpt lat="43.6062776" lon="10.8784611"><ele>67.0</ele><time>2026-04-07T14:31:04.044Z</time></trkpt><trkpt lat="43.606076" lon="10.8782872"><ele>69.0</ele><time>2026-04-07T14:31:05.044Z</time></trkpt><trkpt lat="43.6058838" lon="10.8781277"><ele>69.0</ele><time>2026-04-07T14:31:06.044Z</time></trkpt><trkpt lat="43.6056991" lon="10.8779764"><ele>69.0</ele><time>2026-04-07T14:31:07.044Z</time></trkpt><trkpt lat="43.6055227" lon="10.8778372"><ele>69.0</ele><time>2026-04-07T14:31:08.044Z</time></trkpt><trkpt lat="43.6053587" lon="10.8777262"><ele>69.33333333333333</ele><time>2026-04-07T14:31:09.044Z</time></trkpt><trkpt lat="43.6051974" lon="10.8776465"><ele>69.66666666666666</ele><time>2026-04-07T14:31:10.044Z</time></trkpt><trkpt lat="43.6050233" lon="10.8776027"><ele>70.0</ele><time>2026-04-07T14:31:11.043Z</time></trkpt><trkpt lat="43.6048242" lon="10.8776114"><ele>70.0</ele><time>2026-04-07T14:31:12.044Z</time></trkpt><trkpt lat="43.6046198" lon="10.877666"><ele>70.0</ele><time>2026-04-07T14:31:13.044Z</time></trkpt><trkpt lat="43.6044012" lon="10.877741"><ele>70.0</ele><time>2026-04-07T14:31:14.044Z</time></trkpt><trkpt lat="43.6041732" lon="10.8778146"><ele>69.5</ele><time>2026-04-07T14:31:15.044Z</time></trkpt><trkpt lat="43.6039446" lon="10.8778891"><ele>69.0</ele><time>2026-04-07T14:31:16.043Z</time></trkpt><trkpt lat="43.6037122" lon="10.8779661"><ele>67.5</ele><time>2026-04-07T14:31:17.044Z</time></trkpt><trkpt lat="43.6034745" lon="10.8780135"><ele>66.0</ele><time>2026-04-07T14:31:18.044Z</time></trkpt><trkpt lat="43.6032261" lon="10.8780222"><ele>66.0</ele><time>2026-04-07T14:31:19.044Z</time></trkpt><trkpt lat="43.6029778" lon="10.8780249"><ele>66.0</ele><time>2026-04-07T14:31:20.043Z</time></trkpt><trkpt lat="43.6027384" lon="10.8780158"><ele>66.66666666666667</ele><time>2026-04-07T14:31:21.043Z</time></trkpt><trkpt lat="43.6025041" lon="10.8780099"><ele>67.33333333333334</ele><time>2026-04-07T14:31:22.043Z</time></trkpt><trkpt lat="43.6022931" lon="10.8780032"><ele>68.0</ele><time>2026-04-07T14:31:23.044Z</time></trkpt><trkpt lat="43.6020925" lon="10.8779898"><ele>68.0</ele><time>2026-04-07T14:31:24.044Z</time></trkpt><trkpt lat="43.6018782" lon="10.8779793"><ele>68.0</ele><time>2026-04-07T14:31:25.043Z</time></trkpt><trkpt lat="43.6016472" lon="10.8779537"><ele>68.0</ele><time>2026-04-07T14:31:26.044Z</time></trkpt><trkpt lat="43.6014134" lon="10.8779348"><ele>68.0</ele><time>2026-04-07T14:31:27.044Z</time></trkpt><trkpt lat="43.6011798" lon="10.8779041"><ele>68.0</ele><time>2026-04-07T14:31:28.043Z</time></trkpt><trkpt lat="43.6009593" lon="10.8778891"><ele>68.66666666666667</ele><time>2026-04-07T14:31:29.044Z</time></trkpt><trkpt lat="43.6007429" lon="10.8778894"><ele>69.33333333333333</ele><time>2026-04-07T14:31:30.044Z</time></trkpt><trkpt lat="43.6005307" lon="10.8779054"><ele>70.0</ele><time>2026-04-07T14:31:31.044Z</time></trkpt><trkpt lat="43.6003302" lon="10.8779351"><ele>70.33333333333333</ele><time>2026-04-07T14:31:32.043Z</time></trkpt><trkpt lat="43.6001283" lon="10.8780054"><ele>70.66666666666667</ele><time>2026-04-07T14:31:33.044Z</time></trkpt><trkpt lat="43.5999181" lon="10.8780935"><ele>71.0</ele><time>2026-04-07T14:31:34.044Z</time></trkpt><trkpt lat="43.5996955" lon="10.8781904"><ele>71.0</ele><time>2026-04-07T14:31:35.044Z</time></trkpt><trkpt lat="43.5994753" lon="10.8782864"><ele>71.0</ele><time>2026-04-07T14:31:36.044Z</time></trkpt><trkpt lat="43.5992684" lon="10.8783743"><ele>71.0</ele><time>2026-04-07T14:31:37.044Z</time></trkpt><trkpt lat="43.5990662" lon="10.8784695"><ele>70.33333333333334</ele><time>2026-04-07T14:31:38.043Z</time></trkpt><trkpt lat="43.5988791" lon="10.8785391"><ele>69.66666666666667</ele><time>2026-04-07T14:31:39.044Z</time></trkpt><trkpt lat="43.5986918" lon="10.8785761"><ele>69.0</ele><time>2026-04-07T14:31:40.044Z</time></trkpt><trkpt lat="43.5984996" lon="10.8785977"><ele>69.0</ele><time>2026-04-07T14:31:41.043Z</time></trkpt><trkpt lat="43.5983145" lon="10.8785888"><ele>69.0</ele><time>2026-04-07T14:31:42.044Z</time></trkpt><trkpt lat="43.5981395" lon="10.8785455"><ele>69.0</ele><time>2026-04-07T14:31:43.044Z</time></trkpt><trkpt lat="43.5979669" lon="10.8784701"><ele>70.66666666666667</ele><time>2026-04-07T14:31:44.044Z</time></trkpt><trkpt lat="43.5977896" lon="10.8783745"><ele>72.33333333333334</ele><time>2026-04-07T14:31:45.044Z</time></trkpt><trkpt lat="43.5976049" lon="10.8782443"><ele>74.0</ele><time>2026-04-07T14:31:46.044Z</time></trkpt><trkpt lat="43.5974295" lon="10.8781015"><ele>74.0</ele><time>2026-04-07T14:31:47.044Z</time></trkpt><trkpt lat="43.5972712" lon="10.8779464"><ele>74.0</ele><time>2026-04-07T14:31:48.044Z</time></trkpt><trkpt lat="43.5971154" lon="10.8777767"><ele>74.0</ele><time>2026-04-07T14:31:49.044Z</time></trkpt><trkpt lat="43.5969632" lon="10.877586"><ele>75.33333333333334</ele><time>2026-04-07T14:31:50.044Z</time></trkpt><trkpt lat="43.5967919" lon="10.8773819"><ele>76.66666666666667</ele><time>2026-04-07T14:31:51.043Z</time></trkpt><trkpt lat="43.5966409" lon="10.8771944"><ele>78.0</ele><time>2026-04-07T14:31:52.044Z</time></trkpt><trkpt lat="43.5964878" lon="10.8770108"><ele>78.0</ele><time>2026-04-07T14:31:53.044Z</time></trkpt><trkpt lat="43.5963272" lon="10.876819"><ele>78.0</ele><time>2026-04-07T14:31:54.044Z</time></trkpt><trkpt lat="43.5961485" lon="10.8766217"><ele>78.0</ele><time>2026-04-07T14:31:55.044Z</time></trkpt><trkpt lat="43.5959362" lon="10.8764293"><ele>75.5</ele><time>2026-04-07T14:31:56.044Z</time></trkpt><trkpt lat="43.5957388" lon="10.8762369"><ele>73.0</ele><time>2026-04-07T14:31:57.044Z</time></trkpt><trkpt lat="43.5955556" lon="10.8760616"><ele>73.33333333333333</ele><time>2026-04-07T14:31:58.044Z</time></trkpt><trkpt lat="43.5953789" lon="10.8758898"><ele>73.66666666666667</ele><time>2026-04-07T14:31:59.044Z</time></trkpt><trkpt lat="43.5952126" lon="10.8757297"><ele>74.0</ele><time>2026-04-07T14:32:00.044Z</time></trkpt><trkpt lat="43.5950553" lon="10.8755904"><ele>74.0</ele><time>2026-04-07T14:32:01.044Z</time></trkpt><trkpt lat="43.5948802" lon="10.875488"><ele>74.0</ele><time>2026-04-07T14:32:02.044Z</time></trkpt><trkpt lat="43.5947013" lon="10.8753978"><ele>74.0</ele><time>2026-04-07T14:32:03.043Z</time></trkpt><trkpt lat="43.5944965" lon="10.8753064"><ele>75.5</ele><time>2026-04-07T14:32:04.044Z</time></trkpt><trkpt lat="43.5942632" lon="10.8752077"><ele>77.0</ele><time>2026-04-07T14:32:05.044Z</time></trkpt><trkpt lat="43.5940057" lon="10.8750974"><ele>77.0</ele><time>2026-04-07T14:32:06.043Z</time></trkpt><trkpt lat="43.5937529" lon="10.8749958"><ele>77.0</ele><time>2026-04-07T14:32:07.043Z</time></trkpt><trkpt lat="43.593495" lon="10.8748991"><ele>76.5</ele><time>2026-04-07T14:32:08.044Z</time></trkpt><trkpt lat="43.5932253" lon="10.874791"><ele>76.0</ele><time>2026-04-07T14:32:09.043Z</time></trkpt><trkpt lat="43.5929494" lon="10.8746844"><ele>77.0</ele><time>2026-04-07T14:32:10.043Z</time></trkpt><trkpt lat="43.5926767" lon="10.8745674"><ele>78.0</ele><time>2026-04-07T14:32:11.044Z</time></trkpt><trkpt lat="43.5924175" lon="10.8744619"><ele>78.0</ele><time>2026-04-07T14:32:12.044Z</time></trkpt><trkpt lat="43.5921723" lon="10.8743599"><ele>78.0</ele><time>2026-04-07T14:32:13.044Z</time></trkpt><trkpt lat="43.5919413" lon="10.8742538"><ele>78.0</ele><time>2026-04-07T14:32:14.044Z</time></trkpt><trkpt lat="43.5917189" lon="10.8741583"><ele>78.0</ele><time>2026-04-07T14:32:15.044Z</time></trkpt><trkpt lat="43.5915042" lon="10.8740614"><ele>78.0</ele><time>2026-04-07T14:32:16.044Z</time></trkpt><trkpt lat="43.5912976" lon="10.8739741"><ele>78.0</ele><time>2026-04-07T14:32:17.043Z</time></trkpt><trkpt lat="43.5910963" lon="10.8738898"><ele>78.0</ele><time>2026-04-07T14:32:18.044Z</time></trkpt><trkpt lat="43.5908896" lon="10.8737933"><ele>79.5</ele><time>2026-04-07T14:32:19.044Z</time></trkpt><trkpt lat="43.5906728" lon="10.8737049"><ele>81.0</ele><time>2026-04-07T14:32:20.044Z</time></trkpt><trkpt lat="43.5904564" lon="10.8736151"><ele>81.0</ele><time>2026-04-07T14:32:21.044Z</time></trkpt><trkpt lat="43.5902425" lon="10.8735344"><ele>81.0</ele><time>2026-04-07T14:32:22.044Z</time></trkpt><trkpt lat="43.5900415" lon="10.8734569"><ele>81.0</ele><time>2026-04-07T14:32:23.044Z</time></trkpt><trkpt lat="43.5898498" lon="10.8733823"><ele>82.33333333333333</ele><time>2026-04-07T14:32:24.044Z</time></trkpt><trkpt lat="43.5896606" lon="10.8733203"><ele>83.66666666666666</ele><time>2026-04-07T14:32:25.043Z</time></trkpt><trkpt lat="43.5894743" lon="10.873314"><ele>85.0</ele><time>2026-04-07T14:32:26.044Z</time></trkpt><trkpt lat="43.589294" lon="10.8732944"><ele>85.33333333333333</ele><time>2026-04-07T14:32:27.044Z</time></trkpt><trkpt lat="43.5891174" lon="10.8732529"><ele>85.66666666666667</ele><time>2026-04-07T14:32:28.044Z</time></trkpt><trkpt lat="43.5889327" lon="10.8731882"><ele>86.0</ele><time>2026-04-07T14:32:29.044Z</time></trkpt><trkpt lat="43.5887403" lon="10.8731134"><ele>86.0</ele><time>2026-04-07T14:32:30.043Z</time></trkpt><trkpt lat="43.5885437" lon="10.873033"><ele>86.0</ele><time>2026-04-07T14:32:31.043Z</time></trkpt><trkpt lat="43.5883621" lon="10.8729763"><ele>86.0</ele><time>2026-04-07T14:32:32.044Z</time></trkpt><trkpt lat="43.5881755" lon="10.8729527"><ele>86.0</ele><time>2026-04-07T14:32:33.044Z</time></trkpt><trkpt lat="43.5879813" lon="10.8729592"><ele>86.0</ele><time>2026-04-07T14:32:34.044Z</time></trkpt><trkpt lat="43.5877808" lon="10.8730008"><ele>86.0</ele><time>2026-04-07T14:32:35.044Z</time></trkpt><trkpt lat="43.5875581" lon="10.8730755"><ele>86.0</ele><time>2026-04-07T14:32:36.044Z</time></trkpt><trkpt lat="43.5873331" lon="10.8731587"><ele>86.0</ele><time>2026-04-07T14:32:37.043Z</time></trkpt><trkpt lat="43.5871121" lon="10.873268"><ele>87.5</ele><time>2026-04-07T14:32:38.044Z</time></trkpt><trkpt lat="43.5868963" lon="10.8733892"><ele>89.0</ele><time>2026-04-07T14:32:39.043Z</time></trkpt><trkpt lat="43.5866765" lon="10.8735342"><ele>89.0</ele><time>2026-04-07T14:32:40.044Z</time></trkpt><trkpt lat="43.5864445" lon="10.8736983"><ele>89.0</ele><time>2026-04-07T14:32:41.043Z</time></trkpt><trkpt lat="43.5862045" lon="10.8738685"><ele>91.5</ele><time>2026-04-07T14:32:42.044Z</time></trkpt><trkpt lat="43.5859568" lon="10.8740429"><ele>94.0</ele><time>2026-04-07T14:32:43.044Z</time></trkpt><trkpt lat="43.5857247" lon="10.8741956"><ele>94.0</ele><time>2026-04-07T14:32:44.043Z</time></trkpt><trkpt lat="43.5855129" lon="10.8743442"><ele>94.0</ele><time>2026-04-07T14:32:45.044Z</time></trkpt><trkpt lat="43.5853212" lon="10.8744811"><ele>94.0</ele><time>2026-04-07T14:32:46.044Z</time></trkpt><trkpt lat="43.5851479" lon="10.8746029"><ele>94.0</ele><time>2026-04-07T14:32:47.043Z</time></trkpt><trkpt lat="43.5849951" lon="10.8747219"><ele>94.0</ele><time>2026-04-07T14:32:48.044Z</time></trkpt><trkpt lat="43.5848603" lon="10.8748381"><ele>94.0</ele><time>2026-04-07T14:32:49.043Z</time></trkpt><trkpt lat="43.584755" lon="10.8749601"><ele>94.0</ele><time>2026-04-07T14:32:50.044Z</time></trkpt><trkpt lat="43.5846603" lon="10.8751084"><ele>94.0</ele><time>2026-04-07T14:32:51.044Z</time></trkpt><trkpt lat="43.5845649" lon="10.8752952"><ele>94.0</ele><time>2026-04-07T14:32:52.044Z</time></trkpt><trkpt lat="43.5844728" lon="10.875506"><ele>94.33333333333333</ele><time>2026-04-07T14:32:53.044Z</time></trkpt><trkpt lat="43.5843872" lon="10.8757024"><ele>94.66666666666667</ele><time>2026-04-07T14:32:54.044Z</time></trkpt><trkpt lat="43.5842802" lon="10.8758671"><ele>95.0</ele><time>2026-04-07T14:32:55.043Z</time></trkpt><trkpt lat="43.5841615" lon="10.8760195"><ele>93.0</ele><time>2026-04-07T14:32:56.044Z</time></trkpt><trkpt lat="43.5840387" lon="10.8761398"><ele>91.0</ele><time>2026-04-07T14:32:57.044Z</time></trkpt><trkpt lat="43.5839012" lon="10.87623"><ele>89.0</ele><time>2026-04-07T14:32:58.044Z</time></trkpt><trkpt lat="43.5837635" lon="10.8763094"><ele>90.5</ele><time>2026-04-07T14:32:59.043Z</time></trkpt><trkpt lat="43.5836358" lon="10.8763817"><ele>92.0</ele><time>2026-04-07T14:33:00.043Z</time></trkpt><trkpt lat="43.5835284" lon="10.876438"><ele>93.5</ele><time>2026-04-07T14:33:01.043Z</time></trkpt><trkpt lat="43.5834339" lon="10.8765067"><ele>95.0</ele><time>2026-04-07T14:33:02.044Z</time></trkpt><trkpt lat="43.5833483" lon="10.8765759"><ele>95.0</ele><time>2026-04-07T14:33:03.044Z</time></trkpt><trkpt lat="43.5832519" lon="10.8766253"><ele>95.0</ele><time>2026-04-07T14:33:04.044Z</time></trkpt><trkpt lat="43.5831423" lon="10.8766894"><ele>95.0</ele><time>2026-04-07T14:33:05.043Z</time></trkpt><trkpt lat="43.5830302" lon="10.8767522"><ele>95.0</ele><time>2026-04-07T14:33:06.043Z</time></trkpt><trkpt lat="43.5828869" lon="10.8768277"><ele>94.33333333333334</ele><time>2026-04-07T14:33:07.044Z</time></trkpt><trkpt lat="43.5827425" lon="10.8768974"><ele>93.66666666666667</ele><time>2026-04-07T14:33:08.044Z</time></trkpt><trkpt lat="43.5825801" lon="10.877005"><ele>93.0</ele><time>2026-04-07T14:33:09.043Z</time></trkpt><trkpt lat="43.5824159" lon="10.8771028"><ele>93.0</ele><time>2026-04-07T14:33:10.044Z</time></trkpt><trkpt lat="43.5822599" lon="10.8772086"><ele>93.0</ele><time>2026-04-07T14:33:11.043Z</time></trkpt><trkpt lat="43.5821015" lon="10.8773195"><ele>93.0</ele><time>2026-04-07T14:33:12.043Z</time></trkpt><trkpt lat="43.5819333" lon="10.8774584"><ele>93.33333333333333</ele><time>2026-04-07T14:33:13.043Z</time></trkpt><trkpt lat="43.5817614" lon="10.8776043"><ele>93.66666666666666</ele><time>2026-04-07T14:33:14.044Z</time></trkpt><trkpt lat="43.5815833" lon="10.8777343"><ele>94.0</ele><time>2026-04-07T14:33:15.043Z</time></trkpt><trkpt lat="43.5813964" lon="10.8778959"><ele>94.0</ele><time>2026-04-07T14:33:16.044Z</time></trkpt><trkpt lat="43.5812161" lon="10.8780599"><ele>94.0</ele><time>2026-04-07T14:33:17.044Z</time></trkpt><trkpt lat="43.5810446" lon="10.878209"><ele>94.0</ele><time>2026-04-07T14:33:18.043Z</time></trkpt><trkpt lat="43.5808803" lon="10.8783476"><ele>94.66666666666666</ele><time>2026-04-07T14:33:19.043Z</time></trkpt><trkpt lat="43.5807317" lon="10.8784765"><ele>95.33333333333333</ele><time>2026-04-07T14:33:20.044Z</time></trkpt><trkpt lat="43.5805718" lon="10.8785922"><ele>96.0</ele><time>2026-04-07T14:33:21.044Z</time></trkpt><trkpt lat="43.5804031" lon="10.8787201"><ele>96.0</ele><time>2026-04-07T14:33:22.044Z</time></trkpt><trkpt lat="43.58022" lon="10.8788511"><ele>96.0</ele><time>2026-04-07T14:33:23.044Z</time></trkpt><trkpt lat="43.5800249" lon="10.878984"><ele>96.0</ele><time>2026-04-07T14:33:24.044Z</time></trkpt><trkpt lat="43.5798227" lon="10.8791252"><ele>96.0</ele><time>2026-04-07T14:33:25.043Z</time></trkpt><trkpt lat="43.5796237" lon="10.8792402"><ele>96.0</ele><time>2026-04-07T14:33:26.044Z</time></trkpt><trkpt lat="43.5794397" lon="10.8793751"><ele>96.0</ele><time>2026-04-07T14:33:27.044Z</time></trkpt><trkpt lat="43.5792677" lon="10.8795098"><ele>96.33333333333334</ele><time>2026-04-07T14:33:28.044Z</time></trkpt><trkpt lat="43.579107" lon="10.8796302"><ele>96.66666666666667</ele><time>2026-04-07T14:33:29.044Z</time></trkpt><trkpt lat="43.5789541" lon="10.8797533"><ele>97.0</ele><time>2026-04-07T14:33:30.044Z</time></trkpt><trkpt lat="43.5787862" lon="10.8799126"><ele>98.0</ele><time>2026-04-07T14:33:31.043Z</time></trkpt><trkpt lat="43.5786285" lon="10.8800737"><ele>99.0</ele><time>2026-04-07T14:33:32.043Z</time></trkpt><trkpt lat="43.5784817" lon="10.880224"><ele>100.0</ele><time>2026-04-07T14:33:33.043Z</time></trkpt><trkpt lat="43.5783326" lon="10.88036"><ele>100.0</ele><time>2026-04-07T14:33:34.044Z</time></trkpt><trkpt lat="43.5781973" lon="10.8804942"><ele>100.0</ele><time>2026-04-07T14:33:35.044Z</time></trkpt><trkpt lat="43.5780565" lon="10.8806232"><ele>100.0</ele><time>2026-04-07T14:33:36.044Z</time></trkpt><trkpt lat="43.5779125" lon="10.8807566"><ele>100.0</ele><time>2026-04-07T14:33:37.044Z</time></trkpt><trkpt lat="43.5777632" lon="10.8809012"><ele>100.0</ele><time>2026-04-07T14:33:38.044Z</time></trkpt><trkpt lat="43.5776069" lon="10.881053"><ele>100.0</ele><time>2026-04-07T14:33:39.044Z</time></trkpt><trkpt lat="43.577458" lon="10.8811847"><ele>100.0</ele><time>2026-04-07T14:33:40.043Z</time></trkpt><trkpt lat="43.5773126" lon="10.8813024"><ele>100.0</ele><time>2026-04-07T14:33:41.043Z</time></trkpt><trkpt lat="43.5771685" lon="10.8814078"><ele>100.0</ele><time>2026-04-07T14:33:42.044Z</time></trkpt><trkpt lat="43.5770078" lon="10.8814861"><ele>101.33333333333334</ele><time>2026-04-07T14:33:43.043Z</time></trkpt><trkpt lat="43.5768258" lon="10.8815235"><ele>102.66666666666666</ele><time>2026-04-07T14:33:44.044Z</time></trkpt><trkpt lat="43.5766592" lon="10.8815352"><ele>104.0</ele><time>2026-04-07T14:33:45.044Z</time></trkpt><trkpt lat="43.5765032" lon="10.8815416"><ele>104.0</ele><time>2026-04-07T14:33:46.044Z</time></trkpt><trkpt lat="43.5763704" lon="10.8815364"><ele>104.0</ele><time>2026-04-07T14:33:47.043Z</time></trkpt><trkpt lat="43.576251" lon="10.8815128"><ele>104.0</ele><time>2026-04-07T14:33:48.043Z</time></trkpt><trkpt lat="43.576143" lon="10.8814643"><ele>104.0</ele><time>2026-04-07T14:33:49.044Z</time></trkpt><trkpt lat="43.5760426" lon="10.8813915"><ele>104.25</ele><time>2026-04-07T14:33:50.044Z</time></trkpt><trkpt lat="43.57596" lon="10.8812977"><ele>104.5</ele><time>2026-04-07T14:33:51.044Z</time></trkpt><trkpt lat="43.5758997" lon="10.8811662"><ele>104.75</ele><time>2026-04-07T14:33:52.043Z</time></trkpt><trkpt lat="43.5758521" lon="10.8810056"><ele>105.0</ele><time>2026-04-07T14:33:53.044Z</time></trkpt><trkpt lat="43.5758016" lon="10.8808623"><ele>105.6</ele><time>2026-04-07T14:33:54.044Z</time></trkpt><trkpt lat="43.5757484" lon="10.8807302"><ele>106.2</ele><time>2026-04-07T14:33:55.044Z</time></trkpt><trkpt lat="43.5756758" lon="10.8806301"><ele>106.80000000000001</ele><time>2026-04-07T14:33:56.044Z</time></trkpt><trkpt lat="43.575578" lon="10.8805579"><ele>107.4</ele><time>2026-04-07T14:33:57.044Z</time></trkpt><trkpt lat="43.5754589" lon="10.8805197"><ele>108.0</ele><time>2026-04-07T14:33:58.044Z</time></trkpt><trkpt lat="43.5753294" lon="10.8804952"><ele>108.75</ele><time>2026-04-07T14:33:59.044Z</time></trkpt><trkpt lat="43.5751789" lon="10.8804824"><ele>109.5</ele><time>2026-04-07T14:34:00.043Z</time></trkpt><trkpt lat="43.575037" lon="10.8804728"><ele>110.25</ele><time>2026-04-07T14:34:01.044Z</time></trkpt><trkpt lat="43.5749057" lon="10.8804507"><ele>111.0</ele><time>2026-04-07T14:34:02.044Z</time></trkpt><trkpt lat="43.5747734" lon="10.8803937"><ele>111.0</ele><time>2026-04-07T14:34:03.043Z</time></trkpt><trkpt lat="43.5746311" lon="10.8803086"><ele>111.0</ele><time>2026-04-07T14:34:04.044Z</time></trkpt><trkpt lat="43.5745005" lon="10.8802045"><ele>111.0</ele><time>2026-04-07T14:34:05.044Z</time></trkpt><trkpt lat="43.574389" lon="10.8800987"><ele>111.0</ele><time>2026-04-07T14:34:06.043Z</time></trkpt><trkpt lat="43.5742961" lon="10.8799994"><ele>113.0</ele><time>2026-04-07T14:34:07.043Z</time></trkpt><trkpt lat="43.5742175" lon="10.8798926"><ele>115.0</ele><time>2026-04-07T14:34:08.043Z</time></trkpt><trkpt lat="43.5741425" lon="10.8797555"><ele>117.0</ele><time>2026-04-07T14:34:09.043Z</time></trkpt><trkpt lat="43.57408" lon="10.8795721"><ele>119.0</ele><time>2026-04-07T14:34:10.044Z</time></trkpt><trkpt lat="43.5740133" lon="10.8793637"><ele>123.33333333333333</ele><time>2026-04-07T14:34:11.044Z</time></trkpt><trkpt lat="43.5739418" lon="10.8791338"><ele>127.66666666666666</ele><time>2026-04-07T14:34:12.043Z</time></trkpt><trkpt lat="43.5738757" lon="10.8788995"><ele>132.0</ele><time>2026-04-07T14:34:13.044Z</time></trkpt><trkpt lat="43.5738131" lon="10.8786739"><ele>132.0</ele><time>2026-04-07T14:34:14.044Z</time></trkpt><trkpt lat="43.5737555" lon="10.8784789"><ele>132.0</ele><time>2026-04-07T14:34:15.044Z</time></trkpt><trkpt lat="43.5737094" lon="10.8783168"><ele>132.0</ele><time>2026-04-07T14:34:16.044Z</time></trkpt><trkpt lat="43.5736661" lon="10.8781895"><ele>132.0</ele><time>2026-04-07T14:34:17.044Z</time></trkpt><trkpt lat="43.5736347" lon="10.8780836"><ele>131.2</ele><time>2026-04-07T14:34:18.044Z</time></trkpt><trkpt lat="43.5736365" lon="10.877994"><ele>130.39999999999998</ele><time>2026-04-07T14:34:19.043Z</time></trkpt><trkpt lat="43.5736983" lon="10.877902"><ele>129.60000000000002</ele><time>2026-04-07T14:34:21.044Z</time></trkpt><trkpt lat="43.5737996" lon="10.877987"><ele>128.8</ele><time>2026-04-07T14:34:23.044Z</time></trkpt><trkpt lat="43.5738549" lon="10.8780973"><ele>128.0</ele><time>2026-04-07T14:34:24.044Z</time></trkpt><trkpt lat="43.5739236" lon="10.8782262"><ele>128.8</ele><time>2026-04-07T14:34:25.043Z</time></trkpt><trkpt lat="43.5739902" lon="10.8783358"><ele>129.60000000000002</ele><time>2026-04-07T14:34:26.044Z</time></trkpt><trkpt lat="43.5740647" lon="10.8784634"><ele>130.39999999999998</ele><time>2026-04-07T14:34:27.044Z</time></trkpt><trkpt lat="43.5741409" lon="10.8785813"><ele>131.2</ele><time>2026-04-07T14:34:28.044Z</time></trkpt><trkpt lat="43.5742238" lon="10.8786791"><ele>132.0</ele><time>2026-04-07T14:34:29.043Z</time></trkpt><trkpt lat="43.57431" lon="10.8787515"><ele>132.0</ele><time>2026-04-07T14:34:30.043Z</time></trkpt><trkpt lat="43.5744066" lon="10.8788062"><ele>132.0</ele><time>2026-04-07T14:34:31.043Z</time></trkpt><trkpt lat="43.5745399" lon="10.8788446"><ele>132.0</ele><time>2026-04-07T14:34:32.043Z</time></trkpt><trkpt lat="43.5746569" lon="10.878841"><ele>132.0</ele><time>2026-04-07T14:34:33.043Z</time></trkpt><trkpt lat="43.5747518" lon="10.8788137"><ele>133.5</ele><time>2026-04-07T14:34:34.044Z</time></trkpt><trkpt lat="43.5748289" lon="10.8787816"><ele>135.0</ele><time>2026-04-07T14:34:35.044Z</time></trkpt><trkpt lat="43.5748993" lon="10.8787454"><ele>136.5</ele><time>2026-04-07T14:34:36.044Z</time></trkpt><trkpt lat="43.5749411" lon="10.8786361"><ele>138.0</ele><time>2026-04-07T14:34:38.044Z</time></trkpt><trkpt lat="43.5748539" lon="10.8785481"><ele>139.5</ele><time>2026-04-07T14:34:40.044Z</time></trkpt><trkpt lat="43.5747758" lon="10.8785363"><ele>141.0</ele><time>2026-04-07T14:34:41.044Z</time></trkpt><trkpt lat="43.5746813" lon="10.8785051"><ele>141.0</ele><time>2026-04-07T14:34:42.043Z</time></trkpt><trkpt lat="43.5745868" lon="10.8784631"><ele>141.0</ele><time>2026-04-07T14:34:43.044Z</time></trkpt><trkpt lat="43.5745044" lon="10.8784014"><ele>141.0</ele><time>2026-04-07T14:34:44.044Z</time></trkpt><trkpt lat="43.5744383" lon="10.8783127"><ele>141.0</ele><time>2026-04-07T14:34:45.044Z</time></trkpt><trkpt lat="43.5743834" lon="10.8781755"><ele>141.0</ele><time>2026-04-07T14:34:46.044Z</time></trkpt><trkpt lat="43.5743403" lon="10.8780178"><ele>143.0</ele><time>2026-04-07T14:34:47.044Z</time></trkpt><trkpt lat="43.5743091" lon="10.8778108"><ele>145.0</ele><time>2026-04-07T14:34:48.044Z</time></trkpt><trkpt lat="43.5742798" lon="10.8776142"><ele>147.0</ele><time>2026-04-07T14:34:49.043Z</time></trkpt><trkpt lat="43.5742552" lon="10.8774479"><ele>149.0</ele><time>2026-04-07T14:34:50.044Z</time></trkpt><trkpt lat="43.5742429" lon="10.8772816"><ele>152.0</ele><time>2026-04-07T14:34:51.044Z</time></trkpt><trkpt lat="43.5742658" lon="10.8771269"><ele>155.0</ele><time>2026-04-07T14:34:52.044Z</time></trkpt><trkpt lat="43.5743043" lon="10.8769742"><ele>158.0</ele><time>2026-04-07T14:34:53.044Z</time></trkpt><trkpt lat="43.5743658" lon="10.8768211"><ele>161.0</ele><time>2026-04-07T14:34:54.044Z</time></trkpt><trkpt lat="43.5744327" lon="10.8766878"><ele>162.25</ele><time>2026-04-07T14:34:55.044Z</time></trkpt><trkpt lat="43.5744618" lon="10.8765457"><ele>163.5</ele><time>2026-04-07T14:34:56.044Z</time></trkpt><trkpt lat="43.5744906" lon="10.8764031"><ele>164.75</ele><time>2026-04-07T14:34:57.043Z</time></trkpt><trkpt lat="43.574427" lon="10.8762082"><ele>166.0</ele><time>2026-04-07T14:34:58.044Z</time></trkpt><trkpt lat="43.5743771" lon="10.8760156"><ele>167.25</ele><time>2026-04-07T14:34:59.044Z</time></trkpt><trkpt lat="43.5743393" lon="10.8758207"><ele>168.5</ele><time>2026-04-07T14:35:00.043Z</time></trkpt><trkpt lat="43.5742928" lon="10.8756425"><ele>169.75</ele><time>2026-04-07T14:35:01.044Z</time></trkpt><trkpt lat="43.5742458" lon="10.8754859"><ele>171.0</ele><time>2026-04-07T14:35:02.044Z</time></trkpt><trkpt lat="43.5741961" lon="10.8753408"><ele>171.0</ele><time>2026-04-07T14:35:03.044Z</time></trkpt><trkpt lat="43.57413" lon="10.875228"><ele>171.0</ele><time>2026-04-07T14:35:04.044Z</time></trkpt><trkpt lat="43.5740218" lon="10.8751194"><ele>171.0</ele><time>2026-04-07T14:35:05.044Z</time></trkpt><trkpt lat="43.5739116" lon="10.8750179"><ele>171.0</ele><time>2026-04-07T14:35:06.044Z</time></trkpt><trkpt lat="43.5738201" lon="10.874911"><ele>172.25</ele><time>2026-04-07T14:35:07.044Z</time></trkpt><trkpt lat="43.5737245" lon="10.8748213"><ele>173.5</ele><time>2026-04-07T14:35:08.043Z</time></trkpt><trkpt lat="43.5736242" lon="10.8747351"><ele>174.75</ele><time>2026-04-07T14:35:09.044Z</time></trkpt><trkpt lat="43.5735042" lon="10.8746435"><ele>176.0</ele><time>2026-04-07T14:35:10.044Z</time></trkpt><trkpt lat="43.5733992" lon="10.874541"><ele>176.0</ele><time>2026-04-07T14:35:11.044Z</time></trkpt><trkpt lat="43.5733132" lon="10.8744491"><ele>176.0</ele><time>2026-04-07T14:35:12.044Z</time></trkpt><trkpt lat="43.5732496" lon="10.8743527"><ele>176.0</ele><time>2026-04-07T14:35:13.044Z</time></trkpt><trkpt lat="43.5732092" lon="10.874252"><ele>176.0</ele><time>2026-04-07T14:35:14.043Z</time></trkpt><trkpt lat="43.573181" lon="10.874124"><ele>176.0</ele><time>2026-04-07T14:35:15.043Z</time></trkpt><trkpt lat="43.5731802" lon="10.8739578"><ele>179.25</ele><time>2026-04-07T14:35:16.043Z</time></trkpt><trkpt lat="43.5731759" lon="10.8737719"><ele>182.5</ele><time>2026-04-07T14:35:17.044Z</time></trkpt><trkpt lat="43.5731754" lon="10.8735674"><ele>185.75</ele><time>2026-04-07T14:35:18.044Z</time></trkpt><trkpt lat="43.5731659" lon="10.8733601"><ele>189.0</ele><time>2026-04-07T14:35:19.044Z</time></trkpt><trkpt lat="43.5731388" lon="10.8731691"><ele>189.0</ele><time>2026-04-07T14:35:20.044Z</time></trkpt><trkpt lat="43.5731212" lon="10.8730062"><ele>189.0</ele><time>2026-04-07T14:35:21.044Z</time></trkpt><trkpt lat="43.5730822" lon="10.8728509"><ele>189.0</ele><time>2026-04-07T14:35:22.044Z</time></trkpt><trkpt lat="43.5730123" lon="10.8727022"><ele>189.0</ele><time>2026-04-07T14:35:23.043Z</time></trkpt><trkpt lat="43.5729175" lon="10.872555"><ele>188.66666666666666</ele><time>2026-04-07T14:35:24.043Z</time></trkpt><trkpt lat="43.5727852" lon="10.872401"><ele>188.33333333333331</ele><time>2026-04-07T14:35:25.044Z</time></trkpt><trkpt lat="43.5726476" lon="10.8722411"><ele>188.0</ele><time>2026-04-07T14:35:26.043Z</time></trkpt><trkpt lat="43.5725176" lon="10.8720902"><ele>188.0</ele><time>2026-04-07T14:35:27.044Z</time></trkpt><trkpt lat="43.5723809" lon="10.8719335"><ele>188.0</ele><time>2026-04-07T14:35:28.044Z</time></trkpt><trkpt lat="43.5722716" lon="10.8717642"><ele>188.0</ele><time>2026-04-07T14:35:29.043Z</time></trkpt><trkpt lat="43.5721347" lon="10.8715968"><ele>190.0</ele><time>2026-04-07T14:35:30.044Z</time></trkpt><trkpt lat="43.5719724" lon="10.8713785"><ele>192.0</ele><time>2026-04-07T14:35:31.044Z</time></trkpt><trkpt lat="43.571825" lon="10.8711493"><ele>194.0</ele><time>2026-04-07T14:35:32.044Z</time></trkpt><trkpt lat="43.5716663" lon="10.8709144"><ele>194.0</ele><time>2026-04-07T14:35:33.044Z</time></trkpt><trkpt lat="43.571524" lon="10.8706923"><ele>194.0</ele><time>2026-04-07T14:35:34.044Z</time></trkpt><trkpt lat="43.5713871" lon="10.8704917"><ele>194.0</ele><time>2026-04-07T14:35:35.044Z</time></trkpt><trkpt lat="43.5712662" lon="10.8702977"><ele>195.0</ele><time>2026-04-07T14:35:36.044Z</time></trkpt><trkpt lat="43.5711541" lon="10.8701066"><ele>196.0</ele><time>2026-04-07T14:35:37.044Z</time></trkpt><trkpt lat="43.5710369" lon="10.8699196"><ele>197.0</ele><time>2026-04-07T14:35:38.044Z</time></trkpt><trkpt lat="43.5709275" lon="10.8697368"><ele>197.0</ele><time>2026-04-07T14:35:39.044Z</time></trkpt><trkpt lat="43.5708485" lon="10.8695615"><ele>197.0</ele><time>2026-04-07T14:35:40.044Z</time></trkpt><trkpt lat="43.5707621" lon="10.8693988"><ele>197.0</ele><time>2026-04-07T14:35:41.043Z</time></trkpt><trkpt lat="43.5706513" lon="10.8692593"><ele>197.0</ele><time>2026-04-07T14:35:42.043Z</time></trkpt><trkpt lat="43.570549" lon="10.8691341"><ele>197.39999999999998</ele><time>2026-04-07T14:35:43.044Z</time></trkpt><trkpt lat="43.5704558" lon="10.8690148"><ele>197.79999999999998</ele><time>2026-04-07T14:35:44.044Z</time></trkpt><trkpt lat="43.5703787" lon="10.8689083"><ele>198.2</ele><time>2026-04-07T14:35:45.044Z</time></trkpt><trkpt lat="43.570298" lon="10.8688072"><ele>198.6</ele><time>2026-04-07T14:35:46.044Z</time></trkpt><trkpt lat="43.5702184" lon="10.8687194"><ele>199.0</ele><time>2026-04-07T14:35:47.044Z</time></trkpt><trkpt lat="43.5701395" lon="10.8686378"><ele>199.6</ele><time>2026-04-07T14:35:48.044Z</time></trkpt><trkpt lat="43.5700686" lon="10.868537"><ele>200.2</ele><time>2026-04-07T14:35:49.043Z</time></trkpt><trkpt lat="43.5700025" lon="10.8684239"><ele>200.79999999999998</ele><time>2026-04-07T14:35:50.043Z</time></trkpt><trkpt lat="43.5699605" lon="10.8682867"><ele>201.39999999999998</ele><time>2026-04-07T14:35:51.044Z</time></trkpt><trkpt lat="43.5699177" lon="10.868128"><ele>202.0</ele><time>2026-04-07T14:35:52.044Z</time></trkpt><trkpt lat="43.5698841" lon="10.8679672"><ele>202.0</ele><time>2026-04-07T14:35:53.044Z</time></trkpt><trkpt lat="43.569851" lon="10.8678053"><ele>202.0</ele><time>2026-04-07T14:35:54.044Z</time></trkpt><trkpt lat="43.5698291" lon="10.867641"><ele>202.0</ele><time>2026-04-07T14:35:55.043Z</time></trkpt><trkpt lat="43.5698212" lon="10.8675006"><ele>202.0</ele><time>2026-04-07T14:35:56.044Z</time></trkpt><trkpt lat="43.5698297" lon="10.8673692"><ele>202.0</ele><time>2026-04-07T14:35:57.044Z</time></trkpt><trkpt lat="43.5698574" lon="10.8672316"><ele>200.8</ele><time>2026-04-07T14:35:58.044Z</time></trkpt><trkpt lat="43.5698677" lon="10.8670935"><ele>199.6</ele><time>2026-04-07T14:35:59.043Z</time></trkpt><trkpt lat="43.5698555" lon="10.866962"><ele>198.4</ele><time>2026-04-07T14:36:00.043Z</time></trkpt><trkpt lat="43.5698214" lon="10.8668278"><ele>197.20000000000002</ele><time>2026-04-07T14:36:01.044Z</time></trkpt><trkpt lat="43.5697691" lon="10.8666878"><ele>196.0</ele><time>2026-04-07T14:36:02.044Z</time></trkpt><trkpt lat="43.5697023" lon="10.8665356"><ele>196.0</ele><time>2026-04-07T14:36:03.044Z</time></trkpt><trkpt lat="43.5696213" lon="10.8663901"><ele>196.0</ele><time>2026-04-07T14:36:04.044Z</time></trkpt><trkpt lat="43.5695488" lon="10.8662462"><ele>196.0</ele><time>2026-04-07T14:36:05.044Z</time></trkpt><trkpt lat="43.5694981" lon="10.8661176"><ele>196.0</ele><time>2026-04-07T14:36:06.044Z</time></trkpt><trkpt lat="43.5694603" lon="10.8659904"><ele>197.16666666666666</ele><time>2026-04-07T14:36:07.044Z</time></trkpt><trkpt lat="43.5694117" lon="10.8659087"><ele>198.33333333333331</ele><time>2026-04-07T14:36:08.044Z</time></trkpt><trkpt lat="43.5693521" lon="10.8658163"><ele>199.5</ele><time>2026-04-07T14:36:10.044Z</time></trkpt><trkpt lat="43.5693126" lon="10.8656756"><ele>200.66666666666669</ele><time>2026-04-07T14:36:12.043Z</time></trkpt><trkpt lat="43.5693051" lon="10.86557"><ele>201.83333333333334</ele><time>2026-04-07T14:36:13.044Z</time></trkpt><trkpt lat="43.5693104" lon="10.865452"><ele>203.0</ele><time>2026-04-07T14:36:14.044Z</time></trkpt><trkpt lat="43.5693148" lon="10.8653154"><ele>203.0</ele><time>2026-04-07T14:36:15.044Z</time></trkpt><trkpt lat="43.5693046" lon="10.8651738"><ele>203.0</ele><time>2026-04-07T14:36:16.044Z</time></trkpt><trkpt lat="43.5692955" lon="10.8650006"><ele>203.0</ele><time>2026-04-07T14:36:17.044Z</time></trkpt><trkpt lat="43.5692725" lon="10.8648136"><ele>203.0</ele><time>2026-04-07T14:36:18.044Z</time></trkpt><trkpt lat="43.5692389" lon="10.864627"><ele>202.0</ele><time>2026-04-07T14:36:19.044Z</time></trkpt><trkpt lat="43.5691942" lon="10.8644269"><ele>201.0</ele><time>2026-04-07T14:36:20.044Z</time></trkpt><trkpt lat="43.5691483" lon="10.8642143"><ele>200.0</ele><time>2026-04-07T14:36:21.044Z</time></trkpt><trkpt lat="43.5691023" lon="10.8639754"><ele>199.66666666666669</ele><time>2026-04-07T14:36:22.043Z</time></trkpt><trkpt lat="43.5690533" lon="10.8637199"><ele>199.33333333333331</ele><time>2026-04-07T14:36:23.044Z</time></trkpt><trkpt lat="43.5690063" lon="10.8634688"><ele>199.0</ele><time>2026-04-07T14:36:24.044Z</time></trkpt><trkpt lat="43.568945" lon="10.863227"><ele>200.66666666666666</ele><time>2026-04-07T14:36:25.044Z</time></trkpt><trkpt lat="43.5688895" lon="10.8629971"><ele>202.33333333333331</ele><time>2026-04-07T14:36:26.044Z</time></trkpt><trkpt lat="43.5688424" lon="10.8628031"><ele>204.0</ele><time>2026-04-07T14:36:27.044Z</time></trkpt><trkpt lat="43.568806" lon="10.8626178"><ele>204.25</ele><time>2026-04-07T14:36:28.044Z</time></trkpt><trkpt lat="43.5688089" lon="10.8624579"><ele>204.5</ele><time>2026-04-07T14:36:29.044Z</time></trkpt><trkpt lat="43.5688473" lon="10.862306"><ele>204.75</ele><time>2026-04-07T14:36:30.043Z</time></trkpt><trkpt lat="43.568903" lon="10.8621665"><ele>205.0</ele><time>2026-04-07T14:36:31.044Z</time></trkpt><trkpt lat="43.5689636" lon="10.8620289"><ele>205.0</ele><time>2026-04-07T14:36:32.044Z</time></trkpt><trkpt lat="43.5690009" lon="10.8618778"><ele>205.0</ele><time>2026-04-07T14:36:33.044Z</time></trkpt><trkpt lat="43.56902" lon="10.8616986"><ele>205.0</ele><time>2026-04-07T14:36:34.044Z</time></trkpt><trkpt lat="43.5690074" lon="10.8614933"><ele>205.0</ele><time>2026-04-07T14:36:35.044Z</time></trkpt><trkpt lat="43.5689893" lon="10.8613024"><ele>203.25</ele><time>2026-04-07T14:36:36.044Z</time></trkpt><trkpt lat="43.5689905" lon="10.8611217"><ele>201.5</ele><time>2026-04-07T14:36:37.044Z</time></trkpt><trkpt lat="43.5690161" lon="10.8609527"><ele>199.75</ele><time>2026-04-07T14:36:38.044Z</time></trkpt><trkpt lat="43.569056" lon="10.8607974"><ele>198.0</ele><time>2026-04-07T14:36:39.044Z</time></trkpt><trkpt lat="43.5691511" lon="10.8606855"><ele>197.33333333333331</ele><time>2026-04-07T14:36:40.043Z</time></trkpt><trkpt lat="43.5692673" lon="10.8605779"><ele>196.66666666666666</ele><time>2026-04-07T14:36:41.043Z</time></trkpt><trkpt lat="43.5694025" lon="10.8604468"><ele>196.0</ele><time>2026-04-07T14:36:42.044Z</time></trkpt><trkpt lat="43.5695507" lon="10.8603259"><ele>195.0</ele><time>2026-04-07T14:36:43.044Z</time></trkpt><trkpt lat="43.569686" lon="10.8602188"><ele>194.0</ele><time>2026-04-07T14:36:44.044Z</time></trkpt><trkpt lat="43.5698196" lon="10.860127"><ele>193.0</ele><time>2026-04-07T14:36:45.043Z</time></trkpt><trkpt lat="43.5699677" lon="10.8600665"><ele>193.0</ele><time>2026-04-07T14:36:46.043Z</time></trkpt><trkpt lat="43.5701153" lon="10.8600355"><ele>193.0</ele><time>2026-04-07T14:36:47.044Z</time></trkpt><trkpt lat="43.5702549" lon="10.8600126"><ele>193.0</ele><time>2026-04-07T14:36:48.044Z</time></trkpt><trkpt lat="43.5703859" lon="10.8600083"><ele>193.0</ele><time>2026-04-07T14:36:49.043Z</time></trkpt><trkpt lat="43.5705126" lon="10.8599787"><ele>195.0</ele><time>2026-04-07T14:36:50.043Z</time></trkpt><trkpt lat="43.570621" lon="10.8599139"><ele>197.0</ele><time>2026-04-07T14:36:51.044Z</time></trkpt><trkpt lat="43.5707059" lon="10.8598251"><ele>199.0</ele><time>2026-04-07T14:36:52.044Z</time></trkpt><trkpt lat="43.5707835" lon="10.85972"><ele>201.0</ele><time>2026-04-07T14:36:53.043Z</time></trkpt><trkpt lat="43.5708428" lon="10.8595675"><ele>201.0</ele><time>2026-04-07T14:36:54.044Z</time></trkpt><trkpt lat="43.5708793" lon="10.8594281"><ele>201.0</ele><time>2026-04-07T14:36:55.043Z</time></trkpt><trkpt lat="43.5708709" lon="10.8592681"><ele>201.0</ele><time>2026-04-07T14:36:56.044Z</time></trkpt><trkpt lat="43.5708298" lon="10.8590949"><ele>201.0</ele><time>2026-04-07T14:36:57.044Z</time></trkpt><trkpt lat="43.5707645" lon="10.8589207"><ele>201.5</ele><time>2026-04-07T14:36:58.044Z</time></trkpt><trkpt lat="43.5706974" lon="10.8587564"><ele>202.0</ele><time>2026-04-07T14:36:59.043Z</time></trkpt><trkpt lat="43.5706535" lon="10.858598"><ele>202.5</ele><time>2026-04-07T14:37:00.043Z</time></trkpt><trkpt lat="43.5706464" lon="10.8584225"><ele>203.0</ele><time>2026-04-07T14:37:01.044Z</time></trkpt><trkpt lat="43.5706679" lon="10.8582686"><ele>203.0</ele><time>2026-04-07T14:37:02.044Z</time></trkpt><trkpt lat="43.5707145" lon="10.858129"><ele>203.0</ele><time>2026-04-07T14:37:03.044Z</time></trkpt><trkpt lat="43.5707593" lon="10.8579837"><ele>203.0</ele><time>2026-04-07T14:37:04.043Z</time></trkpt><trkpt lat="43.5708109" lon="10.8578434"><ele>203.0</ele><time>2026-04-07T14:37:05.044Z</time></trkpt><trkpt lat="43.5708375" lon="10.8577157"><ele>203.0</ele><time>2026-04-07T14:37:06.044Z</time></trkpt><trkpt lat="43.5708557" lon="10.8575939"><ele>204.25</ele><time>2026-04-07T14:37:07.044Z</time></trkpt><trkpt lat="43.5708436" lon="10.8574475"><ele>205.5</ele><time>2026-04-07T14:37:08.044Z</time></trkpt><trkpt lat="43.5708072" lon="10.8572771"><ele>206.75</ele><time>2026-04-07T14:37:09.044Z</time></trkpt><trkpt lat="43.5707679" lon="10.8571035"><ele>208.0</ele><time>2026-04-07T14:37:10.044Z</time></trkpt><trkpt lat="43.57073" lon="10.8569522"><ele>208.0</ele><time>2026-04-07T14:37:11.044Z</time></trkpt><trkpt lat="43.5706877" lon="10.8568109"><ele>208.0</ele><time>2026-04-07T14:37:12.043Z</time></trkpt><trkpt lat="43.5706255" lon="10.8566896"><ele>208.0</ele><time>2026-04-07T14:37:13.043Z</time></trkpt><trkpt lat="43.5705582" lon="10.8565542"><ele>208.0</ele><time>2026-04-07T14:37:15.043Z</time></trkpt><trkpt lat="43.5705123" lon="10.8564436"><ele>208.0</ele><time>2026-04-07T14:37:18.044Z</time></trkpt><trkpt lat="43.5704665" lon="10.856283"><ele>208.0</ele><time>2026-04-07T14:37:20.044Z</time></trkpt><trkpt lat="43.5704215" lon="10.8561689"><ele>208.0</ele><time>2026-04-07T14:37:21.044Z</time></trkpt><trkpt lat="43.5703617" lon="10.8560256"><ele>208.0</ele><time>2026-04-07T14:37:22.044Z</time></trkpt><trkpt lat="43.5703081" lon="10.8558478"><ele>208.0</ele><time>2026-04-07T14:37:23.043Z</time></trkpt><trkpt lat="43.5702496" lon="10.8556621"><ele>208.0</ele><time>2026-04-07T14:37:24.044Z</time></trkpt><trkpt lat="43.5701966" lon="10.8554797"><ele>208.0</ele><time>2026-04-07T14:37:25.044Z</time></trkpt><trkpt lat="43.5701474" lon="10.8552968"><ele>208.0</ele><time>2026-04-07T14:37:26.043Z</time></trkpt><trkpt lat="43.5701074" lon="10.8551068"><ele>208.0</ele><time>2026-04-07T14:37:27.044Z</time></trkpt><trkpt lat="43.5700757" lon="10.854889"><ele>204.66666666666666</ele><time>2026-04-07T14:37:28.044Z</time></trkpt><trkpt lat="43.5700778" lon="10.8546366"><ele>201.33333333333331</ele><time>2026-04-07T14:37:29.043Z</time></trkpt><trkpt lat="43.570093" lon="10.8543707"><ele>198.0</ele><time>2026-04-07T14:37:30.044Z</time></trkpt><trkpt lat="43.5701015" lon="10.8540918"><ele>195.33333333333334</ele><time>2026-04-07T14:37:31.044Z</time></trkpt><trkpt lat="43.5701132" lon="10.8538212"><ele>192.66666666666669</ele><time>2026-04-07T14:37:32.044Z</time></trkpt><trkpt lat="43.5701278" lon="10.8535328"><ele>190.0</ele><time>2026-04-07T14:37:33.044Z</time></trkpt><trkpt lat="43.5701483" lon="10.8532265"><ele>188.0</ele><time>2026-04-07T14:37:34.043Z</time></trkpt><trkpt lat="43.5701635" lon="10.8529274"><ele>186.0</ele><time>2026-04-07T14:37:35.044Z</time></trkpt><trkpt lat="43.5701843" lon="10.8526502"><ele>184.0</ele><time>2026-04-07T14:37:36.044Z</time></trkpt><trkpt lat="43.5702134" lon="10.8523824"><ele>182.33333333333334</ele><time>2026-04-07T14:37:37.043Z</time></trkpt><trkpt lat="43.570267" lon="10.8521315"><ele>180.66666666666666</ele><time>2026-04-07T14:37:38.043Z</time></trkpt><trkpt lat="43.5703168" lon="10.8519018"><ele>179.0</ele><time>2026-04-07T14:37:39.044Z</time></trkpt><trkpt lat="43.5703803" lon="10.8516669"><ele>178.66666666666666</ele><time>2026-04-07T14:37:40.043Z</time></trkpt><trkpt lat="43.570388" lon="10.8513967"><ele>178.33333333333334</ele><time>2026-04-07T14:37:41.044Z</time></trkpt><trkpt lat="43.570403" lon="10.8511209"><ele>178.0</ele><time>2026-04-07T14:37:42.044Z</time></trkpt><trkpt lat="43.5704126" lon="10.8508175"><ele>178.0</ele><time>2026-04-07T14:37:43.044Z</time></trkpt><trkpt lat="43.5703945" lon="10.8505264"><ele>178.0</ele><time>2026-04-07T14:37:44.044Z</time></trkpt><trkpt lat="43.5703739" lon="10.8502348"><ele>178.0</ele><time>2026-04-07T14:37:45.043Z</time></trkpt><trkpt lat="43.570323" lon="10.8499383"><ele>179.66666666666669</ele><time>2026-04-07T14:37:46.044Z</time></trkpt><trkpt lat="43.5702764" lon="10.8496445"><ele>181.33333333333334</ele><time>2026-04-07T14:37:47.043Z</time></trkpt><trkpt lat="43.5702432" lon="10.8493703"><ele>183.0</ele><time>2026-04-07T14:37:48.043Z</time></trkpt><trkpt lat="43.5702174" lon="10.8491094"><ele>183.33333333333334</ele><time>2026-04-07T14:37:49.044Z</time></trkpt><trkpt lat="43.5702076" lon="10.8488505"><ele>183.66666666666669</ele><time>2026-04-07T14:37:50.044Z</time></trkpt><trkpt lat="43.5702257" lon="10.8485754"><ele>184.0</ele><time>2026-04-07T14:37:51.043Z</time></trkpt><trkpt lat="43.570263" lon="10.8482823"><ele>184.0</ele><time>2026-04-07T14:37:52.044Z</time></trkpt><trkpt lat="43.5702941" lon="10.8479701"><ele>184.0</ele><time>2026-04-07T14:37:53.043Z</time></trkpt><trkpt lat="43.5703337" lon="10.8476397"><ele>178.0</ele><time>2026-04-07T14:37:54.043Z</time></trkpt><trkpt lat="43.5703819" lon="10.847297"><ele>172.0</ele><time>2026-04-07T14:37:55.043Z</time></trkpt><trkpt lat="43.5704185" lon="10.8469475"><ele>173.5</ele><time>2026-04-07T14:37:56.044Z</time></trkpt><trkpt lat="43.5704575" lon="10.8466151"><ele>175.0</ele><time>2026-04-07T14:37:57.044Z</time></trkpt><trkpt lat="43.5704916" lon="10.8462946"><ele>175.0</ele><time>2026-04-07T14:37:58.044Z</time></trkpt><trkpt lat="43.57052" lon="10.8460105"><ele>175.0</ele><time>2026-04-07T14:37:59.044Z</time></trkpt><trkpt lat="43.5705412" lon="10.845758"><ele>175.0</ele><time>2026-04-07T14:38:00.044Z</time></trkpt><trkpt lat="43.570536" lon="10.8455333"><ele>176.66666666666669</ele><time>2026-04-07T14:38:01.044Z</time></trkpt><trkpt lat="43.5705059" lon="10.8453033"><ele>178.33333333333334</ele><time>2026-04-07T14:38:02.044Z</time></trkpt><trkpt lat="43.5704555" lon="10.8450626"><ele>180.0</ele><time>2026-04-07T14:38:03.043Z</time></trkpt><trkpt lat="43.5703788" lon="10.8448206"><ele>180.0</ele><time>2026-04-07T14:38:04.044Z</time></trkpt><trkpt lat="43.5703143" lon="10.844609"><ele>180.0</ele><time>2026-04-07T14:38:05.044Z</time></trkpt><trkpt lat="43.5702457" lon="10.8444136"><ele>180.0</ele><time>2026-04-07T14:38:06.044Z</time></trkpt><trkpt lat="43.5701985" lon="10.8442393"><ele>180.0</ele><time>2026-04-07T14:38:07.044Z</time></trkpt><trkpt lat="43.5701887" lon="10.8440868"><ele>180.0</ele><time>2026-04-07T14:38:08.044Z</time></trkpt><trkpt lat="43.5702196" lon="10.8439377"><ele>180.0</ele><time>2026-04-07T14:38:09.044Z</time></trkpt><trkpt lat="43.5702939" lon="10.8438047"><ele>180.0</ele><time>2026-04-07T14:38:10.043Z</time></trkpt><trkpt lat="43.5703704" lon="10.8436765"><ele>177.33333333333334</ele><time>2026-04-07T14:38:11.044Z</time></trkpt><trkpt lat="43.5705186" lon="10.8435632"><ele>174.66666666666669</ele><time>2026-04-07T14:38:12.044Z</time></trkpt><trkpt lat="43.5706831" lon="10.8434303"><ele>172.0</ele><time>2026-04-07T14:38:13.044Z</time></trkpt><trkpt lat="43.5708727" lon="10.8432926"><ele>171.0</ele><time>2026-04-07T14:38:14.043Z</time></trkpt><trkpt lat="43.571045" lon="10.8431717"><ele>170.0</ele><time>2026-04-07T14:38:15.044Z</time></trkpt><trkpt lat="43.5711968" lon="10.8430565"><ele>169.0</ele><time>2026-04-07T14:38:16.044Z</time></trkpt><trkpt lat="43.571314" lon="10.8429572"><ele>167.5</ele><time>2026-04-07T14:38:17.044Z</time></trkpt><trkpt lat="43.5714212" lon="10.8428392"><ele>166.0</ele><time>2026-04-07T14:38:18.044Z</time></trkpt><trkpt lat="43.5715068" lon="10.8426886"><ele>164.5</ele><time>2026-04-07T14:38:19.044Z</time></trkpt><trkpt lat="43.5715625" lon="10.842513"><ele>163.0</ele><time>2026-04-07T14:38:20.044Z</time></trkpt><trkpt lat="43.5715912" lon="10.8423239"><ele>163.0</ele><time>2026-04-07T14:38:21.044Z</time></trkpt><trkpt lat="43.5716035" lon="10.8421436"><ele>163.0</ele><time>2026-04-07T14:38:22.043Z</time></trkpt><trkpt lat="43.5715901" lon="10.8419638"><ele>163.0</ele><time>2026-04-07T14:38:23.044Z</time></trkpt><trkpt lat="43.5715474" lon="10.8417994"><ele>163.0</ele><time>2026-04-07T14:38:24.044Z</time></trkpt><trkpt lat="43.571528" lon="10.8416468"><ele>162.66666666666669</ele><time>2026-04-07T14:38:25.044Z</time></trkpt><trkpt lat="43.5715429" lon="10.8415115"><ele>162.33333333333334</ele><time>2026-04-07T14:38:26.044Z</time></trkpt><trkpt lat="43.5715957" lon="10.8414156"><ele>162.0</ele><time>2026-04-07T14:38:27.044Z</time></trkpt><trkpt lat="43.5716679" lon="10.8413656"><ele>161.66666666666666</ele><time>2026-04-07T14:38:28.044Z</time></trkpt><trkpt lat="43.5717451" lon="10.8414106"><ele>161.33333333333331</ele><time>2026-04-07T14:38:29.044Z</time></trkpt><trkpt lat="43.5717946" lon="10.8415221"><ele>161.0</ele><time>2026-04-07T14:38:30.043Z</time></trkpt><trkpt lat="43.571837" lon="10.8416521"><ele>161.66666666666666</ele><time>2026-04-07T14:38:31.044Z</time></trkpt><trkpt lat="43.5719045" lon="10.841825"><ele>162.33333333333334</ele><time>2026-04-07T14:38:32.044Z</time></trkpt><trkpt lat="43.5720146" lon="10.8420169"><ele>163.0</ele><time>2026-04-07T14:38:33.044Z</time></trkpt><trkpt lat="43.5720903" lon="10.8421968"><ele>155.66666666666669</ele><time>2026-04-07T14:38:34.043Z</time></trkpt><trkpt lat="43.5721706" lon="10.8423833"><ele>148.33333333333334</ele><time>2026-04-07T14:38:35.044Z</time></trkpt><trkpt lat="43.5721883" lon="10.8425803"><ele>141.0</ele><time>2026-04-07T14:38:36.044Z</time></trkpt><trkpt lat="43.5722099" lon="10.8427921"><ele>139.66666666666666</ele><time>2026-04-07T14:38:37.044Z</time></trkpt><trkpt lat="43.5722057" lon="10.8430225"><ele>138.33333333333331</ele><time>2026-04-07T14:38:38.044Z</time></trkpt><trkpt lat="43.5721981" lon="10.8432658"><ele>137.0</ele><time>2026-04-07T14:38:39.044Z</time></trkpt><trkpt lat="43.5721958" lon="10.8434548"><ele>137.25</ele><time>2026-04-07T14:38:40.043Z</time></trkpt><trkpt lat="43.5721876" lon="10.8436593"><ele>137.5</ele><time>2026-04-07T14:38:41.044Z</time></trkpt><trkpt lat="43.5722139" lon="10.8438235"><ele>137.75</ele><time>2026-04-07T14:38:42.043Z</time></trkpt><trkpt lat="43.5723049" lon="10.8439661"><ele>138.0</ele><time>2026-04-07T14:38:44.043Z</time></trkpt><trkpt lat="43.5723801" lon="10.8439792"><ele>138.0</ele><time>2026-04-07T14:38:45.044Z</time></trkpt><trkpt lat="43.5724708" lon="10.8439551"><ele>138.0</ele><time>2026-04-07T14:38:46.044Z</time></trkpt><trkpt lat="43.5725437" lon="10.8438941"><ele>138.0</ele><time>2026-04-07T14:38:47.043Z</time></trkpt><trkpt lat="43.5725742" lon="10.8437743"><ele>138.0</ele><time>2026-04-07T14:38:48.044Z</time></trkpt><trkpt lat="43.5725848" lon="10.8436406"><ele>138.0</ele><time>2026-04-07T14:38:49.044Z</time></trkpt><trkpt lat="43.572607" lon="10.8434694"><ele>137.66666666666666</ele><time>2026-04-07T14:38:50.044Z</time></trkpt><trkpt lat="43.5726553" lon="10.8432762"><ele>137.33333333333331</ele><time>2026-04-07T14:38:51.044Z</time></trkpt><trkpt lat="43.5727322" lon="10.8430659"><ele>137.0</ele><time>2026-04-07T14:38:52.043Z</time></trkpt><trkpt lat="43.5728609" lon="10.8428969"><ele>132.66666666666666</ele><time>2026-04-07T14:38:53.044Z</time></trkpt><trkpt lat="43.5729758" lon="10.8426996"><ele>128.33333333333334</ele><time>2026-04-07T14:38:54.044Z</time></trkpt><trkpt lat="43.5730826" lon="10.8425041"><ele>124.0</ele><time>2026-04-07T14:38:55.043Z</time></trkpt><trkpt lat="43.5731875" lon="10.8423134"><ele>124.0</ele><time>2026-04-07T14:38:56.044Z</time></trkpt><trkpt lat="43.5733167" lon="10.8422071"><ele>124.0</ele><time>2026-04-07T14:38:57.044Z</time></trkpt><trkpt lat="43.5734389" lon="10.842075"><ele>124.0</ele><time>2026-04-07T14:38:58.044Z</time></trkpt><trkpt lat="43.5735751" lon="10.8419875"><ele>124.0</ele><time>2026-04-07T14:38:59.043Z</time></trkpt><trkpt lat="43.5736858" lon="10.8419192"><ele>124.0</ele><time>2026-04-07T14:39:00.044Z</time></trkpt><trkpt lat="43.5738029" lon="10.8418151"><ele>124.0</ele><time>2026-04-07T14:39:01.044Z</time></trkpt><trkpt lat="43.5739029" lon="10.8416723"><ele>124.0</ele><time>2026-04-07T14:39:02.044Z</time></trkpt><trkpt lat="43.5739688" lon="10.8414876"><ele>119.66666666666667</ele><time>2026-04-07T14:39:03.044Z</time></trkpt><trkpt lat="43.5740195" lon="10.841271"><ele>115.33333333333334</ele><time>2026-04-07T14:39:04.043Z</time></trkpt><trkpt lat="43.5740479" lon="10.8410159"><ele>111.0</ele><time>2026-04-07T14:39:05.044Z</time></trkpt><trkpt lat="43.5740815" lon="10.8407568"><ele>110.66666666666666</ele><time>2026-04-07T14:39:06.043Z</time></trkpt><trkpt lat="43.5741209" lon="10.840501"><ele>110.33333333333333</ele><time>2026-04-07T14:39:07.044Z</time></trkpt><trkpt lat="43.5741571" lon="10.840242"><ele>110.0</ele><time>2026-04-07T14:39:08.044Z</time></trkpt><trkpt lat="43.5741845" lon="10.8399883"><ele>110.0</ele><time>2026-04-07T14:39:09.044Z</time></trkpt><trkpt lat="43.5742332" lon="10.839679"><ele>110.0</ele><time>2026-04-07T14:39:10.044Z</time></trkpt><trkpt lat="43.5742588" lon="10.8393741"><ele>109.5</ele><time>2026-04-07T14:39:11.043Z</time></trkpt><trkpt lat="43.5743009" lon="10.8390547"><ele>109.0</ele><time>2026-04-07T14:39:12.044Z</time></trkpt><trkpt lat="43.5743453" lon="10.8387411"><ele>109.0</ele><time>2026-04-07T14:39:13.044Z</time></trkpt><trkpt lat="43.5743785" lon="10.8384765"><ele>109.0</ele><time>2026-04-07T14:39:14.044Z</time></trkpt><trkpt lat="43.5744088" lon="10.8382231"><ele>109.0</ele><time>2026-04-07T14:39:15.044Z</time></trkpt><trkpt lat="43.5744337" lon="10.8380148"><ele>108.4</ele><time>2026-04-07T14:39:16.044Z</time></trkpt><trkpt lat="43.5744529" lon="10.8378064"><ele>107.80000000000001</ele><time>2026-04-07T14:39:17.043Z</time></trkpt><trkpt lat="43.5744573" lon="10.8376725"><ele>107.19999999999999</ele><time>2026-04-07T14:39:18.043Z</time></trkpt><trkpt lat="43.5744681" lon="10.8375574"><ele>106.6</ele><time>2026-04-07T14:39:19.044Z</time></trkpt><trkpt lat="43.5744688" lon="10.837461"><ele>106.0</ele><time>2026-04-07T14:39:20.044Z</time></trkpt><trkpt lat="43.5744689" lon="10.8373737"><ele>105.25</ele><time>2026-04-07T14:39:21.043Z</time></trkpt><trkpt lat="43.5744625" lon="10.8372104"><ele>104.5</ele><time>2026-04-07T14:39:23.044Z</time></trkpt><trkpt lat="43.5744546" lon="10.8370591"><ele>103.75</ele><time>2026-04-07T14:39:25.044Z</time></trkpt><trkpt lat="43.5744351" lon="10.836899"><ele>103.0</ele><time>2026-04-07T14:39:27.044Z</time></trkpt><trkpt lat="43.5744019" lon="10.836741"><ele>102.25</ele><time>2026-04-07T14:39:29.043Z</time></trkpt><trkpt lat="43.5743682" lon="10.8365684"><ele>101.5</ele><time>2026-04-07T14:39:31.043Z</time></trkpt><trkpt lat="43.5743426" lon="10.8364133"><ele>100.75</ele><time>2026-04-07T14:39:33.043Z</time></trkpt><trkpt lat="43.5743098" lon="10.8362547"><ele>100.0</ele><time>2026-04-07T14:39:35.044Z</time></trkpt><trkpt lat="43.5742736" lon="10.8361477"><ele>100.0</ele><time>2026-04-07T14:39:37.044Z</time></trkpt><trkpt lat="43.5742499" lon="10.8360254"><ele>100.0</ele><time>2026-04-07T14:39:39.043Z</time></trkpt><trkpt lat="43.5742114" lon="10.8358923"><ele>100.0</ele><time>2026-04-07T14:39:41.044Z</time></trkpt><trkpt lat="43.5741734" lon="10.835739"><ele>100.0</ele><time>2026-04-07T14:39:43.044Z</time></trkpt><trkpt lat="43.574121" lon="10.8356035"><ele>100.0</ele><time>2026-04-07T14:39:45.043Z</time></trkpt><trkpt lat="43.5740815" lon="10.8354486"><ele>100.33333333333334</ele><time>2026-04-07T14:39:47.044Z</time></trkpt><trkpt lat="43.5740375" lon="10.8353074"><ele>100.66666666666667</ele><time>2026-04-07T14:39:49.044Z</time></trkpt><trkpt lat="43.574008" lon="10.8352305"><ele>101.0</ele><time>2026-04-07T14:39:50.043Z</time></trkpt><trkpt lat="43.5739747" lon="10.835142"><ele>101.33333333333334</ele><time>2026-04-07T14:39:51.044Z</time></trkpt><trkpt lat="43.5739398" lon="10.8350619"><ele>101.66666666666667</ele><time>2026-04-07T14:39:52.044Z</time></trkpt><trkpt lat="43.5738816" lon="10.8349221"><ele>102.0</ele><time>2026-04-07T14:39:54.043Z</time></trkpt><trkpt lat="43.57382" lon="10.8347677"><ele>102.0</ele><time>2026-04-07T14:39:56.044Z</time></trkpt><trkpt lat="43.5737598" lon="10.8346173"><ele>102.0</ele><time>2026-04-07T14:39:58.043Z</time></trkpt><trkpt lat="43.5736922" lon="10.8344727"><ele>102.0</ele><time>2026-04-07T14:40:00.044Z</time></trkpt><trkpt lat="43.5736385" lon="10.8343383"><ele>102.0</ele><time>2026-04-07T14:40:02.043Z</time></trkpt><trkpt lat="43.5735876" lon="10.834199"><ele>101.19999999999999</ele><time>2026-04-07T14:40:04.044Z</time></trkpt><trkpt lat="43.5735373" lon="10.8340847"><ele>100.4</ele><time>2026-04-07T14:40:06.044Z</time></trkpt><trkpt lat="43.573493" lon="10.8339885"><ele>99.6</ele><time>2026-04-07T14:40:08.043Z</time></trkpt><trkpt lat="43.573447" lon="10.8338739"><ele>98.80000000000001</ele><time>2026-04-07T14:40:10.044Z</time></trkpt><trkpt lat="43.5733939" lon="10.8337448"><ele>98.0</ele><time>2026-04-07T14:40:12.044Z</time></trkpt><trkpt lat="43.5733395" lon="10.8336252"><ele>97.99999999999999</ele><time>2026-04-07T14:40:14.044Z</time></trkpt><trkpt lat="43.5732891" lon="10.8335222"><ele>98.0</ele><time>2026-04-07T14:40:16.043Z</time></trkpt><trkpt lat="43.5732457" lon="10.8334302"><ele>98.0</ele><time>2026-04-07T14:40:18.043Z</time></trkpt><trkpt lat="43.5732098" lon="10.8333407"><ele>98.0</ele><time>2026-04-07T14:40:20.043Z</time></trkpt><trkpt lat="43.5731703" lon="10.8332535"><ele>97.99999999999999</ele><time>2026-04-07T14:40:22.044Z</time></trkpt><trkpt lat="43.5731301" lon="10.8331645"><ele>98.0</ele><time>2026-04-07T14:40:24.044Z</time></trkpt><trkpt lat="43.5730881" lon="10.8330408"><ele>99.2</ele><time>2026-04-07T14:40:26.043Z</time></trkpt><trkpt lat="43.57303" lon="10.8329013"><ele>100.4</ele><time>2026-04-07T14:40:28.043Z</time></trkpt><trkpt lat="43.57297" lon="10.8327542"><ele>101.60000000000001</ele><time>2026-04-07T14:40:30.043Z</time></trkpt><trkpt lat="43.5729443" lon="10.8326658"><ele>102.80000000000001</ele><time>2026-04-07T14:40:31.044Z</time></trkpt><trkpt lat="43.5729242" lon="10.8325764"><ele>104.0</ele><time>2026-04-07T14:40:32.044Z</time></trkpt><trkpt lat="43.5728653" lon="10.8324293"><ele>102.80000000000001</ele><time>2026-04-07T14:40:34.044Z</time></trkpt><trkpt lat="43.5728366" lon="10.8322936"><ele>101.60000000000001</ele><time>2026-04-07T14:40:36.043Z</time></trkpt><trkpt lat="43.5728039" lon="10.8321328"><ele>100.4</ele><time>2026-04-07T14:40:38.043Z</time></trkpt><trkpt lat="43.5727797" lon="10.8320474"><ele>99.2</ele><time>2026-04-07T14:40:39.044Z</time></trkpt><trkpt lat="43.5727447" lon="10.8319025"><ele>98.0</ele><time>2026-04-07T14:40:41.044Z</time></trkpt><trkpt lat="43.5726758" lon="10.8317631"><ele>98.0</ele><time>2026-04-07T14:40:43.044Z</time></trkpt><trkpt lat="43.5725908" lon="10.8316417"><ele>98.0</ele><time>2026-04-07T14:40:45.044Z</time></trkpt><trkpt lat="43.5725281" lon="10.8315258"><ele>98.0</ele><time>2026-04-07T14:40:47.044Z</time></trkpt><trkpt lat="43.5724979" lon="10.8313772"><ele>98.0</ele><time>2026-04-07T14:40:49.043Z</time></trkpt><trkpt lat="43.5724824" lon="10.8312374"><ele>98.0</ele><time>2026-04-07T14:40:51.043Z</time></trkpt><trkpt lat="43.5725069" lon="10.8310895"><ele>96.5</ele><time>2026-04-07T14:40:53.044Z</time></trkpt><trkpt lat="43.5725537" lon="10.8309251"><ele>95.0</ele><time>2026-04-07T14:40:55.044Z</time></trkpt><trkpt lat="43.5726083" lon="10.830817"><ele>93.5</ele><time>2026-04-07T14:40:57.044Z</time></trkpt><trkpt lat="43.5726738" lon="10.8306966"><ele>92.0</ele><time>2026-04-07T14:40:59.043Z</time></trkpt><trkpt lat="43.5727516" lon="10.830574"><ele>92.0</ele><time>2026-04-07T14:41:01.044Z</time></trkpt><trkpt lat="43.5728117" lon="10.8304667"><ele>92.0</ele><time>2026-04-07T14:41:03.044Z</time></trkpt><trkpt lat="43.5728575" lon="10.8303607"><ele>92.0</ele><time>2026-04-07T14:41:05.044Z</time></trkpt><trkpt lat="43.5729072" lon="10.8302317"><ele>92.0</ele><time>2026-04-07T14:41:07.043Z</time></trkpt><trkpt lat="43.5729579" lon="10.8300926"><ele>92.0</ele><time>2026-04-07T14:41:09.044Z</time></trkpt><trkpt lat="43.5730056" lon="10.8299577"><ele>93.8</ele><time>2026-04-07T14:41:11.044Z</time></trkpt><trkpt lat="43.5730441" lon="10.8298316"><ele>95.6</ele><time>2026-04-07T14:41:13.043Z</time></trkpt><trkpt lat="43.5730729" lon="10.8296896"><ele>97.39999999999999</ele><time>2026-04-07T14:41:15.044Z</time></trkpt><trkpt lat="43.5730905" lon="10.8295357"><ele>99.19999999999999</ele><time>2026-04-07T14:41:17.044Z</time></trkpt><trkpt lat="43.5730981" lon="10.8293939"><ele>101.0</ele><time>2026-04-07T14:41:19.044Z</time></trkpt><trkpt lat="43.573087" lon="10.8292582"><ele>101.0</ele><time>2026-04-07T14:41:21.044Z</time></trkpt><trkpt lat="43.5730714" lon="10.8291102"><ele>101.0</ele><time>2026-04-07T14:41:23.043Z</time></trkpt><trkpt lat="43.573038" lon="10.8289564"><ele>101.0</ele><time>2026-04-07T14:41:25.043Z</time></trkpt><trkpt lat="43.5730055" lon="10.8288052"><ele>101.0</ele><time>2026-04-07T14:41:27.044Z</time></trkpt><trkpt lat="43.5729832" lon="10.8287186"><ele>101.0</ele><time>2026-04-07T14:41:28.044Z</time></trkpt><trkpt lat="43.5729379" lon="10.8285718"><ele>100.19999999999999</ele><time>2026-04-07T14:41:30.044Z</time></trkpt><trkpt lat="43.5728986" lon="10.8284185"><ele>99.39999999999999</ele><time>2026-04-07T14:41:32.044Z</time></trkpt><trkpt lat="43.5728585" lon="10.8282567"><ele>98.6</ele><time>2026-04-07T14:41:34.044Z</time></trkpt><trkpt lat="43.5728441" lon="10.8281194"><ele>97.8</ele><time>2026-04-07T14:41:36.044Z</time></trkpt><trkpt lat="43.5728387" lon="10.8280189"><ele>97.0</ele><time>2026-04-07T14:41:38.044Z</time></trkpt><trkpt lat="43.5728223" lon="10.827837"><ele>97.00000000000001</ele><time>2026-04-07T14:41:40.044Z</time></trkpt><trkpt lat="43.5728129" lon="10.8277372"><ele>97.0</ele><time>2026-04-07T14:41:41.043Z</time></trkpt><trkpt lat="43.5728118" lon="10.8276456"><ele>97.0</ele><time>2026-04-07T14:41:42.043Z</time></trkpt><trkpt lat="43.5728044" lon="10.8275572"><ele>97.0</ele><time>2026-04-07T14:41:43.044Z</time></trkpt><trkpt lat="43.5727861" lon="10.8273889"><ele>97.00000000000001</ele><time>2026-04-07T14:41:45.044Z</time></trkpt><trkpt lat="43.5727841" lon="10.8272991"><ele>97.0</ele><time>2026-04-07T14:41:46.043Z</time></trkpt><trkpt lat="43.5727806" lon="10.8272102"><ele>97.39999999999999</ele><time>2026-04-07T14:41:47.043Z</time></trkpt><trkpt lat="43.5727907" lon="10.8270354"><ele>97.8</ele><time>2026-04-07T14:41:49.044Z</time></trkpt><trkpt lat="43.5728067" lon="10.8269495"><ele>98.2</ele><time>2026-04-07T14:41:50.044Z</time></trkpt><trkpt lat="43.5728293" lon="10.8267887"><ele>98.6</ele><time>2026-04-07T14:41:52.043Z</time></trkpt><trkpt lat="43.5728572" lon="10.8266248"><ele>99.0</ele><time>2026-04-07T14:41:54.044Z</time></trkpt><trkpt lat="43.5728986" lon="10.826464"><ele>99.0</ele><time>2026-04-07T14:41:56.044Z</time></trkpt><trkpt lat="43.5729203" lon="10.8263795"><ele>99.0</ele><time>2026-04-07T14:41:57.043Z</time></trkpt><trkpt lat="43.5729675" lon="10.8262413"><ele>99.0</ele><time>2026-04-07T14:41:59.044Z</time></trkpt><trkpt lat="43.5730077" lon="10.8261133"><ele>99.0</ele><time>2026-04-07T14:42:01.044Z</time></trkpt><trkpt lat="43.5730489" lon="10.8259712"><ele>99.0</ele><time>2026-04-07T14:42:03.044Z</time></trkpt><trkpt lat="43.5731062" lon="10.8258459"><ele>97.80000000000001</ele><time>2026-04-07T14:42:05.044Z</time></trkpt><trkpt lat="43.5731633" lon="10.8257156"><ele>96.60000000000001</ele><time>2026-04-07T14:42:07.044Z</time></trkpt><trkpt lat="43.5732095" lon="10.8255616"><ele>95.4</ele><time>2026-04-07T14:42:09.043Z</time></trkpt><trkpt lat="43.5732531" lon="10.8254167"><ele>94.2</ele><time>2026-04-07T14:42:11.043Z</time></trkpt><trkpt lat="43.5732929" lon="10.8252929"><ele>93.0</ele><time>2026-04-07T14:42:13.044Z</time></trkpt><trkpt lat="43.5733316" lon="10.8251936"><ele>92.0</ele><time>2026-04-07T14:42:15.044Z</time></trkpt><trkpt lat="43.573385" lon="10.8250756"><ele>91.0</ele><time>2026-04-07T14:42:17.043Z</time></trkpt><trkpt lat="43.573425" lon="10.8249717"><ele>90.0</ele><time>2026-04-07T14:42:19.044Z</time></trkpt><trkpt lat="43.573484" lon="10.8248457"><ele>89.0</ele><time>2026-04-07T14:42:21.044Z</time></trkpt><trkpt lat="43.5735465" lon="10.8247219"><ele>88.0</ele><time>2026-04-07T14:42:23.044Z</time></trkpt><trkpt lat="43.5735962" lon="10.8246191"><ele>88.0</ele><time>2026-04-07T14:42:25.044Z</time></trkpt><trkpt lat="43.5736369" lon="10.8244967"><ele>88.0</ele><time>2026-04-07T14:42:27.044Z</time></trkpt><trkpt lat="43.5736907" lon="10.8243628"><ele>88.0</ele><time>2026-04-07T14:42:29.043Z</time></trkpt><trkpt lat="43.5737614" lon="10.8242473"><ele>88.0</ele><time>2026-04-07T14:42:31.044Z</time></trkpt><trkpt lat="43.5738302" lon="10.8241135"><ele>88.0</ele><time>2026-04-07T14:42:33.043Z</time></trkpt><trkpt lat="43.5739051" lon="10.8239867"><ele>88.0</ele><time>2026-04-07T14:42:35.044Z</time></trkpt><trkpt lat="43.5739726" lon="10.8238585"><ele>88.0</ele><time>2026-04-07T14:42:37.044Z</time></trkpt><trkpt lat="43.5740429" lon="10.8237269"><ele>88.0</ele><time>2026-04-07T14:42:39.044Z</time></trkpt><trkpt lat="43.5741153" lon="10.8236126"><ele>88.0</ele><time>2026-04-07T14:42:41.043Z</time></trkpt><trkpt lat="43.5741842" lon="10.8234912"><ele>87.4</ele><time>2026-04-07T14:42:43.043Z</time></trkpt><trkpt lat="43.5742519" lon="10.8233861"><ele>86.80000000000001</ele><time>2026-04-07T14:42:45.044Z</time></trkpt><trkpt lat="43.574321" lon="10.8232851"><ele>86.2</ele><time>2026-04-07T14:42:47.044Z</time></trkpt><trkpt lat="43.5744078" lon="10.8232009"><ele>85.6</ele><time>2026-04-07T14:42:49.044Z</time></trkpt><trkpt lat="43.5745047" lon="10.823124"><ele>85.0</ele><time>2026-04-07T14:42:51.044Z</time></trkpt><trkpt lat="43.5746029" lon="10.8230379"><ele>85.0</ele><time>2026-04-07T14:42:53.043Z</time></trkpt><trkpt lat="43.5746956" lon="10.8229602"><ele>85.0</ele><time>2026-04-07T14:42:55.043Z</time></trkpt><trkpt lat="43.574792" lon="10.82287"><ele>85.0</ele><time>2026-04-07T14:42:57.043Z</time></trkpt><trkpt lat="43.5748937" lon="10.8228098"><ele>85.0</ele><time>2026-04-07T14:42:59.044Z</time></trkpt><trkpt lat="43.5749981" lon="10.8227286"><ele>85.0</ele><time>2026-04-07T14:43:01.044Z</time></trkpt><trkpt lat="43.5750842" lon="10.8226486"><ele>85.0</ele><time>2026-04-07T14:43:03.043Z</time></trkpt><trkpt lat="43.5751473" lon="10.8226129"><ele>85.0</ele><time>2026-04-07T14:43:04.044Z</time></trkpt><trkpt lat="43.5752089" lon="10.8225797"><ele>85.0</ele><time>2026-04-07T14:43:05.044Z</time></trkpt><trkpt lat="43.5753194" lon="10.8224845"><ele>85.0</ele><time>2026-04-07T14:43:07.044Z</time></trkpt><trkpt lat="43.5754169" lon="10.8223925"><ele>84.2</ele><time>2026-04-07T14:43:09.044Z</time></trkpt><trkpt lat="43.5755146" lon="10.8222902"><ele>83.4</ele><time>2026-04-07T14:43:11.044Z</time></trkpt><trkpt lat="43.5755655" lon="10.82223"><ele>82.6</ele><time>2026-04-07T14:43:12.044Z</time></trkpt><trkpt lat="43.5756583" lon="10.822118"><ele>81.8</ele><time>2026-04-07T14:43:14.044Z</time></trkpt><trkpt lat="43.5757334" lon="10.8219899"><ele>81.0</ele><time>2026-04-07T14:43:16.043Z</time></trkpt><trkpt lat="43.5758014" lon="10.8218497"><ele>81.25</ele><time>2026-04-07T14:43:18.044Z</time></trkpt><trkpt lat="43.5758515" lon="10.8217078"><ele>81.5</ele><time>2026-04-07T14:43:20.044Z</time></trkpt><trkpt lat="43.575889" lon="10.8215488"><ele>81.75</ele><time>2026-04-07T14:43:22.044Z</time></trkpt><trkpt lat="43.5759183" lon="10.8214102"><ele>82.0</ele><time>2026-04-07T14:43:24.044Z</time></trkpt><trkpt lat="43.5759499" lon="10.8212634"><ele>82.0</ele><time>2026-04-07T14:43:26.044Z</time></trkpt><trkpt lat="43.5759742" lon="10.8211403"><ele>82.0</ele><time>2026-04-07T14:43:28.043Z</time></trkpt><trkpt lat="43.5760032" lon="10.8209794"><ele>82.0</ele><time>2026-04-07T14:43:30.044Z</time></trkpt><trkpt lat="43.5760226" lon="10.8208945"><ele>82.0</ele><time>2026-04-07T14:43:31.044Z</time></trkpt><trkpt lat="43.5760513" lon="10.8207432"><ele>82.0</ele><time>2026-04-07T14:43:33.044Z</time></trkpt><trkpt lat="43.5760808" lon="10.8206299"><ele>82.19999999999999</ele><time>2026-04-07T14:43:35.044Z</time></trkpt><trkpt lat="43.5760993" lon="10.8205389"><ele>82.4</ele><time>2026-04-07T14:43:37.043Z</time></trkpt><trkpt lat="43.5761211" lon="10.8204357"><ele>82.6</ele><time>2026-04-07T14:43:39.043Z</time></trkpt><trkpt lat="43.5761285" lon="10.8203033"><ele>82.80000000000001</ele><time>2026-04-07T14:43:41.044Z</time></trkpt><trkpt lat="43.5761311" lon="10.8201559"><ele>83.0</ele><time>2026-04-07T14:43:43.044Z</time></trkpt><trkpt lat="43.5761351" lon="10.8200136"><ele>83.0</ele><time>2026-04-07T14:43:45.044Z</time></trkpt><trkpt lat="43.5761289" lon="10.8198536"><ele>83.0</ele><time>2026-04-07T14:43:47.044Z</time></trkpt><trkpt lat="43.5761004" lon="10.8196792"><ele>83.0</ele><time>2026-04-07T14:43:49.044Z</time></trkpt><trkpt lat="43.5760587" lon="10.819523"><ele>83.0</ele><time>2026-04-07T14:43:51.044Z</time></trkpt><trkpt lat="43.5760276" lon="10.8194422"><ele>83.0</ele><time>2026-04-07T14:43:52.043Z</time></trkpt><trkpt lat="43.5759529" lon="10.8192996"><ele>83.0</ele><time>2026-04-07T14:43:54.043Z</time></trkpt><trkpt lat="43.5759102" lon="10.8192349"><ele>83.0</ele><time>2026-04-07T14:43:55.043Z</time></trkpt><trkpt lat="43.5758261" lon="10.8191099"><ele>83.0</ele><time>2026-04-07T14:43:57.044Z</time></trkpt><trkpt lat="43.5757422" lon="10.8189876"><ele>83.0</ele><time>2026-04-07T14:43:59.044Z</time></trkpt><trkpt lat="43.5756545" lon="10.8188736"><ele>83.0</ele><time>2026-04-07T14:44:01.044Z</time></trkpt><trkpt lat="43.5756088" lon="10.8188126"><ele>83.0</ele><time>2026-04-07T14:44:02.044Z</time></trkpt><trkpt lat="43.5755139" lon="10.8187005"><ele>83.0</ele><time>2026-04-07T14:44:04.044Z</time></trkpt><trkpt lat="43.5754652" lon="10.8186449"><ele>83.0</ele><time>2026-04-07T14:44:05.044Z</time></trkpt><trkpt lat="43.5753875" lon="10.8185234"><ele>83.0</ele><time>2026-04-07T14:44:07.043Z</time></trkpt><trkpt lat="43.5752936" lon="10.8184172"><ele>83.0</ele><time>2026-04-07T14:44:09.044Z</time></trkpt><trkpt lat="43.5752473" lon="10.8183579"><ele>82.4</ele><time>2026-04-07T14:44:10.044Z</time></trkpt><trkpt lat="43.5751957" lon="10.8182985"><ele>81.80000000000001</ele><time>2026-04-07T14:44:11.044Z</time></trkpt><trkpt lat="43.5751082" lon="10.8181552"><ele>81.2</ele><time>2026-04-07T14:44:13.044Z</time></trkpt><trkpt lat="43.5750509" lon="10.8180808"><ele>80.6</ele><time>2026-04-07T14:44:14.044Z</time></trkpt><trkpt lat="43.5749968" lon="10.8179933"><ele>80.0</ele><time>2026-04-07T14:44:15.044Z</time></trkpt><trkpt lat="43.5749334" lon="10.8179031"><ele>80.0</ele><time>2026-04-07T14:44:16.044Z</time></trkpt><trkpt lat="43.5748616" lon="10.8177805"><ele>80.0</ele><time>2026-04-07T14:44:17.043Z</time></trkpt><trkpt lat="43.5748021" lon="10.8176289"><ele>80.0</ele><time>2026-04-07T14:44:18.043Z</time></trkpt><trkpt lat="43.5747556" lon="10.8174669"><ele>80.0</ele><time>2026-04-07T14:44:19.043Z</time></trkpt><trkpt lat="43.5747317" lon="10.8172911"><ele>79.75</ele><time>2026-04-07T14:44:20.044Z</time></trkpt><trkpt lat="43.5747285" lon="10.817104"><ele>79.5</ele><time>2026-04-07T14:44:21.044Z</time></trkpt><trkpt lat="43.574743" lon="10.8169025"><ele>79.25</ele><time>2026-04-07T14:44:22.044Z</time></trkpt><trkpt lat="43.5747666" lon="10.8166815"><ele>79.0</ele><time>2026-04-07T14:44:23.044Z</time></trkpt><trkpt lat="43.5747923" lon="10.8164446"><ele>79.66666666666666</ele><time>2026-04-07T14:44:24.044Z</time></trkpt><trkpt lat="43.5748287" lon="10.8161894"><ele>80.33333333333333</ele><time>2026-04-07T14:44:25.043Z</time></trkpt><trkpt lat="43.5748613" lon="10.8159312"><ele>81.0</ele><time>2026-04-07T14:44:26.044Z</time></trkpt><trkpt lat="43.5748915" lon="10.815683"><ele>81.0</ele><time>2026-04-07T14:44:27.043Z</time></trkpt><trkpt lat="43.5749097" lon="10.8154571"><ele>81.0</ele><time>2026-04-07T14:44:28.043Z</time></trkpt><trkpt lat="43.5749319" lon="10.8152645"><ele>81.0</ele><time>2026-04-07T14:44:29.044Z</time></trkpt><trkpt lat="43.5749482" lon="10.8150975"><ele>81.0</ele><time>2026-04-07T14:44:30.044Z</time></trkpt><trkpt lat="43.5749605" lon="10.8149436"><ele>81.0</ele><time>2026-04-07T14:44:31.043Z</time></trkpt><trkpt lat="43.5749507" lon="10.8148055"><ele>81.0</ele><time>2026-04-07T14:44:32.044Z</time></trkpt><trkpt lat="43.5749185" lon="10.8146803"><ele>81.0</ele><time>2026-04-07T14:44:33.043Z</time></trkpt><trkpt lat="43.5748825" lon="10.8145782"><ele>81.0</ele><time>2026-04-07T14:44:34.044Z</time></trkpt><trkpt lat="43.5748523" lon="10.8144917"><ele>81.0</ele><time>2026-04-07T14:44:35.044Z</time></trkpt><trkpt lat="43.5748066" lon="10.8143884"><ele>81.0</ele><time>2026-04-07T14:44:37.044Z</time></trkpt><trkpt lat="43.5747453" lon="10.8143306"><ele>81.0</ele><time>2026-04-07T14:44:52.044Z</time></trkpt><trkpt lat="43.574661" lon="10.8142591"><ele>81.0</ele><time>2026-04-07T14:44:54.044Z</time></trkpt><trkpt lat="43.5745641" lon="10.814315"><ele>81.0</ele><time>2026-04-07T14:44:56.044Z</time></trkpt><trkpt lat="43.5745026" lon="10.8144011"><ele>81.0</ele><time>2026-04-07T14:44:57.044Z</time></trkpt><trkpt lat="43.5744414" lon="10.8144961"><ele>81.0</ele><time>2026-04-07T14:44:58.044Z</time></trkpt><trkpt lat="43.5743759" lon="10.8145958"><ele>83.0</ele><time>2026-04-07T14:44:59.044Z</time></trkpt><trkpt lat="43.5743026" lon="10.8147124"><ele>85.0</ele><time>2026-04-07T14:45:00.043Z</time></trkpt><trkpt lat="43.5742271" lon="10.8148515"><ele>87.0</ele><time>2026-04-07T14:45:01.044Z</time></trkpt><trkpt lat="43.5741441" lon="10.8150148"><ele>89.0</ele><time>2026-04-07T14:45:02.044Z</time></trkpt><trkpt lat="43.5740482" lon="10.8151913"><ele>89.5</ele><time>2026-04-07T14:45:03.044Z</time></trkpt><trkpt lat="43.5739528" lon="10.8153643"><ele>90.0</ele><time>2026-04-07T14:45:04.044Z</time></trkpt><trkpt lat="43.5738663" lon="10.8155269"><ele>90.5</ele><time>2026-04-07T14:45:05.044Z</time></trkpt><trkpt lat="43.5737774" lon="10.8156864"><ele>91.0</ele><time>2026-04-07T14:45:06.044Z</time></trkpt><trkpt lat="43.5736981" lon="10.8158533"><ele>93.0</ele><time>2026-04-07T14:45:07.044Z</time></trkpt><trkpt lat="43.5736236" lon="10.8160276"><ele>95.0</ele><time>2026-04-07T14:45:08.044Z</time></trkpt><trkpt lat="43.5735516" lon="10.8162498"><ele>97.0</ele><time>2026-04-07T14:45:09.043Z</time></trkpt><trkpt lat="43.5734885" lon="10.8164714"><ele>97.0</ele><time>2026-04-07T14:45:10.044Z</time></trkpt><trkpt lat="43.5734364" lon="10.8167351"><ele>97.0</ele><time>2026-04-07T14:45:11.043Z</time></trkpt><trkpt lat="43.5733832" lon="10.817025"><ele>97.0</ele><time>2026-04-07T14:45:12.043Z</time></trkpt><trkpt lat="43.5733309" lon="10.8173448"><ele>101.0</ele><time>2026-04-07T14:45:13.043Z</time></trkpt><trkpt lat="43.5732632" lon="10.8176903"><ele>105.0</ele><time>2026-04-07T14:45:14.043Z</time></trkpt><trkpt lat="43.5731835" lon="10.818038"><ele>105.0</ele><time>2026-04-07T14:45:15.044Z</time></trkpt><trkpt lat="43.5731099" lon="10.8183722"><ele>105.0</ele><time>2026-04-07T14:45:16.043Z</time></trkpt><trkpt lat="43.5730448" lon="10.8186868"><ele>106.33333333333334</ele><time>2026-04-07T14:45:17.044Z</time></trkpt><trkpt lat="43.5729862" lon="10.8189552"><ele>107.66666666666667</ele><time>2026-04-07T14:45:18.044Z</time></trkpt><trkpt lat="43.5729381" lon="10.8191979"><ele>109.0</ele><time>2026-04-07T14:45:19.044Z</time></trkpt><trkpt lat="43.5728946" lon="10.8194155"><ele>111.25</ele><time>2026-04-07T14:45:20.044Z</time></trkpt><trkpt lat="43.5728416" lon="10.819605"><ele>113.5</ele><time>2026-04-07T14:45:21.044Z</time></trkpt><trkpt lat="43.5727813" lon="10.8197826"><ele>115.75</ele><time>2026-04-07T14:45:22.044Z</time></trkpt><trkpt lat="43.5726857" lon="10.8199138"><ele>118.0</ele><time>2026-04-07T14:45:23.044Z</time></trkpt><trkpt lat="43.5725624" lon="10.8200399"><ele>118.0</ele><time>2026-04-07T14:45:24.044Z</time></trkpt><trkpt lat="43.5724197" lon="10.8201137"><ele>118.0</ele><time>2026-04-07T14:45:25.043Z</time></trkpt><trkpt lat="43.57227" lon="10.8201521"><ele>118.0</ele><time>2026-04-07T14:45:26.044Z</time></trkpt><trkpt lat="43.5721062" lon="10.8201705"><ele>116.0</ele><time>2026-04-07T14:45:27.044Z</time></trkpt><trkpt lat="43.571932" lon="10.8201905"><ele>114.0</ele><time>2026-04-07T14:45:28.044Z</time></trkpt><trkpt lat="43.5717404" lon="10.8202128"><ele>112.0</ele><time>2026-04-07T14:45:29.043Z</time></trkpt><trkpt lat="43.5715429" lon="10.8202316"><ele>112.0</ele><time>2026-04-07T14:45:30.043Z</time></trkpt><trkpt lat="43.5713609" lon="10.8202538"><ele>112.0</ele><time>2026-04-07T14:45:31.044Z</time></trkpt><trkpt lat="43.571195" lon="10.820268"><ele>112.0</ele><time>2026-04-07T14:45:32.044Z</time></trkpt><trkpt lat="43.5710467" lon="10.8202793"><ele>115.0</ele><time>2026-04-07T14:45:33.044Z</time></trkpt><trkpt lat="43.5709093" lon="10.8203059"><ele>118.0</ele><time>2026-04-07T14:45:34.043Z</time></trkpt><trkpt lat="43.5707791" lon="10.8203562"><ele>121.0</ele><time>2026-04-07T14:45:35.043Z</time></trkpt><trkpt lat="43.5706644" lon="10.820422"><ele>124.0</ele><time>2026-04-07T14:45:36.044Z</time></trkpt><trkpt lat="43.570542" lon="10.8205486"><ele>124.0</ele><time>2026-04-07T14:45:37.044Z</time></trkpt><trkpt lat="43.570424" lon="10.8207023"><ele>124.0</ele><time>2026-04-07T14:45:38.044Z</time></trkpt><trkpt lat="43.5703254" lon="10.8208916"><ele>124.0</ele><time>2026-04-07T14:45:39.044Z</time></trkpt><trkpt lat="43.5702402" lon="10.8210951"><ele>128.33333333333334</ele><time>2026-04-07T14:45:40.044Z</time></trkpt><trkpt lat="43.5701653" lon="10.8213441"><ele>132.66666666666666</ele><time>2026-04-07T14:45:41.044Z</time></trkpt><trkpt lat="43.5700963" lon="10.8215774"><ele>137.0</ele><time>2026-04-07T14:45:42.044Z</time></trkpt><trkpt lat="43.5700339" lon="10.8218061"><ele>136.66666666666666</ele><time>2026-04-07T14:45:43.043Z</time></trkpt><trkpt lat="43.5699817" lon="10.8220231"><ele>136.33333333333334</ele><time>2026-04-07T14:45:44.044Z</time></trkpt><trkpt lat="43.5699388" lon="10.8222441"><ele>136.0</ele><time>2026-04-07T14:45:45.043Z</time></trkpt><trkpt lat="43.5699055" lon="10.8224647"><ele>135.66666666666669</ele><time>2026-04-07T14:45:46.044Z</time></trkpt><trkpt lat="43.5698617" lon="10.8227045"><ele>135.33333333333334</ele><time>2026-04-07T14:45:47.043Z</time></trkpt><trkpt lat="43.5698035" lon="10.8229384"><ele>135.0</ele><time>2026-04-07T14:45:48.043Z</time></trkpt><trkpt lat="43.5697424" lon="10.8231648"><ele>135.0</ele><time>2026-04-07T14:45:49.044Z</time></trkpt><trkpt lat="43.5696875" lon="10.8233517"><ele>135.0</ele><time>2026-04-07T14:45:50.044Z</time></trkpt><trkpt lat="43.5696" lon="10.8235556"><ele>135.0</ele><time>2026-04-07T14:45:51.044Z</time></trkpt><trkpt lat="43.569505" lon="10.823741"><ele>135.66666666666666</ele><time>2026-04-07T14:45:52.043Z</time></trkpt><trkpt lat="43.5693973" lon="10.8239506"><ele>136.33333333333331</ele><time>2026-04-07T14:45:53.044Z</time></trkpt><trkpt lat="43.569283" lon="10.8241746"><ele>137.0</ele><time>2026-04-07T14:45:54.044Z</time></trkpt><trkpt lat="43.569157" lon="10.8243362"><ele>137.0</ele><time>2026-04-07T14:45:55.044Z</time></trkpt><trkpt lat="43.5690421" lon="10.8245238"><ele>137.0</ele><time>2026-04-07T14:45:56.044Z</time></trkpt><trkpt lat="43.5689256" lon="10.8247076"><ele>137.0</ele><time>2026-04-07T14:45:57.044Z</time></trkpt><trkpt lat="43.5688007" lon="10.8248972"><ele>136.66666666666666</ele><time>2026-04-07T14:45:58.044Z</time></trkpt><trkpt lat="43.5686784" lon="10.8250943"><ele>136.33333333333334</ele><time>2026-04-07T14:45:59.044Z</time></trkpt><trkpt lat="43.5685779" lon="10.8252695"><ele>136.0</ele><time>2026-04-07T14:46:00.044Z</time></trkpt><trkpt lat="43.568487" lon="10.8254799"><ele>138.0</ele><time>2026-04-07T14:46:01.043Z</time></trkpt><trkpt lat="43.5684361" lon="10.8257366"><ele>140.0</ele><time>2026-04-07T14:46:02.043Z</time></trkpt><trkpt lat="43.5683901" lon="10.8260112"><ele>142.0</ele><time>2026-04-07T14:46:03.043Z</time></trkpt><trkpt lat="43.5683245" lon="10.8262912"><ele>145.5</ele><time>2026-04-07T14:46:04.043Z</time></trkpt><trkpt lat="43.5682717" lon="10.8265986"><ele>149.0</ele><time>2026-04-07T14:46:05.044Z</time></trkpt><trkpt lat="43.5682197" lon="10.8269217"><ele>151.5</ele><time>2026-04-07T14:46:06.044Z</time></trkpt><trkpt lat="43.5681647" lon="10.8272457"><ele>154.0</ele><time>2026-04-07T14:46:07.043Z</time></trkpt><trkpt lat="43.5681094" lon="10.8275617"><ele>155.5</ele><time>2026-04-07T14:46:08.043Z</time></trkpt><trkpt lat="43.5680432" lon="10.8278751"><ele>157.0</ele><time>2026-04-07T14:46:09.044Z</time></trkpt><trkpt lat="43.5679752" lon="10.8281949"><ele>157.0</ele><time>2026-04-07T14:46:10.044Z</time></trkpt><trkpt lat="43.5678876" lon="10.8284256"><ele>157.0</ele><time>2026-04-07T14:46:11.044Z</time></trkpt><trkpt lat="43.5678141" lon="10.8286508"><ele>157.0</ele><time>2026-04-07T14:46:12.044Z</time></trkpt><trkpt lat="43.5677429" lon="10.8289009"><ele>153.33333333333334</ele><time>2026-04-07T14:46:13.044Z</time></trkpt><trkpt lat="43.5676525" lon="10.8291222"><ele>149.66666666666666</ele><time>2026-04-07T14:46:14.044Z</time></trkpt><trkpt lat="43.5675317" lon="10.829327"><ele>146.0</ele><time>2026-04-07T14:46:15.043Z</time></trkpt><trkpt lat="43.5673658" lon="10.8294949"><ele>146.0</ele><time>2026-04-07T14:46:16.044Z</time></trkpt><trkpt lat="43.5671903" lon="10.8296851"><ele>146.0</ele><time>2026-04-07T14:46:17.043Z</time></trkpt><trkpt lat="43.5670043" lon="10.8298594"><ele>146.0</ele><time>2026-04-07T14:46:18.043Z</time></trkpt><trkpt lat="43.5668342" lon="10.8299991"><ele>145.0</ele><time>2026-04-07T14:46:19.043Z</time></trkpt><trkpt lat="43.5666692" lon="10.8301531"><ele>144.0</ele><time>2026-04-07T14:46:20.043Z</time></trkpt><trkpt lat="43.566525" lon="10.830303"><ele>143.0</ele><time>2026-04-07T14:46:21.043Z</time></trkpt><trkpt lat="43.5663827" lon="10.8304942"><ele>143.0</ele><time>2026-04-07T14:46:22.044Z</time></trkpt><trkpt lat="43.5662485" lon="10.8307306"><ele>143.0</ele><time>2026-04-07T14:46:23.043Z</time></trkpt><trkpt lat="43.5661177" lon="10.830967"><ele>143.0</ele><time>2026-04-07T14:46:24.044Z</time></trkpt><trkpt lat="43.5659868" lon="10.83124"><ele>147.0</ele><time>2026-04-07T14:46:25.044Z</time></trkpt><trkpt lat="43.5658558" lon="10.8315024"><ele>151.0</ele><time>2026-04-07T14:46:26.043Z</time></trkpt><trkpt lat="43.5657291" lon="10.8317621"><ele>152.66666666666669</ele><time>2026-04-07T14:46:27.044Z</time></trkpt><trkpt lat="43.565628" lon="10.8319959"><ele>154.33333333333334</ele><time>2026-04-07T14:46:28.043Z</time></trkpt><trkpt lat="43.5655279" lon="10.8322422"><ele>156.0</ele><time>2026-04-07T14:46:29.043Z</time></trkpt><trkpt lat="43.5654363" lon="10.8325106"><ele>155.5</ele><time>2026-04-07T14:46:30.043Z</time></trkpt><trkpt lat="43.5653455" lon="10.8327921"><ele>155.0</ele><time>2026-04-07T14:46:31.043Z</time></trkpt><trkpt lat="43.5652544" lon="10.8330906"><ele>155.0</ele><time>2026-04-07T14:46:32.043Z</time></trkpt><trkpt lat="43.565159" lon="10.8334008"><ele>155.0</ele><time>2026-04-07T14:46:33.044Z</time></trkpt><trkpt lat="43.5650632" lon="10.833726"><ele>157.5</ele><time>2026-04-07T14:46:34.044Z</time></trkpt><trkpt lat="43.564967" lon="10.8340499"><ele>160.0</ele><time>2026-04-07T14:46:35.044Z</time></trkpt><trkpt lat="43.56487" lon="10.8343594"><ele>164.0</ele><time>2026-04-07T14:46:36.044Z</time></trkpt><trkpt lat="43.5647835" lon="10.83465"><ele>168.0</ele><time>2026-04-07T14:46:37.043Z</time></trkpt><trkpt lat="43.5646997" lon="10.8349344"><ele>169.66666666666666</ele><time>2026-04-07T14:46:38.043Z</time></trkpt><trkpt lat="43.5646236" lon="10.8352165"><ele>171.33333333333331</ele><time>2026-04-07T14:46:39.044Z</time></trkpt><trkpt lat="43.5645815" lon="10.8355178"><ele>173.0</ele><time>2026-04-07T14:46:40.044Z</time></trkpt><trkpt lat="43.564574" lon="10.8357899"><ele>173.33333333333331</ele><time>2026-04-07T14:46:41.043Z</time></trkpt><trkpt lat="43.5645717" lon="10.8360491"><ele>173.66666666666666</ele><time>2026-04-07T14:46:42.044Z</time></trkpt><trkpt lat="43.56457" lon="10.8363083"><ele>174.0</ele><time>2026-04-07T14:46:43.044Z</time></trkpt><trkpt lat="43.5645313" lon="10.8365452"><ele>176.33333333333334</ele><time>2026-04-07T14:46:44.044Z</time></trkpt><trkpt lat="43.564471" lon="10.8367966"><ele>178.66666666666669</ele><time>2026-04-07T14:46:45.043Z</time></trkpt><trkpt lat="43.5643887" lon="10.8370354"><ele>181.0</ele><time>2026-04-07T14:46:46.044Z</time></trkpt><trkpt lat="43.5642894" lon="10.8372886"><ele>181.0</ele><time>2026-04-07T14:46:47.044Z</time></trkpt><trkpt lat="43.5641797" lon="10.8375522"><ele>181.0</ele><time>2026-04-07T14:46:48.044Z</time></trkpt><trkpt lat="43.5640638" lon="10.8377975"><ele>181.0</ele><time>2026-04-07T14:46:49.044Z</time></trkpt><trkpt lat="43.5639531" lon="10.8380943"><ele>181.5</ele><time>2026-04-07T14:46:50.044Z</time></trkpt><trkpt lat="43.5638698" lon="10.8384153"><ele>182.0</ele><time>2026-04-07T14:46:51.044Z</time></trkpt><trkpt lat="43.5638077" lon="10.8387657"><ele>182.0</ele><time>2026-04-07T14:46:52.044Z</time></trkpt><trkpt lat="43.5637525" lon="10.8391197"><ele>182.0</ele><time>2026-04-07T14:46:53.044Z</time></trkpt><trkpt lat="43.5636927" lon="10.8394505"><ele>184.5</ele><time>2026-04-07T14:46:54.044Z</time></trkpt><trkpt lat="43.5636337" lon="10.8397631"><ele>187.0</ele><time>2026-04-07T14:46:55.044Z</time></trkpt><trkpt lat="43.5635601" lon="10.8400724"><ele>189.0</ele><time>2026-04-07T14:46:56.044Z</time></trkpt><trkpt lat="43.5634577" lon="10.8403693"><ele>191.0</ele><time>2026-04-07T14:46:57.044Z</time></trkpt><trkpt lat="43.5633375" lon="10.8406653"><ele>191.0</ele><time>2026-04-07T14:46:58.044Z</time></trkpt><trkpt lat="43.5632041" lon="10.8409626"><ele>191.0</ele><time>2026-04-07T14:46:59.044Z</time></trkpt><trkpt lat="43.5630804" lon="10.841255"><ele>191.33333333333331</ele><time>2026-04-07T14:47:00.044Z</time></trkpt><trkpt lat="43.5629733" lon="10.8415034"><ele>191.66666666666666</ele><time>2026-04-07T14:47:01.044Z</time></trkpt><trkpt lat="43.5628684" lon="10.8417216"><ele>192.0</ele><time>2026-04-07T14:47:02.043Z</time></trkpt><trkpt lat="43.5627774" lon="10.8419127"><ele>194.33333333333331</ele><time>2026-04-07T14:47:03.044Z</time></trkpt><trkpt lat="43.5626913" lon="10.8420955"><ele>196.66666666666666</ele><time>2026-04-07T14:47:04.044Z</time></trkpt><trkpt lat="43.5625959" lon="10.842251"><ele>199.0</ele><time>2026-04-07T14:47:05.044Z</time></trkpt><trkpt lat="43.5624777" lon="10.8423851"><ele>199.0</ele><time>2026-04-07T14:47:06.044Z</time></trkpt><trkpt lat="43.5623314" lon="10.8424945"><ele>199.0</ele><time>2026-04-07T14:47:07.044Z</time></trkpt><trkpt lat="43.5621514" lon="10.842576"><ele>199.0</ele><time>2026-04-07T14:47:08.044Z</time></trkpt><trkpt lat="43.5619724" lon="10.8426505"><ele>196.33333333333331</ele><time>2026-04-07T14:47:09.043Z</time></trkpt><trkpt lat="43.5617854" lon="10.8427446"><ele>193.66666666666666</ele><time>2026-04-07T14:47:10.044Z</time></trkpt><trkpt lat="43.5616057" lon="10.8428375"><ele>191.0</ele><time>2026-04-07T14:47:11.044Z</time></trkpt><trkpt lat="43.5614345" lon="10.8429137"><ele>191.0</ele><time>2026-04-07T14:47:12.044Z</time></trkpt><trkpt lat="43.5612669" lon="10.8430099"><ele>191.0</ele><time>2026-04-07T14:47:13.044Z</time></trkpt><trkpt lat="43.5611017" lon="10.8431152"><ele>191.0</ele><time>2026-04-07T14:47:14.043Z</time></trkpt><trkpt lat="43.5609526" lon="10.8432191"><ele>190.66666666666666</ele><time>2026-04-07T14:47:15.044Z</time></trkpt><trkpt lat="43.5608168" lon="10.8433324"><ele>190.33333333333334</ele><time>2026-04-07T14:47:16.043Z</time></trkpt><trkpt lat="43.560683" lon="10.8434314"><ele>190.0</ele><time>2026-04-07T14:47:17.044Z</time></trkpt><trkpt lat="43.560546" lon="10.8435465"><ele>189.66666666666669</ele><time>2026-04-07T14:47:18.043Z</time></trkpt><trkpt lat="43.560407" lon="10.8436578"><ele>189.33333333333334</ele><time>2026-04-07T14:47:19.043Z</time></trkpt><trkpt lat="43.5602605" lon="10.8437786"><ele>189.0</ele><time>2026-04-07T14:47:20.044Z</time></trkpt><trkpt lat="43.5600999" lon="10.8438999"><ele>190.66666666666669</ele><time>2026-04-07T14:47:21.044Z</time></trkpt><trkpt lat="43.5599389" lon="10.8440222"><ele>192.33333333333334</ele><time>2026-04-07T14:47:22.044Z</time></trkpt><trkpt lat="43.5597853" lon="10.8441472"><ele>194.0</ele><time>2026-04-07T14:47:23.044Z</time></trkpt><trkpt lat="43.5596328" lon="10.8442656"><ele>193.0</ele><time>2026-04-07T14:47:24.044Z</time></trkpt><trkpt lat="43.5594948" lon="10.844386"><ele>192.0</ele><time>2026-04-07T14:47:25.044Z</time></trkpt><trkpt lat="43.5593762" lon="10.8445152"><ele>191.0</ele><time>2026-04-07T14:47:26.044Z</time></trkpt><trkpt lat="43.5592789" lon="10.8446733"><ele>191.0</ele><time>2026-04-07T14:47:27.044Z</time></trkpt><trkpt lat="43.5591968" lon="10.8448483"><ele>191.0</ele><time>2026-04-07T14:47:28.044Z</time></trkpt><trkpt lat="43.5591378" lon="10.8450615"><ele>191.0</ele><time>2026-04-07T14:47:29.044Z</time></trkpt><trkpt lat="43.5590925" lon="10.845302"><ele>191.66666666666666</ele><time>2026-04-07T14:47:30.043Z</time></trkpt><trkpt lat="43.5590561" lon="10.8455638"><ele>192.33333333333331</ele><time>2026-04-07T14:47:31.044Z</time></trkpt><trkpt lat="43.5590136" lon="10.8458258"><ele>193.0</ele><time>2026-04-07T14:47:32.043Z</time></trkpt><trkpt lat="43.5589725" lon="10.8460825"><ele>194.33333333333331</ele><time>2026-04-07T14:47:33.044Z</time></trkpt><trkpt lat="43.5589327" lon="10.8463458"><ele>195.66666666666669</ele><time>2026-04-07T14:47:34.044Z</time></trkpt><trkpt lat="43.5588935" lon="10.8466042"><ele>197.0</ele><time>2026-04-07T14:47:35.044Z</time></trkpt><trkpt lat="43.5588547" lon="10.8468466"><ele>198.33333333333334</ele><time>2026-04-07T14:47:36.043Z</time></trkpt><trkpt lat="43.5588154" lon="10.8470794"><ele>199.66666666666669</ele><time>2026-04-07T14:47:37.043Z</time></trkpt><trkpt lat="43.5587835" lon="10.8473016"><ele>201.0</ele><time>2026-04-07T14:47:38.044Z</time></trkpt><trkpt lat="43.5587559" lon="10.8475201"><ele>200.75</ele><time>2026-04-07T14:47:39.043Z</time></trkpt><trkpt lat="43.5587257" lon="10.8477324"><ele>200.5</ele><time>2026-04-07T14:47:40.043Z</time></trkpt><trkpt lat="43.5586928" lon="10.8479266"><ele>200.25</ele><time>2026-04-07T14:47:41.044Z</time></trkpt><trkpt lat="43.5586407" lon="10.8481121"><ele>200.0</ele><time>2026-04-07T14:47:42.044Z</time></trkpt><trkpt lat="43.5585598" lon="10.8483078"><ele>200.66666666666669</ele><time>2026-04-07T14:47:43.044Z</time></trkpt><trkpt lat="43.5584621" lon="10.8484815"><ele>201.33333333333331</ele><time>2026-04-07T14:47:44.044Z</time></trkpt><trkpt lat="43.5583367" lon="10.8485962"><ele>202.0</ele><time>2026-04-07T14:47:45.043Z</time></trkpt><trkpt lat="43.558196" lon="10.8486977"><ele>202.0</ele><time>2026-04-07T14:47:46.044Z</time></trkpt><trkpt lat="43.5580528" lon="10.8487588"><ele>202.0</ele><time>2026-04-07T14:47:47.044Z</time></trkpt><trkpt lat="43.5579055" lon="10.8487852"><ele>202.0</ele><time>2026-04-07T14:47:48.043Z</time></trkpt><trkpt lat="43.5577566" lon="10.8487725"><ele>202.0</ele><time>2026-04-07T14:47:49.043Z</time></trkpt><trkpt lat="43.5576087" lon="10.8487272"><ele>204.66666666666666</ele><time>2026-04-07T14:47:50.043Z</time></trkpt><trkpt lat="43.5574585" lon="10.8486617"><ele>207.33333333333331</ele><time>2026-04-07T14:47:51.044Z</time></trkpt><trkpt lat="43.5573111" lon="10.8485992"><ele>210.0</ele><time>2026-04-07T14:47:52.044Z</time></trkpt><trkpt lat="43.5571624" lon="10.8485439"><ele>211.33333333333331</ele><time>2026-04-07T14:47:53.044Z</time></trkpt><trkpt lat="43.5570125" lon="10.848481"><ele>212.66666666666666</ele><time>2026-04-07T14:47:54.043Z</time></trkpt><trkpt lat="43.5568624" lon="10.8484304"><ele>214.0</ele><time>2026-04-07T14:47:55.043Z</time></trkpt><trkpt lat="43.5567083" lon="10.8484069"><ele>214.0</ele><time>2026-04-07T14:47:56.043Z</time></trkpt><trkpt lat="43.556555" lon="10.8484222"><ele>214.0</ele><time>2026-04-07T14:47:57.044Z</time></trkpt><trkpt lat="43.5564006" lon="10.8484692"><ele>214.0</ele><time>2026-04-07T14:47:58.044Z</time></trkpt><trkpt lat="43.5562505" lon="10.8485441"><ele>214.66666666666666</ele><time>2026-04-07T14:47:59.044Z</time></trkpt><trkpt lat="43.5561011" lon="10.8486348"><ele>215.33333333333331</ele><time>2026-04-07T14:48:00.044Z</time></trkpt><trkpt lat="43.5559559" lon="10.8487297"><ele>216.0</ele><time>2026-04-07T14:48:01.044Z</time></trkpt><trkpt lat="43.5558265" lon="10.8488426"><ele>216.0</ele><time>2026-04-07T14:48:02.044Z</time></trkpt><trkpt lat="43.5556951" lon="10.8489802"><ele>216.0</ele><time>2026-04-07T14:48:03.043Z</time></trkpt><trkpt lat="43.5555875" lon="10.849142"><ele>216.0</ele><time>2026-04-07T14:48:04.044Z</time></trkpt><trkpt lat="43.5554941" lon="10.8493021"><ele>215.66666666666669</ele><time>2026-04-07T14:48:05.044Z</time></trkpt><trkpt lat="43.5554107" lon="10.8494634"><ele>215.33333333333334</ele><time>2026-04-07T14:48:06.044Z</time></trkpt><trkpt lat="43.555316" lon="10.8496283"><ele>215.0</ele><time>2026-04-07T14:48:07.044Z</time></trkpt><trkpt lat="43.5552064" lon="10.8498015"><ele>214.0</ele><time>2026-04-07T14:48:08.043Z</time></trkpt><trkpt lat="43.555071" lon="10.8499504"><ele>213.0</ele><time>2026-04-07T14:48:09.044Z</time></trkpt><trkpt lat="43.5549307" lon="10.8500982"><ele>212.0</ele><time>2026-04-07T14:48:10.043Z</time></trkpt><trkpt lat="43.5547918" lon="10.8502425"><ele>211.33333333333334</ele><time>2026-04-07T14:48:11.043Z</time></trkpt><trkpt lat="43.5546507" lon="10.8503673"><ele>210.66666666666669</ele><time>2026-04-07T14:48:12.043Z</time></trkpt><trkpt lat="43.5545147" lon="10.8504782"><ele>210.0</ele><time>2026-04-07T14:48:13.044Z</time></trkpt><trkpt lat="43.5543654" lon="10.8505773"><ele>213.66666666666669</ele><time>2026-04-07T14:48:14.044Z</time></trkpt><trkpt lat="43.5542165" lon="10.8506464"><ele>217.33333333333334</ele><time>2026-04-07T14:48:15.044Z</time></trkpt><trkpt lat="43.5540611" lon="10.8506756"><ele>221.0</ele><time>2026-04-07T14:48:16.043Z</time></trkpt><trkpt lat="43.5538986" lon="10.8506645"><ele>221.0</ele><time>2026-04-07T14:48:17.044Z</time></trkpt><trkpt lat="43.553754" lon="10.8506384"><ele>221.0</ele><time>2026-04-07T14:48:18.043Z</time></trkpt><trkpt lat="43.5536178" lon="10.8506117"><ele>221.0</ele><time>2026-04-07T14:48:19.044Z</time></trkpt><trkpt lat="43.5534864" lon="10.8505937"><ele>221.0</ele><time>2026-04-07T14:48:20.044Z</time></trkpt><trkpt lat="43.5533562" lon="10.8506122"><ele>223.25</ele><time>2026-04-07T14:48:21.044Z</time></trkpt><trkpt lat="43.5532267" lon="10.8506429"><ele>225.5</ele><time>2026-04-07T14:48:22.043Z</time></trkpt><trkpt lat="43.5530873" lon="10.8507174"><ele>227.75</ele><time>2026-04-07T14:48:23.044Z</time></trkpt><trkpt lat="43.5529542" lon="10.85084"><ele>230.0</ele><time>2026-04-07T14:48:24.044Z</time></trkpt><trkpt lat="43.5528331" lon="10.8509899"><ele>231.75</ele><time>2026-04-07T14:48:25.044Z</time></trkpt><trkpt lat="43.5527185" lon="10.8511461"><ele>233.5</ele><time>2026-04-07T14:48:26.043Z</time></trkpt><trkpt lat="43.552617" lon="10.8512991"><ele>235.25</ele><time>2026-04-07T14:48:27.044Z</time></trkpt><trkpt lat="43.5525301" lon="10.8514341"><ele>237.0</ele><time>2026-04-07T14:48:28.044Z</time></trkpt><trkpt lat="43.5524479" lon="10.8515676"><ele>237.0</ele><time>2026-04-07T14:48:29.044Z</time></trkpt><trkpt lat="43.5523678" lon="10.8516888"><ele>237.0</ele><time>2026-04-07T14:48:30.044Z</time></trkpt><trkpt lat="43.5522769" lon="10.8518336"><ele>237.0</ele><time>2026-04-07T14:48:31.044Z</time></trkpt><trkpt lat="43.5521835" lon="10.851997"><ele>237.0</ele><time>2026-04-07T14:48:32.044Z</time></trkpt><trkpt lat="43.5520835" lon="10.8521627"><ele>241.0</ele><time>2026-04-07T14:48:33.044Z</time></trkpt><trkpt lat="43.5519772" lon="10.8523384"><ele>245.0</ele><time>2026-04-07T14:48:34.043Z</time></trkpt><trkpt lat="43.5518542" lon="10.8525175"><ele>249.0</ele><time>2026-04-07T14:48:35.044Z</time></trkpt><trkpt lat="43.5517349" lon="10.8526861"><ele>249.0</ele><time>2026-04-07T14:48:36.044Z</time></trkpt><trkpt lat="43.5516189" lon="10.8528456"><ele>249.0</ele><time>2026-04-07T14:48:37.043Z</time></trkpt><trkpt lat="43.5515141" lon="10.8530057"><ele>249.0</ele><time>2026-04-07T14:48:38.044Z</time></trkpt><trkpt lat="43.5514108" lon="10.8531608"><ele>249.0</ele><time>2026-04-07T14:48:39.044Z</time></trkpt><trkpt lat="43.5513029" lon="10.8533272"><ele>249.0</ele><time>2026-04-07T14:48:40.044Z</time></trkpt><trkpt lat="43.5512049" lon="10.8534737"><ele>249.0</ele><time>2026-04-07T14:48:41.044Z</time></trkpt><trkpt lat="43.5511142" lon="10.8536206"><ele>249.0</ele><time>2026-04-07T14:48:42.044Z</time></trkpt><trkpt lat="43.5510209" lon="10.8537673"><ele>251.0</ele><time>2026-04-07T14:48:43.043Z</time></trkpt><trkpt lat="43.5509242" lon="10.8539162"><ele>253.0</ele><time>2026-04-07T14:48:44.044Z</time></trkpt><trkpt lat="43.5508265" lon="10.8541016"><ele>255.0</ele><time>2026-04-07T14:48:45.044Z</time></trkpt><trkpt lat="43.5507352" lon="10.8542797"><ele>255.66666666666669</ele><time>2026-04-07T14:48:46.044Z</time></trkpt><trkpt lat="43.5506539" lon="10.8544835"><ele>256.33333333333337</ele><time>2026-04-07T14:48:47.044Z</time></trkpt><trkpt lat="43.550577" lon="10.854679"><ele>257.0</ele><time>2026-04-07T14:48:48.044Z</time></trkpt><trkpt lat="43.550503" lon="10.854872"><ele>257.0</ele><time>2026-04-07T14:48:49.044Z</time></trkpt><trkpt lat="43.5504232" lon="10.8550598"><ele>257.0</ele><time>2026-04-07T14:48:50.044Z</time></trkpt><trkpt lat="43.5503572" lon="10.8552153"><ele>257.0</ele><time>2026-04-07T14:48:51.044Z</time></trkpt><trkpt lat="43.5502983" lon="10.8553462"><ele>257.0</ele><time>2026-04-07T14:48:52.044Z</time></trkpt><trkpt lat="43.5502429" lon="10.8554548"><ele>256.6</ele><time>2026-04-07T14:48:53.044Z</time></trkpt><trkpt lat="43.5501961" lon="10.8555543"><ele>256.2</ele><time>2026-04-07T14:48:54.043Z</time></trkpt><trkpt lat="43.5501231" lon="10.8556628"><ele>255.8</ele><time>2026-04-07T14:48:56.044Z</time></trkpt><trkpt lat="43.5500479" lon="10.8557849"><ele>255.4</ele><time>2026-04-07T14:48:58.043Z</time></trkpt><trkpt lat="43.5499976" lon="10.8559153"><ele>255.0</ele><time>2026-04-07T14:49:00.044Z</time></trkpt><trkpt lat="43.550001" lon="10.8560023"><ele>255.0</ele><time>2026-04-07T14:49:01.044Z</time></trkpt><trkpt lat="43.5500348" lon="10.8560979"><ele>255.0</ele><time>2026-04-07T14:49:02.043Z</time></trkpt><trkpt lat="43.5500616" lon="10.8561936"><ele>255.0</ele><time>2026-04-07T14:49:03.044Z</time></trkpt><trkpt lat="43.5500782" lon="10.8563222"><ele>255.0</ele><time>2026-04-07T14:49:04.044Z</time></trkpt><trkpt lat="43.5500762" lon="10.8564756"><ele>255.0</ele><time>2026-04-07T14:49:05.044Z</time></trkpt><trkpt lat="43.5500628" lon="10.8566292"><ele>255.0</ele><time>2026-04-07T14:49:06.044Z</time></trkpt><trkpt lat="43.5500455" lon="10.856781"><ele>255.0</ele><time>2026-04-07T14:49:07.043Z</time></trkpt><trkpt lat="43.5500119" lon="10.8569026"><ele>255.0</ele><time>2026-04-07T14:49:08.044Z</time></trkpt><trkpt lat="43.549969" lon="10.8570045"><ele>255.0</ele><time>2026-04-07T14:49:09.044Z</time></trkpt><trkpt lat="43.5499048" lon="10.8570879"><ele>255.0</ele><time>2026-04-07T14:49:10.044Z</time></trkpt><trkpt lat="43.5498445" lon="10.8571705"><ele>255.0</ele><time>2026-04-07T14:49:11.044Z</time></trkpt><trkpt lat="43.5497747" lon="10.8572544"><ele>255.0</ele><time>2026-04-07T14:49:12.044Z</time></trkpt><trkpt lat="43.5496736" lon="10.8572989"><ele>255.0</ele><time>2026-04-07T14:49:13.044Z</time></trkpt><trkpt lat="43.5495739" lon="10.8573528"><ele>255.0</ele><time>2026-04-07T14:49:14.043Z</time></trkpt><trkpt lat="43.5494693" lon="10.857404"><ele>255.0</ele><time>2026-04-07T14:49:15.043Z</time></trkpt><trkpt lat="43.5493629" lon="10.8574475"><ele>255.0</ele><time>2026-04-07T14:49:16.043Z</time></trkpt><trkpt lat="43.5492528" lon="10.8574884"><ele>255.0</ele><time>2026-04-07T14:49:17.043Z</time></trkpt><trkpt lat="43.5491521" lon="10.8575523"><ele>255.0</ele><time>2026-04-07T14:49:18.044Z</time></trkpt><trkpt lat="43.5490488" lon="10.8576522"><ele>255.0</ele><time>2026-04-07T14:49:19.044Z</time></trkpt><trkpt lat="43.5489616" lon="10.857763"><ele>253.5</ele><time>2026-04-07T14:49:20.044Z</time></trkpt><trkpt lat="43.5488902" lon="10.8578986"><ele>252.0</ele><time>2026-04-07T14:49:21.044Z</time></trkpt><trkpt lat="43.5488371" lon="10.8580541"><ele>250.5</ele><time>2026-04-07T14:49:22.043Z</time></trkpt><trkpt lat="43.5487987" lon="10.8582265"><ele>249.0</ele><time>2026-04-07T14:49:23.044Z</time></trkpt><trkpt lat="43.5487967" lon="10.8584406"><ele>251.66666666666669</ele><time>2026-04-07T14:49:24.043Z</time></trkpt><trkpt lat="43.5487897" lon="10.8586453"><ele>254.33333333333334</ele><time>2026-04-07T14:49:25.044Z</time></trkpt><trkpt lat="43.5487829" lon="10.8588567"><ele>257.0</ele><time>2026-04-07T14:49:26.044Z</time></trkpt><trkpt lat="43.5487729" lon="10.8590628"><ele>257.0</ele><time>2026-04-07T14:49:27.043Z</time></trkpt><trkpt lat="43.548768" lon="10.8592784"><ele>257.0</ele><time>2026-04-07T14:49:28.044Z</time></trkpt><trkpt lat="43.5487627" lon="10.8594817"><ele>257.0</ele><time>2026-04-07T14:49:29.044Z</time></trkpt><trkpt lat="43.5487449" lon="10.8596719"><ele>257.0</ele><time>2026-04-07T14:49:30.044Z</time></trkpt><trkpt lat="43.5487227" lon="10.859862"><ele>258.5</ele><time>2026-04-07T14:49:31.044Z</time></trkpt><trkpt lat="43.5486986" lon="10.8600636"><ele>260.0</ele><time>2026-04-07T14:49:32.043Z</time></trkpt><trkpt lat="43.5486544" lon="10.8602638"><ele>261.5</ele><time>2026-04-07T14:49:33.044Z</time></trkpt><trkpt lat="43.5486052" lon="10.8604482"><ele>263.0</ele><time>2026-04-07T14:49:34.043Z</time></trkpt><trkpt lat="43.5485478" lon="10.8606325"><ele>263.0</ele><time>2026-04-07T14:49:35.043Z</time></trkpt><trkpt lat="43.5484944" lon="10.8608093"><ele>263.0</ele><time>2026-04-07T14:49:36.044Z</time></trkpt><trkpt lat="43.5484447" lon="10.8609673"><ele>263.0</ele><time>2026-04-07T14:49:37.044Z</time></trkpt><trkpt lat="43.5483952" lon="10.8611229"><ele>263.0</ele><time>2026-04-07T14:49:38.044Z</time></trkpt><trkpt lat="43.5483453" lon="10.8612619"><ele>263.5</ele><time>2026-04-07T14:49:39.044Z</time></trkpt><trkpt lat="43.5482952" lon="10.8613984"><ele>264.0</ele><time>2026-04-07T14:49:40.044Z</time></trkpt><trkpt lat="43.5482437" lon="10.8615351"><ele>264.5</ele><time>2026-04-07T14:49:41.043Z</time></trkpt><trkpt lat="43.5481964" lon="10.8616834"><ele>265.0</ele><time>2026-04-07T14:49:42.044Z</time></trkpt><trkpt lat="43.5481521" lon="10.8618339"><ele>266.0</ele><time>2026-04-07T14:49:43.044Z</time></trkpt><trkpt lat="43.5481016" lon="10.8619835"><ele>267.0</ele><time>2026-04-07T14:49:44.044Z</time></trkpt><trkpt lat="43.5480535" lon="10.8621356"><ele>268.0</ele><time>2026-04-07T14:49:45.044Z</time></trkpt><trkpt lat="43.5480035" lon="10.8622819"><ele>269.0</ele><time>2026-04-07T14:49:46.043Z</time></trkpt><trkpt lat="43.5479615" lon="10.8624318"><ele>269.0</ele><time>2026-04-07T14:49:47.044Z</time></trkpt><trkpt lat="43.547914" lon="10.8625855"><ele>269.0</ele><time>2026-04-07T14:49:48.043Z</time></trkpt><trkpt lat="43.547854" lon="10.8627512"><ele>269.0</ele><time>2026-04-07T14:49:49.044Z</time></trkpt><trkpt lat="43.5477957" lon="10.8629325"><ele>269.0</ele><time>2026-04-07T14:49:50.043Z</time></trkpt><trkpt lat="43.5477375" lon="10.8631299"><ele>267.5</ele><time>2026-04-07T14:49:51.044Z</time></trkpt><trkpt lat="43.5476762" lon="10.8633337"><ele>266.0</ele><time>2026-04-07T14:49:52.043Z</time></trkpt><trkpt lat="43.5476167" lon="10.8635228"><ele>264.5</ele><time>2026-04-07T14:49:53.043Z</time></trkpt><trkpt lat="43.5475534" lon="10.863669"><ele>263.0</ele><time>2026-04-07T14:49:54.043Z</time></trkpt><trkpt lat="43.5474921" lon="10.8638063"><ele>263.0</ele><time>2026-04-07T14:49:55.044Z</time></trkpt><trkpt lat="43.5474192" lon="10.8639497"><ele>263.0</ele><time>2026-04-07T14:49:56.044Z</time></trkpt><trkpt lat="43.5473211" lon="10.8640808"><ele>263.0</ele><time>2026-04-07T14:49:57.044Z</time></trkpt><trkpt lat="43.5472028" lon="10.8642233"><ele>263.0</ele><time>2026-04-07T14:49:58.044Z</time></trkpt><trkpt lat="43.5470757" lon="10.8643677"><ele>266.33333333333337</ele><time>2026-04-07T14:49:59.043Z</time></trkpt><trkpt lat="43.5469138" lon="10.8645522"><ele>269.6666666666667</ele><time>2026-04-07T14:50:00.044Z</time></trkpt><trkpt lat="43.54676" lon="10.8647289"><ele>273.0</ele><time>2026-04-07T14:50:01.044Z</time></trkpt><trkpt lat="43.546602" lon="10.8648814"><ele>273.0</ele><time>2026-04-07T14:50:02.044Z</time></trkpt><trkpt lat="43.5464643" lon="10.865029"><ele>273.0</ele><time>2026-04-07T14:50:03.044Z</time></trkpt><trkpt lat="43.5463213" lon="10.8651755"><ele>273.0</ele><time>2026-04-07T14:50:04.044Z</time></trkpt><trkpt lat="43.5461597" lon="10.865331"><ele>274.0</ele><time>2026-04-07T14:50:05.044Z</time></trkpt><trkpt lat="43.5460016" lon="10.8654676"><ele>275.0</ele><time>2026-04-07T14:50:06.044Z</time></trkpt><trkpt lat="43.5458421" lon="10.8655881"><ele>276.0</ele><time>2026-04-07T14:50:07.044Z</time></trkpt><trkpt lat="43.5456814" lon="10.8657125"><ele>276.0</ele><time>2026-04-07T14:50:08.044Z</time></trkpt><trkpt lat="43.5455041" lon="10.865852"><ele>276.0</ele><time>2026-04-07T14:50:09.044Z</time></trkpt><trkpt lat="43.5453218" lon="10.8659927"><ele>276.0</ele><time>2026-04-07T14:50:10.044Z</time></trkpt><trkpt lat="43.5451253" lon="10.866128"><ele>276.6666666666667</ele><time>2026-04-07T14:50:11.044Z</time></trkpt><trkpt lat="43.5449302" lon="10.8662713"><ele>277.33333333333337</ele><time>2026-04-07T14:50:12.043Z</time></trkpt><trkpt lat="43.544745" lon="10.8664086"><ele>278.0</ele><time>2026-04-07T14:50:13.044Z</time></trkpt><trkpt lat="43.5445738" lon="10.8665339"><ele>281.0</ele><time>2026-04-07T14:50:14.044Z</time></trkpt><trkpt lat="43.5444151" lon="10.866641"><ele>284.0</ele><time>2026-04-07T14:50:15.044Z</time></trkpt><trkpt lat="43.5442835" lon="10.8667618"><ele>287.0</ele><time>2026-04-07T14:50:16.044Z</time></trkpt><trkpt lat="43.5441701" lon="10.8668822"><ele>287.0</ele><time>2026-04-07T14:50:17.043Z</time></trkpt><trkpt lat="43.5440921" lon="10.8670288"><ele>287.0</ele><time>2026-04-07T14:50:18.044Z</time></trkpt><trkpt lat="43.5440338" lon="10.8672199"><ele>287.0</ele><time>2026-04-07T14:50:19.043Z</time></trkpt><trkpt lat="43.5439694" lon="10.8674447"><ele>288.0</ele><time>2026-04-07T14:50:20.044Z</time></trkpt><trkpt lat="43.5439009" lon="10.8676706"><ele>289.0</ele><time>2026-04-07T14:50:21.043Z</time></trkpt><trkpt lat="43.5438423" lon="10.8679076"><ele>290.0</ele><time>2026-04-07T14:50:22.044Z</time></trkpt><trkpt lat="43.5437827" lon="10.8681304"><ele>290.0</ele><time>2026-04-07T14:50:23.044Z</time></trkpt><trkpt lat="43.5437347" lon="10.8683236"><ele>290.0</ele><time>2026-04-07T14:50:24.044Z</time></trkpt><trkpt lat="43.5437044" lon="10.8685189"><ele>290.0</ele><time>2026-04-07T14:50:25.044Z</time></trkpt><trkpt lat="43.5437067" lon="10.8687322"><ele>290.0</ele><time>2026-04-07T14:50:26.044Z</time></trkpt><trkpt lat="43.543732" lon="10.8689296"><ele>290.33333333333337</ele><time>2026-04-07T14:50:27.043Z</time></trkpt><trkpt lat="43.5438002" lon="10.8691736"><ele>290.6666666666667</ele><time>2026-04-07T14:50:28.043Z</time></trkpt><trkpt lat="43.5438707" lon="10.8694365"><ele>291.0</ele><time>2026-04-07T14:50:29.043Z</time></trkpt><trkpt lat="43.5439303" lon="10.8696891"><ele>289.0</ele><time>2026-04-07T14:50:30.043Z</time></trkpt><trkpt lat="43.5439987" lon="10.8699329"><ele>287.0</ele><time>2026-04-07T14:50:31.044Z</time></trkpt><trkpt lat="43.5440531" lon="10.8701945"><ele>285.0</ele><time>2026-04-07T14:50:32.044Z</time></trkpt><trkpt lat="43.5440707" lon="10.8704739"><ele>284.3333333333333</ele><time>2026-04-07T14:50:33.044Z</time></trkpt><trkpt lat="43.5440988" lon="10.870765"><ele>283.66666666666663</ele><time>2026-04-07T14:50:34.043Z</time></trkpt><trkpt lat="43.5441293" lon="10.8710707"><ele>283.0</ele><time>2026-04-07T14:50:35.044Z</time></trkpt><trkpt lat="43.5441432" lon="10.8713849"><ele>283.0</ele><time>2026-04-07T14:50:36.044Z</time></trkpt><trkpt lat="43.5441559" lon="10.8717125"><ele>283.0</ele><time>2026-04-07T14:50:37.044Z</time></trkpt><trkpt lat="43.5441649" lon="10.8720427"><ele>283.66666666666663</ele><time>2026-04-07T14:50:38.044Z</time></trkpt><trkpt lat="43.5441506" lon="10.8723416"><ele>284.3333333333333</ele><time>2026-04-07T14:50:39.044Z</time></trkpt><trkpt lat="43.5441297" lon="10.8726141"><ele>285.0</ele><time>2026-04-07T14:50:40.043Z</time></trkpt><trkpt lat="43.5440918" lon="10.8728993"><ele>287.0</ele><time>2026-04-07T14:50:41.044Z</time></trkpt><trkpt lat="43.5440072" lon="10.8731558"><ele>289.0</ele><time>2026-04-07T14:50:42.044Z</time></trkpt><trkpt lat="43.5439205" lon="10.8734013"><ele>291.0</ele><time>2026-04-07T14:50:43.043Z</time></trkpt><trkpt lat="43.5438584" lon="10.8736303"><ele>295.0</ele><time>2026-04-07T14:50:44.044Z</time></trkpt><trkpt lat="43.5438236" lon="10.8738347"><ele>299.0</ele><time>2026-04-07T14:50:45.044Z</time></trkpt><trkpt lat="43.543797" lon="10.8740435"><ele>303.0</ele><time>2026-04-07T14:50:46.043Z</time></trkpt><trkpt lat="43.5437935" lon="10.8742786"><ele>304.0</ele><time>2026-04-07T14:50:47.044Z</time></trkpt><trkpt lat="43.5437935" lon="10.8745012"><ele>305.0</ele><time>2026-04-07T14:50:48.043Z</time></trkpt><trkpt lat="43.5438075" lon="10.8747064"><ele>306.0</ele><time>2026-04-07T14:50:49.044Z</time></trkpt><trkpt lat="43.5438175" lon="10.8749243"><ele>305.25</ele><time>2026-04-07T14:50:50.044Z</time></trkpt><trkpt lat="43.5438332" lon="10.8751131"><ele>304.5</ele><time>2026-04-07T14:50:51.044Z</time></trkpt><trkpt lat="43.5438366" lon="10.8752966"><ele>303.75</ele><time>2026-04-07T14:50:52.044Z</time></trkpt><trkpt lat="43.5438225" lon="10.8754771"><ele>303.0</ele><time>2026-04-07T14:50:53.044Z</time></trkpt><trkpt lat="43.5438073" lon="10.875651"><ele>303.0</ele><time>2026-04-07T14:50:54.044Z</time></trkpt><trkpt lat="43.5437884" lon="10.8758327"><ele>303.0</ele><time>2026-04-07T14:50:55.044Z</time></trkpt><trkpt lat="43.5437527" lon="10.8760301"><ele>303.0</ele><time>2026-04-07T14:50:56.044Z</time></trkpt><trkpt lat="43.5437259" lon="10.8762126"><ele>303.0</ele><time>2026-04-07T14:50:57.044Z</time></trkpt><trkpt lat="43.5436921" lon="10.8763953"><ele>303.25</ele><time>2026-04-07T14:50:58.044Z</time></trkpt><trkpt lat="43.5436556" lon="10.8765952"><ele>303.5</ele><time>2026-04-07T14:50:59.044Z</time></trkpt><trkpt lat="43.5435892" lon="10.8767657"><ele>303.75</ele><time>2026-04-07T14:51:00.043Z</time></trkpt><trkpt lat="43.5435241" lon="10.8769657"><ele>304.0</ele><time>2026-04-07T14:51:01.044Z</time></trkpt><trkpt lat="43.5434497" lon="10.877202"><ele>304.3333333333333</ele><time>2026-04-07T14:51:02.044Z</time></trkpt><trkpt lat="43.5433604" lon="10.8774062"><ele>304.6666666666667</ele><time>2026-04-07T14:51:03.044Z</time></trkpt><trkpt lat="43.5432734" lon="10.8775927"><ele>305.0</ele><time>2026-04-07T14:51:04.044Z</time></trkpt><trkpt lat="43.5431882" lon="10.8777683"><ele>305.0</ele><time>2026-04-07T14:51:05.044Z</time></trkpt><trkpt lat="43.5430917" lon="10.877964"><ele>305.0</ele><time>2026-04-07T14:51:06.044Z</time></trkpt><trkpt lat="43.5429962" lon="10.8781574"><ele>305.0</ele><time>2026-04-07T14:51:07.044Z</time></trkpt><trkpt lat="43.5428894" lon="10.8783772"><ele>309.0</ele><time>2026-04-07T14:51:08.044Z</time></trkpt><trkpt lat="43.5427667" lon="10.8786062"><ele>313.0</ele><time>2026-04-07T14:51:09.044Z</time></trkpt><trkpt lat="43.5426348" lon="10.8788387"><ele>317.0</ele><time>2026-04-07T14:51:10.044Z</time></trkpt><trkpt lat="43.5425081" lon="10.8790737"><ele>313.0</ele><time>2026-04-07T14:51:11.044Z</time></trkpt><trkpt lat="43.5423857" lon="10.8793265"><ele>309.0</ele><time>2026-04-07T14:51:12.043Z</time></trkpt><trkpt lat="43.5422853" lon="10.8795812"><ele>305.0</ele><time>2026-04-07T14:51:13.044Z</time></trkpt><trkpt lat="43.5421859" lon="10.8797546"><ele>305.0</ele><time>2026-04-07T14:51:14.044Z</time></trkpt><trkpt lat="43.542097" lon="10.8798618"><ele>305.0</ele><time>2026-04-07T14:51:15.043Z</time></trkpt><trkpt lat="43.5419794" lon="10.8799852"><ele>305.0</ele><time>2026-04-07T14:51:16.044Z</time></trkpt><trkpt lat="43.5418688" lon="10.8801064"><ele>305.0</ele><time>2026-04-07T14:51:17.043Z</time></trkpt><trkpt lat="43.5417007" lon="10.8801034"><ele>304.0</ele><time>2026-04-07T14:51:18.043Z</time></trkpt><trkpt lat="43.5415229" lon="10.880105"><ele>303.0</ele><time>2026-04-07T14:51:19.044Z</time></trkpt><trkpt lat="43.5413534" lon="10.880099"><ele>302.0</ele><time>2026-04-07T14:51:20.044Z</time></trkpt><trkpt lat="43.541198" lon="10.8800901"><ele>305.0</ele><time>2026-04-07T14:51:21.043Z</time></trkpt><trkpt lat="43.5410625" lon="10.8801119"><ele>308.0</ele><time>2026-04-07T14:51:22.043Z</time></trkpt><trkpt lat="43.540936" lon="10.8801596"><ele>311.0</ele><time>2026-04-07T14:51:23.044Z</time></trkpt><trkpt lat="43.5408183" lon="10.8802855"><ele>314.0</ele><time>2026-04-07T14:51:24.044Z</time></trkpt><trkpt lat="43.5407078" lon="10.8804401"><ele>314.0</ele><time>2026-04-07T14:51:25.044Z</time></trkpt><trkpt lat="43.5406345" lon="10.8806641"><ele>314.0</ele><time>2026-04-07T14:51:26.044Z</time></trkpt><trkpt lat="43.5405623" lon="10.8808807"><ele>314.0</ele><time>2026-04-07T14:51:27.044Z</time></trkpt><trkpt lat="43.5404992" lon="10.881166"><ele>312.0</ele><time>2026-04-07T14:51:28.044Z</time></trkpt><trkpt lat="43.540419" lon="10.8814483"><ele>310.0</ele><time>2026-04-07T14:51:29.043Z</time></trkpt><trkpt lat="43.540337" lon="10.8817503"><ele>311.5</ele><time>2026-04-07T14:51:30.044Z</time></trkpt><trkpt lat="43.5402593" lon="10.8820509"><ele>313.0</ele><time>2026-04-07T14:51:31.043Z</time></trkpt><trkpt lat="43.5401685" lon="10.8823605"><ele>316.5</ele><time>2026-04-07T14:51:32.043Z</time></trkpt><trkpt lat="43.5400814" lon="10.8826657"><ele>320.0</ele><time>2026-04-07T14:51:33.044Z</time></trkpt><trkpt lat="43.5399944" lon="10.8829617"><ele>320.0</ele><time>2026-04-07T14:51:34.043Z</time></trkpt><trkpt lat="43.539915" lon="10.8832637"><ele>320.0</ele><time>2026-04-07T14:51:35.044Z</time></trkpt><trkpt lat="43.5398408" lon="10.8835745"><ele>320.6666666666667</ele><time>2026-04-07T14:51:36.044Z</time></trkpt><trkpt lat="43.5397862" lon="10.8838665"><ele>321.3333333333333</ele><time>2026-04-07T14:51:37.044Z</time></trkpt><trkpt lat="43.5397427" lon="10.8841603"><ele>322.0</ele><time>2026-04-07T14:51:38.044Z</time></trkpt><trkpt lat="43.539711" lon="10.8844384"><ele>320.66666666666663</ele><time>2026-04-07T14:51:39.044Z</time></trkpt><trkpt lat="43.5396759" lon="10.8846661"><ele>319.3333333333333</ele><time>2026-04-07T14:51:40.044Z</time></trkpt><trkpt lat="43.5396216" lon="10.884914"><ele>318.0</ele><time>2026-04-07T14:51:41.044Z</time></trkpt><trkpt lat="43.539522" lon="10.8851522"><ele>323.6666666666667</ele><time>2026-04-07T14:51:42.044Z</time></trkpt><trkpt lat="43.5393901" lon="10.8853854"><ele>329.33333333333337</ele><time>2026-04-07T14:51:43.044Z</time></trkpt><trkpt lat="43.539257" lon="10.8856024"><ele>335.0</ele><time>2026-04-07T14:51:44.044Z</time></trkpt><trkpt lat="43.539135" lon="10.8857995"><ele>332.6666666666667</ele><time>2026-04-07T14:51:45.043Z</time></trkpt><trkpt lat="43.5390102" lon="10.8859644"><ele>330.3333333333333</ele><time>2026-04-07T14:51:46.044Z</time></trkpt><trkpt lat="43.5388553" lon="10.8860889"><ele>328.0</ele><time>2026-04-07T14:51:47.044Z</time></trkpt><trkpt lat="43.5386718" lon="10.8861663"><ele>328.0</ele><time>2026-04-07T14:51:48.043Z</time></trkpt><trkpt lat="43.538492" lon="10.8861954"><ele>328.0</ele><time>2026-04-07T14:51:49.043Z</time></trkpt><trkpt lat="43.5383112" lon="10.8862261"><ele>328.0</ele><time>2026-04-07T14:51:50.044Z</time></trkpt><trkpt lat="43.5381495" lon="10.8862486"><ele>328.0</ele><time>2026-04-07T14:51:51.043Z</time></trkpt><trkpt lat="43.5380022" lon="10.8863061"><ele>328.0</ele><time>2026-04-07T14:51:52.043Z</time></trkpt><trkpt lat="43.5378792" lon="10.8863814"><ele>328.0</ele><time>2026-04-07T14:51:53.044Z</time></trkpt><trkpt lat="43.5377748" lon="10.8864754"><ele>328.0</ele><time>2026-04-07T14:51:54.044Z</time></trkpt><trkpt lat="43.5376724" lon="10.8866128"><ele>330.66666666666663</ele><time>2026-04-07T14:51:55.043Z</time></trkpt><trkpt lat="43.5376042" lon="10.8867695"><ele>333.3333333333333</ele><time>2026-04-07T14:51:56.044Z</time></trkpt><trkpt lat="43.5376064" lon="10.887089"><ele>336.0</ele><time>2026-04-07T14:51:57.043Z</time></trkpt><trkpt lat="43.537597" lon="10.8873307"><ele>335.6666666666667</ele><time>2026-04-07T14:51:58.043Z</time></trkpt><trkpt lat="43.5375575" lon="10.8876111"><ele>335.33333333333337</ele><time>2026-04-07T14:51:59.043Z</time></trkpt><trkpt lat="43.5375016" lon="10.8878624"><ele>335.0</ele><time>2026-04-07T14:52:00.043Z</time></trkpt><trkpt lat="43.5374071" lon="10.8881345"><ele>335.0</ele><time>2026-04-07T14:52:01.044Z</time></trkpt><trkpt lat="43.5373024" lon="10.8883575"><ele>335.0</ele><time>2026-04-07T14:52:02.043Z</time></trkpt><trkpt lat="43.5371914" lon="10.8885546"><ele>335.0</ele><time>2026-04-07T14:52:03.044Z</time></trkpt><trkpt lat="43.5370544" lon="10.8887231"><ele>333.6666666666667</ele><time>2026-04-07T14:52:04.044Z</time></trkpt><trkpt lat="43.5369174" lon="10.8889011"><ele>332.3333333333333</ele><time>2026-04-07T14:52:05.044Z</time></trkpt><trkpt lat="43.536709" lon="10.8890065"><ele>331.0</ele><time>2026-04-07T14:52:06.043Z</time></trkpt><trkpt lat="43.5365234" lon="10.8891145"><ele>331.0</ele><time>2026-04-07T14:52:07.044Z</time></trkpt><trkpt lat="43.5363473" lon="10.8892457"><ele>331.0</ele><time>2026-04-07T14:52:08.044Z</time></trkpt><trkpt lat="43.5361682" lon="10.8893931"><ele>331.0</ele><time>2026-04-07T14:52:09.044Z</time></trkpt><trkpt lat="43.5360087" lon="10.8895934"><ele>329.0</ele><time>2026-04-07T14:52:10.043Z</time></trkpt><trkpt lat="43.5358368" lon="10.8897949"><ele>327.0</ele><time>2026-04-07T14:52:11.044Z</time></trkpt><trkpt lat="43.5356674" lon="10.8900124"><ele>326.3333333333333</ele><time>2026-04-07T14:52:12.044Z</time></trkpt><trkpt lat="43.535509" lon="10.8902377"><ele>325.66666666666663</ele><time>2026-04-07T14:52:13.044Z</time></trkpt><trkpt lat="43.5353494" lon="10.8904455"><ele>325.0</ele><time>2026-04-07T14:52:14.044Z</time></trkpt><trkpt lat="43.5352129" lon="10.8906569"><ele>325.0</ele><time>2026-04-07T14:52:15.044Z</time></trkpt><trkpt lat="43.5350686" lon="10.8908637"><ele>325.0</ele><time>2026-04-07T14:52:16.044Z</time></trkpt><trkpt lat="43.5349082" lon="10.8910658"><ele>325.0</ele><time>2026-04-07T14:52:17.044Z</time></trkpt><trkpt lat="43.5347324" lon="10.8912698"><ele>322.5</ele><time>2026-04-07T14:52:18.044Z</time></trkpt><trkpt lat="43.5345616" lon="10.8914881"><ele>320.0</ele><time>2026-04-07T14:52:19.044Z</time></trkpt><trkpt lat="43.5344025" lon="10.8916954"><ele>323.0</ele><time>2026-04-07T14:52:20.044Z</time></trkpt><trkpt lat="43.5342492" lon="10.8918919"><ele>326.0</ele><time>2026-04-07T14:52:21.043Z</time></trkpt><trkpt lat="43.534114" lon="10.8920798"><ele>329.0</ele><time>2026-04-07T14:52:22.043Z</time></trkpt><trkpt lat="43.5339849" lon="10.8922447"><ele>329.0</ele><time>2026-04-07T14:52:23.044Z</time></trkpt><trkpt lat="43.5338578" lon="10.8923467"><ele>329.0</ele><time>2026-04-07T14:52:24.044Z</time></trkpt><trkpt lat="43.5337165" lon="10.8923931"><ele>329.0</ele><time>2026-04-07T14:52:25.043Z</time></trkpt><trkpt lat="43.5335593" lon="10.8924254"><ele>332.6666666666667</ele><time>2026-04-07T14:52:26.044Z</time></trkpt><trkpt lat="43.533381" lon="10.8924162"><ele>336.3333333333333</ele><time>2026-04-07T14:52:27.044Z</time></trkpt><trkpt lat="43.5331899" lon="10.8923239"><ele>340.0</ele><time>2026-04-07T14:52:28.043Z</time></trkpt><trkpt lat="43.5329872" lon="10.8922575"><ele>340.0</ele><time>2026-04-07T14:52:29.044Z</time></trkpt><trkpt lat="43.5327812" lon="10.8921873"><ele>340.0</ele><time>2026-04-07T14:52:30.043Z</time></trkpt><trkpt lat="43.5325849" lon="10.8921072"><ele>340.0</ele><time>2026-04-07T14:52:31.043Z</time></trkpt><trkpt lat="43.5323908" lon="10.8920754"><ele>340.0</ele><time>2026-04-07T14:52:32.044Z</time></trkpt><trkpt lat="43.5321904" lon="10.8920575"><ele>340.0</ele><time>2026-04-07T14:52:33.044Z</time></trkpt><trkpt lat="43.5319755" lon="10.892047"><ele>340.0</ele><time>2026-04-07T14:52:34.044Z</time></trkpt><trkpt lat="43.5317688" lon="10.8920351"><ele>340.0</ele><time>2026-04-07T14:52:35.044Z</time></trkpt><trkpt lat="43.5315543" lon="10.8920576"><ele>340.0</ele><time>2026-04-07T14:52:36.044Z</time></trkpt><trkpt lat="43.5313309" lon="10.8921047"><ele>340.0</ele><time>2026-04-07T14:52:37.044Z</time></trkpt><trkpt lat="43.5311084" lon="10.8921597"><ele>342.3333333333333</ele><time>2026-04-07T14:52:38.044Z</time></trkpt><trkpt lat="43.5308962" lon="10.8922179"><ele>344.6666666666667</ele><time>2026-04-07T14:52:39.044Z</time></trkpt><trkpt lat="43.5306945" lon="10.8923003"><ele>347.0</ele><time>2026-04-07T14:52:40.044Z</time></trkpt><trkpt lat="43.5305054" lon="10.8923563"><ele>346.33333333333337</ele><time>2026-04-07T14:52:41.043Z</time></trkpt><trkpt lat="43.5303187" lon="10.8924326"><ele>345.6666666666667</ele><time>2026-04-07T14:52:42.044Z</time></trkpt><trkpt lat="43.5301229" lon="10.8924852"><ele>345.0</ele><time>2026-04-07T14:52:43.044Z</time></trkpt><trkpt lat="43.5299227" lon="10.8925747"><ele>345.0</ele><time>2026-04-07T14:52:44.043Z</time></trkpt><trkpt lat="43.5297275" lon="10.892638"><ele>345.0</ele><time>2026-04-07T14:52:45.044Z</time></trkpt><trkpt lat="43.529538" lon="10.8927268"><ele>345.0</ele><time>2026-04-07T14:52:46.044Z</time></trkpt><trkpt lat="43.5293543" lon="10.8928473"><ele>345.0</ele><time>2026-04-07T14:52:47.044Z</time></trkpt><trkpt lat="43.5291531" lon="10.8929955"><ele>345.0</ele><time>2026-04-07T14:52:48.043Z</time></trkpt><trkpt lat="43.5289648" lon="10.8931698"><ele>345.0</ele><time>2026-04-07T14:52:49.043Z</time></trkpt><trkpt lat="43.5287757" lon="10.8933518"><ele>345.0</ele><time>2026-04-07T14:52:50.044Z</time></trkpt><trkpt lat="43.5285919" lon="10.8935342"><ele>348.3333333333333</ele><time>2026-04-07T14:52:51.044Z</time></trkpt><trkpt lat="43.5284244" lon="10.8936867"><ele>351.66666666666663</ele><time>2026-04-07T14:52:52.044Z</time></trkpt><trkpt lat="43.5282767" lon="10.8938356"><ele>355.0</ele><time>2026-04-07T14:52:53.044Z</time></trkpt><trkpt lat="43.5281541" lon="10.8939439"><ele>355.0</ele><time>2026-04-07T14:52:54.044Z</time></trkpt><trkpt lat="43.5280715" lon="10.8940423"><ele>355.0</ele><time>2026-04-07T14:52:55.044Z</time></trkpt><trkpt lat="43.5279975" lon="10.8941343"><ele>355.0</ele><time>2026-04-07T14:52:56.044Z</time></trkpt><trkpt lat="43.5279614" lon="10.8942257"><ele>355.0</ele><time>2026-04-07T14:52:57.044Z</time></trkpt><trkpt lat="43.5279325" lon="10.8943192"><ele>355.0</ele><time>2026-04-07T14:52:58.044Z</time></trkpt><trkpt lat="43.5279368" lon="10.8945047"><ele>357.75</ele><time>2026-04-07T14:52:59.043Z</time></trkpt><trkpt lat="43.5279565" lon="10.8946691"><ele>360.5</ele><time>2026-04-07T14:53:00.044Z</time></trkpt><trkpt lat="43.5279852" lon="10.8948721"><ele>363.25</ele><time>2026-04-07T14:53:01.044Z</time></trkpt><trkpt lat="43.5280108" lon="10.8950392"><ele>366.0</ele><time>2026-04-07T14:53:02.044Z</time></trkpt><trkpt lat="43.5279975" lon="10.8952205"><ele>368.25</ele><time>2026-04-07T14:53:03.044Z</time></trkpt><trkpt lat="43.5279686" lon="10.8954002"><ele>370.5</ele><time>2026-04-07T14:53:04.044Z</time></trkpt><trkpt lat="43.527911" lon="10.895557"><ele>372.75</ele><time>2026-04-07T14:53:05.043Z</time></trkpt><trkpt lat="43.5277994" lon="10.8956829"><ele>375.0</ele><time>2026-04-07T14:53:06.044Z</time></trkpt><trkpt lat="43.527684" lon="10.89577"><ele>378.5</ele><time>2026-04-07T14:53:07.044Z</time></trkpt><trkpt lat="43.5275956" lon="10.8959239"><ele>382.0</ele><time>2026-04-07T14:53:08.044Z</time></trkpt><trkpt lat="43.5275295" lon="10.8960778"><ele>385.5</ele><time>2026-04-07T14:53:09.043Z</time></trkpt><trkpt lat="43.5274774" lon="10.8962492"><ele>389.0</ele><time>2026-04-07T14:53:10.044Z</time></trkpt><trkpt lat="43.5274226" lon="10.89642"><ele>389.0</ele><time>2026-04-07T14:53:11.044Z</time></trkpt><trkpt lat="43.5273397" lon="10.8965573"><ele>389.0</ele><time>2026-04-07T14:53:12.044Z</time></trkpt><trkpt lat="43.5272585" lon="10.8966835"><ele>389.0</ele><time>2026-04-07T14:53:13.043Z</time></trkpt><trkpt lat="43.5271003" lon="10.8966432"><ele>389.0</ele><time>2026-04-07T14:53:14.043Z</time></trkpt><trkpt lat="43.5269912" lon="10.8966138"><ele>390.0</ele><time>2026-04-07T14:53:15.044Z</time></trkpt><trkpt lat="43.5268475" lon="10.8965948"><ele>391.0</ele><time>2026-04-07T14:53:16.043Z</time></trkpt><trkpt lat="43.5267103" lon="10.8965582"><ele>392.0</ele><time>2026-04-07T14:53:17.044Z</time></trkpt><trkpt lat="43.5265843" lon="10.8965233"><ele>393.0</ele><time>2026-04-07T14:53:18.044Z</time></trkpt><trkpt lat="43.5264667" lon="10.8964919"><ele>393.0</ele><time>2026-04-07T14:53:19.043Z</time></trkpt><trkpt lat="43.5263456" lon="10.8964734"><ele>393.0</ele><time>2026-04-07T14:53:20.044Z</time></trkpt><trkpt lat="43.526242" lon="10.8964784"><ele>393.0</ele><time>2026-04-07T14:53:21.044Z</time></trkpt><trkpt lat="43.526146" lon="10.8964915"><ele>393.0</ele><time>2026-04-07T14:53:22.043Z</time></trkpt><trkpt lat="43.5260449" lon="10.8964852"><ele>393.0</ele><time>2026-04-07T14:53:23.043Z</time></trkpt><trkpt lat="43.5259424" lon="10.8964747"><ele>395.2</ele><time>2026-04-07T14:53:24.044Z</time></trkpt><trkpt lat="43.5258417" lon="10.8964721"><ele>397.4</ele><time>2026-04-07T14:53:25.044Z</time></trkpt><trkpt lat="43.5257389" lon="10.8964786"><ele>399.59999999999997</ele><time>2026-04-07T14:53:26.044Z</time></trkpt><trkpt lat="43.5256223" lon="10.8964985"><ele>401.79999999999995</ele><time>2026-04-07T14:53:27.043Z</time></trkpt><trkpt lat="43.5255072" lon="10.8965445"><ele>404.0</ele><time>2026-04-07T14:53:28.044Z</time></trkpt><trkpt lat="43.5253891" lon="10.8966467"><ele>407.3333333333333</ele><time>2026-04-07T14:53:29.044Z</time></trkpt><trkpt lat="43.5252535" lon="10.8967739"><ele>410.66666666666663</ele><time>2026-04-07T14:53:30.044Z</time></trkpt><trkpt lat="43.5251197" lon="10.8969357"><ele>414.0</ele><time>2026-04-07T14:53:31.043Z</time></trkpt><trkpt lat="43.5249934" lon="10.8971159"><ele>414.0</ele><time>2026-04-07T14:53:32.043Z</time></trkpt><trkpt lat="43.5248767" lon="10.8973059"><ele>414.0</ele><time>2026-04-07T14:53:33.044Z</time></trkpt><trkpt lat="43.5247774" lon="10.8974926"><ele>414.0</ele><time>2026-04-07T14:53:34.044Z</time></trkpt><trkpt lat="43.5246826" lon="10.8976465"><ele>415.33333333333337</ele><time>2026-04-07T14:53:35.043Z</time></trkpt><trkpt lat="43.5245711" lon="10.8978174"><ele>416.6666666666667</ele><time>2026-04-07T14:53:36.044Z</time></trkpt><trkpt lat="43.5244623" lon="10.8979822"><ele>418.0</ele><time>2026-04-07T14:53:37.044Z</time></trkpt><trkpt lat="43.5243617" lon="10.8981406"><ele>418.0</ele><time>2026-04-07T14:53:38.043Z</time></trkpt><trkpt lat="43.5242746" lon="10.898266"><ele>418.0</ele><time>2026-04-07T14:53:39.043Z</time></trkpt><trkpt lat="43.5241784" lon="10.8983671"><ele>418.0</ele><time>2026-04-07T14:53:40.044Z</time></trkpt><trkpt lat="43.5240868" lon="10.8984835"><ele>418.0</ele><time>2026-04-07T14:53:41.043Z</time></trkpt><trkpt lat="43.523994" lon="10.8985749"><ele>420.0</ele><time>2026-04-07T14:53:42.044Z</time></trkpt><trkpt lat="43.5239007" lon="10.8986819"><ele>422.0</ele><time>2026-04-07T14:53:43.043Z</time></trkpt><trkpt lat="43.5238239" lon="10.8987851"><ele>423.99999999999994</ele><time>2026-04-07T14:53:44.044Z</time></trkpt><trkpt lat="43.523743" lon="10.8988657"><ele>426.0</ele><time>2026-04-07T14:53:45.043Z</time></trkpt><trkpt lat="43.5236605" lon="10.8989557"><ele>428.0</ele><time>2026-04-07T14:53:46.044Z</time></trkpt><trkpt lat="43.5235652" lon="10.8990462"><ele>427.3333333333333</ele><time>2026-04-07T14:53:47.043Z</time></trkpt><trkpt lat="43.5234557" lon="10.8991435"><ele>426.66666666666663</ele><time>2026-04-07T14:53:48.043Z</time></trkpt><trkpt lat="43.5233237" lon="10.899251"><ele>426.0</ele><time>2026-04-07T14:53:49.043Z</time></trkpt><trkpt lat="43.5231795" lon="10.8993646"><ele>426.0</ele><time>2026-04-07T14:53:50.043Z</time></trkpt><trkpt lat="43.5230422" lon="10.8994564"><ele>426.0</ele><time>2026-04-07T14:53:51.043Z</time></trkpt><trkpt lat="43.5229197" lon="10.89951"><ele>426.0</ele><time>2026-04-07T14:53:52.044Z</time></trkpt><trkpt lat="43.5227909" lon="10.8995614"><ele>426.0</ele><time>2026-04-07T14:53:53.044Z</time></trkpt><trkpt lat="43.522664" lon="10.8996376"><ele>426.4</ele><time>2026-04-07T14:53:54.043Z</time></trkpt><trkpt lat="43.5225316" lon="10.8997131"><ele>426.8</ele><time>2026-04-07T14:53:55.044Z</time></trkpt><trkpt lat="43.5224226" lon="10.899766"><ele>427.19999999999993</ele><time>2026-04-07T14:53:56.044Z</time></trkpt><trkpt lat="43.5223226" lon="10.8998085"><ele>427.59999999999997</ele><time>2026-04-07T14:53:57.044Z</time></trkpt><trkpt lat="43.5222396" lon="10.8998308"><ele>428.0</ele><time>2026-04-07T14:53:58.044Z</time></trkpt><trkpt lat="43.5221345" lon="10.8998325"><ele>428.0</ele><time>2026-04-07T14:54:00.044Z</time></trkpt><trkpt lat="43.5220553" lon="10.8998372"><ele>427.99999999999994</ele><time>2026-04-07T14:54:03.044Z</time></trkpt><trkpt lat="43.5220757" lon="10.8999283"><ele>427.99999999999994</ele><time>2026-04-07T14:54:08.044Z</time></trkpt><trkpt lat="43.5222023" lon="10.899919"><ele>428.0</ele><time>2026-04-07T14:54:10.044Z</time></trkpt><trkpt lat="43.5222784" lon="10.8998803"><ele>428.0</ele><time>2026-04-07T14:54:11.044Z</time></trkpt><trkpt lat="43.5223728" lon="10.8998268"><ele>428.0</ele><time>2026-04-07T14:54:12.044Z</time></trkpt><trkpt lat="43.5224543" lon="10.8998033"><ele>427.99999999999994</ele><time>2026-04-07T14:54:13.044Z</time></trkpt><trkpt lat="43.5225513" lon="10.8997724"><ele>427.99999999999994</ele><time>2026-04-07T14:54:14.044Z</time></trkpt><trkpt lat="43.5226435" lon="10.8997316"><ele>428.0</ele><time>2026-04-07T14:54:15.043Z</time></trkpt><trkpt lat="43.5227222" lon="10.8996846"><ele>428.0</ele><time>2026-04-07T14:54:16.043Z</time></trkpt><trkpt lat="43.5228298" lon="10.8996236"><ele>427.5</ele><time>2026-04-07T14:54:17.043Z</time></trkpt><trkpt lat="43.5229408" lon="10.8995794"><ele>427.0</ele><time>2026-04-07T14:54:18.044Z</time></trkpt><trkpt lat="43.5230426" lon="10.8995091"><ele>426.5</ele><time>2026-04-07T14:54:19.044Z</time></trkpt><trkpt lat="43.5231583" lon="10.899442"><ele>426.0</ele><time>2026-04-07T14:54:20.044Z</time></trkpt><trkpt lat="43.5232587" lon="10.8993757"><ele>426.0</ele><time>2026-04-07T14:54:21.043Z</time></trkpt><trkpt lat="43.5233689" lon="10.8992824"><ele>426.0</ele><time>2026-04-07T14:54:22.044Z</time></trkpt><trkpt lat="43.5234762" lon="10.8991773"><ele>426.0</ele><time>2026-04-07T14:54:23.044Z</time></trkpt><trkpt lat="43.5235854" lon="10.8990724"><ele>426.0</ele><time>2026-04-07T14:54:24.044Z</time></trkpt><trkpt lat="43.5236998" lon="10.8989549"><ele>426.5</ele><time>2026-04-07T14:54:25.044Z</time></trkpt><trkpt lat="43.5238216" lon="10.8988252"><ele>427.0</ele><time>2026-04-07T14:54:26.044Z</time></trkpt><trkpt lat="43.5239348" lon="10.8986955"><ele>427.5</ele><time>2026-04-07T14:54:27.044Z</time></trkpt><trkpt lat="43.524046" lon="10.8985701"><ele>428.0</ele><time>2026-04-07T14:54:28.044Z</time></trkpt><trkpt lat="43.5241481" lon="10.8984637"><ele>426.3333333333333</ele><time>2026-04-07T14:54:29.044Z</time></trkpt><trkpt lat="43.52424" lon="10.8983664"><ele>424.66666666666663</ele><time>2026-04-07T14:54:30.044Z</time></trkpt><trkpt lat="43.5243162" lon="10.8982817"><ele>423.0</ele><time>2026-04-07T14:54:31.044Z</time></trkpt><trkpt lat="43.5243772" lon="10.8982011"><ele>421.33333333333337</ele><time>2026-04-07T14:54:32.044Z</time></trkpt><trkpt lat="43.5244255" lon="10.8981318"><ele>419.6666666666667</ele><time>2026-04-07T14:54:33.044Z</time></trkpt><trkpt lat="43.5244726" lon="10.8980691"><ele>418.0</ele><time>2026-04-07T14:54:34.043Z</time></trkpt><trkpt lat="43.524521" lon="10.8980051"><ele>417.2</ele><time>2026-04-07T14:54:35.044Z</time></trkpt><trkpt lat="43.5245976" lon="10.8978866"><ele>416.4</ele><time>2026-04-07T14:54:37.044Z</time></trkpt><trkpt lat="43.5246534" lon="10.8977893"><ele>415.59999999999997</ele><time>2026-04-07T14:54:39.043Z</time></trkpt><trkpt lat="43.5246903" lon="10.8977128"><ele>414.79999999999995</ele><time>2026-04-07T14:54:40.044Z</time></trkpt><trkpt lat="43.5247452" lon="10.8976071"><ele>414.0</ele><time>2026-04-07T14:54:41.044Z</time></trkpt><trkpt lat="43.5248142" lon="10.8974872"><ele>414.0</ele><time>2026-04-07T14:54:42.044Z</time></trkpt><trkpt lat="43.5248815" lon="10.8973639"><ele>414.0</ele><time>2026-04-07T14:54:43.044Z</time></trkpt><trkpt lat="43.5249412" lon="10.8972332"><ele>414.0</ele><time>2026-04-07T14:54:44.044Z</time></trkpt><trkpt lat="43.5250119" lon="10.8971001"><ele>414.0</ele><time>2026-04-07T14:54:45.044Z</time></trkpt><trkpt lat="43.525097" lon="10.8969655"><ele>414.0</ele><time>2026-04-07T14:54:46.044Z</time></trkpt><trkpt lat="43.5251966" lon="10.8968393"><ele>414.0</ele><time>2026-04-07T14:54:47.043Z</time></trkpt><trkpt lat="43.5252971" lon="10.896739"><ele>414.0</ele><time>2026-04-07T14:54:48.043Z</time></trkpt><trkpt lat="43.5253936" lon="10.8966597"><ele>414.0</ele><time>2026-04-07T14:54:49.043Z</time></trkpt><trkpt lat="43.5254807" lon="10.8965889"><ele>412.0</ele><time>2026-04-07T14:54:50.043Z</time></trkpt><trkpt lat="43.5255509" lon="10.8965317"><ele>410.0</ele><time>2026-04-07T14:54:51.044Z</time></trkpt><trkpt lat="43.525653" lon="10.8964838"><ele>408.0</ele><time>2026-04-07T14:54:52.044Z</time></trkpt><trkpt lat="43.5257571" lon="10.8964561"><ele>406.0</ele><time>2026-04-07T14:54:53.044Z</time></trkpt><trkpt lat="43.5258582" lon="10.8964618"><ele>404.0</ele><time>2026-04-07T14:54:54.044Z</time></trkpt><trkpt lat="43.5259662" lon="10.8964673"><ele>403.99999999999994</ele><time>2026-04-07T14:54:55.043Z</time></trkpt><trkpt lat="43.5260579" lon="10.8965009"><ele>404.0</ele><time>2026-04-07T14:54:56.044Z</time></trkpt><trkpt lat="43.5261316" lon="10.8965335"><ele>404.0</ele><time>2026-04-07T14:54:57.044Z</time></trkpt><trkpt lat="43.5262106" lon="10.8965639"><ele>404.0</ele><time>2026-04-07T14:54:59.044Z</time></trkpt><trkpt lat="43.5262434" lon="10.8964693"><ele>403.99999999999994</ele><time>2026-04-07T14:55:02.044Z</time></trkpt><trkpt lat="43.5261691" lon="10.896442"><ele>404.0</ele><time>2026-04-07T14:55:05.044Z</time></trkpt><trkpt lat="43.5260692" lon="10.8964556"><ele>404.0</ele><time>2026-04-07T14:55:06.044Z</time></trkpt><trkpt lat="43.5259848" lon="10.8964555"><ele>404.0</ele><time>2026-04-07T14:55:07.043Z</time></trkpt><trkpt lat="43.5258987" lon="10.8964599"><ele>404.0</ele><time>2026-04-07T14:55:08.044Z</time></trkpt><trkpt lat="43.5258119" lon="10.8964544"><ele>404.0</ele><time>2026-04-07T14:55:09.044Z</time></trkpt><trkpt lat="43.525709" lon="10.8964557"><ele>404.0</ele><time>2026-04-07T14:55:10.044Z</time></trkpt><trkpt lat="43.5256177" lon="10.8964925"><ele>403.99999999999994</ele><time>2026-04-07T14:55:11.044Z</time></trkpt><trkpt lat="43.5255322" lon="10.896536"><ele>404.0</ele><time>2026-04-07T14:55:12.044Z</time></trkpt><trkpt lat="43.5254623" lon="10.8965653"><ele>404.0</ele><time>2026-04-07T14:55:13.044Z</time></trkpt><trkpt lat="43.5254078" lon="10.8966181"><ele>404.0</ele><time>2026-04-07T14:55:14.044Z</time></trkpt><trkpt lat="43.5253112" lon="10.896657"><ele>403.99999999999994</ele><time>2026-04-07T14:55:16.044Z</time></trkpt><trkpt lat="43.5252256" lon="10.8965972"><ele>404.0</ele><time>2026-04-07T14:55:18.044Z</time></trkpt><trkpt lat="43.525173" lon="10.8965479"><ele>405.66666666666663</ele><time>2026-04-07T14:55:19.044Z</time></trkpt><trkpt lat="43.5251" lon="10.8964822"><ele>407.3333333333333</ele><time>2026-04-07T14:55:21.044Z</time></trkpt><trkpt lat="43.525131" lon="10.8964051"><ele>409.0</ele><time>2026-04-07T14:55:34.043Z</time></trkpt><trkpt lat="43.5251759" lon="10.8965038"><ele>410.66666666666663</ele><time>2026-04-07T14:55:35.044Z</time></trkpt><trkpt lat="43.5252301" lon="10.896622"><ele>412.3333333333333</ele><time>2026-04-07T14:55:37.044Z</time></trkpt><trkpt lat="43.5252701" lon="10.8967141"><ele>414.0</ele><time>2026-04-07T14:55:39.043Z</time></trkpt><trkpt lat="43.5252005" lon="10.8967993"><ele>414.0</ele><time>2026-04-07T14:55:41.043Z</time></trkpt><trkpt lat="43.5251416" lon="10.8968672"><ele>414.0</ele><time>2026-04-07T14:55:42.044Z</time></trkpt><trkpt lat="43.525087" lon="10.8969278"><ele>414.0</ele><time>2026-04-07T14:55:43.044Z</time></trkpt><trkpt lat="43.5250292" lon="10.8969989"><ele>414.0</ele><time>2026-04-07T14:55:44.044Z</time></trkpt><trkpt lat="43.5249665" lon="10.897137"><ele>414.0</ele><time>2026-04-07T14:55:45.044Z</time></trkpt><trkpt lat="43.5248959" lon="10.8972875"><ele>414.0</ele><time>2026-04-07T14:55:46.043Z</time></trkpt><trkpt lat="43.5248048" lon="10.8974475"><ele>414.0</ele><time>2026-04-07T14:55:47.044Z</time></trkpt><trkpt lat="43.524737" lon="10.897588"><ele>414.0</ele><time>2026-04-07T14:55:48.044Z</time></trkpt><trkpt lat="43.524673" lon="10.8977055"><ele>414.0</ele><time>2026-04-07T14:55:49.043Z</time></trkpt><trkpt lat="43.524612" lon="10.8977993"><ele>413.8333333333333</ele><time>2026-04-07T14:55:50.044Z</time></trkpt><trkpt lat="43.5245526" lon="10.8978428"><ele>413.66666666666663</ele><time>2026-04-07T14:55:51.044Z</time></trkpt><trkpt lat="43.5244539" lon="10.8978441"><ele>413.5</ele><time>2026-04-07T14:55:53.043Z</time></trkpt><trkpt lat="43.5243895" lon="10.8977625"><ele>413.3333333333333</ele><time>2026-04-07T14:55:55.044Z</time></trkpt><trkpt lat="43.524365" lon="10.8976767"><ele>413.16666666666663</ele><time>2026-04-07T14:55:56.044Z</time></trkpt><trkpt lat="43.524322" lon="10.8975844"><ele>413.0</ele><time>2026-04-07T14:55:57.044Z</time></trkpt><trkpt lat="43.5242837" lon="10.8974706"><ele>413.0</ele><time>2026-04-07T14:55:58.044Z</time></trkpt><trkpt lat="43.5242688" lon="10.8973456"><ele>413.0</ele><time>2026-04-07T14:55:59.044Z</time></trkpt><trkpt lat="43.5242283" lon="10.8972049"><ele>413.0</ele><time>2026-04-07T14:56:00.044Z</time></trkpt><trkpt lat="43.5241896" lon="10.897053"><ele>413.0</ele><time>2026-04-07T14:56:01.044Z</time></trkpt><trkpt lat="43.5241417" lon="10.8968929"><ele>413.0</ele><time>2026-04-07T14:56:02.044Z</time></trkpt><trkpt lat="43.524106" lon="10.896729"><ele>412.75</ele><time>2026-04-07T14:56:03.044Z</time></trkpt><trkpt lat="43.5240795" lon="10.8965669"><ele>412.5</ele><time>2026-04-07T14:56:04.044Z</time></trkpt><trkpt lat="43.524036" lon="10.8964049"><ele>412.25</ele><time>2026-04-07T14:56:05.044Z</time></trkpt><trkpt lat="43.5240011" lon="10.8962477"><ele>412.0</ele><time>2026-04-07T14:56:06.044Z</time></trkpt><trkpt lat="43.5239633" lon="10.8960875"><ele>412.0</ele><time>2026-04-07T14:56:07.043Z</time></trkpt><trkpt lat="43.5239303" lon="10.8959358"><ele>412.0</ele><time>2026-04-07T14:56:08.044Z</time></trkpt><trkpt lat="43.5239039" lon="10.8958077"><ele>412.0</ele><time>2026-04-07T14:56:09.043Z</time></trkpt><trkpt lat="43.5238805" lon="10.8956893"><ele>412.0</ele><time>2026-04-07T14:56:10.044Z</time></trkpt><trkpt lat="43.5238648" lon="10.895581"><ele>412.0</ele><time>2026-04-07T14:56:11.043Z</time></trkpt><trkpt lat="43.52384" lon="10.8954759"><ele>411.1666666666667</ele><time>2026-04-07T14:56:12.043Z</time></trkpt><trkpt lat="43.523814" lon="10.8953821"><ele>410.33333333333337</ele><time>2026-04-07T14:56:13.043Z</time></trkpt><trkpt lat="43.5237924" lon="10.8952911"><ele>409.5</ele><time>2026-04-07T14:56:14.043Z</time></trkpt><trkpt lat="43.5237746" lon="10.8951933"><ele>408.66666666666663</ele><time>2026-04-07T14:56:15.044Z</time></trkpt><trkpt lat="43.5237485" lon="10.895099"><ele>407.8333333333333</ele><time>2026-04-07T14:56:16.044Z</time></trkpt><trkpt lat="43.5237083" lon="10.8949978"><ele>407.0</ele><time>2026-04-07T14:56:17.044Z</time></trkpt><trkpt lat="43.5236692" lon="10.8948924"><ele>406.0</ele><time>2026-04-07T14:56:18.043Z</time></trkpt><trkpt lat="43.523626" lon="10.8947845"><ele>405.0</ele><time>2026-04-07T14:56:19.044Z</time></trkpt><trkpt lat="43.5235766" lon="10.894683"><ele>404.0</ele><time>2026-04-07T14:56:20.043Z</time></trkpt><trkpt lat="43.5235292" lon="10.8945746"><ele>403.0</ele><time>2026-04-07T14:56:21.044Z</time></trkpt><trkpt lat="43.5234845" lon="10.8944612"><ele>402.0</ele><time>2026-04-07T14:56:22.044Z</time></trkpt><trkpt lat="43.5234325" lon="10.8943559"><ele>403.20000000000005</ele><time>2026-04-07T14:56:23.043Z</time></trkpt><trkpt lat="43.5233886" lon="10.8942451"><ele>404.4</ele><time>2026-04-07T14:56:24.043Z</time></trkpt><trkpt lat="43.523362" lon="10.8941138"><ele>405.6</ele><time>2026-04-07T14:56:25.044Z</time></trkpt><trkpt lat="43.523325" lon="10.8939931"><ele>406.79999999999995</ele><time>2026-04-07T14:56:26.044Z</time></trkpt><trkpt lat="43.5232993" lon="10.8938688"><ele>408.0</ele><time>2026-04-07T14:56:27.044Z</time></trkpt><trkpt lat="43.5232577" lon="10.8937377"><ele>408.0</ele><time>2026-04-07T14:56:28.044Z</time></trkpt><trkpt lat="43.52321" lon="10.8935901"><ele>408.0</ele><time>2026-04-07T14:56:29.044Z</time></trkpt><trkpt lat="43.5231586" lon="10.8934268"><ele>408.0</ele><time>2026-04-07T14:56:30.044Z</time></trkpt><trkpt lat="43.5231014" lon="10.8932435"><ele>408.0</ele><time>2026-04-07T14:56:31.044Z</time></trkpt><trkpt lat="43.5230289" lon="10.8930356"><ele>406.0</ele><time>2026-04-07T14:56:32.044Z</time></trkpt><trkpt lat="43.5229606" lon="10.8928023"><ele>404.0</ele><time>2026-04-07T14:56:33.044Z</time></trkpt><trkpt lat="43.522872" lon="10.8925389"><ele>402.0</ele><time>2026-04-07T14:56:34.044Z</time></trkpt><trkpt lat="43.5227996" lon="10.8923075"><ele>402.0</ele><time>2026-04-07T14:56:35.043Z</time></trkpt><trkpt lat="43.5227301" lon="10.8920922"><ele>402.0</ele><time>2026-04-07T14:56:36.043Z</time></trkpt><trkpt lat="43.5226663" lon="10.8918816"><ele>402.0</ele><time>2026-04-07T14:56:37.044Z</time></trkpt><trkpt lat="43.5225845" lon="10.8916532"><ele>400.0</ele><time>2026-04-07T14:56:38.043Z</time></trkpt><trkpt lat="43.5225124" lon="10.8914165"><ele>398.0</ele><time>2026-04-07T14:56:39.044Z</time></trkpt><trkpt lat="43.5224309" lon="10.8911889"><ele>396.0</ele><time>2026-04-07T14:56:40.044Z</time></trkpt><trkpt lat="43.5223699" lon="10.8909923"><ele>395.0</ele><time>2026-04-07T14:56:41.043Z</time></trkpt><trkpt lat="43.5223104" lon="10.8908049"><ele>394.0</ele><time>2026-04-07T14:56:42.043Z</time></trkpt><trkpt lat="43.5222584" lon="10.8906077"><ele>393.0</ele><time>2026-04-07T14:56:43.044Z</time></trkpt><trkpt lat="43.5222282" lon="10.8904136"><ele>392.0</ele><time>2026-04-07T14:56:44.043Z</time></trkpt><trkpt lat="43.5222214" lon="10.8902226"><ele>391.0</ele><time>2026-04-07T14:56:45.043Z</time></trkpt><trkpt lat="43.5222304" lon="10.8900344"><ele>390.0</ele><time>2026-04-07T14:56:46.044Z</time></trkpt><trkpt lat="43.5222462" lon="10.8898249"><ele>389.0</ele><time>2026-04-07T14:56:47.044Z</time></trkpt><trkpt lat="43.5222648" lon="10.8896155"><ele>388.0</ele><time>2026-04-07T14:56:48.044Z</time></trkpt><trkpt lat="43.5222791" lon="10.8894128"><ele>386.0</ele><time>2026-04-07T14:56:49.044Z</time></trkpt><trkpt lat="43.5222865" lon="10.8892021"><ele>384.0</ele><time>2026-04-07T14:56:50.044Z</time></trkpt><trkpt lat="43.5223145" lon="10.8890098"><ele>382.0</ele><time>2026-04-07T14:56:51.044Z</time></trkpt><trkpt lat="43.5223427" lon="10.8888163"><ele>380.0</ele><time>2026-04-07T14:56:52.044Z</time></trkpt><trkpt lat="43.5223631" lon="10.8886299"><ele>380.0</ele><time>2026-04-07T14:56:53.043Z</time></trkpt><trkpt lat="43.5223937" lon="10.8884651"><ele>380.0</ele><time>2026-04-07T14:56:54.044Z</time></trkpt><trkpt lat="43.522416" lon="10.8883027"><ele>380.0</ele><time>2026-04-07T14:56:55.044Z</time></trkpt><trkpt lat="43.5224405" lon="10.8881351"><ele>380.0</ele><time>2026-04-07T14:56:56.044Z</time></trkpt><trkpt lat="43.5224281" lon="10.8879856"><ele>378.0</ele><time>2026-04-07T14:56:57.044Z</time></trkpt><trkpt lat="43.5223932" lon="10.8878036"><ele>376.0</ele><time>2026-04-07T14:56:58.044Z</time></trkpt><trkpt lat="43.5223372" lon="10.8876133"><ele>374.0</ele><time>2026-04-07T14:56:59.044Z</time></trkpt><trkpt lat="43.5222801" lon="10.8874168"><ele>372.0</ele><time>2026-04-07T14:57:00.044Z</time></trkpt><trkpt lat="43.5222007" lon="10.8871835"><ele>371.3333333333333</ele><time>2026-04-07T14:57:01.044Z</time></trkpt><trkpt lat="43.522121" lon="10.8869552"><ele>370.66666666666663</ele><time>2026-04-07T14:57:02.044Z</time></trkpt><trkpt lat="43.5220434" lon="10.8867425"><ele>370.0</ele><time>2026-04-07T14:57:03.044Z</time></trkpt><trkpt lat="43.521994" lon="10.8865602"><ele>370.0</ele><time>2026-04-07T14:57:04.044Z</time></trkpt><trkpt lat="43.5219161" lon="10.8863568"><ele>370.0</ele><time>2026-04-07T14:57:05.044Z</time></trkpt><trkpt lat="43.5218587" lon="10.8861656"><ele>370.0</ele><time>2026-04-07T14:57:06.044Z</time></trkpt><trkpt lat="43.5217846" lon="10.8860021"><ele>366.75</ele><time>2026-04-07T14:57:07.043Z</time></trkpt><trkpt lat="43.5217106" lon="10.8858795"><ele>363.5</ele><time>2026-04-07T14:57:08.044Z</time></trkpt><trkpt lat="43.5216302" lon="10.8857304"><ele>360.25</ele><time>2026-04-07T14:57:09.044Z</time></trkpt><trkpt lat="43.5215362" lon="10.8855799"><ele>357.0</ele><time>2026-04-07T14:57:10.043Z</time></trkpt><trkpt lat="43.5214574" lon="10.885449"><ele>357.0</ele><time>2026-04-07T14:57:11.044Z</time></trkpt><trkpt lat="43.5213985" lon="10.8852735"><ele>357.0</ele><time>2026-04-07T14:57:12.043Z</time></trkpt><trkpt lat="43.5213388" lon="10.8850755"><ele>357.0</ele><time>2026-04-07T14:57:13.043Z</time></trkpt><trkpt lat="43.5212777" lon="10.8848813"><ele>357.0</ele><time>2026-04-07T14:57:14.044Z</time></trkpt><trkpt lat="43.52124" lon="10.8847374"><ele>359.0</ele><time>2026-04-07T14:57:15.044Z</time></trkpt><trkpt lat="43.5212102" lon="10.8846005"><ele>361.0</ele><time>2026-04-07T14:57:16.044Z</time></trkpt><trkpt lat="43.5211991" lon="10.8844618"><ele>363.0</ele><time>2026-04-07T14:57:17.044Z</time></trkpt><trkpt lat="43.5212093" lon="10.8843251"><ele>365.0</ele><time>2026-04-07T14:57:18.044Z</time></trkpt><trkpt lat="43.5212487" lon="10.8842011"><ele>367.0</ele><time>2026-04-07T14:57:19.043Z</time></trkpt><trkpt lat="43.5212872" lon="10.8840563"><ele>362.0</ele><time>2026-04-07T14:57:20.044Z</time></trkpt><trkpt lat="43.5213462" lon="10.8839336"><ele>357.0</ele><time>2026-04-07T14:57:21.044Z</time></trkpt><trkpt lat="43.5213829" lon="10.8838093"><ele>352.0</ele><time>2026-04-07T14:57:22.044Z</time></trkpt><trkpt lat="43.5213523" lon="10.8836396"><ele>347.0</ele><time>2026-04-07T14:57:23.044Z</time></trkpt><trkpt lat="43.5213251" lon="10.8835044"><ele>342.0</ele><time>2026-04-07T14:57:24.044Z</time></trkpt><trkpt lat="43.5212866" lon="10.8833985"><ele>344.8</ele><time>2026-04-07T14:57:25.044Z</time></trkpt><trkpt lat="43.5212171" lon="10.8833078"><ele>347.6</ele><time>2026-04-07T14:57:26.044Z</time></trkpt><trkpt lat="43.5211135" lon="10.8832317"><ele>350.40000000000003</ele><time>2026-04-07T14:57:27.043Z</time></trkpt><trkpt lat="43.5210113" lon="10.8831547"><ele>353.20000000000005</ele><time>2026-04-07T14:57:28.043Z</time></trkpt><trkpt lat="43.5209118" lon="10.8830833"><ele>356.0</ele><time>2026-04-07T14:57:29.044Z</time></trkpt><trkpt lat="43.5208171" lon="10.883071"><ele>356.0</ele><time>2026-04-07T14:57:30.044Z</time></trkpt><trkpt lat="43.5207229" lon="10.8830501"><ele>356.0</ele><time>2026-04-07T14:57:31.043Z</time></trkpt><trkpt lat="43.5206236" lon="10.8830859"><ele>356.0</ele><time>2026-04-07T14:57:32.044Z</time></trkpt><trkpt lat="43.5205349" lon="10.8831328"><ele>356.0</ele><time>2026-04-07T14:57:33.044Z</time></trkpt><trkpt lat="43.5204402" lon="10.8831476"><ele>356.0</ele><time>2026-04-07T14:57:34.044Z</time></trkpt><trkpt lat="43.5203491" lon="10.8831339"><ele>357.25</ele><time>2026-04-07T14:57:35.044Z</time></trkpt><trkpt lat="43.520234" lon="10.8830805"><ele>358.5</ele><time>2026-04-07T14:57:36.044Z</time></trkpt><trkpt lat="43.5201275" lon="10.8830062"><ele>359.75</ele><time>2026-04-07T14:57:37.044Z</time></trkpt><trkpt lat="43.5200251" lon="10.8829281"><ele>361.0</ele><time>2026-04-07T14:57:38.044Z</time></trkpt><trkpt lat="43.5199277" lon="10.8828591"><ele>361.0</ele><time>2026-04-07T14:57:39.044Z</time></trkpt><trkpt lat="43.5198266" lon="10.8827627"><ele>361.0</ele><time>2026-04-07T14:57:40.044Z</time></trkpt><trkpt lat="43.519764" lon="10.8826225"><ele>361.0</ele><time>2026-04-07T14:57:41.043Z</time></trkpt><trkpt lat="43.5196845" lon="10.8824922"><ele>361.0</ele><time>2026-04-07T14:57:42.044Z</time></trkpt><trkpt lat="43.5195995" lon="10.8823292"><ele>361.0</ele><time>2026-04-07T14:57:43.044Z</time></trkpt><trkpt lat="43.5195461" lon="10.8822093"><ele>361.0</ele><time>2026-04-07T14:57:44.043Z</time></trkpt><trkpt lat="43.5194963" lon="10.882058"><ele>361.0</ele><time>2026-04-07T14:57:45.044Z</time></trkpt><trkpt lat="43.5194772" lon="10.8819039"><ele>361.0</ele><time>2026-04-07T14:57:46.044Z</time></trkpt><trkpt lat="43.5194946" lon="10.8817577"><ele>361.0</ele><time>2026-04-07T14:57:47.044Z</time></trkpt><trkpt lat="43.5195305" lon="10.881592"><ele>355.75</ele><time>2026-04-07T14:57:48.044Z</time></trkpt><trkpt lat="43.5195706" lon="10.8814255"><ele>350.5</ele><time>2026-04-07T14:57:49.044Z</time></trkpt><trkpt lat="43.5195829" lon="10.8812553"><ele>345.25</ele><time>2026-04-07T14:57:50.043Z</time></trkpt><trkpt lat="43.5195878" lon="10.8810883"><ele>340.0</ele><time>2026-04-07T14:57:51.044Z</time></trkpt><trkpt lat="43.5195884" lon="10.8809317"><ele>338.2</ele><time>2026-04-07T14:57:52.043Z</time></trkpt><trkpt lat="43.5195773" lon="10.8808064"><ele>336.4</ele><time>2026-04-07T14:57:53.043Z</time></trkpt><trkpt lat="43.5195924" lon="10.8806867"><ele>334.6</ele><time>2026-04-07T14:57:54.044Z</time></trkpt><trkpt lat="43.519602" lon="10.8805032"><ele>332.8</ele><time>2026-04-07T14:57:55.044Z</time></trkpt><trkpt lat="43.519647" lon="10.8803776"><ele>331.0</ele><time>2026-04-07T14:57:56.044Z</time></trkpt><trkpt lat="43.5196697" lon="10.8802491"><ele>331.0</ele><time>2026-04-07T14:57:57.043Z</time></trkpt><trkpt lat="43.5196845" lon="10.8801209"><ele>331.0</ele><time>2026-04-07T14:57:58.044Z</time></trkpt><trkpt lat="43.5196532" lon="10.8800141"><ele>331.0</ele><time>2026-04-07T14:57:59.044Z</time></trkpt><trkpt lat="43.5196176" lon="10.8799273"><ele>331.0</ele><time>2026-04-07T14:58:00.044Z</time></trkpt><trkpt lat="43.5195922" lon="10.8798298"><ele>331.0</ele><time>2026-04-07T14:58:01.043Z</time></trkpt><trkpt lat="43.5195034" lon="10.8797574"><ele>331.0</ele><time>2026-04-07T14:58:02.044Z</time></trkpt><trkpt lat="43.5194299" lon="10.8797065"><ele>332.66666666666663</ele><time>2026-04-07T14:58:03.043Z</time></trkpt><trkpt lat="43.5193472" lon="10.8796751"><ele>334.3333333333333</ele><time>2026-04-07T14:58:04.043Z</time></trkpt><trkpt lat="43.5192538" lon="10.8796536"><ele>336.0</ele><time>2026-04-07T14:58:05.044Z</time></trkpt><trkpt lat="43.5191541" lon="10.8796332"><ele>337.6666666666667</ele><time>2026-04-07T14:58:06.044Z</time></trkpt><trkpt lat="43.519085" lon="10.8795944"><ele>339.33333333333337</ele><time>2026-04-07T14:58:07.044Z</time></trkpt><trkpt lat="43.5190361" lon="10.8795239"><ele>341.0</ele><time>2026-04-07T14:58:08.044Z</time></trkpt><trkpt lat="43.5190103" lon="10.8794345"><ele>341.0</ele><time>2026-04-07T14:58:09.044Z</time></trkpt><trkpt lat="43.5190088" lon="10.8793362"><ele>341.0</ele><time>2026-04-07T14:58:10.044Z</time></trkpt><trkpt lat="43.5190305" lon="10.8792405"><ele>341.0</ele><time>2026-04-07T14:58:11.043Z</time></trkpt><trkpt lat="43.519122" lon="10.8791791"><ele>341.0</ele><time>2026-04-07T14:58:12.044Z</time></trkpt><trkpt lat="43.5191903" lon="10.8791247"><ele>341.0</ele><time>2026-04-07T14:58:13.044Z</time></trkpt><trkpt lat="43.5193103" lon="10.8791044"><ele>341.0</ele><time>2026-04-07T14:58:14.044Z</time></trkpt><trkpt lat="43.519452" lon="10.879119"><ele>339.75</ele><time>2026-04-07T14:58:15.044Z</time></trkpt><trkpt lat="43.5195775" lon="10.8791352"><ele>338.5</ele><time>2026-04-07T14:58:16.044Z</time></trkpt><trkpt lat="43.5197062" lon="10.879186"><ele>337.25</ele><time>2026-04-07T14:58:17.044Z</time></trkpt><trkpt lat="43.5198026" lon="10.879204"><ele>336.0</ele><time>2026-04-07T14:58:18.043Z</time></trkpt><trkpt lat="43.5198953" lon="10.8792023"><ele>336.0</ele><time>2026-04-07T14:58:19.044Z</time></trkpt><trkpt lat="43.51999" lon="10.8791472"><ele>336.0</ele><time>2026-04-07T14:58:20.044Z</time></trkpt><trkpt lat="43.5200691" lon="10.8790451"><ele>336.0</ele><time>2026-04-07T14:58:21.044Z</time></trkpt><trkpt lat="43.5201565" lon="10.878939"><ele>336.0</ele><time>2026-04-07T14:58:22.044Z</time></trkpt><trkpt lat="43.5201944" lon="10.8788057"><ele>336.0</ele><time>2026-04-07T14:58:23.043Z</time></trkpt><trkpt lat="43.5202316" lon="10.8786822"><ele>336.0</ele><time>2026-04-07T14:58:24.044Z</time></trkpt><trkpt lat="43.5202412" lon="10.8785592"><ele>336.0</ele><time>2026-04-07T14:58:25.043Z</time></trkpt><trkpt lat="43.5202027" lon="10.8783909"><ele>336.0</ele><time>2026-04-07T14:58:26.043Z</time></trkpt><trkpt lat="43.5201644" lon="10.8782301"><ele>336.0</ele><time>2026-04-07T14:58:27.043Z</time></trkpt><trkpt lat="43.5200927" lon="10.8780398"><ele>338.0</ele><time>2026-04-07T14:58:28.044Z</time></trkpt><trkpt lat="43.520031" lon="10.8778594"><ele>340.0</ele><time>2026-04-07T14:58:29.044Z</time></trkpt><trkpt lat="43.5199792" lon="10.8776539"><ele>342.0</ele><time>2026-04-07T14:58:30.043Z</time></trkpt><trkpt lat="43.5199447" lon="10.8774414"><ele>342.0</ele><time>2026-04-07T14:58:31.044Z</time></trkpt><trkpt lat="43.5199086" lon="10.8772081"><ele>342.0</ele><time>2026-04-07T14:58:32.044Z</time></trkpt><trkpt lat="43.5198867" lon="10.8769694"><ele>342.0</ele><time>2026-04-07T14:58:33.044Z</time></trkpt><trkpt lat="43.5198764" lon="10.8767372"><ele>339.75</ele><time>2026-04-07T14:58:34.043Z</time></trkpt><trkpt lat="43.5198514" lon="10.8765424"><ele>337.5</ele><time>2026-04-07T14:58:35.044Z</time></trkpt><trkpt lat="43.5198416" lon="10.8763761"><ele>335.25</ele><time>2026-04-07T14:58:36.043Z</time></trkpt><trkpt lat="43.5197957" lon="10.8762572"><ele>333.0</ele><time>2026-04-07T14:58:37.044Z</time></trkpt><trkpt lat="43.5197226" lon="10.8761753"><ele>333.0</ele><time>2026-04-07T14:58:38.044Z</time></trkpt><trkpt lat="43.5196332" lon="10.8760692"><ele>333.0</ele><time>2026-04-07T14:58:39.043Z</time></trkpt><trkpt lat="43.5195401" lon="10.8759641"><ele>333.0</ele><time>2026-04-07T14:58:40.044Z</time></trkpt><trkpt lat="43.5194509" lon="10.8758476"><ele>333.0</ele><time>2026-04-07T14:58:41.044Z</time></trkpt><trkpt lat="43.519377" lon="10.8756885"><ele>336.0</ele><time>2026-04-07T14:58:42.043Z</time></trkpt><trkpt lat="43.5193187" lon="10.8755029"><ele>339.0</ele><time>2026-04-07T14:58:43.044Z</time></trkpt><trkpt lat="43.5192808" lon="10.8753205"><ele>342.0</ele><time>2026-04-07T14:58:44.043Z</time></trkpt><trkpt lat="43.5192339" lon="10.8751363"><ele>345.0</ele><time>2026-04-07T14:58:45.044Z</time></trkpt><trkpt lat="43.5191335" lon="10.875065"><ele>345.0</ele><time>2026-04-07T14:58:46.044Z</time></trkpt><trkpt lat="43.5190306" lon="10.8749848"><ele>345.0</ele><time>2026-04-07T14:58:47.044Z</time></trkpt><trkpt lat="43.5189185" lon="10.8749434"><ele>345.0</ele><time>2026-04-07T14:58:48.044Z</time></trkpt><trkpt lat="43.5187768" lon="10.874927"><ele>345.0</ele><time>2026-04-07T14:58:49.044Z</time></trkpt><trkpt lat="43.5186203" lon="10.8748934"><ele>346.75</ele><time>2026-04-07T14:58:50.043Z</time></trkpt><trkpt lat="43.5184774" lon="10.8748678"><ele>348.5</ele><time>2026-04-07T14:58:51.043Z</time></trkpt><trkpt lat="43.5183319" lon="10.8748451"><ele>350.25</ele><time>2026-04-07T14:58:52.043Z</time></trkpt><trkpt lat="43.5181993" lon="10.8748223"><ele>352.0</ele><time>2026-04-07T14:58:53.043Z</time></trkpt><trkpt lat="43.5180719" lon="10.8747874"><ele>352.0</ele><time>2026-04-07T14:58:54.043Z</time></trkpt><trkpt lat="43.5179383" lon="10.8747866"><ele>352.0</ele><time>2026-04-07T14:58:55.044Z</time></trkpt><trkpt lat="43.5178066" lon="10.8747805"><ele>352.0</ele><time>2026-04-07T14:58:56.043Z</time></trkpt><trkpt lat="43.5176879" lon="10.8747843"><ele>352.0</ele><time>2026-04-07T14:58:57.044Z</time></trkpt><trkpt lat="43.5175579" lon="10.8747879"><ele>352.40000000000003</ele><time>2026-04-07T14:58:58.044Z</time></trkpt><trkpt lat="43.5174365" lon="10.8748056"><ele>352.8</ele><time>2026-04-07T14:58:59.044Z</time></trkpt><trkpt lat="43.5173253" lon="10.874836"><ele>353.2</ele><time>2026-04-07T14:59:00.044Z</time></trkpt><trkpt lat="43.5172343" lon="10.874894"><ele>353.6</ele><time>2026-04-07T14:59:01.043Z</time></trkpt><trkpt lat="43.5171432" lon="10.8749736"><ele>354.0</ele><time>2026-04-07T14:59:02.044Z</time></trkpt><trkpt lat="43.5170795" lon="10.8751414"><ele>349.25</ele><time>2026-04-07T14:59:03.043Z</time></trkpt><trkpt lat="43.517018" lon="10.875304"><ele>344.5</ele><time>2026-04-07T14:59:04.043Z</time></trkpt><trkpt lat="43.5169781" lon="10.8754698"><ele>339.75</ele><time>2026-04-07T14:59:05.044Z</time></trkpt><trkpt lat="43.516927" lon="10.8756262"><ele>335.0</ele><time>2026-04-07T14:59:06.044Z</time></trkpt><trkpt lat="43.5168477" lon="10.8757674"><ele>335.0</ele><time>2026-04-07T14:59:07.043Z</time></trkpt><trkpt lat="43.5167392" lon="10.87587"><ele>335.0</ele><time>2026-04-07T14:59:08.044Z</time></trkpt><trkpt lat="43.5165935" lon="10.8759605"><ele>335.0</ele><time>2026-04-07T14:59:09.043Z</time></trkpt><trkpt lat="43.5164543" lon="10.8760476"><ele>335.0</ele><time>2026-04-07T14:59:10.043Z</time></trkpt><trkpt lat="43.5163312" lon="10.876112"><ele>334.4</ele><time>2026-04-07T14:59:11.043Z</time></trkpt><trkpt lat="43.5162243" lon="10.8761579"><ele>333.8</ele><time>2026-04-07T14:59:12.044Z</time></trkpt><trkpt lat="43.5161184" lon="10.8761832"><ele>333.20000000000005</ele><time>2026-04-07T14:59:13.044Z</time></trkpt><trkpt lat="43.5160243" lon="10.8762383"><ele>332.6</ele><time>2026-04-07T14:59:14.044Z</time></trkpt><trkpt lat="43.5159324" lon="10.8762705"><ele>332.0</ele><time>2026-04-07T14:59:15.044Z</time></trkpt><trkpt lat="43.5158406" lon="10.8762661"><ele>332.0</ele><time>2026-04-07T14:59:16.043Z</time></trkpt><trkpt lat="43.5157583" lon="10.8762452"><ele>332.0</ele><time>2026-04-07T14:59:17.044Z</time></trkpt><trkpt lat="43.5156796" lon="10.8761845"><ele>332.0</ele><time>2026-04-07T14:59:18.043Z</time></trkpt><trkpt lat="43.5156079" lon="10.8761093"><ele>332.0</ele><time>2026-04-07T14:59:19.044Z</time></trkpt><trkpt lat="43.5155268" lon="10.8760422"><ele>332.0</ele><time>2026-04-07T14:59:20.044Z</time></trkpt><trkpt lat="43.5154349" lon="10.8760002"><ele>330.6</ele><time>2026-04-07T14:59:21.044Z</time></trkpt><trkpt lat="43.515348" lon="10.8759864"><ele>329.20000000000005</ele><time>2026-04-07T14:59:22.043Z</time></trkpt><trkpt lat="43.5152546" lon="10.8759737"><ele>327.8</ele><time>2026-04-07T14:59:23.044Z</time></trkpt><trkpt lat="43.5151685" lon="10.875969"><ele>326.4</ele><time>2026-04-07T14:59:24.044Z</time></trkpt><trkpt lat="43.5150794" lon="10.8759653"><ele>325.0</ele><time>2026-04-07T14:59:25.044Z</time></trkpt><trkpt lat="43.5149791" lon="10.8759958"><ele>325.0</ele><time>2026-04-07T14:59:26.044Z</time></trkpt><trkpt lat="43.5148854" lon="10.876032"><ele>325.0</ele><time>2026-04-07T14:59:27.043Z</time></trkpt><trkpt lat="43.5147798" lon="10.8760659"><ele>325.0</ele><time>2026-04-07T14:59:28.044Z</time></trkpt><trkpt lat="43.5146828" lon="10.876107"><ele>325.0</ele><time>2026-04-07T14:59:29.044Z</time></trkpt><trkpt lat="43.5145922" lon="10.8761513"><ele>325.0</ele><time>2026-04-07T14:59:30.044Z</time></trkpt><trkpt lat="43.514514" lon="10.8761738"><ele>323.8333333333333</ele><time>2026-04-07T14:59:31.044Z</time></trkpt><trkpt lat="43.5144447" lon="10.8762094"><ele>322.66666666666663</ele><time>2026-04-07T14:59:32.043Z</time></trkpt><trkpt lat="43.5143867" lon="10.8762504"><ele>321.5</ele><time>2026-04-07T14:59:33.043Z</time></trkpt><trkpt lat="43.514324" lon="10.8762906"><ele>320.3333333333333</ele><time>2026-04-07T14:59:34.043Z</time></trkpt><trkpt lat="43.5142378" lon="10.8763422"><ele>319.1666666666667</ele><time>2026-04-07T14:59:36.044Z</time></trkpt><trkpt lat="43.5141664" lon="10.8763673"><ele>318.0</ele><time>2026-04-07T14:59:38.044Z</time></trkpt><trkpt lat="43.5140886" lon="10.8763584"><ele>318.0</ele><time>2026-04-07T14:59:41.044Z</time></trkpt><trkpt lat="43.5139905" lon="10.8762976"><ele>318.0</ele><time>2026-04-07T14:59:43.043Z</time></trkpt><trkpt lat="43.5138747" lon="10.87621"><ele>318.0</ele><time>2026-04-07T14:59:45.044Z</time></trkpt><trkpt lat="43.5138119" lon="10.8761586"><ele>318.0</ele><time>2026-04-07T14:59:46.044Z</time></trkpt><trkpt lat="43.5137536" lon="10.8760934"><ele>318.0</ele><time>2026-04-07T14:59:47.043Z</time></trkpt><trkpt lat="43.5136878" lon="10.8760311"><ele>316.6666666666667</ele><time>2026-04-07T14:59:48.044Z</time></trkpt><trkpt lat="43.5136122" lon="10.8759751"><ele>315.3333333333333</ele><time>2026-04-07T14:59:49.043Z</time></trkpt><trkpt lat="43.513539" lon="10.8759195"><ele>314.0</ele><time>2026-04-07T14:59:50.044Z</time></trkpt><trkpt lat="43.5134665" lon="10.8758556"><ele>312.66666666666663</ele><time>2026-04-07T14:59:51.044Z</time></trkpt><trkpt lat="43.5133945" lon="10.8757923"><ele>311.3333333333333</ele><time>2026-04-07T14:59:52.044Z</time></trkpt><trkpt lat="43.5133154" lon="10.8757274"><ele>310.0</ele><time>2026-04-07T14:59:53.044Z</time></trkpt><trkpt lat="43.5132395" lon="10.8756723"><ele>309.0</ele><time>2026-04-07T14:59:54.043Z</time></trkpt><trkpt lat="43.5131546" lon="10.8756197"><ele>308.0</ele><time>2026-04-07T14:59:55.044Z</time></trkpt><trkpt lat="43.5130809" lon="10.8755769"><ele>307.0</ele><time>2026-04-07T14:59:56.044Z</time></trkpt><trkpt lat="43.5130061" lon="10.8755285"><ele>306.0</ele><time>2026-04-07T14:59:57.043Z</time></trkpt><trkpt lat="43.5129318" lon="10.8754885"><ele>305.0</ele><time>2026-04-07T14:59:58.043Z</time></trkpt><trkpt lat="43.5128679" lon="10.8754708"><ele>304.0</ele><time>2026-04-07T14:59:59.044Z</time></trkpt><trkpt lat="43.5127802" lon="10.8755055"><ele>302.75</ele><time>2026-04-07T15:00:00.043Z</time></trkpt><trkpt lat="43.5126918" lon="10.8755724"><ele>301.5</ele><time>2026-04-07T15:00:01.044Z</time></trkpt><trkpt lat="43.5125793" lon="10.8757197"><ele>300.25</ele><time>2026-04-07T15:00:02.044Z</time></trkpt><trkpt lat="43.5124766" lon="10.8758543"><ele>299.0</ele><time>2026-04-07T15:00:03.044Z</time></trkpt><trkpt lat="43.5123707" lon="10.8759759"><ele>299.0</ele><time>2026-04-07T15:00:04.044Z</time></trkpt><trkpt lat="43.5122726" lon="10.8760953"><ele>299.0</ele><time>2026-04-07T15:00:05.044Z</time></trkpt><trkpt lat="43.5121594" lon="10.8762076"><ele>299.0</ele><time>2026-04-07T15:00:06.044Z</time></trkpt><trkpt lat="43.5120321" lon="10.87631"><ele>299.0</ele><time>2026-04-07T15:00:07.044Z</time></trkpt><trkpt lat="43.5119254" lon="10.8764309"><ele>299.25</ele><time>2026-04-07T15:00:08.043Z</time></trkpt><trkpt lat="43.511853" lon="10.8765584"><ele>299.5</ele><time>2026-04-07T15:00:09.044Z</time></trkpt><trkpt lat="43.5117665" lon="10.8766633"><ele>299.75</ele><time>2026-04-07T15:00:10.044Z</time></trkpt><trkpt lat="43.5116689" lon="10.8767515"><ele>300.0</ele><time>2026-04-07T15:00:11.044Z</time></trkpt><trkpt lat="43.5115497" lon="10.8768045"><ele>300.0</ele><time>2026-04-07T15:00:12.044Z</time></trkpt><trkpt lat="43.5114226" lon="10.8768581"><ele>300.0</ele><time>2026-04-07T15:00:13.044Z</time></trkpt><trkpt lat="43.5112657" lon="10.8768933"><ele>300.0</ele><time>2026-04-07T15:00:14.044Z</time></trkpt><trkpt lat="43.5111173" lon="10.8769171"><ele>300.0</ele><time>2026-04-07T15:00:15.043Z</time></trkpt><trkpt lat="43.510994" lon="10.8769263"><ele>300.75</ele><time>2026-04-07T15:00:16.043Z</time></trkpt><trkpt lat="43.5108691" lon="10.87689"><ele>301.5</ele><time>2026-04-07T15:00:17.044Z</time></trkpt><trkpt lat="43.5107436" lon="10.8768105"><ele>302.25</ele><time>2026-04-07T15:00:18.044Z</time></trkpt><trkpt lat="43.5106667" lon="10.8766732"><ele>303.0</ele><time>2026-04-07T15:00:19.043Z</time></trkpt><trkpt lat="43.5106003" lon="10.87653"><ele>301.4</ele><time>2026-04-07T15:00:20.044Z</time></trkpt><trkpt lat="43.5105665" lon="10.8763902"><ele>299.8</ele><time>2026-04-07T15:00:21.044Z</time></trkpt><trkpt lat="43.5105316" lon="10.8762697"><ele>298.2</ele><time>2026-04-07T15:00:22.044Z</time></trkpt><trkpt lat="43.5104695" lon="10.8761769"><ele>296.6</ele><time>2026-04-07T15:00:23.043Z</time></trkpt><trkpt lat="43.5103763" lon="10.8761301"><ele>295.0</ele><time>2026-04-07T15:00:24.043Z</time></trkpt><trkpt lat="43.5102642" lon="10.8761038"><ele>295.0</ele><time>2026-04-07T15:00:25.044Z</time></trkpt><trkpt lat="43.5101592" lon="10.876085"><ele>295.0</ele><time>2026-04-07T15:00:26.044Z</time></trkpt><trkpt lat="43.5100284" lon="10.8760802"><ele>295.0</ele><time>2026-04-07T15:00:27.043Z</time></trkpt><trkpt lat="43.5099035" lon="10.8760327"><ele>295.0</ele><time>2026-04-07T15:00:28.043Z</time></trkpt><trkpt lat="43.5097682" lon="10.8759376"><ele>293.66666666666663</ele><time>2026-04-07T15:00:29.044Z</time></trkpt><trkpt lat="43.5096282" lon="10.8758415"><ele>292.3333333333333</ele><time>2026-04-07T15:00:30.043Z</time></trkpt><trkpt lat="43.5094712" lon="10.8757358"><ele>291.0</ele><time>2026-04-07T15:00:31.044Z</time></trkpt><trkpt lat="43.5093362" lon="10.8756837"><ele>291.0</ele><time>2026-04-07T15:00:32.043Z</time></trkpt><trkpt lat="43.5092138" lon="10.8756133"><ele>291.0</ele><time>2026-04-07T15:00:33.043Z</time></trkpt><trkpt lat="43.509099" lon="10.8755218"><ele>291.0</ele><time>2026-04-07T15:00:34.044Z</time></trkpt><trkpt lat="43.5089667" lon="10.8753971"><ele>291.0</ele><time>2026-04-07T15:00:35.043Z</time></trkpt><trkpt lat="43.5088478" lon="10.8752537"><ele>289.75</ele><time>2026-04-07T15:00:36.044Z</time></trkpt><trkpt lat="43.5087401" lon="10.875125"><ele>288.5</ele><time>2026-04-07T15:00:37.044Z</time></trkpt><trkpt lat="43.5086468" lon="10.8750253"><ele>287.25</ele><time>2026-04-07T15:00:38.044Z</time></trkpt><trkpt lat="43.5085571" lon="10.8749659"><ele>286.0</ele><time>2026-04-07T15:00:39.044Z</time></trkpt><trkpt lat="43.5084411" lon="10.8749419"><ele>286.0</ele><time>2026-04-07T15:00:40.044Z</time></trkpt><trkpt lat="43.5083188" lon="10.8749555"><ele>286.0</ele><time>2026-04-07T15:00:41.044Z</time></trkpt><trkpt lat="43.5081785" lon="10.8750004"><ele>286.0</ele><time>2026-04-07T15:00:42.043Z</time></trkpt><trkpt lat="43.5080204" lon="10.875053"><ele>286.0</ele><time>2026-04-07T15:00:43.044Z</time></trkpt><trkpt lat="43.5078609" lon="10.8750855"><ele>288.0</ele><time>2026-04-07T15:00:44.044Z</time></trkpt><trkpt lat="43.5077111" lon="10.8751205"><ele>290.0</ele><time>2026-04-07T15:00:45.044Z</time></trkpt><trkpt lat="43.5075647" lon="10.875153"><ele>292.0</ele><time>2026-04-07T15:00:46.044Z</time></trkpt><trkpt lat="43.5074267" lon="10.8751906"><ele>294.0</ele><time>2026-04-07T15:00:47.044Z</time></trkpt><trkpt lat="43.507293" lon="10.8752239"><ele>294.0</ele><time>2026-04-07T15:00:48.044Z</time></trkpt><trkpt lat="43.5071756" lon="10.8752487"><ele>294.0</ele><time>2026-04-07T15:00:49.044Z</time></trkpt><trkpt lat="43.5070698" lon="10.8752664"><ele>294.0</ele><time>2026-04-07T15:00:50.043Z</time></trkpt><trkpt lat="43.5069733" lon="10.8752795"><ele>294.0</ele><time>2026-04-07T15:00:51.044Z</time></trkpt><trkpt lat="43.506856" lon="10.8752811"><ele>294.0</ele><time>2026-04-07T15:00:52.043Z</time></trkpt><trkpt lat="43.5067332" lon="10.8752876"><ele>294.0</ele><time>2026-04-07T15:00:53.043Z</time></trkpt><trkpt lat="43.5065969" lon="10.8752871"><ele>294.0</ele><time>2026-04-07T15:00:54.044Z</time></trkpt><trkpt lat="43.5064621" lon="10.8752576"><ele>294.0</ele><time>2026-04-07T15:00:55.043Z</time></trkpt><trkpt lat="43.5063384" lon="10.8751787"><ele>294.0</ele><time>2026-04-07T15:00:56.044Z</time></trkpt><trkpt lat="43.5062069" lon="10.8750738"><ele>290.0</ele><time>2026-04-07T15:00:57.043Z</time></trkpt><trkpt lat="43.5060862" lon="10.8749503"><ele>286.0</ele><time>2026-04-07T15:00:58.044Z</time></trkpt><trkpt lat="43.5059811" lon="10.874839"><ele>282.0</ele><time>2026-04-07T15:00:59.044Z</time></trkpt><trkpt lat="43.5058909" lon="10.8747417"><ele>278.0</ele><time>2026-04-07T15:01:00.044Z</time></trkpt><trkpt lat="43.5057896" lon="10.8746723"><ele>278.0</ele><time>2026-04-07T15:01:01.044Z</time></trkpt><trkpt lat="43.5057059" lon="10.8746187"><ele>278.0</ele><time>2026-04-07T15:01:02.044Z</time></trkpt><trkpt lat="43.5055966" lon="10.8746558"><ele>278.0</ele><time>2026-04-07T15:01:03.044Z</time></trkpt><trkpt lat="43.5054739" lon="10.8746526"><ele>278.0</ele><time>2026-04-07T15:01:04.043Z</time></trkpt><trkpt lat="43.5053429" lon="10.8746386"><ele>278.5</ele><time>2026-04-07T15:01:05.044Z</time></trkpt><trkpt lat="43.5052072" lon="10.8746136"><ele>279.0</ele><time>2026-04-07T15:01:06.044Z</time></trkpt><trkpt lat="43.5050733" lon="10.8745821"><ele>279.5</ele><time>2026-04-07T15:01:07.043Z</time></trkpt><trkpt lat="43.5049359" lon="10.8745405"><ele>280.0</ele><time>2026-04-07T15:01:08.044Z</time></trkpt><trkpt lat="43.5048141" lon="10.8745302"><ele>280.0</ele><time>2026-04-07T15:01:09.044Z</time></trkpt><trkpt lat="43.5046939" lon="10.8745091"><ele>280.0</ele><time>2026-04-07T15:01:10.044Z</time></trkpt><trkpt lat="43.5045897" lon="10.8744623"><ele>280.0</ele><time>2026-04-07T15:01:11.044Z</time></trkpt><trkpt lat="43.5044925" lon="10.8743879"><ele>280.0</ele><time>2026-04-07T15:01:12.043Z</time></trkpt><trkpt lat="43.5044469" lon="10.8742856"><ele>280.0</ele><time>2026-04-07T15:01:13.044Z</time></trkpt><trkpt lat="43.5044125" lon="10.8741455"><ele>280.0</ele><time>2026-04-07T15:01:14.044Z</time></trkpt><trkpt lat="43.5043936" lon="10.8739861"><ele>280.0</ele><time>2026-04-07T15:01:15.044Z</time></trkpt><trkpt lat="43.5043557" lon="10.8737952"><ele>280.0</ele><time>2026-04-07T15:01:16.044Z</time></trkpt><trkpt lat="43.5043472" lon="10.873582"><ele>280.0</ele><time>2026-04-07T15:01:17.044Z</time></trkpt><trkpt lat="43.504322" lon="10.8733345"><ele>278.25</ele><time>2026-04-07T15:01:18.044Z</time></trkpt><trkpt lat="43.5043094" lon="10.8731526"><ele>276.5</ele><time>2026-04-07T15:01:19.044Z</time></trkpt><trkpt lat="43.50429" lon="10.8729786"><ele>274.75</ele><time>2026-04-07T15:01:20.044Z</time></trkpt><trkpt lat="43.5042662" lon="10.8727996"><ele>273.0</ele><time>2026-04-07T15:01:21.044Z</time></trkpt><trkpt lat="43.5042246" lon="10.8726586"><ele>270.25</ele><time>2026-04-07T15:01:22.044Z</time></trkpt><trkpt lat="43.5041451" lon="10.8725178"><ele>267.5</ele><time>2026-04-07T15:01:23.044Z</time></trkpt><trkpt lat="43.5040553" lon="10.8724012"><ele>264.75</ele><time>2026-04-07T15:01:24.044Z</time></trkpt><trkpt lat="43.5039455" lon="10.872316"><ele>262.0</ele><time>2026-04-07T15:01:25.043Z</time></trkpt><trkpt lat="43.5038326" lon="10.8722344"><ele>264.0</ele><time>2026-04-07T15:01:26.044Z</time></trkpt><trkpt lat="43.503711" lon="10.8721653"><ele>266.0</ele><time>2026-04-07T15:01:27.044Z</time></trkpt><trkpt lat="43.5035812" lon="10.8720902"><ele>268.0</ele><time>2026-04-07T15:01:28.043Z</time></trkpt><trkpt lat="43.5034561" lon="10.87201"><ele>270.0</ele><time>2026-04-07T15:01:29.043Z</time></trkpt><trkpt lat="43.5033312" lon="10.8719288"><ele>270.0</ele><time>2026-04-07T15:01:30.044Z</time></trkpt><trkpt lat="43.5032151" lon="10.8717902"><ele>270.0</ele><time>2026-04-07T15:01:31.044Z</time></trkpt><trkpt lat="43.5031093" lon="10.8716136"><ele>270.0</ele><time>2026-04-07T15:01:32.044Z</time></trkpt><trkpt lat="43.5030161" lon="10.8714216"><ele>269.0</ele><time>2026-04-07T15:01:33.043Z</time></trkpt><trkpt lat="43.5029212" lon="10.8712427"><ele>268.0</ele><time>2026-04-07T15:01:34.043Z</time></trkpt><trkpt lat="43.5028228" lon="10.8710796"><ele>267.0</ele><time>2026-04-07T15:01:35.043Z</time></trkpt><trkpt lat="43.5027248" lon="10.8709332"><ele>264.75</ele><time>2026-04-07T15:01:36.043Z</time></trkpt><trkpt lat="43.5026308" lon="10.8708089"><ele>262.5</ele><time>2026-04-07T15:01:37.043Z</time></trkpt><trkpt lat="43.5025334" lon="10.8706879"><ele>260.25</ele><time>2026-04-07T15:01:38.044Z</time></trkpt><trkpt lat="43.5024124" lon="10.8706048"><ele>258.0</ele><time>2026-04-07T15:01:39.044Z</time></trkpt><trkpt lat="43.5022876" lon="10.8705494"><ele>258.0</ele><time>2026-04-07T15:01:40.044Z</time></trkpt><trkpt lat="43.5021675" lon="10.8705301"><ele>258.0</ele><time>2026-04-07T15:01:41.044Z</time></trkpt><trkpt lat="43.5020419" lon="10.8705689"><ele>258.0</ele><time>2026-04-07T15:01:42.044Z</time></trkpt><trkpt lat="43.5019267" lon="10.870637"><ele>258.0</ele><time>2026-04-07T15:01:43.044Z</time></trkpt><trkpt lat="43.5018066" lon="10.870752"><ele>257.5</ele><time>2026-04-07T15:01:44.044Z</time></trkpt><trkpt lat="43.5017067" lon="10.8708809"><ele>257.0</ele><time>2026-04-07T15:01:45.044Z</time></trkpt><trkpt lat="43.501592" lon="10.8709961"><ele>256.5</ele><time>2026-04-07T15:01:46.043Z</time></trkpt><trkpt lat="43.5014753" lon="10.8711032"><ele>256.0</ele><time>2026-04-07T15:01:47.043Z</time></trkpt><trkpt lat="43.5013613" lon="10.8710853"><ele>257.0</ele><time>2026-04-07T15:01:48.043Z</time></trkpt><trkpt lat="43.5012357" lon="10.8710723"><ele>258.0</ele><time>2026-04-07T15:01:49.044Z</time></trkpt><trkpt lat="43.5010815" lon="10.8710397"><ele>259.0</ele><time>2026-04-07T15:01:50.044Z</time></trkpt><trkpt lat="43.500916" lon="10.870996"><ele>259.0</ele><time>2026-04-07T15:01:51.043Z</time></trkpt><trkpt lat="43.5007606" lon="10.8709572"><ele>259.0</ele><time>2026-04-07T15:01:52.044Z</time></trkpt><trkpt lat="43.5006168" lon="10.8709307"><ele>259.0</ele><time>2026-04-07T15:01:53.044Z</time></trkpt><trkpt lat="43.500481" lon="10.8709201"><ele>259.0</ele><time>2026-04-07T15:01:54.044Z</time></trkpt><trkpt lat="43.5003576" lon="10.8709842"><ele>257.3333333333333</ele><time>2026-04-07T15:01:55.043Z</time></trkpt><trkpt lat="43.5002428" lon="10.8710915"><ele>255.66666666666669</ele><time>2026-04-07T15:01:56.044Z</time></trkpt><trkpt lat="43.5001098" lon="10.8712154"><ele>254.0</ele><time>2026-04-07T15:01:57.044Z</time></trkpt><trkpt lat="43.4999846" lon="10.8713372"><ele>254.00000000000003</ele><time>2026-04-07T15:01:58.044Z</time></trkpt><trkpt lat="43.4999195" lon="10.8714181"><ele>254.0</ele><time>2026-04-07T15:01:59.044Z</time></trkpt><trkpt lat="43.4998556" lon="10.8714974"><ele>254.0</ele><time>2026-04-07T15:02:00.043Z</time></trkpt><trkpt lat="43.499813" lon="10.8716013"><ele>254.0</ele><time>2026-04-07T15:02:01.043Z</time></trkpt><trkpt lat="43.4997953" lon="10.8717014"><ele>254.00000000000003</ele><time>2026-04-07T15:02:02.044Z</time></trkpt><trkpt lat="43.4997862" lon="10.8718007"><ele>254.0</ele><time>2026-04-07T15:02:03.044Z</time></trkpt><trkpt lat="43.4998109" lon="10.8719677"><ele>254.25</ele><time>2026-04-07T15:02:04.044Z</time></trkpt><trkpt lat="43.4998267" lon="10.8721421"><ele>254.5</ele><time>2026-04-07T15:02:05.044Z</time></trkpt><trkpt lat="43.4998494" lon="10.8723362"><ele>254.75</ele><time>2026-04-07T15:02:06.044Z</time></trkpt><trkpt lat="43.4998825" lon="10.8725248"><ele>255.0</ele><time>2026-04-07T15:02:07.044Z</time></trkpt><trkpt lat="43.4999331" lon="10.8727042"><ele>255.0</ele><time>2026-04-07T15:02:08.044Z</time></trkpt><trkpt lat="43.4999892" lon="10.8728797"><ele>255.0</ele><time>2026-04-07T15:02:09.044Z</time></trkpt><trkpt lat="43.500046" lon="10.8730447"><ele>255.0</ele><time>2026-04-07T15:02:10.044Z</time></trkpt><trkpt lat="43.5000789" lon="10.8731891"><ele>255.0</ele><time>2026-04-07T15:02:11.044Z</time></trkpt><trkpt lat="43.5000845" lon="10.8733178"><ele>255.0</ele><time>2026-04-07T15:02:12.044Z</time></trkpt><trkpt lat="43.5000632" lon="10.8734314"><ele>255.0</ele><time>2026-04-07T15:02:13.044Z</time></trkpt><trkpt lat="43.5000173" lon="10.8735036"><ele>255.0</ele><time>2026-04-07T15:02:14.043Z</time></trkpt><trkpt lat="43.4999638" lon="10.8735536"><ele>255.0</ele><time>2026-04-07T15:02:15.044Z</time></trkpt><trkpt lat="43.4998902" lon="10.8735596"><ele>255.0</ele><time>2026-04-07T15:02:16.043Z</time></trkpt><trkpt lat="43.4997959" lon="10.8735069"><ele>255.0</ele><time>2026-04-07T15:02:17.044Z</time></trkpt><trkpt lat="43.4996944" lon="10.8734558"><ele>255.0</ele><time>2026-04-07T15:02:18.044Z</time></trkpt><trkpt lat="43.4995858" lon="10.873402"><ele>255.0</ele><time>2026-04-07T15:02:19.044Z</time></trkpt><trkpt lat="43.4994897" lon="10.8733629"><ele>255.0</ele><time>2026-04-07T15:02:20.044Z</time></trkpt><trkpt lat="43.4993971" lon="10.8733528"><ele>255.0</ele><time>2026-04-07T15:02:21.044Z</time></trkpt><trkpt lat="43.4992974" lon="10.8733833"><ele>255.0</ele><time>2026-04-07T15:02:22.044Z</time></trkpt><trkpt lat="43.499197" lon="10.8734582"><ele>255.75</ele><time>2026-04-07T15:02:23.044Z</time></trkpt><trkpt lat="43.4991032" lon="10.8735575"><ele>256.5</ele><time>2026-04-07T15:02:24.044Z</time></trkpt><trkpt lat="43.4989996" lon="10.8736574"><ele>257.25</ele><time>2026-04-07T15:02:25.044Z</time></trkpt><trkpt lat="43.4989058" lon="10.8737632"><ele>258.0</ele><time>2026-04-07T15:02:26.043Z</time></trkpt><trkpt lat="43.4988133" lon="10.8738267"><ele>257.8</ele><time>2026-04-07T15:02:27.044Z</time></trkpt><trkpt lat="43.4987229" lon="10.8738517"><ele>257.6</ele><time>2026-04-07T15:02:28.044Z</time></trkpt><trkpt lat="43.4986404" lon="10.8738336"><ele>257.4</ele><time>2026-04-07T15:02:29.044Z</time></trkpt><trkpt lat="43.4985473" lon="10.8737709"><ele>257.2</ele><time>2026-04-07T15:02:30.043Z</time></trkpt><trkpt lat="43.4984523" lon="10.8736659"><ele>257.0</ele><time>2026-04-07T15:02:31.044Z</time></trkpt><trkpt lat="43.4983463" lon="10.873529"><ele>256.0</ele><time>2026-04-07T15:02:32.043Z</time></trkpt><trkpt lat="43.4982339" lon="10.8734042"><ele>255.0</ele><time>2026-04-07T15:02:33.044Z</time></trkpt><trkpt lat="43.4981173" lon="10.8732858"><ele>254.0</ele><time>2026-04-07T15:02:34.043Z</time></trkpt><trkpt lat="43.4980118" lon="10.8731554"><ele>253.0</ele><time>2026-04-07T15:02:35.044Z</time></trkpt><trkpt lat="43.497909" lon="10.8730117"><ele>253.0</ele><time>2026-04-07T15:02:36.044Z</time></trkpt><trkpt lat="43.497821" lon="10.872832"><ele>253.0</ele><time>2026-04-07T15:02:37.044Z</time></trkpt><trkpt lat="43.4977375" lon="10.8726403"><ele>253.0</ele><time>2026-04-07T15:02:38.044Z</time></trkpt><trkpt lat="43.4976759" lon="10.8724593"><ele>252.25</ele><time>2026-04-07T15:02:39.044Z</time></trkpt><trkpt lat="43.4976223" lon="10.8722743"><ele>251.5</ele><time>2026-04-07T15:02:40.044Z</time></trkpt><trkpt lat="43.4975725" lon="10.8721075"><ele>250.75</ele><time>2026-04-07T15:02:41.044Z</time></trkpt><trkpt lat="43.4975079" lon="10.8719813"><ele>250.0</ele><time>2026-04-07T15:02:42.044Z</time></trkpt><trkpt lat="43.4974288" lon="10.8718956"><ele>250.0</ele><time>2026-04-07T15:02:43.043Z</time></trkpt><trkpt lat="43.4973457" lon="10.8718218"><ele>250.0</ele><time>2026-04-07T15:02:44.043Z</time></trkpt><trkpt lat="43.4972334" lon="10.8717945"><ele>250.0</ele><time>2026-04-07T15:02:45.044Z</time></trkpt><trkpt lat="43.4971036" lon="10.8718174"><ele>250.0</ele><time>2026-04-07T15:02:46.043Z</time></trkpt><trkpt lat="43.4969505" lon="10.8718533"><ele>249.0</ele><time>2026-04-07T15:02:47.043Z</time></trkpt><trkpt lat="43.4967759" lon="10.8718821"><ele>248.0</ele><time>2026-04-07T15:02:48.044Z</time></trkpt><trkpt lat="43.4966048" lon="10.8719131"><ele>247.0</ele><time>2026-04-07T15:02:49.044Z</time></trkpt><trkpt lat="43.496445" lon="10.8719332"><ele>247.0</ele><time>2026-04-07T15:02:50.043Z</time></trkpt><trkpt lat="43.49628" lon="10.8719611"><ele>247.0</ele><time>2026-04-07T15:02:51.043Z</time></trkpt><trkpt lat="43.4961212" lon="10.872003"><ele>247.0</ele><time>2026-04-07T15:02:52.044Z</time></trkpt><trkpt lat="43.4959667" lon="10.8720401"><ele>244.66666666666666</ele><time>2026-04-07T15:02:53.044Z</time></trkpt><trkpt lat="43.4957998" lon="10.8720731"><ele>242.33333333333331</ele><time>2026-04-07T15:02:54.044Z</time></trkpt><trkpt lat="43.495646" lon="10.8720925"><ele>240.0</ele><time>2026-04-07T15:02:55.044Z</time></trkpt><trkpt lat="43.4954967" lon="10.872116"><ele>239.25</ele><time>2026-04-07T15:02:56.044Z</time></trkpt><trkpt lat="43.4953476" lon="10.8721094"><ele>238.5</ele><time>2026-04-07T15:02:57.044Z</time></trkpt><trkpt lat="43.4952296" lon="10.8720901"><ele>237.75</ele><time>2026-04-07T15:02:58.044Z</time></trkpt><trkpt lat="43.4951242" lon="10.8720669"><ele>237.0</ele><time>2026-04-07T15:02:59.044Z</time></trkpt><trkpt lat="43.4950175" lon="10.8720301"><ele>237.0</ele><time>2026-04-07T15:03:00.044Z</time></trkpt><trkpt lat="43.4948982" lon="10.8719789"><ele>237.0</ele><time>2026-04-07T15:03:01.044Z</time></trkpt><trkpt lat="43.4947652" lon="10.8719053"><ele>237.0</ele><time>2026-04-07T15:03:02.043Z</time></trkpt><trkpt lat="43.4946267" lon="10.8718303"><ele>237.0</ele><time>2026-04-07T15:03:03.044Z</time></trkpt><trkpt lat="43.4944983" lon="10.8717598"><ele>239.25</ele><time>2026-04-07T15:03:04.044Z</time></trkpt><trkpt lat="43.4943851" lon="10.8716577"><ele>241.5</ele><time>2026-04-07T15:03:05.044Z</time></trkpt><trkpt lat="43.4942884" lon="10.8715257"><ele>243.75</ele><time>2026-04-07T15:03:06.044Z</time></trkpt><trkpt lat="43.4941979" lon="10.8713655"><ele>246.0</ele><time>2026-04-07T15:03:07.044Z</time></trkpt><trkpt lat="43.4941148" lon="10.8711971"><ele>246.0</ele><time>2026-04-07T15:03:08.044Z</time></trkpt><trkpt lat="43.4940324" lon="10.87103"><ele>246.0</ele><time>2026-04-07T15:03:09.044Z</time></trkpt><trkpt lat="43.4939556" lon="10.8708679"><ele>246.0</ele><time>2026-04-07T15:03:10.043Z</time></trkpt><trkpt lat="43.4938867" lon="10.8707062"><ele>246.0</ele><time>2026-04-07T15:03:11.043Z</time></trkpt><trkpt lat="43.4938182" lon="10.8705505"><ele>245.0</ele><time>2026-04-07T15:03:12.044Z</time></trkpt><trkpt lat="43.4937561" lon="10.8704028"><ele>244.0</ele><time>2026-04-07T15:03:13.044Z</time></trkpt><trkpt lat="43.4936903" lon="10.8702673"><ele>243.0</ele><time>2026-04-07T15:03:14.043Z</time></trkpt><trkpt lat="43.493632" lon="10.8701379"><ele>242.0</ele><time>2026-04-07T15:03:15.044Z</time></trkpt><trkpt lat="43.4935546" lon="10.8700251"><ele>242.0</ele><time>2026-04-07T15:03:16.044Z</time></trkpt><trkpt lat="43.4934612" lon="10.8699053"><ele>242.0</ele><time>2026-04-07T15:03:17.044Z</time></trkpt><trkpt lat="43.4933463" lon="10.8697909"><ele>242.0</ele><time>2026-04-07T15:03:18.044Z</time></trkpt><trkpt lat="43.4932183" lon="10.8696802"><ele>242.0</ele><time>2026-04-07T15:03:19.044Z</time></trkpt><trkpt lat="43.4930975" lon="10.8695728"><ele>242.0</ele><time>2026-04-07T15:03:20.044Z</time></trkpt><trkpt lat="43.4929796" lon="10.8694774"><ele>242.0</ele><time>2026-04-07T15:03:21.043Z</time></trkpt><trkpt lat="43.4928587" lon="10.8693964"><ele>242.0</ele><time>2026-04-07T15:03:22.044Z</time></trkpt><trkpt lat="43.4927414" lon="10.8693257"><ele>242.0</ele><time>2026-04-07T15:03:23.044Z</time></trkpt><trkpt lat="43.4926327" lon="10.8692493"><ele>240.6</ele><time>2026-04-07T15:03:24.044Z</time></trkpt><trkpt lat="43.4925346" lon="10.869158"><ele>239.2</ele><time>2026-04-07T15:03:25.044Z</time></trkpt><trkpt lat="43.4924562" lon="10.8690564"><ele>237.8</ele><time>2026-04-07T15:03:26.043Z</time></trkpt><trkpt lat="43.4923979" lon="10.8689389"><ele>236.4</ele><time>2026-04-07T15:03:27.044Z</time></trkpt><trkpt lat="43.4923724" lon="10.8688086"><ele>235.0</ele><time>2026-04-07T15:03:28.044Z</time></trkpt><trkpt lat="43.4923867" lon="10.8686604"><ele>235.0</ele><time>2026-04-07T15:03:29.044Z</time></trkpt><trkpt lat="43.492429" lon="10.8685023"><ele>235.0</ele><time>2026-04-07T15:03:30.044Z</time></trkpt><trkpt lat="43.492508" lon="10.8683395"><ele>235.0</ele><time>2026-04-07T15:03:31.043Z</time></trkpt><trkpt lat="43.4925861" lon="10.8681758"><ele>235.0</ele><time>2026-04-07T15:03:32.044Z</time></trkpt><trkpt lat="43.4926465" lon="10.8680218"><ele>233.5</ele><time>2026-04-07T15:03:33.044Z</time></trkpt><trkpt lat="43.49271" lon="10.8678638"><ele>232.0</ele><time>2026-04-07T15:03:34.044Z</time></trkpt><trkpt lat="43.4927611" lon="10.8676978"><ele>230.5</ele><time>2026-04-07T15:03:35.044Z</time></trkpt><trkpt lat="43.4927908" lon="10.8675383"><ele>229.0</ele><time>2026-04-07T15:03:36.043Z</time></trkpt><trkpt lat="43.4927944" lon="10.8673494"><ele>227.5</ele><time>2026-04-07T15:03:37.043Z</time></trkpt><trkpt lat="43.4927646" lon="10.8671508"><ele>226.0</ele><time>2026-04-07T15:03:38.044Z</time></trkpt><trkpt lat="43.4927101" lon="10.8669634"><ele>224.5</ele><time>2026-04-07T15:03:39.044Z</time></trkpt><trkpt lat="43.4926457" lon="10.8667744"><ele>223.0</ele><time>2026-04-07T15:03:40.043Z</time></trkpt><trkpt lat="43.4925877" lon="10.8665874"><ele>219.0</ele><time>2026-04-07T15:03:41.043Z</time></trkpt><trkpt lat="43.4925373" lon="10.8663987"><ele>219.0</ele><time>2026-04-07T15:03:42.044Z</time></trkpt><trkpt lat="43.4924832" lon="10.8662243"><ele>219.0</ele><time>2026-04-07T15:03:43.044Z</time></trkpt><trkpt lat="43.4924087" lon="10.8660585"><ele>219.0</ele><time>2026-04-07T15:03:44.043Z</time></trkpt></trkseg></trk></gpx>